<?xml version='1.0' encoding='UTF-8'?><gpx version="1.1" creator="JPX - https://github.com/jenetics/jpx" xmlns="http://www.topografix.com/GPX/1/1"><trk><trkseg><trkpt lat="36.79979611389436" lon="-108.12566514328671"><ele>1746.0</ele><time>2026-04-05T19:48:44.999Z</time></trkpt><trkpt lat="36.79973288773456" lon="-108.12568341819656"><ele>1746.0</ele><time>2026-04-05T19:52:00Z</time></trkpt><trkpt lat="36.799708482700204" lon="-108.12575927835739"><ele>1746.0</ele><time>2026-04-05T19:54:25Z</time></trkpt><trkpt lat="36.79976012012626" lon="-108.12589737681891"><ele>1746.0</ele><time>2026-04-05T19:54:27Z</time></trkpt><trkpt lat="36.79977634942041" lon="-108.12598422016372"><ele>1746.0</ele><time>2026-04-05T19:54:28Z</time></trkpt><trkpt lat="36.799776813973466" lon="-108.12608140829404"><ele>1746.0</ele><time>2026-04-05T19:54:29Z</time></trkpt><trkpt lat="36.79975552501988" lon="-108.12619704779378"><ele>1746.1666666666667</ele><time>2026-04-05T19:54:31Z</time></trkpt><trkpt lat="36.7997417313874" lon="-108.1263259094579"><ele>1746.3333333333335</ele><time>2026-04-05T19:54:33Z</time></trkpt><trkpt lat="36.799672997523174" lon="-108.1263908826107"><ele>1746.5</ele><time>2026-04-05T19:54:35Z</time></trkpt><trkpt lat="36.79956361113081" lon="-108.12641659170511"><ele>1746.6666666666667</ele><time>2026-04-05T19:54:37Z</time></trkpt><trkpt lat="36.799499262060074" lon="-108.12642979237899"><ele>1746.8333333333335</ele><time>2026-04-05T19:54:38.001Z</time></trkpt><trkpt lat="36.79943245587294" lon="-108.12643682901309"><ele>1747.0</ele><time>2026-04-05T19:54:39.001Z</time></trkpt><trkpt lat="36.79934427620764" lon="-108.12644290553372"><ele>1746.0</ele><time>2026-04-05T19:54:40.001Z</time></trkpt><trkpt lat="36.799241501584966" lon="-108.12644706443392"><ele>1744.9999999999998</ele><time>2026-04-05T19:54:41.001Z</time></trkpt><trkpt lat="36.79913612164599" lon="-108.12644495432963"><ele>1743.9999999999998</ele><time>2026-04-05T19:54:42.001Z</time></trkpt><trkpt lat="36.799022526860725" lon="-108.12643893578608"><ele>1743.0</ele><time>2026-04-05T19:54:43.001Z</time></trkpt><trkpt lat="36.798899345401686" lon="-108.12643659706374"><ele>1742.0</ele><time>2026-04-05T19:54:44.001Z</time></trkpt><trkpt lat="36.79877565473793" lon="-108.12644540757273"><ele>1741.9999999999998</ele><time>2026-04-05T19:54:45.001Z</time></trkpt><trkpt lat="36.79867751609892" lon="-108.12645492950931"><ele>1742.0</ele><time>2026-04-05T19:54:46.001Z</time></trkpt><trkpt lat="36.798600712216235" lon="-108.12646077032709"><ele>1742.0</ele><time>2026-04-05T19:54:47.001Z</time></trkpt><trkpt lat="36.79853123315648" lon="-108.12646323783228"><ele>1742.0</ele><time>2026-04-05T19:54:48.001Z</time></trkpt><trkpt lat="36.79845758218362" lon="-108.12646435107348"><ele>1741.9999999999998</ele><time>2026-04-05T19:54:49.001Z</time></trkpt><trkpt lat="36.79838945091429" lon="-108.12646495118466"><ele>1742.0</ele><time>2026-04-05T19:54:50.001Z</time></trkpt><trkpt lat="36.79827893123973" lon="-108.1264848370469"><ele>1743.5</ele><time>2026-04-05T19:54:52Z</time></trkpt><trkpt lat="36.7982438847335" lon="-108.12670466218012"><ele>1745.0</ele><time>2026-04-05T19:54:54Z</time></trkpt><trkpt lat="36.79824498767867" lon="-108.12683325587133"><ele>1746.5</ele><time>2026-04-05T19:54:55Z</time></trkpt><trkpt lat="36.79824295630544" lon="-108.12697186385076"><ele>1748.0</ele><time>2026-04-05T19:54:56Z</time></trkpt><trkpt lat="36.798245905492564" lon="-108.12712405153188"><ele>1748.0</ele><time>2026-04-05T19:54:57Z</time></trkpt><trkpt lat="36.79824819006896" lon="-108.12729274473851"><ele>1748.0</ele><time>2026-04-05T19:54:58Z</time></trkpt><trkpt lat="36.798248940656826" lon="-108.1274495872391"><ele>1748.0</ele><time>2026-04-05T19:54:59Z</time></trkpt><trkpt lat="36.798255221858255" lon="-108.12760494587282"><ele>1748.0</ele><time>2026-04-05T19:55:00Z</time></trkpt><trkpt lat="36.7982718647682" lon="-108.12777006195759"><ele>1749.25</ele><time>2026-04-05T19:55:01Z</time></trkpt><trkpt lat="36.79829794845765" lon="-108.12794189472116"><ele>1750.5</ele><time>2026-04-05T19:55:02Z</time></trkpt><trkpt lat="36.798341167485674" lon="-108.12811806104436"><ele>1751.75</ele><time>2026-04-05T19:55:03Z</time></trkpt><trkpt lat="36.79839784218294" lon="-108.12828451255689"><ele>1753.0</ele><time>2026-04-05T19:55:04Z</time></trkpt><trkpt lat="36.79845741713711" lon="-108.12841965529172"><ele>1754.0</ele><time>2026-04-05T19:55:05Z</time></trkpt><trkpt lat="36.79852653252417" lon="-108.12854568985529"><ele>1755.0</ele><time>2026-04-05T19:55:06Z</time></trkpt><trkpt lat="36.79860481250846" lon="-108.12867757241084"><ele>1756.0</ele><time>2026-04-05T19:55:07Z</time></trkpt><trkpt lat="36.79867582476842" lon="-108.12879302415884"><ele>1757.0</ele><time>2026-04-05T19:55:08Z</time></trkpt><trkpt lat="36.798754064490325" lon="-108.12891345878337"><ele>1757.0</ele><time>2026-04-05T19:55:09Z</time></trkpt><trkpt lat="36.79885520203986" lon="-108.12904371978819"><ele>1757.0</ele><time>2026-04-05T19:55:10Z</time></trkpt><trkpt lat="36.798979362113734" lon="-108.1291749674679"><ele>1757.0</ele><time>2026-04-05T19:55:11Z</time></trkpt><trkpt lat="36.79912188223783" lon="-108.12929056966232"><ele>1756.5</ele><time>2026-04-05T19:55:12Z</time></trkpt><trkpt lat="36.79925257668081" lon="-108.1293775590081"><ele>1756.0</ele><time>2026-04-05T19:55:13Z</time></trkpt><trkpt lat="36.799367964191944" lon="-108.12944841647077"><ele>1755.5</ele><time>2026-04-05T19:55:14Z</time></trkpt><trkpt lat="36.7994768771435" lon="-108.12949992108788"><ele>1755.0</ele><time>2026-04-05T19:55:15Z</time></trkpt><trkpt lat="36.79959690296503" lon="-108.12952768961068"><ele>1755.0</ele><time>2026-04-05T19:55:16Z</time></trkpt><trkpt lat="36.79973567802297" lon="-108.12955089995154"><ele>1755.0</ele><time>2026-04-05T19:55:17Z</time></trkpt><trkpt lat="36.79988427193903" lon="-108.12958135644297"><ele>1755.0</ele><time>2026-04-05T19:55:18Z</time></trkpt><trkpt lat="36.80004050836988" lon="-108.12962187131276"><ele>1756.0</ele><time>2026-04-05T19:55:19Z</time></trkpt><trkpt lat="36.80020053907935" lon="-108.12966765273667"><ele>1757.0</ele><time>2026-04-05T19:55:20Z</time></trkpt><trkpt lat="36.800365887561576" lon="-108.12971837178347"><ele>1758.0</ele><time>2026-04-05T19:55:21Z</time></trkpt><trkpt lat="36.800520802222884" lon="-108.12978066114357"><ele>1758.0</ele><time>2026-04-05T19:55:22Z</time></trkpt><trkpt lat="36.80064970946614" lon="-108.12985968095012"><ele>1758.0</ele><time>2026-04-05T19:55:23Z</time></trkpt><trkpt lat="36.80077354194055" lon="-108.12996612852264"><ele>1758.0</ele><time>2026-04-05T19:55:24Z</time></trkpt><trkpt lat="36.80089417509682" lon="-108.13009375622201"><ele>1757.75</ele><time>2026-04-05T19:55:25Z</time></trkpt><trkpt lat="36.800995125673296" lon="-108.1302265660463"><ele>1757.5</ele><time>2026-04-05T19:55:26Z</time></trkpt><trkpt lat="36.80107871417028" lon="-108.13036755408022"><ele>1757.25</ele><time>2026-04-05T19:55:27Z</time></trkpt><trkpt lat="36.801152262437924" lon="-108.13051892272777"><ele>1757.0</ele><time>2026-04-05T19:55:28Z</time></trkpt><trkpt lat="36.80121598086798" lon="-108.13067721387117"><ele>1759.3333333333333</ele><time>2026-04-05T19:55:29Z</time></trkpt><trkpt lat="36.801266639183375" lon="-108.13084828242077"><ele>1761.6666666666665</ele><time>2026-04-05T19:55:30Z</time></trkpt><trkpt lat="36.80130115451055" lon="-108.13103359991662"><ele>1764.0</ele><time>2026-04-05T19:55:31Z</time></trkpt><trkpt lat="36.80131386987783" lon="-108.1312283932156"><ele>1764.0</ele><time>2026-04-05T19:55:32Z</time></trkpt><trkpt lat="36.80131021062184" lon="-108.1314239069639"><ele>1764.0</ele><time>2026-04-05T19:55:33Z</time></trkpt><trkpt lat="36.80131192051251" lon="-108.13162367844103"><ele>1764.0</ele><time>2026-04-05T19:55:34Z</time></trkpt><trkpt lat="36.80132469011257" lon="-108.13183056558557"><ele>1764.75</ele><time>2026-04-05T19:55:35Z</time></trkpt><trkpt lat="36.80134592393572" lon="-108.13200878078007"><ele>1765.5</ele><time>2026-04-05T19:55:36Z</time></trkpt><trkpt lat="36.801371862014506" lon="-108.13215963964007"><ele>1766.25</ele><time>2026-04-05T19:55:37Z</time></trkpt><trkpt lat="36.80140038952365" lon="-108.1323103164253"><ele>1767.0</ele><time>2026-04-05T19:55:38Z</time></trkpt><trkpt lat="36.80144370427748" lon="-108.13247089148038"><ele>1767.75</ele><time>2026-04-05T19:55:39Z</time></trkpt><trkpt lat="36.801510538461" lon="-108.1326401730615"><ele>1768.5</ele><time>2026-04-05T19:55:40Z</time></trkpt><trkpt lat="36.801587607901105" lon="-108.13280053697173"><ele>1769.25</ele><time>2026-04-05T19:55:41Z</time></trkpt><trkpt lat="36.80166749512368" lon="-108.13294742478308"><ele>1770.0</ele><time>2026-04-05T19:55:42Z</time></trkpt><trkpt lat="36.801736187170285" lon="-108.13305830950438"><ele>1770.0</ele><time>2026-04-05T19:55:43Z</time></trkpt><trkpt lat="36.801796418334035" lon="-108.1331313294786"><ele>1770.0</ele><time>2026-04-05T19:55:44Z</time></trkpt><trkpt lat="36.80184470905239" lon="-108.13318570515784"><ele>1770.0</ele><time>2026-04-05T19:55:45Z</time></trkpt><trkpt lat="36.80199642151714" lon="-108.13302922989585"><ele>1770.0</ele><time>2026-04-05T19:55:47Z</time></trkpt><trkpt lat="36.80208892914699" lon="-108.13295870407399"><ele>1771.0</ele><time>2026-04-05T19:55:48Z</time></trkpt><trkpt lat="36.80218436240326" lon="-108.1328891020307"><ele>1772.0</ele><time>2026-04-05T19:55:49Z</time></trkpt><trkpt lat="36.802289025481265" lon="-108.13282916964961"><ele>1773.0</ele><time>2026-04-05T19:55:50Z</time></trkpt><trkpt lat="36.802409523743236" lon="-108.13280420336115"><ele>1774.0</ele><time>2026-04-05T19:55:51Z</time></trkpt><trkpt lat="36.80253479376597" lon="-108.13279519510026"><ele>1774.5</ele><time>2026-04-05T19:55:52Z</time></trkpt><trkpt lat="36.802671135352504" lon="-108.13279701384376"><ele>1775.0</ele><time>2026-04-05T19:55:53Z</time></trkpt><trkpt lat="36.802813165855845" lon="-108.13279641604161"><ele>1775.5</ele><time>2026-04-05T19:55:54Z</time></trkpt><trkpt lat="36.80296066843384" lon="-108.13279138197522"><ele>1776.0</ele><time>2026-04-05T19:55:55Z</time></trkpt><trkpt lat="36.80310700930214" lon="-108.13278727807572"><ele>1776.0</ele><time>2026-04-05T19:55:56Z</time></trkpt><trkpt lat="36.803254751670735" lon="-108.13278306241558"><ele>1776.0</ele><time>2026-04-05T19:55:57Z</time></trkpt><trkpt lat="36.8033850034204" lon="-108.13277510221424"><ele>1776.0</ele><time>2026-04-05T19:55:58Z</time></trkpt><trkpt lat="36.80351784375225" lon="-108.13277169548867"><ele>1776.0</ele><time>2026-04-05T19:55:59Z</time></trkpt><trkpt lat="36.80366356912591" lon="-108.13277325526109"><ele>1777.6666666666665</ele><time>2026-04-05T19:56:00Z</time></trkpt><trkpt lat="36.803817846139594" lon="-108.13276790861583"><ele>1779.3333333333333</ele><time>2026-04-05T19:56:01Z</time></trkpt><trkpt lat="36.803978525721746" lon="-108.13276141315168"><ele>1781.0</ele><time>2026-04-05T19:56:02Z</time></trkpt><trkpt lat="36.80414192650034" lon="-108.1327542781356"><ele>1781.0</ele><time>2026-04-05T19:56:03Z</time></trkpt><trkpt lat="36.80430605126436" lon="-108.13274895209086"><ele>1781.0</ele><time>2026-04-05T19:56:04Z</time></trkpt><trkpt lat="36.80446874268126" lon="-108.13274675981266"><ele>1781.0</ele><time>2026-04-05T19:56:05Z</time></trkpt><trkpt lat="36.804613484950266" lon="-108.13274578584891"><ele>1781.1999999999998</ele><time>2026-04-05T19:56:06Z</time></trkpt><trkpt lat="36.80473347367425" lon="-108.13274351695499"><ele>1781.3999999999999</ele><time>2026-04-05T19:56:07Z</time></trkpt><trkpt lat="36.804838677156305" lon="-108.13273656414162"><ele>1781.6</ele><time>2026-04-05T19:56:08Z</time></trkpt><trkpt lat="36.80492120028717" lon="-108.1327018450442"><ele>1781.8</ele><time>2026-04-05T19:56:09Z</time></trkpt><trkpt lat="36.80497472266838" lon="-108.1326180734589"><ele>1782.0</ele><time>2026-04-05T19:56:10Z</time></trkpt><trkpt lat="36.80496585727469" lon="-108.1325021481974"><ele>1781.0</ele><time>2026-04-05T19:56:11Z</time></trkpt><trkpt lat="36.80496586723524" lon="-108.13235790958545"><ele>1780.0</ele><time>2026-04-05T19:56:12Z</time></trkpt><trkpt lat="36.80497776251881" lon="-108.13217770267252"><ele>1779.0</ele><time>2026-04-05T19:56:13Z</time></trkpt><trkpt lat="36.80497978351199" lon="-108.13198090587494"><ele>1778.0</ele><time>2026-04-05T19:56:14Z</time></trkpt><trkpt lat="36.80497785136105" lon="-108.1317851272248"><ele>1778.0</ele><time>2026-04-05T19:56:15Z</time></trkpt><trkpt lat="36.80497722419815" lon="-108.13159952342468"><ele>1778.0</ele><time>2026-04-05T19:56:16Z</time></trkpt><trkpt lat="36.80497842083238" lon="-108.13143145551224"><ele>1778.0</ele><time>2026-04-05T19:56:17Z</time></trkpt><trkpt lat="36.80498386275409" lon="-108.13124850318462"><ele>1778.0</ele><time>2026-04-05T19:56:18Z</time></trkpt><trkpt lat="36.80496927451926" lon="-108.1310539432259"><ele>1777.75</ele><time>2026-04-05T19:56:19Z</time></trkpt><trkpt lat="36.804987277628875" lon="-108.13085654218617"><ele>1777.5</ele><time>2026-04-05T19:56:20Z</time></trkpt><trkpt lat="36.804982718246656" lon="-108.13067873406709"><ele>1777.25</ele><time>2026-04-05T19:56:21Z</time></trkpt><trkpt lat="36.804988630515176" lon="-108.13052302359351"><ele>1777.0</ele><time>2026-04-05T19:56:22Z</time></trkpt><trkpt lat="36.80497531582444" lon="-108.13034493908737"><ele>1777.0</ele><time>2026-04-05T19:56:23Z</time></trkpt><trkpt lat="36.80499119152478" lon="-108.1301576219467"><ele>1777.0</ele><time>2026-04-05T19:56:24Z</time></trkpt><trkpt lat="36.80498536648418" lon="-108.12998714122406"><ele>1777.0</ele><time>2026-04-05T19:56:25Z</time></trkpt><trkpt lat="36.804983168669224" lon="-108.1298380365386"><ele>1777.0</ele><time>2026-04-05T19:56:26Z</time></trkpt><trkpt lat="36.804977837248934" lon="-108.12970532366495"><ele>1777.0</ele><time>2026-04-05T19:56:27Z</time></trkpt><trkpt lat="36.804977157125855" lon="-108.12960238974735"><ele>1776.9999999999998</ele><time>2026-04-05T19:56:28Z</time></trkpt><trkpt lat="36.80499341450909" lon="-108.12950583959028"><ele>1776.9999999999998</ele><time>2026-04-05T19:56:29Z</time></trkpt><trkpt lat="36.804977302129934" lon="-108.12939843307637"><ele>1777.0</ele><time>2026-04-05T19:56:30Z</time></trkpt><trkpt lat="36.805096068896376" lon="-108.129271942021"><ele>1777.0</ele><time>2026-04-05T19:56:31Z</time></trkpt><trkpt lat="36.80512446482001" lon="-108.12916228636999"><ele>1778.5</ele><time>2026-04-05T19:56:32Z</time></trkpt><trkpt lat="36.805223766673976" lon="-108.12906618407197"><ele>1780.0</ele><time>2026-04-05T19:56:34Z</time></trkpt><trkpt lat="36.8053608772744" lon="-108.1289725808911"><ele>1781.5</ele><time>2026-04-05T19:56:34.999Z</time></trkpt><trkpt lat="36.80546867670032" lon="-108.1288664611587"><ele>1783.0</ele><time>2026-04-05T19:56:35.999Z</time></trkpt><trkpt lat="36.8055426711429" lon="-108.12876668553886"><ele>1783.25</ele><time>2026-04-05T19:56:36.999Z</time></trkpt><trkpt lat="36.805639346214875" lon="-108.12871309736492"><ele>1783.5</ele><time>2026-04-05T19:56:38.999Z</time></trkpt><trkpt lat="36.80574008049869" lon="-108.12877642155027"><ele>1783.75</ele><time>2026-04-05T19:56:39.999Z</time></trkpt><trkpt lat="36.8058802048716" lon="-108.12879365975967"><ele>1784.0</ele><time>2026-04-05T19:56:40.999Z</time></trkpt><trkpt lat="36.806003546763904" lon="-108.12868445024422"><ele>1785.3333333333333</ele><time>2026-04-05T19:56:41.999Z</time></trkpt><trkpt lat="36.80613604823162" lon="-108.1285485014399"><ele>1786.6666666666665</ele><time>2026-04-05T19:56:42.999Z</time></trkpt><trkpt lat="36.8062655285383" lon="-108.12846406969811"><ele>1788.0</ele><time>2026-04-05T19:56:44Z</time></trkpt><trkpt lat="36.80640014907641" lon="-108.12839121112783"><ele>1788.0</ele><time>2026-04-05T19:56:45Z</time></trkpt><trkpt lat="36.806494474786376" lon="-108.12836910067462"><ele>1788.0</ele><time>2026-04-05T19:56:46Z</time></trkpt><trkpt lat="36.80661705577683" lon="-108.12829360772177"><ele>1788.0</ele><time>2026-04-05T19:56:47Z</time></trkpt><trkpt lat="36.806675929677816" lon="-108.12810466998543"><ele>1788.0</ele><time>2026-04-05T19:56:48Z</time></trkpt><trkpt lat="36.80677633711234" lon="-108.12811549284407"><ele>1787.75</ele><time>2026-04-05T19:56:49Z</time></trkpt><trkpt lat="36.80688656636044" lon="-108.12813481954986"><ele>1787.5</ele><time>2026-04-05T19:56:50Z</time></trkpt><trkpt lat="36.807044095430264" lon="-108.12814657462494"><ele>1787.25</ele><time>2026-04-05T19:56:51Z</time></trkpt><trkpt lat="36.8071903506685" lon="-108.12816299508128"><ele>1787.0</ele><time>2026-04-05T19:56:52Z</time></trkpt><trkpt lat="36.80732055368983" lon="-108.12817224045288"><ele>1787.0</ele><time>2026-04-05T19:56:53Z</time></trkpt><trkpt lat="36.807482682147025" lon="-108.12817153506192"><ele>1787.0</ele><time>2026-04-05T19:56:54Z</time></trkpt><trkpt lat="36.807627215332204" lon="-108.12815789435878"><ele>1787.0</ele><time>2026-04-05T19:56:55Z</time></trkpt><trkpt lat="36.807765599146244" lon="-108.12815529527082"><ele>1787.0</ele><time>2026-04-05T19:56:56Z</time></trkpt><trkpt lat="36.807876983882274" lon="-108.1281682758531"><ele>1787.8333333333333</ele><time>2026-04-05T19:56:57Z</time></trkpt><trkpt lat="36.80797030648715" lon="-108.12818156563422"><ele>1788.6666666666665</ele><time>2026-04-05T19:56:58Z</time></trkpt><trkpt lat="36.808054899731914" lon="-108.12818864203425"><ele>1789.5</ele><time>2026-04-05T19:56:59Z</time></trkpt><trkpt lat="36.80812529249154" lon="-108.12817559265369"><ele>1790.3333333333335</ele><time>2026-04-05T19:57:00Z</time></trkpt><trkpt lat="36.80820223366882" lon="-108.12816478221227"><ele>1791.1666666666667</ele><time>2026-04-05T19:57:01Z</time></trkpt><trkpt lat="36.80823497299002" lon="-108.1280335595755"><ele>1792.0</ele><time>2026-04-05T19:57:03Z</time></trkpt><trkpt lat="36.808288466252996" lon="-108.12787632644573"><ele>1792.0</ele><time>2026-04-05T19:57:05Z</time></trkpt><trkpt lat="36.80832772217748" lon="-108.12777339132269"><ele>1792.0</ele><time>2026-04-05T19:57:06Z</time></trkpt><trkpt lat="36.80838418169691" lon="-108.12763477239965"><ele>1792.0</ele><time>2026-04-05T19:57:07Z</time></trkpt><trkpt lat="36.80845574356312" lon="-108.12747838168954"><ele>1792.0</ele><time>2026-04-05T19:57:08Z</time></trkpt><trkpt lat="36.80853838593106" lon="-108.12729713071572"><ele>1791.3999999999999</ele><time>2026-04-05T19:57:09Z</time></trkpt><trkpt lat="36.8085961897689" lon="-108.12715329542856"><ele>1790.7999999999997</ele><time>2026-04-05T19:57:10Z</time></trkpt><trkpt lat="36.80861772381538" lon="-108.12705707973613"><ele>1790.2</ele><time>2026-04-05T19:57:11Z</time></trkpt><trkpt lat="36.80862834933614" lon="-108.12695707658715"><ele>1789.6</ele><time>2026-04-05T19:57:13Z</time></trkpt><trkpt lat="36.80855373694322" lon="-108.12692476563294"><ele>1789.0</ele><time>2026-04-05T19:57:17Z</time></trkpt><trkpt lat="36.808648805745435" lon="-108.1268905969498"><ele>1789.0</ele><time>2026-04-05T19:58:40.999Z</time></trkpt><trkpt lat="36.80871708927782" lon="-108.1268291077005"><ele>1789.0</ele><time>2026-04-05T19:58:41.999Z</time></trkpt><trkpt lat="36.808817223446454" lon="-108.12676296896294"><ele>1789.0</ele><time>2026-04-05T19:58:42.999Z</time></trkpt><trkpt lat="36.80891860978904" lon="-108.1266483704478"><ele>1789.0</ele><time>2026-04-05T19:58:43.999Z</time></trkpt><trkpt lat="36.809059948514935" lon="-108.12655267338863"><ele>1788.25</ele><time>2026-04-05T19:58:44.999Z</time></trkpt><trkpt lat="36.80919404040732" lon="-108.1264618159076"><ele>1787.5</ele><time>2026-04-05T19:58:45.999Z</time></trkpt><trkpt lat="36.8093202794037" lon="-108.12638755590912"><ele>1786.75</ele><time>2026-04-05T19:58:46.999Z</time></trkpt><trkpt lat="36.80946383689408" lon="-108.12631330583535"><ele>1786.0</ele><time>2026-04-05T19:58:47.999Z</time></trkpt><trkpt lat="36.80958631818665" lon="-108.12625850422893"><ele>1788.0</ele><time>2026-04-05T19:58:48.999Z</time></trkpt><trkpt lat="36.80970274869632" lon="-108.12621846949048"><ele>1790.0</ele><time>2026-04-05T19:58:50Z</time></trkpt><trkpt lat="36.80981142096809" lon="-108.12618612478565"><ele>1792.0</ele><time>2026-04-05T19:58:51Z</time></trkpt><trkpt lat="36.80991898211072" lon="-108.12615188851646"><ele>1794.0</ele><time>2026-04-05T19:58:52Z</time></trkpt><trkpt lat="36.81000541535889" lon="-108.12612254566051"><ele>1796.0</ele><time>2026-04-05T19:58:53Z</time></trkpt><trkpt lat="36.81010735580817" lon="-108.1260647852617"><ele>1798.5</ele><time>2026-04-05T19:58:56Z</time></trkpt><trkpt lat="36.81017169545286" lon="-108.12603064290072"><ele>1801.0</ele><time>2026-04-05T19:58:57Z</time></trkpt><trkpt lat="36.81053304928815" lon="-108.12656871125881"><ele>1801.0</ele><time>2026-04-05T19:58:58Z</time></trkpt><trkpt lat="36.810661611269616" lon="-108.12664219273897"><ele>1801.0</ele><time>2026-04-05T19:58:59Z</time></trkpt><trkpt lat="36.81076889698854" lon="-108.12672564799682"><ele>1801.0</ele><time>2026-04-05T19:59:00Z</time></trkpt><trkpt lat="36.810870680762726" lon="-108.12681538698588"><ele>1801.0</ele><time>2026-04-05T19:59:01Z</time></trkpt><trkpt lat="36.81097315450097" lon="-108.12690390351135"><ele>1801.0</ele><time>2026-04-05T19:59:02Z</time></trkpt><trkpt lat="36.81104625774293" lon="-108.1268704152873"><ele>1801.0</ele><time>2026-04-05T19:59:04Z</time></trkpt><trkpt lat="36.81112100252404" lon="-108.1267630251469"><ele>1801.0</ele><time>2026-04-05T19:59:05Z</time></trkpt><trkpt lat="36.811217150365195" lon="-108.12665685255469"><ele>1801.0</ele><time>2026-04-05T19:59:06Z</time></trkpt><trkpt lat="36.811275824508655" lon="-108.12656809530317"><ele>1801.0</ele><time>2026-04-05T19:59:07Z</time></trkpt><trkpt lat="36.811335755258476" lon="-108.12649761621229"><ele>1800.25</ele><time>2026-04-05T19:59:08Z</time></trkpt><trkpt lat="36.81141484837306" lon="-108.12645929362047"><ele>1799.5</ele><time>2026-04-05T19:59:09Z</time></trkpt><trkpt lat="36.81155767438881" lon="-108.12644362282028"><ele>1798.75</ele><time>2026-04-05T19:59:10Z</time></trkpt><trkpt lat="36.81172492694863" lon="-108.12641144987982"><ele>1798.0</ele><time>2026-04-05T19:59:11Z</time></trkpt><trkpt lat="36.81188337303218" lon="-108.12636011585694"><ele>1797.5</ele><time>2026-04-05T19:59:12Z</time></trkpt><trkpt lat="36.81203115569696" lon="-108.12631442787745"><ele>1797.0</ele><time>2026-04-05T19:59:13Z</time></trkpt><trkpt lat="36.812136966366374" lon="-108.12627550741536"><ele>1796.5</ele><time>2026-04-05T19:59:14Z</time></trkpt><trkpt lat="36.81223888798386" lon="-108.1262250924728"><ele>1796.0</ele><time>2026-04-05T19:59:15Z</time></trkpt><trkpt lat="36.812316213423586" lon="-108.12623008529003"><ele>1796.0</ele><time>2026-04-05T19:59:16Z</time></trkpt><trkpt lat="36.812450811821925" lon="-108.12621414206198"><ele>1796.0</ele><time>2026-04-05T19:59:17Z</time></trkpt><trkpt lat="36.81259075352367" lon="-108.1262281346012"><ele>1796.0</ele><time>2026-04-05T19:59:18Z</time></trkpt><trkpt lat="36.81271308041253" lon="-108.12626159576675"><ele>1796.0</ele><time>2026-04-05T19:59:19Z</time></trkpt><trkpt lat="36.81282100349143" lon="-108.12627295390817"><ele>1796.0</ele><time>2026-04-05T19:59:20Z</time></trkpt><trkpt lat="36.812924626841856" lon="-108.1262587149515"><ele>1796.0</ele><time>2026-04-05T19:59:21Z</time></trkpt><trkpt lat="36.81301130179591" lon="-108.12621554387992"><ele>1796.0</ele><time>2026-04-05T19:59:22Z</time></trkpt><trkpt lat="36.81310603025188" lon="-108.12613387191988"><ele>1796.0</ele><time>2026-04-05T19:59:23Z</time></trkpt><trkpt lat="36.81320156792186" lon="-108.12603139071247"><ele>1796.0</ele><time>2026-04-05T19:59:24Z</time></trkpt><trkpt lat="36.81329544190476" lon="-108.1259229594383"><ele>1796.0</ele><time>2026-04-05T19:59:25Z</time></trkpt><trkpt lat="36.813368450863884" lon="-108.1258146011557"><ele>1796.0</ele><time>2026-04-05T19:59:26Z</time></trkpt><trkpt lat="36.813442457216524" lon="-108.12569450790394"><ele>1796.0</ele><time>2026-04-05T19:59:27Z</time></trkpt><trkpt lat="36.81353388315294" lon="-108.12560082620499"><ele>1796.0</ele><time>2026-04-05T19:59:28Z</time></trkpt><trkpt lat="36.81363680802886" lon="-108.12555877840106"><ele>1795.25</ele><time>2026-04-05T19:59:29Z</time></trkpt><trkpt lat="36.813770981393944" lon="-108.12553738699663"><ele>1794.5</ele><time>2026-04-05T19:59:30Z</time></trkpt><trkpt lat="36.81390447588628" lon="-108.12548885851668"><ele>1793.75</ele><time>2026-04-05T19:59:31Z</time></trkpt><trkpt lat="36.81403385436526" lon="-108.12543504977901"><ele>1793.0</ele><time>2026-04-05T19:59:32Z</time></trkpt><trkpt lat="36.814155038721495" lon="-108.12538004267378"><ele>1793.0</ele><time>2026-04-05T19:59:33Z</time></trkpt><trkpt lat="36.81425551205986" lon="-108.12534840260392"><ele>1793.0</ele><time>2026-04-05T19:59:34Z</time></trkpt><trkpt lat="36.814331808863244" lon="-108.12533325141466"><ele>1793.0</ele><time>2026-04-05T19:59:35Z</time></trkpt><trkpt lat="36.81444993760659" lon="-108.12544142204617"><ele>1793.0</ele><time>2026-04-05T19:59:37Z</time></trkpt><trkpt lat="36.81453133030204" lon="-108.12555745871919"><ele>1792.25</ele><time>2026-04-05T19:59:38Z</time></trkpt><trkpt lat="36.814667552574214" lon="-108.12551086694424"><ele>1791.5</ele><time>2026-04-05T19:59:40Z</time></trkpt><trkpt lat="36.81477030532562" lon="-108.12546572908194"><ele>1790.75</ele><time>2026-04-05T19:59:41Z</time></trkpt><trkpt lat="36.81491506908979" lon="-108.12542969307387"><ele>1790.0</ele><time>2026-04-05T19:59:42Z</time></trkpt><trkpt lat="36.81503410820351" lon="-108.12541413677268"><ele>1790.0</ele><time>2026-04-05T19:59:43Z</time></trkpt><trkpt lat="36.81514624842641" lon="-108.12537402846462"><ele>1790.0</ele><time>2026-04-05T19:59:44Z</time></trkpt><trkpt lat="36.815243200143215" lon="-108.12532562462634"><ele>1790.0</ele><time>2026-04-05T19:59:45Z</time></trkpt><trkpt lat="36.815350341905145" lon="-108.12533023574629"><ele>1790.0</ele><time>2026-04-05T19:59:46Z</time></trkpt><trkpt lat="36.815481769400854" lon="-108.12538859151093"><ele>1789.25</ele><time>2026-04-05T19:59:47Z</time></trkpt><trkpt lat="36.81562372699061" lon="-108.12540735680668"><ele>1788.5</ele><time>2026-04-05T19:59:48Z</time></trkpt><trkpt lat="36.81574354315447" lon="-108.12540070479409"><ele>1787.75</ele><time>2026-04-05T19:59:49Z</time></trkpt><trkpt lat="36.81583664540548" lon="-108.12536893897057"><ele>1787.0</ele><time>2026-04-05T19:59:50Z</time></trkpt><trkpt lat="36.815950789207754" lon="-108.12536534118394"><ele>1787.6</ele><time>2026-04-05T19:59:51Z</time></trkpt><trkpt lat="36.81609147842887" lon="-108.12541122012894"><ele>1788.1999999999998</ele><time>2026-04-05T19:59:52Z</time></trkpt><trkpt lat="36.81622049797391" lon="-108.12542012512257"><ele>1788.8</ele><time>2026-04-05T19:59:53Z</time></trkpt><trkpt lat="36.816319683669676" lon="-108.1254313398016"><ele>1789.4</ele><time>2026-04-05T19:59:54Z</time></trkpt><trkpt lat="36.81638086769212" lon="-108.12540877611387"><ele>1790.0</ele><time>2026-04-05T19:59:55Z</time></trkpt><trkpt lat="36.81644409886597" lon="-108.12534447751759"><ele>1790.0</ele><time>2026-04-05T19:59:56Z</time></trkpt><trkpt lat="36.81654195524822" lon="-108.1252716568045"><ele>1790.0</ele><time>2026-04-05T19:59:57Z</time></trkpt><trkpt lat="36.816677469764066" lon="-108.12520787134093"><ele>1790.0</ele><time>2026-04-05T19:59:58Z</time></trkpt><trkpt lat="36.816820699391805" lon="-108.12517291049531"><ele>1790.0</ele><time>2026-04-05T19:59:59Z</time></trkpt><trkpt lat="36.81692205183047" lon="-108.12517759420746"><ele>1790.4999999999998</ele><time>2026-04-05T20:00:00Z</time></trkpt><trkpt lat="36.81702493510373" lon="-108.12520299139902"><ele>1791.0</ele><time>2026-04-05T20:00:01Z</time></trkpt><trkpt lat="36.81711816381559" lon="-108.12523022121418"><ele>1791.5</ele><time>2026-04-05T20:00:02Z</time></trkpt><trkpt lat="36.81718625048922" lon="-108.12526367604956"><ele>1792.0</ele><time>2026-04-05T20:00:03Z</time></trkpt><trkpt lat="36.81725607655889" lon="-108.12529849804561"><ele>1792.4999999999998</ele><time>2026-04-05T20:00:04Z</time></trkpt><trkpt lat="36.817323117176535" lon="-108.12534486568042"><ele>1793.0</ele><time>2026-04-05T20:00:05Z</time></trkpt><trkpt lat="36.817363897588784" lon="-108.12549745953368"><ele>1793.0</ele><time>2026-04-05T20:00:07Z</time></trkpt><trkpt lat="36.817416268648216" lon="-108.12562191310572"><ele>1793.0000000000002</ele><time>2026-04-05T20:00:08Z</time></trkpt><trkpt lat="36.817490315510895" lon="-108.1257532136443"><ele>1793.0000000000002</ele><time>2026-04-05T20:00:09Z</time></trkpt><trkpt lat="36.817568796074596" lon="-108.1258472873708"><ele>1793.0</ele><time>2026-04-05T20:00:10Z</time></trkpt><trkpt lat="36.81764127012222" lon="-108.12592002707396"><ele>1793.0</ele><time>2026-04-05T20:00:11Z</time></trkpt><trkpt lat="36.817715364112" lon="-108.12596831766437"><ele>1793.2</ele><time>2026-04-05T20:00:12Z</time></trkpt><trkpt lat="36.817789503351385" lon="-108.12597096044502"><ele>1793.4</ele><time>2026-04-05T20:00:13Z</time></trkpt><trkpt lat="36.817882324794894" lon="-108.12594514093242"><ele>1793.6000000000001</ele><time>2026-04-05T20:00:14Z</time></trkpt><trkpt lat="36.81798613339114" lon="-108.1259529803786"><ele>1793.8000000000002</ele><time>2026-04-05T20:00:15Z</time></trkpt><trkpt lat="36.81809823517934" lon="-108.12599335366939"><ele>1794.0</ele><time>2026-04-05T20:00:16Z</time></trkpt><trkpt lat="36.81821771810679" lon="-108.12600842245853"><ele>1794.0</ele><time>2026-04-05T20:00:17Z</time></trkpt><trkpt lat="36.81832940669294" lon="-108.12598751927217"><ele>1794.0</ele><time>2026-04-05T20:00:18Z</time></trkpt><trkpt lat="36.818458975929985" lon="-108.12597756112449"><ele>1794.0</ele><time>2026-04-05T20:00:19Z</time></trkpt><trkpt lat="36.81860598929914" lon="-108.1259772013764"><ele>1794.0</ele><time>2026-04-05T20:00:20Z</time></trkpt><trkpt lat="36.818754905131215" lon="-108.12598081103472"><ele>1792.75</ele><time>2026-04-05T20:00:21Z</time></trkpt><trkpt lat="36.81889499333515" lon="-108.12597893385059"><ele>1791.5</ele><time>2026-04-05T20:00:22Z</time></trkpt><trkpt lat="36.81902024890367" lon="-108.12598041855189"><ele>1790.25</ele><time>2026-04-05T20:00:23Z</time></trkpt><trkpt lat="36.81913097090434" lon="-108.1259857823288"><ele>1789.0</ele><time>2026-04-05T20:00:24Z</time></trkpt><trkpt lat="36.8192332287493" lon="-108.12598759685638"><ele>1788.1666666666667</ele><time>2026-04-05T20:00:25Z</time></trkpt><trkpt lat="36.81933163197658" lon="-108.12596596318103"><ele>1787.3333333333335</ele><time>2026-04-05T20:00:26Z</time></trkpt><trkpt lat="36.81941579737147" lon="-108.12593271694628"><ele>1786.5</ele><time>2026-04-05T20:00:27Z</time></trkpt><trkpt lat="36.81949909973835" lon="-108.12591308282576"><ele>1785.6666666666665</ele><time>2026-04-05T20:00:28Z</time></trkpt><trkpt lat="36.81957098685092" lon="-108.1259102163859"><ele>1784.8333333333333</ele><time>2026-04-05T20:00:29Z</time></trkpt><trkpt lat="36.81964538025233" lon="-108.12594501502082"><ele>1784.0</ele><time>2026-04-05T20:00:30Z</time></trkpt><trkpt lat="36.81974338713283" lon="-108.1259931379261"><ele>1784.0</ele><time>2026-04-05T20:00:31Z</time></trkpt><trkpt lat="36.81985756328274" lon="-108.12604790376803"><ele>1784.0</ele><time>2026-04-05T20:00:32Z</time></trkpt><trkpt lat="36.819917629450316" lon="-108.12608878422466"><ele>1784.0</ele><time>2026-04-05T20:00:33Z</time></trkpt><trkpt lat="36.81999615394834" lon="-108.12612174452804"><ele>1784.0</ele><time>2026-04-05T20:00:35Z</time></trkpt><trkpt lat="36.82009346399826" lon="-108.12608820733745"><ele>1784.0</ele><time>2026-04-05T20:00:36Z</time></trkpt><trkpt lat="36.82019082846087" lon="-108.1260750574977"><ele>1783.75</ele><time>2026-04-05T20:00:37Z</time></trkpt><trkpt lat="36.82027619612261" lon="-108.12605904769066"><ele>1783.5</ele><time>2026-04-05T20:00:38Z</time></trkpt><trkpt lat="36.82040888714624" lon="-108.12613967861847"><ele>1783.25</ele><time>2026-04-05T20:00:40Z</time></trkpt><trkpt lat="36.82051630204354" lon="-108.12622408676437"><ele>1783.0</ele><time>2026-04-05T20:00:41Z</time></trkpt><trkpt lat="36.82060962709643" lon="-108.12632335284931"><ele>1783.0</ele><time>2026-04-05T20:00:42Z</time></trkpt><trkpt lat="36.82071016870805" lon="-108.12641836322744"><ele>1783.0</ele><time>2026-04-05T20:00:43Z</time></trkpt><trkpt lat="36.8208085776821" lon="-108.12649542260188"><ele>1783.0</ele><time>2026-04-05T20:00:43.999Z</time></trkpt><trkpt lat="36.82091180630329" lon="-108.12654280053171"><ele>1783.0</ele><time>2026-04-05T20:00:44.999Z</time></trkpt><trkpt lat="36.82101277863411" lon="-108.12655354091436"><ele>1784.2</ele><time>2026-04-05T20:00:45.999Z</time></trkpt><trkpt lat="36.821108917088196" lon="-108.1265648868065"><ele>1785.4</ele><time>2026-04-05T20:00:46.999Z</time></trkpt><trkpt lat="36.82121308787801" lon="-108.1265935799929"><ele>1786.6000000000001</ele><time>2026-04-05T20:00:47.999Z</time></trkpt><trkpt lat="36.82133602934637" lon="-108.12660996951645"><ele>1787.8000000000002</ele><time>2026-04-05T20:00:48.999Z</time></trkpt><trkpt lat="36.82144562150069" lon="-108.12664207905964"><ele>1789.0</ele><time>2026-04-05T20:00:49.999Z</time></trkpt><trkpt lat="36.82152373614089" lon="-108.12673140792879"><ele>1789.0</ele><time>2026-04-05T20:00:50.999Z</time></trkpt><trkpt lat="36.82161989357493" lon="-108.12685871102796"><ele>1789.0</ele><time>2026-04-05T20:00:51.999Z</time></trkpt><trkpt lat="36.82171349713578" lon="-108.12695719222327"><ele>1789.0</ele><time>2026-04-05T20:00:52.999Z</time></trkpt><trkpt lat="36.82178612188311" lon="-108.12703835016079"><ele>1789.0</ele><time>2026-04-05T20:00:53.999Z</time></trkpt><trkpt lat="36.82186525798561" lon="-108.1271084878083"><ele>1789.6666666666667</ele><time>2026-04-05T20:00:54.999Z</time></trkpt><trkpt lat="36.82194260526807" lon="-108.12710838016343"><ele>1790.3333333333335</ele><time>2026-04-05T20:00:56Z</time></trkpt><trkpt lat="36.822011868795244" lon="-108.12710681002342"><ele>1791.0</ele><time>2026-04-05T20:00:57Z</time></trkpt><trkpt lat="36.82207637403349" lon="-108.12707352197165"><ele>1791.6666666666665</ele><time>2026-04-05T20:00:58Z</time></trkpt><trkpt lat="36.822148173334114" lon="-108.12701076572387"><ele>1792.3333333333333</ele><time>2026-04-05T20:00:59Z</time></trkpt><trkpt lat="36.822214149281315" lon="-108.12689608971924"><ele>1793.0</ele><time>2026-04-05T20:01:00Z</time></trkpt><trkpt lat="36.82225817952663" lon="-108.12673777648368"><ele>1793.0</ele><time>2026-04-05T20:01:01Z</time></trkpt><trkpt lat="36.82227722635689" lon="-108.12662196021013"><ele>1793.0</ele><time>2026-04-05T20:01:02Z</time></trkpt><trkpt lat="36.822241664723826" lon="-108.12650587762796"><ele>1793.0</ele><time>2026-04-05T20:01:03Z</time></trkpt><trkpt lat="36.82219208825425" lon="-108.12632760966754"><ele>1793.0</ele><time>2026-04-05T20:01:04Z</time></trkpt><trkpt lat="36.822172288362715" lon="-108.12614889651039"><ele>1792.3333333333333</ele><time>2026-04-05T20:01:05Z</time></trkpt><trkpt lat="36.822133613691825" lon="-108.12605552560474"><ele>1791.6666666666665</ele><time>2026-04-05T20:01:06Z</time></trkpt><trkpt lat="36.822113042810045" lon="-108.12596515302538"><ele>1791.0</ele><time>2026-04-05T20:01:07Z</time></trkpt><trkpt lat="36.82213352883454" lon="-108.12587355979136"><ele>1790.3333333333335</ele><time>2026-04-05T20:01:08Z</time></trkpt><trkpt lat="36.822179327085976" lon="-108.12577718916613"><ele>1789.6666666666667</ele><time>2026-04-05T20:01:09Z</time></trkpt><trkpt lat="36.822251137904345" lon="-108.12567834046145"><ele>1789.0</ele><time>2026-04-05T20:01:10Z</time></trkpt><trkpt lat="36.8223255925649" lon="-108.12561755690247"><ele>1789.0</ele><time>2026-04-05T20:01:11Z</time></trkpt><trkpt lat="36.82240628323122" lon="-108.12554698803517"><ele>1789.0</ele><time>2026-04-05T20:01:12Z</time></trkpt><trkpt lat="36.822500167055196" lon="-108.12546001180012"><ele>1789.0</ele><time>2026-04-05T20:01:13Z</time></trkpt><trkpt lat="36.82260894371295" lon="-108.12535570207886"><ele>1789.0</ele><time>2026-04-05T20:01:14Z</time></trkpt><trkpt lat="36.82272662292446" lon="-108.12525315076314"><ele>1790.0</ele><time>2026-04-05T20:01:15Z</time></trkpt><trkpt lat="36.82282070246328" lon="-108.1251657368749"><ele>1791.0</ele><time>2026-04-05T20:01:16Z</time></trkpt><trkpt lat="36.822907499986556" lon="-108.12507730250054"><ele>1792.0</ele><time>2026-04-05T20:01:17Z</time></trkpt><trkpt lat="36.82297340167948" lon="-108.12500480850912"><ele>1793.0</ele><time>2026-04-05T20:01:18Z</time></trkpt><trkpt lat="36.823025237161396" lon="-108.12495774547502"><ele>1794.0</ele><time>2026-04-05T20:01:19Z</time></trkpt><trkpt lat="36.82309778762128" lon="-108.12491911972762"><ele>1793.4</ele><time>2026-04-05T20:01:20Z</time></trkpt><trkpt lat="36.82319785354157" lon="-108.12487057240135"><ele>1792.8000000000002</ele><time>2026-04-05T20:01:21Z</time></trkpt><trkpt lat="36.82328090245141" lon="-108.12482986645446"><ele>1792.1999999999998</ele><time>2026-04-05T20:01:22Z</time></trkpt><trkpt lat="36.823329810407884" lon="-108.12476546993784"><ele>1791.6</ele><time>2026-04-05T20:01:23Z</time></trkpt><trkpt lat="36.82337715048936" lon="-108.12465626290253"><ele>1791.0</ele><time>2026-04-05T20:01:24Z</time></trkpt><trkpt lat="36.82339884686521" lon="-108.12454466533838"><ele>1791.0</ele><time>2026-04-05T20:01:25Z</time></trkpt><trkpt lat="36.823411493911784" lon="-108.12444785924292"><ele>1791.0</ele><time>2026-04-05T20:01:26Z</time></trkpt><trkpt lat="36.82343666557012" lon="-108.12437408072876"><ele>1791.0</ele><time>2026-04-05T20:01:27Z</time></trkpt><trkpt lat="36.823512444496465" lon="-108.12426875213743"><ele>1791.0</ele><time>2026-04-05T20:01:29Z</time></trkpt><trkpt lat="36.82362238485614" lon="-108.1242336386753"><ele>1791.0</ele><time>2026-04-05T20:01:31Z</time></trkpt><trkpt lat="36.82377700739285" lon="-108.12418098727879"><ele>1791.0</ele><time>2026-04-05T20:01:33Z</time></trkpt><trkpt lat="36.8238856689418" lon="-108.12414443201988"><ele>1791.0</ele><time>2026-04-05T20:01:34Z</time></trkpt><trkpt lat="36.823973111861065" lon="-108.12411333517616"><ele>1791.0</ele><time>2026-04-05T20:01:35Z</time></trkpt><trkpt lat="36.824087867702325" lon="-108.12412646314215"><ele>1791.0</ele><time>2026-04-05T20:01:37Z</time></trkpt><trkpt lat="36.82414488578027" lon="-108.12420028227335"><ele>1791.0</ele><time>2026-04-05T20:01:38Z</time></trkpt><trkpt lat="36.82422100919351" lon="-108.12429197105511"><ele>1790.8</ele><time>2026-04-05T20:01:39Z</time></trkpt><trkpt lat="36.824327826354896" lon="-108.12437120729227"><ele>1790.6</ele><time>2026-04-05T20:01:40Z</time></trkpt><trkpt lat="36.82444369037553" lon="-108.12445086487841"><ele>1790.4</ele><time>2026-04-05T20:01:41Z</time></trkpt><trkpt lat="36.82452571476499" lon="-108.12451888935396"><ele>1790.2</ele><time>2026-04-05T20:01:42Z</time></trkpt><trkpt lat="36.82460998000735" lon="-108.1245686089777"><ele>1790.0</ele><time>2026-04-05T20:01:43Z</time></trkpt><trkpt lat="36.82470762688132" lon="-108.12459672619377"><ele>1790.0</ele><time>2026-04-05T20:01:44Z</time></trkpt><trkpt lat="36.82479649733111" lon="-108.12463727033855"><ele>1790.0</ele><time>2026-04-05T20:01:45Z</time></trkpt><trkpt lat="36.82486713074582" lon="-108.124737825711"><ele>1790.0</ele><time>2026-04-05T20:01:46Z</time></trkpt><trkpt lat="36.82493881998337" lon="-108.1248111860084"><ele>1790.0</ele><time>2026-04-05T20:01:47Z</time></trkpt><trkpt lat="36.82504023918339" lon="-108.12485968493871"><ele>1790.0</ele><time>2026-04-05T20:01:48Z</time></trkpt><trkpt lat="36.82515021755404" lon="-108.12493341325629"><ele>1791.25</ele><time>2026-04-05T20:01:49Z</time></trkpt><trkpt lat="36.82522396309927" lon="-108.1249616803908"><ele>1792.5</ele><time>2026-04-05T20:01:50Z</time></trkpt><trkpt lat="36.82536860467687" lon="-108.12487849988173"><ele>1793.75</ele><time>2026-04-05T20:01:52Z</time></trkpt><trkpt lat="36.8254752370395" lon="-108.12476074273332"><ele>1795.0</ele><time>2026-04-05T20:01:53Z</time></trkpt><trkpt lat="36.825584735919016" lon="-108.12466133180537"><ele>1795.0</ele><time>2026-04-05T20:01:54Z</time></trkpt><trkpt lat="36.825715312637" lon="-108.12461105709701"><ele>1795.0</ele><time>2026-04-05T20:01:55Z</time></trkpt><trkpt lat="36.825842699054775" lon="-108.12454324417307"><ele>1795.0</ele><time>2026-04-05T20:01:56Z</time></trkpt><trkpt lat="36.82593674579106" lon="-108.12443535218445"><ele>1795.0</ele><time>2026-04-05T20:01:57Z</time></trkpt><trkpt lat="36.826024893396635" lon="-108.1243474442266"><ele>1795.5</ele><time>2026-04-05T20:01:58Z</time></trkpt><trkpt lat="36.826127556202806" lon="-108.12426571527091"><ele>1796.0</ele><time>2026-04-05T20:01:59Z</time></trkpt><trkpt lat="36.82623077106394" lon="-108.1241754429323"><ele>1796.5</ele><time>2026-04-05T20:02:00Z</time></trkpt><trkpt lat="36.82634165308485" lon="-108.12406818191026"><ele>1797.0</ele><time>2026-04-05T20:02:01Z</time></trkpt><trkpt lat="36.82644017911492" lon="-108.12397409494366"><ele>1797.0</ele><time>2026-04-05T20:02:02Z</time></trkpt><trkpt lat="36.82653104324053" lon="-108.12389869787731"><ele>1797.0</ele><time>2026-04-05T20:02:03Z</time></trkpt><trkpt lat="36.826610798112554" lon="-108.12381373845301"><ele>1797.0</ele><time>2026-04-05T20:02:04Z</time></trkpt><trkpt lat="36.826708166551754" lon="-108.1236895014992"><ele>1797.0</ele><time>2026-04-05T20:02:05Z</time></trkpt><trkpt lat="36.826824486536644" lon="-108.12356815224581"><ele>1797.0</ele><time>2026-04-05T20:02:06Z</time></trkpt><trkpt lat="36.82693118142316" lon="-108.12346567551708"><ele>1797.0</ele><time>2026-04-05T20:02:07Z</time></trkpt><trkpt lat="36.82703070092866" lon="-108.1233614382799"><ele>1797.0</ele><time>2026-04-05T20:02:08Z</time></trkpt><trkpt lat="36.82714175014802" lon="-108.12326347898505"><ele>1797.0</ele><time>2026-04-05T20:02:09Z</time></trkpt><trkpt lat="36.827261771610516" lon="-108.12315248886333"><ele>1796.6666666666665</ele><time>2026-04-05T20:02:10Z</time></trkpt><trkpt lat="36.82738102252628" lon="-108.12302926983702"><ele>1796.3333333333333</ele><time>2026-04-05T20:02:11Z</time></trkpt><trkpt lat="36.82750043887483" lon="-108.12292392335469"><ele>1796.0</ele><time>2026-04-05T20:02:12Z</time></trkpt><trkpt lat="36.827624938448785" lon="-108.1228162417992"><ele>1795.25</ele><time>2026-04-05T20:02:13Z</time></trkpt><trkpt lat="36.82773597062751" lon="-108.12268940816902"><ele>1794.5</ele><time>2026-04-05T20:02:14Z</time></trkpt><trkpt lat="36.82783473826189" lon="-108.12259945813179"><ele>1793.75</ele><time>2026-04-05T20:02:15Z</time></trkpt><trkpt lat="36.82794638952743" lon="-108.12250469295199"><ele>1793.0</ele><time>2026-04-05T20:02:16Z</time></trkpt><trkpt lat="36.82805667961533" lon="-108.12239102165921"><ele>1793.0</ele><time>2026-04-05T20:02:17Z</time></trkpt><trkpt lat="36.82815959608855" lon="-108.1222946297641"><ele>1793.0</ele><time>2026-04-05T20:02:18Z</time></trkpt><trkpt lat="36.82825757698128" lon="-108.12222491148988"><ele>1793.0</ele><time>2026-04-05T20:02:19Z</time></trkpt><trkpt lat="36.828356926485256" lon="-108.12216334430417"><ele>1793.0</ele><time>2026-04-05T20:02:20Z</time></trkpt><trkpt lat="36.82847967056518" lon="-108.12210711124813"><ele>1793.0</ele><time>2026-04-05T20:02:21Z</time></trkpt><trkpt lat="36.82860752343442" lon="-108.12199031602903"><ele>1793.0</ele><time>2026-04-05T20:02:22Z</time></trkpt><trkpt lat="36.82875800328058" lon="-108.12183649770381"><ele>1793.0</ele><time>2026-04-05T20:02:23Z</time></trkpt><trkpt lat="36.82891380121038" lon="-108.12168537946049"><ele>1793.0</ele><time>2026-04-05T20:02:24Z</time></trkpt><trkpt lat="36.829050171916" lon="-108.12156246211613"><ele>1793.0</ele><time>2026-04-05T20:02:25Z</time></trkpt><trkpt lat="36.829149166862926" lon="-108.12144525477112"><ele>1793.0</ele><time>2026-04-05T20:02:26Z</time></trkpt><trkpt lat="36.829240844715365" lon="-108.12135075959104"><ele>1793.0</ele><time>2026-04-05T20:02:27Z</time></trkpt><trkpt lat="36.829304716062985" lon="-108.12128634026426"><ele>1792.3333333333333</ele><time>2026-04-05T20:02:28Z</time></trkpt><trkpt lat="36.82935842291955" lon="-108.12123397392314"><ele>1791.6666666666665</ele><time>2026-04-05T20:02:29Z</time></trkpt><trkpt lat="36.82943279327807" lon="-108.12118866445945"><ele>1791.0</ele><time>2026-04-05T20:02:31Z</time></trkpt><trkpt lat="36.82949559896131" lon="-108.12118111265445"><ele>1790.3333333333335</ele><time>2026-04-05T20:02:33Z</time></trkpt><trkpt lat="36.82961895307784" lon="-108.12118347975235"><ele>1789.6666666666667</ele><time>2026-04-05T20:02:35Z</time></trkpt><trkpt lat="36.82972819100759" lon="-108.12117980241183"><ele>1789.0</ele><time>2026-04-05T20:02:36Z</time></trkpt><trkpt lat="36.82985715634042" lon="-108.12120031135966"><ele>1789.0</ele><time>2026-04-05T20:02:37Z</time></trkpt><trkpt lat="36.829963970928915" lon="-108.12120513633394"><ele>1789.0</ele><time>2026-04-05T20:02:38Z</time></trkpt><trkpt lat="36.83006282590318" lon="-108.12119720526448"><ele>1789.0</ele><time>2026-04-05T20:02:39Z</time></trkpt><trkpt lat="36.83015304061396" lon="-108.12117090850123"><ele>1789.0</ele><time>2026-04-05T20:02:40Z</time></trkpt><trkpt lat="36.830276345902845" lon="-108.1211697089046"><ele>1789.0</ele><time>2026-04-05T20:02:41Z</time></trkpt><trkpt lat="36.830393995233656" lon="-108.12117682122592"><ele>1788.0</ele><time>2026-04-05T20:02:42Z</time></trkpt><trkpt lat="36.830486311698444" lon="-108.12118818797491"><ele>1787.0</ele><time>2026-04-05T20:02:43Z</time></trkpt><trkpt lat="36.830570021683926" lon="-108.12121025847546"><ele>1786.0</ele><time>2026-04-05T20:02:44Z</time></trkpt><trkpt lat="36.83065835726777" lon="-108.12123481803427"><ele>1785.0</ele><time>2026-04-05T20:02:45Z</time></trkpt><trkpt lat="36.83076109448313" lon="-108.12126580721846"><ele>1784.0</ele><time>2026-04-05T20:02:46Z</time></trkpt><trkpt lat="36.83085811648282" lon="-108.12130359629332"><ele>1784.0</ele><time>2026-04-05T20:02:47Z</time></trkpt><trkpt lat="36.830932954585265" lon="-108.12131218427328"><ele>1784.0</ele><time>2026-04-05T20:02:48Z</time></trkpt><trkpt lat="36.83104662231545" lon="-108.1212891371024"><ele>1784.0</ele><time>2026-04-05T20:02:49Z</time></trkpt><trkpt lat="36.83117397863388" lon="-108.1212847971715"><ele>1784.0</ele><time>2026-04-05T20:02:50Z</time></trkpt><trkpt lat="36.83127158995593" lon="-108.12129768245757"><ele>1784.0</ele><time>2026-04-05T20:02:51Z</time></trkpt><trkpt lat="36.83136319200202" lon="-108.12132536896108"><ele>1784.0</ele><time>2026-04-05T20:02:52Z</time></trkpt><trkpt lat="36.83147267007191" lon="-108.12136647214464"><ele>1784.0</ele><time>2026-04-05T20:02:53Z</time></trkpt><trkpt lat="36.83158671916481" lon="-108.12139557647869"><ele>1784.0</ele><time>2026-04-05T20:02:54Z</time></trkpt><trkpt lat="36.831695254055376" lon="-108.1214096349735"><ele>1784.0</ele><time>2026-04-05T20:02:54.999Z</time></trkpt><trkpt lat="36.831803391680246" lon="-108.1214173864429"><ele>1784.0</ele><time>2026-04-05T20:02:55.999Z</time></trkpt><trkpt lat="36.83191787414209" lon="-108.12145158447446"><ele>1784.25</ele><time>2026-04-05T20:02:56.999Z</time></trkpt><trkpt lat="36.832046320102464" lon="-108.12149956543591"><ele>1784.5</ele><time>2026-04-05T20:02:57.999Z</time></trkpt><trkpt lat="36.83217971885274" lon="-108.1215432647227"><ele>1784.75</ele><time>2026-04-05T20:02:58.999Z</time></trkpt><trkpt lat="36.832328942121705" lon="-108.1215934674538"><ele>1785.0</ele><time>2026-04-05T20:02:59.999Z</time></trkpt><trkpt lat="36.832472924590675" lon="-108.12166347994342"><ele>1785.0</ele><time>2026-04-05T20:03:00.999Z</time></trkpt><trkpt lat="36.8325928231066" lon="-108.12174832295105"><ele>1785.0</ele><time>2026-04-05T20:03:02Z</time></trkpt><trkpt lat="36.83272242522393" lon="-108.12184418067267"><ele>1785.0</ele><time>2026-04-05T20:03:03Z</time></trkpt><trkpt lat="36.83284589456715" lon="-108.12193599049593"><ele>1785.0</ele><time>2026-04-05T20:03:04Z</time></trkpt><trkpt lat="36.832946023577094" lon="-108.12199354643793"><ele>1785.3333333333333</ele><time>2026-04-05T20:03:05Z</time></trkpt><trkpt lat="36.8330499747287" lon="-108.12205475231552"><ele>1785.6666666666665</ele><time>2026-04-05T20:03:06Z</time></trkpt><trkpt lat="36.83313210294191" lon="-108.12210737131566"><ele>1786.0</ele><time>2026-04-05T20:03:07Z</time></trkpt><trkpt lat="36.83319676927181" lon="-108.12211922132677"><ele>1786.3333333333333</ele><time>2026-04-05T20:03:08Z</time></trkpt><trkpt lat="36.833275189934085" lon="-108.12211372037464"><ele>1786.6666666666665</ele><time>2026-04-05T20:03:09Z</time></trkpt><trkpt lat="36.833345206888566" lon="-108.12211474422972"><ele>1787.0</ele><time>2026-04-05T20:03:10Z</time></trkpt><trkpt lat="36.83342298479309" lon="-108.12213123543292"><ele>1788.6</ele><time>2026-04-05T20:03:11Z</time></trkpt><trkpt lat="36.83351843253646" lon="-108.12217529402496"><ele>1790.1999999999998</ele><time>2026-04-05T20:03:12Z</time></trkpt><trkpt lat="36.833634931838404" lon="-108.12223087245326"><ele>1791.8</ele><time>2026-04-05T20:03:13Z</time></trkpt><trkpt lat="36.833741682034216" lon="-108.12227030200398"><ele>1793.4</ele><time>2026-04-05T20:03:14Z</time></trkpt><trkpt lat="36.83382561049667" lon="-108.12235031637475"><ele>1795.0</ele><time>2026-04-05T20:03:16Z</time></trkpt><trkpt lat="36.83385849463438" lon="-108.12242905627856"><ele>1795.0</ele><time>2026-04-05T20:03:17Z</time></trkpt><trkpt lat="36.83391377141763" lon="-108.12254103598138"><ele>1795.0</ele><time>2026-04-05T20:03:18Z</time></trkpt><trkpt lat="36.83398534446727" lon="-108.12262417884196"><ele>1795.0</ele><time>2026-04-05T20:03:19Z</time></trkpt><trkpt lat="36.834027556262235" lon="-108.12270347459182"><ele>1795.0</ele><time>2026-04-05T20:03:20Z</time></trkpt><trkpt lat="36.83409252846244" lon="-108.12276570018219"><ele>1795.0</ele><time>2026-04-05T20:03:22Z</time></trkpt><trkpt lat="36.83429896537036" lon="-108.1226459856168"><ele>1796.0</ele><time>2026-04-05T20:03:24Z</time></trkpt><trkpt lat="36.83442240141762" lon="-108.12260218445283"><ele>1797.0</ele><time>2026-04-05T20:03:25Z</time></trkpt><trkpt lat="36.834547535500754" lon="-108.12254622067975"><ele>1798.0</ele><time>2026-04-05T20:03:26Z</time></trkpt><trkpt lat="36.83466245391377" lon="-108.12251346422342"><ele>1799.0</ele><time>2026-04-05T20:03:27Z</time></trkpt><trkpt lat="36.83479805475421" lon="-108.12248912259983"><ele>1799.0</ele><time>2026-04-05T20:03:28Z</time></trkpt><trkpt lat="36.83492209075909" lon="-108.12245288724016"><ele>1799.0</ele><time>2026-04-05T20:03:29Z</time></trkpt><trkpt lat="36.83501613049802" lon="-108.12240199497435"><ele>1799.0</ele><time>2026-04-05T20:03:30Z</time></trkpt><trkpt lat="36.83509270284159" lon="-108.12239165009237"><ele>1799.0</ele><time>2026-04-05T20:03:31Z</time></trkpt><trkpt lat="36.83518392136714" lon="-108.12240196982471"><ele>1799.0</ele><time>2026-04-05T20:03:32Z</time></trkpt><trkpt lat="36.83533391480514" lon="-108.12242668798707"><ele>1799.5</ele><time>2026-04-05T20:03:33Z</time></trkpt><trkpt lat="36.83548357813702" lon="-108.12245402613961"><ele>1800.0</ele><time>2026-04-05T20:03:34Z</time></trkpt><trkpt lat="36.83560126421168" lon="-108.12245993663132"><ele>1800.5</ele><time>2026-04-05T20:03:35Z</time></trkpt><trkpt lat="36.83572723006667" lon="-108.12242889432785"><ele>1801.0</ele><time>2026-04-05T20:03:36Z</time></trkpt><trkpt lat="36.83585068043217" lon="-108.12237425528636"><ele>1800.8333333333335</ele><time>2026-04-05T20:03:37Z</time></trkpt><trkpt lat="36.83595196119771" lon="-108.12233645314095"><ele>1800.6666666666667</ele><time>2026-04-05T20:03:38Z</time></trkpt><trkpt lat="36.836047615544764" lon="-108.12231875768859"><ele>1800.5</ele><time>2026-04-05T20:03:39Z</time></trkpt><trkpt lat="36.83613949769593" lon="-108.12232483758449"><ele>1800.3333333333335</ele><time>2026-04-05T20:03:40Z</time></trkpt><trkpt lat="36.8362124023234" lon="-108.12232601191359"><ele>1800.1666666666667</ele><time>2026-04-05T20:03:41Z</time></trkpt><trkpt lat="36.83627886862176" lon="-108.12227443818782"><ele>1800.0</ele><time>2026-04-05T20:03:42Z</time></trkpt><trkpt lat="36.836396653635106" lon="-108.12222932176711"><ele>1800.0</ele><time>2026-04-05T20:03:43Z</time></trkpt><trkpt lat="36.83655821884981" lon="-108.12224343061347"><ele>1800.0</ele><time>2026-04-05T20:03:44Z</time></trkpt><trkpt lat="36.83670565863386" lon="-108.12222562576555"><ele>1800.0</ele><time>2026-04-05T20:03:45Z</time></trkpt><trkpt lat="36.83680092602246" lon="-108.12220077951449"><ele>1800.0</ele><time>2026-04-05T20:03:46Z</time></trkpt><trkpt lat="36.83689126817355" lon="-108.1221912406993"><ele>1800.0</ele><time>2026-04-05T20:03:47Z</time></trkpt><trkpt lat="36.83697099359229" lon="-108.12219668784829"><ele>1800.0</ele><time>2026-04-05T20:03:48Z</time></trkpt><trkpt lat="36.837102725787986" lon="-108.12220319811138"><ele>1800.0</ele><time>2026-04-05T20:03:50Z</time></trkpt><trkpt lat="36.83718858405185" lon="-108.12215902839849"><ele>1800.0</ele><time>2026-04-05T20:03:51Z</time></trkpt><trkpt lat="36.83729877712993" lon="-108.1221650917553"><ele>1800.0</ele><time>2026-04-05T20:03:52Z</time></trkpt><trkpt lat="36.837417264340516" lon="-108.12217901353458"><ele>1800.0</ele><time>2026-04-05T20:03:53Z</time></trkpt><trkpt lat="36.83751563842508" lon="-108.12215895583769"><ele>1800.0</ele><time>2026-04-05T20:03:54Z</time></trkpt><trkpt lat="36.837601348568406" lon="-108.12211021987784"><ele>1800.0</ele><time>2026-04-05T20:03:55Z</time></trkpt><trkpt lat="36.8376966218453" lon="-108.12207428625325"><ele>1800.0</ele><time>2026-04-05T20:03:56Z</time></trkpt><trkpt lat="36.837800772247576" lon="-108.12207926817644"><ele>1800.0</ele><time>2026-04-05T20:03:57Z</time></trkpt><trkpt lat="36.8379067154502" lon="-108.12210708423493"><ele>1801.0</ele><time>2026-04-05T20:03:58Z</time></trkpt><trkpt lat="36.83804322358686" lon="-108.12213161899548"><ele>1802.0</ele><time>2026-04-05T20:03:59Z</time></trkpt><trkpt lat="36.838191970982784" lon="-108.12215030814617"><ele>1803.0</ele><time>2026-04-05T20:04:00Z</time></trkpt><trkpt lat="36.83829505916883" lon="-108.12213480341903"><ele>1804.0</ele><time>2026-04-05T20:04:01Z</time></trkpt><trkpt lat="36.83839505666278" lon="-108.12209416699132"><ele>1806.0</ele><time>2026-04-05T20:04:02Z</time></trkpt><trkpt lat="36.83853969196756" lon="-108.12206383687919"><ele>1808.0</ele><time>2026-04-05T20:04:03Z</time></trkpt><trkpt lat="36.8387054339028" lon="-108.12205462544183"><ele>1810.0</ele><time>2026-04-05T20:04:04Z</time></trkpt><trkpt lat="36.83882339080968" lon="-108.12200589530961"><ele>1812.0</ele><time>2026-04-05T20:04:05Z</time></trkpt><trkpt lat="36.83892975497894" lon="-108.12193137665622"><ele>1812.0</ele><time>2026-04-05T20:04:06Z</time></trkpt><trkpt lat="36.839053372357434" lon="-108.12186578806079"><ele>1812.0</ele><time>2026-04-05T20:04:07Z</time></trkpt><trkpt lat="36.83917549774296" lon="-108.12181630397987"><ele>1812.0</ele><time>2026-04-05T20:04:08Z</time></trkpt><trkpt lat="36.83927592527572" lon="-108.12177616273021"><ele>1812.0</ele><time>2026-04-05T20:04:09Z</time></trkpt><trkpt lat="36.83934124092404" lon="-108.1217055136275"><ele>1812.8</ele><time>2026-04-05T20:04:10Z</time></trkpt><trkpt lat="36.83938940726114" lon="-108.12156232249292"><ele>1813.6</ele><time>2026-04-05T20:04:12Z</time></trkpt><trkpt lat="36.839432046815496" lon="-108.12148424041689"><ele>1814.3999999999999</ele><time>2026-04-05T20:04:13Z</time></trkpt><trkpt lat="36.839557388028844" lon="-108.12137970877242"><ele>1815.1999999999998</ele><time>2026-04-05T20:04:15Z</time></trkpt><trkpt lat="36.83963346222753" lon="-108.12136362446492"><ele>1816.0</ele><time>2026-04-05T20:04:16Z</time></trkpt><trkpt lat="36.83969979356763" lon="-108.12137577921447"><ele>1816.0</ele><time>2026-04-05T20:04:17Z</time></trkpt><trkpt lat="36.8397804216919" lon="-108.12140941027633"><ele>1816.0</ele><time>2026-04-05T20:04:18Z</time></trkpt><trkpt lat="36.839854450931675" lon="-108.1214117744258"><ele>1816.0</ele><time>2026-04-05T20:04:19Z</time></trkpt><trkpt lat="36.83993051098604" lon="-108.12135248056259"><ele>1816.0</ele><time>2026-04-05T20:04:20Z</time></trkpt><trkpt lat="36.84002806968344" lon="-108.12127997233266"><ele>1816.0</ele><time>2026-04-05T20:04:21Z</time></trkpt><trkpt lat="36.84013161248217" lon="-108.12122471873212"><ele>1815.0</ele><time>2026-04-05T20:04:21.999Z</time></trkpt><trkpt lat="36.84023204568017" lon="-108.12118064966747"><ele>1814.0</ele><time>2026-04-05T20:04:22.999Z</time></trkpt><trkpt lat="36.84030497892014" lon="-108.12112401156999"><ele>1813.0</ele><time>2026-04-05T20:04:23.999Z</time></trkpt><trkpt lat="36.84037672677079" lon="-108.12104100898996"><ele>1812.0</ele><time>2026-04-05T20:04:24.999Z</time></trkpt><trkpt lat="36.84043421365388" lon="-108.12092686383883"><ele>1811.0</ele><time>2026-04-05T20:04:25.999Z</time></trkpt><trkpt lat="36.840468943033294" lon="-108.12080543316043"><ele>1810.1999999999998</ele><time>2026-04-05T20:04:26.999Z</time></trkpt><trkpt lat="36.84050564261619" lon="-108.12069301586355"><ele>1809.3999999999999</ele><time>2026-04-05T20:04:27.999Z</time></trkpt><trkpt lat="36.840536343978066" lon="-108.12058414145272"><ele>1808.6</ele><time>2026-04-05T20:04:28.999Z</time></trkpt><trkpt lat="36.84057366455059" lon="-108.12047269880527"><ele>1807.8</ele><time>2026-04-05T20:04:29.999Z</time></trkpt><trkpt lat="36.84062830599144" lon="-108.12036799463671"><ele>1807.0</ele><time>2026-04-05T20:04:30.999Z</time></trkpt><trkpt lat="36.84068931565494" lon="-108.12026615495554"><ele>1807.0</ele><time>2026-04-05T20:04:31.999Z</time></trkpt><trkpt lat="36.84074869518909" lon="-108.12018042526446"><ele>1806.9999999999998</ele><time>2026-04-05T20:04:32.999Z</time></trkpt><trkpt lat="36.84082798848099" lon="-108.1201288948456"><ele>1806.9999999999998</ele><time>2026-04-05T20:04:33.999Z</time></trkpt><trkpt lat="36.84092610388175" lon="-108.12006160441688"><ele>1807.0</ele><time>2026-04-05T20:04:34.999Z</time></trkpt><trkpt lat="36.84100896455483" lon="-108.11997685111916"><ele>1807.0</ele><time>2026-04-05T20:04:35.999Z</time></trkpt><trkpt lat="36.841072684798014" lon="-108.11992298792816"><ele>1805.8</ele><time>2026-04-05T20:04:36.999Z</time></trkpt><trkpt lat="36.84116162366985" lon="-108.11989315624149"><ele>1804.6</ele><time>2026-04-05T20:04:37.999Z</time></trkpt><trkpt lat="36.84126366376125" lon="-108.11984813546394"><ele>1803.3999999999999</ele><time>2026-04-05T20:04:38.999Z</time></trkpt><trkpt lat="36.8413579989237" lon="-108.11981843397255"><ele>1802.1999999999998</ele><time>2026-04-05T20:04:39.999Z</time></trkpt><trkpt lat="36.841459306321745" lon="-108.11981313523341"><ele>1801.0</ele><time>2026-04-05T20:04:40.999Z</time></trkpt><trkpt lat="36.84158897162664" lon="-108.11981970623421"><ele>1801.0</ele><time>2026-04-05T20:04:41.999Z</time></trkpt><trkpt lat="36.84170085042834" lon="-108.11981725493871"><ele>1801.0</ele><time>2026-04-05T20:04:42.999Z</time></trkpt><trkpt lat="36.841811591788996" lon="-108.11980245525693"><ele>1801.0</ele><time>2026-04-05T20:04:43.999Z</time></trkpt><trkpt lat="36.84192585490679" lon="-108.11978503163189"><ele>1801.0</ele><time>2026-04-05T20:04:44.999Z</time></trkpt><trkpt lat="36.84202500893594" lon="-108.11976617524705"><ele>1801.0</ele><time>2026-04-05T20:04:45.999Z</time></trkpt><trkpt lat="36.842124274827164" lon="-108.1197247107495"><ele>1802.0</ele><time>2026-04-05T20:04:46.999Z</time></trkpt><trkpt lat="36.842236178628234" lon="-108.11967332146244"><ele>1803.0</ele><time>2026-04-05T20:04:47.999Z</time></trkpt><trkpt lat="36.84233841510893" lon="-108.11963203770995"><ele>1804.0</ele><time>2026-04-05T20:04:48.999Z</time></trkpt><trkpt lat="36.842425602147856" lon="-108.11964503263985"><ele>1805.0</ele><time>2026-04-05T20:04:49.999Z</time></trkpt><trkpt lat="36.84250532577465" lon="-108.11962648749873"><ele>1806.0</ele><time>2026-04-05T20:04:50.999Z</time></trkpt><trkpt lat="36.842567215666506" lon="-108.11957421123091"><ele>1806.1666666666667</ele><time>2026-04-05T20:04:51.999Z</time></trkpt><trkpt lat="36.842638885931954" lon="-108.11949809439515"><ele>1806.3333333333335</ele><time>2026-04-05T20:04:52.999Z</time></trkpt><trkpt lat="36.84269510348155" lon="-108.11944119771316"><ele>1806.5</ele><time>2026-04-05T20:04:53.999Z</time></trkpt><trkpt lat="36.842742449714514" lon="-108.11936893606203"><ele>1806.6666666666667</ele><time>2026-04-05T20:04:54.999Z</time></trkpt><trkpt lat="36.842790550660254" lon="-108.11926067304188"><ele>1806.8333333333335</ele><time>2026-04-05T20:04:55.999Z</time></trkpt><trkpt lat="36.8428355843534" lon="-108.11915405105478"><ele>1807.0</ele><time>2026-04-05T20:04:56.999Z</time></trkpt><trkpt lat="36.84292714800137" lon="-108.119054175754"><ele>1807.0</ele><time>2026-04-05T20:04:57.999Z</time></trkpt><trkpt lat="36.84300260180167" lon="-108.11896398422311"><ele>1806.9999999999998</ele><time>2026-04-05T20:04:58.998Z</time></trkpt><trkpt lat="36.843070857501196" lon="-108.11885570449714"><ele>1806.9999999999998</ele><time>2026-04-05T20:04:59.998Z</time></trkpt><trkpt lat="36.843119221594556" lon="-108.1187507811929"><ele>1807.0</ele><time>2026-04-05T20:05:00.998Z</time></trkpt><trkpt lat="36.84313385574127" lon="-108.11864657252441"><ele>1807.0</ele><time>2026-04-05T20:05:01.998Z</time></trkpt><trkpt lat="36.84315477374417" lon="-108.11856132872784"><ele>1807.0</ele><time>2026-04-05T20:05:02.998Z</time></trkpt><trkpt lat="36.843233693147425" lon="-108.11854295365754"><ele>1806.9999999999998</ele><time>2026-04-05T20:05:03.998Z</time></trkpt><trkpt lat="36.8433427884383" lon="-108.11854023818108"><ele>1806.9999999999998</ele><time>2026-04-05T20:05:04.998Z</time></trkpt><trkpt lat="36.843463637463564" lon="-108.118500592229"><ele>1807.0</ele><time>2026-04-05T20:05:05.998Z</time></trkpt><trkpt lat="36.84357684589238" lon="-108.11843028743618"><ele>1807.0</ele><time>2026-04-05T20:05:06.998Z</time></trkpt><trkpt lat="36.843650787175065" lon="-108.11837834851868"><ele>1807.3999999999999</ele><time>2026-04-05T20:05:07.999Z</time></trkpt><trkpt lat="36.84370238966632" lon="-108.11830371140712"><ele>1807.7999999999997</ele><time>2026-04-05T20:05:08.999Z</time></trkpt><trkpt lat="36.84375382413788" lon="-108.1181971833033"><ele>1808.2</ele><time>2026-04-05T20:05:09.999Z</time></trkpt><trkpt lat="36.84380851565357" lon="-108.11807010944766"><ele>1808.6</ele><time>2026-04-05T20:05:10.999Z</time></trkpt><trkpt lat="36.84386315351361" lon="-108.11795855600289"><ele>1809.0</ele><time>2026-04-05T20:05:11.999Z</time></trkpt><trkpt lat="36.843915116640275" lon="-108.11787601264369"><ele>1808.0</ele><time>2026-04-05T20:05:12.999Z</time></trkpt><trkpt lat="36.843990443151995" lon="-108.11781861871137"><ele>1807.0</ele><time>2026-04-05T20:05:13.999Z</time></trkpt><trkpt lat="36.844075436718875" lon="-108.11775345455851"><ele>1806.0</ele><time>2026-04-05T20:05:14.999Z</time></trkpt><trkpt lat="36.84414938027043" lon="-108.11766709830235"><ele>1805.0</ele><time>2026-04-05T20:05:15.999Z</time></trkpt><trkpt lat="36.844197813542756" lon="-108.11757019674457"><ele>1804.0</ele><time>2026-04-05T20:05:16.999Z</time></trkpt><trkpt lat="36.84423704141023" lon="-108.11750108795347"><ele>1803.0</ele><time>2026-04-05T20:05:17.999Z</time></trkpt><trkpt lat="36.84430462235311" lon="-108.11743996738211"><ele>1801.8000000000002</ele><time>2026-04-05T20:05:18.999Z</time></trkpt><trkpt lat="36.844390577338665" lon="-108.11739216872556"><ele>1800.6000000000001</ele><time>2026-04-05T20:05:19.999Z</time></trkpt><trkpt lat="36.84444479620191" lon="-108.1173360273968"><ele>1799.3999999999999</ele><time>2026-04-05T20:05:20.999Z</time></trkpt><trkpt lat="36.844501520885025" lon="-108.11726752811492"><ele>1798.1999999999998</ele><time>2026-04-05T20:05:21.999Z</time></trkpt><trkpt lat="36.844546969027185" lon="-108.11716720916237"><ele>1797.0</ele><time>2026-04-05T20:05:22.999Z</time></trkpt><trkpt lat="36.844591767655615" lon="-108.11703547945399"><ele>1797.0</ele><time>2026-04-05T20:05:23.999Z</time></trkpt><trkpt lat="36.84463858265257" lon="-108.11693519320643"><ele>1796.9999999999998</ele><time>2026-04-05T20:05:24.999Z</time></trkpt><trkpt lat="36.844674460226635" lon="-108.11684128180275"><ele>1796.9999999999998</ele><time>2026-04-05T20:05:25.999Z</time></trkpt><trkpt lat="36.844716334173384" lon="-108.116749363957"><ele>1797.0</ele><time>2026-04-05T20:05:26.999Z</time></trkpt><trkpt lat="36.84477705820375" lon="-108.1166382106479"><ele>1797.0</ele><time>2026-04-05T20:05:27.999Z</time></trkpt><trkpt lat="36.84487011847084" lon="-108.11654455787023"><ele>1798.25</ele><time>2026-04-05T20:05:28.999Z</time></trkpt><trkpt lat="36.84496154598744" lon="-108.11648256790971"><ele>1799.5</ele><time>2026-04-05T20:05:29.999Z</time></trkpt><trkpt lat="36.84507020003664" lon="-108.11641247596754"><ele>1800.75</ele><time>2026-04-05T20:05:30.999Z</time></trkpt><trkpt lat="36.8451729290206" lon="-108.11631634800054"><ele>1802.0</ele><time>2026-04-05T20:05:31.999Z</time></trkpt><trkpt lat="36.845234645796296" lon="-108.11620321031921"><ele>1802.4999999999998</ele><time>2026-04-05T20:05:32.999Z</time></trkpt><trkpt lat="36.84526539908818" lon="-108.1161235268242"><ele>1803.0</ele><time>2026-04-05T20:05:33.999Z</time></trkpt><trkpt lat="36.84530040023404" lon="-108.11602195635004"><ele>1803.5</ele><time>2026-04-05T20:05:35.999Z</time></trkpt><trkpt lat="36.8452535509431" lon="-108.11591917461618"><ele>1804.0</ele><time>2026-04-05T20:05:36.999Z</time></trkpt><trkpt lat="36.845207182607" lon="-108.11583710193135"><ele>1804.4999999999998</ele><time>2026-04-05T20:05:37.999Z</time></trkpt><trkpt lat="36.84514608760906" lon="-108.11579707709453"><ele>1805.0</ele><time>2026-04-05T20:05:39.999Z</time></trkpt><trkpt lat="36.84503293543498" lon="-108.1156467966469"><ele>1805.2</ele><time>2026-04-05T20:12:48.999Z</time></trkpt><trkpt lat="36.84497587317589" lon="-108.11554885848426"><ele>1805.4</ele><time>2026-04-05T20:12:49.999Z</time></trkpt><trkpt lat="36.844928702579736" lon="-108.11543001778783"><ele>1805.6</ele><time>2026-04-05T20:12:50.999Z</time></trkpt><trkpt lat="36.84489351553439" lon="-108.11529261796314"><ele>1805.8</ele><time>2026-04-05T20:12:51.999Z</time></trkpt><trkpt lat="36.84486874590777" lon="-108.11515115855202"><ele>1806.0</ele><time>2026-04-05T20:12:52.999Z</time></trkpt><trkpt lat="36.844838982528096" lon="-108.11503655625482"><ele>1806.0</ele><time>2026-04-05T20:12:53.999Z</time></trkpt><trkpt lat="36.84486728530414" lon="-108.11494579238311"><ele>1806.0</ele><time>2026-04-05T20:12:55.999Z</time></trkpt><trkpt lat="36.84493874950185" lon="-108.11487963528907"><ele>1806.0</ele><time>2026-04-05T20:12:56.999Z</time></trkpt><trkpt lat="36.84499641740826" lon="-108.11479661163875"><ele>1806.0</ele><time>2026-04-05T20:12:57.999Z</time></trkpt><trkpt lat="36.84501262320009" lon="-108.11471955502721"><ele>1806.0</ele><time>2026-04-05T20:12:58.999Z</time></trkpt><trkpt lat="36.844969032423954" lon="-108.11461188944062"><ele>1806.0</ele><time>2026-04-05T20:12:59.999Z</time></trkpt><trkpt lat="36.84494285781245" lon="-108.114525974046"><ele>1807.25</ele><time>2026-04-05T20:13:00.999Z</time></trkpt><trkpt lat="36.84501305259931" lon="-108.11436787009092"><ele>1808.5</ele><time>2026-04-05T20:13:02.999Z</time></trkpt><trkpt lat="36.84501965331437" lon="-108.11423789424936"><ele>1809.75</ele><time>2026-04-05T20:13:03.999Z</time></trkpt><trkpt lat="36.84500737705561" lon="-108.1141103340792"><ele>1811.0</ele><time>2026-04-05T20:13:04.999Z</time></trkpt><trkpt lat="36.844972904491456" lon="-108.11399067794208"><ele>1812.0</ele><time>2026-04-05T20:13:05.999Z</time></trkpt><trkpt lat="36.84493328257718" lon="-108.11391814134224"><ele>1813.0</ele><time>2026-04-05T20:13:06.999Z</time></trkpt><trkpt lat="36.84498114483383" lon="-108.11382884012059"><ele>1814.0</ele><time>2026-04-05T20:13:08.999Z</time></trkpt><trkpt lat="36.84500047335397" lon="-108.1137029041566"><ele>1815.0</ele><time>2026-04-05T20:13:09.999Z</time></trkpt><trkpt lat="36.84496609742981" lon="-108.1136012386936"><ele>1816.0</ele><time>2026-04-05T20:13:10.999Z</time></trkpt><trkpt lat="36.84490799215433" lon="-108.1134953394025"><ele>1816.0</ele><time>2026-04-05T20:13:12.999Z</time></trkpt><trkpt lat="36.84478200282864" lon="-108.11336966132916"><ele>1816.0</ele><time>2026-04-05T20:13:14.999Z</time></trkpt><trkpt lat="36.84469592934642" lon="-108.11326930591066"><ele>1816.0</ele><time>2026-04-05T20:13:15.999Z</time></trkpt><trkpt lat="36.844630181669714" lon="-108.11317081518729"><ele>1816.0</ele><time>2026-04-05T20:13:16.999Z</time></trkpt><trkpt lat="36.84457422325958" lon="-108.11304466533018"><ele>1816.0</ele><time>2026-04-05T20:13:17.999Z</time></trkpt><trkpt lat="36.84452752554352" lon="-108.11289798697693"><ele>1816.0</ele><time>2026-04-05T20:13:18.999Z</time></trkpt><trkpt lat="36.844455003040395" lon="-108.11280016901422"><ele>1816.0</ele><time>2026-04-05T20:13:19.999Z</time></trkpt><trkpt lat="36.84440956749761" lon="-108.11271070822974"><ele>1816.0</ele><time>2026-04-05T20:13:20.999Z</time></trkpt><trkpt lat="36.84439228205328" lon="-108.11259237042272"><ele>1816.0</ele><time>2026-04-05T20:13:21.999Z</time></trkpt><trkpt lat="36.84439538288672" lon="-108.11240468210458"><ele>1816.6666666666667</ele><time>2026-04-05T20:13:22.999Z</time></trkpt><trkpt lat="36.844391388212415" lon="-108.11220142166083"><ele>1817.3333333333335</ele><time>2026-04-05T20:13:23.999Z</time></trkpt><trkpt lat="36.84438218722707" lon="-108.11199683613981"><ele>1818.0</ele><time>2026-04-05T20:13:24.999Z</time></trkpt><trkpt lat="36.84436122143081" lon="-108.11181086166539"><ele>1818.0</ele><time>2026-04-05T20:13:25.999Z</time></trkpt><trkpt lat="36.84434261530505" lon="-108.11170222445224"><ele>1818.0</ele><time>2026-04-05T20:13:26.999Z</time></trkpt><trkpt lat="36.84433585796314" lon="-108.11161528850583"><ele>1818.0</ele><time>2026-04-05T20:13:27.999Z</time></trkpt><trkpt lat="36.84428984281562" lon="-108.11149420839018"><ele>1818.0</ele><time>2026-04-05T20:13:29.999Z</time></trkpt><trkpt lat="36.84421776410205" lon="-108.11144092829858"><ele>1818.0</ele><time>2026-04-05T20:13:30.999Z</time></trkpt><trkpt lat="36.84415383805441" lon="-108.11143480547096"><ele>1818.0</ele><time>2026-04-05T20:13:32Z</time></trkpt><trkpt lat="36.84408882465803" lon="-108.11144888670154"><ele>1817.8333333333333</ele><time>2026-04-05T20:13:33Z</time></trkpt><trkpt lat="36.84401568326784" lon="-108.11146484803473"><ele>1817.6666666666665</ele><time>2026-04-05T20:13:34Z</time></trkpt><trkpt lat="36.84393971095954" lon="-108.11149004312662"><ele>1817.5</ele><time>2026-04-05T20:13:35Z</time></trkpt><trkpt lat="36.843840245339415" lon="-108.11153369837228"><ele>1817.3333333333333</ele><time>2026-04-05T20:13:36Z</time></trkpt><trkpt lat="36.84374562952875" lon="-108.11157717882234"><ele>1817.1666666666665</ele><time>2026-04-05T20:13:37Z</time></trkpt><trkpt lat="36.84367241770492" lon="-108.11160057646812"><ele>1817.0</ele><time>2026-04-05T20:13:38Z</time></trkpt><trkpt lat="36.84359319166657" lon="-108.11160164686554"><ele>1817.0</ele><time>2026-04-05T20:13:39Z</time></trkpt><trkpt lat="36.84350043087967" lon="-108.11158536225581"><ele>1816.9999999999998</ele><time>2026-04-05T20:13:40Z</time></trkpt><trkpt lat="36.8434262767499" lon="-108.11159026865292"><ele>1816.9999999999998</ele><time>2026-04-05T20:13:41Z</time></trkpt><trkpt lat="36.843317970178674" lon="-108.11154521566804"><ele>1817.0</ele><time>2026-04-05T20:13:43Z</time></trkpt><trkpt lat="36.84322933951357" lon="-108.11148701047281"><ele>1817.0</ele><time>2026-04-05T20:13:44Z</time></trkpt><trkpt lat="36.84314110402429" lon="-108.11144623667037"><ele>1815.6666666666665</ele><time>2026-04-05T20:13:45Z</time></trkpt><trkpt lat="36.84306874102127" lon="-108.11141546643806"><ele>1814.3333333333333</ele><time>2026-04-05T20:13:46Z</time></trkpt><trkpt lat="36.84299582924653" lon="-108.11137494269056"><ele>1813.0</ele><time>2026-04-05T20:13:47Z</time></trkpt><trkpt lat="36.84293228700063" lon="-108.11131872496372"><ele>1811.6666666666665</ele><time>2026-04-05T20:13:48Z</time></trkpt><trkpt lat="36.842926815731325" lon="-108.11122921578954"><ele>1810.3333333333333</ele><time>2026-04-05T20:13:50Z</time></trkpt><trkpt lat="36.8428857478435" lon="-108.11114036893136"><ele>1809.0</ele><time>2026-04-05T20:13:51Z</time></trkpt><trkpt lat="36.84279785035616" lon="-108.11106120618213"><ele>1809.0</ele><time>2026-04-05T20:13:52Z</time></trkpt><trkpt lat="36.842691989240556" lon="-108.11098475624878"><ele>1809.0</ele><time>2026-04-05T20:13:53Z</time></trkpt><trkpt lat="36.842579993054535" lon="-108.11088045620836"><ele>1809.0</ele><time>2026-04-05T20:13:54Z</time></trkpt><trkpt lat="36.842460724640915" lon="-108.11076586279769"><ele>1809.0</ele><time>2026-04-05T20:13:55Z</time></trkpt><trkpt lat="36.84235966261389" lon="-108.11066760714817"><ele>1808.1666666666667</ele><time>2026-04-05T20:13:56Z</time></trkpt><trkpt lat="36.84228090924077" lon="-108.11060179133649"><ele>1807.3333333333335</ele><time>2026-04-05T20:13:57Z</time></trkpt><trkpt lat="36.84219365003481" lon="-108.11053381246505"><ele>1806.5</ele><time>2026-04-05T20:13:58Z</time></trkpt><trkpt lat="36.8421364248068" lon="-108.11048538681497"><ele>1805.6666666666667</ele><time>2026-04-05T20:13:59Z</time></trkpt><trkpt lat="36.84207728763276" lon="-108.11043417294482"><ele>1804.8333333333335</ele><time>2026-04-05T20:14:01Z</time></trkpt><trkpt lat="36.84208357643577" lon="-108.11035213182049"><ele>1804.0</ele><time>2026-04-05T20:14:06Z</time></trkpt><trkpt lat="36.842115586995504" lon="-108.11010923248968"><ele>1804.0</ele><time>2026-04-05T20:14:09Z</time></trkpt><trkpt lat="36.842159759725" lon="-108.11000928182084"><ele>1804.0</ele><time>2026-04-05T20:14:10Z</time></trkpt><trkpt lat="36.84220378845571" lon="-108.10990719027821"><ele>1804.0</ele><time>2026-04-05T20:14:11Z</time></trkpt><trkpt lat="36.842253796989375" lon="-108.10981197109791"><ele>1804.0</ele><time>2026-04-05T20:14:12Z</time></trkpt><trkpt lat="36.84229899982366" lon="-108.10969777245994"><ele>1804.0</ele><time>2026-04-05T20:14:13Z</time></trkpt><trkpt lat="36.84231027478344" lon="-108.1095893624195"><ele>1804.6</ele><time>2026-04-05T20:14:14Z</time></trkpt><trkpt lat="36.842292206154845" lon="-108.1094939344439"><ele>1805.2</ele><time>2026-04-05T20:14:15Z</time></trkpt><trkpt lat="36.8422591018929" lon="-108.10941932307705"><ele>1805.7999999999997</ele><time>2026-04-05T20:14:16Z</time></trkpt><trkpt lat="36.84227018970026" lon="-108.1092713060943"><ele>1806.3999999999999</ele><time>2026-04-05T20:14:18Z</time></trkpt><trkpt lat="36.842321940799614" lon="-108.10912903980638"><ele>1807.0</ele><time>2026-04-05T20:14:20Z</time></trkpt><trkpt lat="36.84235118366838" lon="-108.10902364543793"><ele>1805.3999999999999</ele><time>2026-04-05T20:14:21Z</time></trkpt><trkpt lat="36.84237579388333" lon="-108.108916880623"><ele>1803.7999999999997</ele><time>2026-04-05T20:14:22Z</time></trkpt><trkpt lat="36.84239677968186" lon="-108.10880820934759"><ele>1802.2</ele><time>2026-04-05T20:14:23Z</time></trkpt><trkpt lat="36.84243815086703" lon="-108.1086955096887"><ele>1800.6</ele><time>2026-04-05T20:14:24Z</time></trkpt><trkpt lat="36.84247194474181" lon="-108.10859540079598"><ele>1799.0</ele><time>2026-04-05T20:14:25Z</time></trkpt><trkpt lat="36.84250556502049" lon="-108.10849598457494"><ele>1799.0</ele><time>2026-04-05T20:14:26Z</time></trkpt><trkpt lat="36.84253974528811" lon="-108.10839887554532"><ele>1799.0</ele><time>2026-04-05T20:14:27Z</time></trkpt><trkpt lat="36.84255457330947" lon="-108.10830840984947"><ele>1799.0</ele><time>2026-04-05T20:14:28Z</time></trkpt><trkpt lat="36.84250374927367" lon="-108.10823219704226"><ele>1799.0</ele><time>2026-04-05T20:14:29Z</time></trkpt><trkpt lat="36.842433804751956" lon="-108.10817011746873"><ele>1799.0</ele><time>2026-04-05T20:14:29.999Z</time></trkpt><trkpt lat="36.84228128805156" lon="-108.10810694985284"><ele>1797.0</ele><time>2026-04-05T20:14:30.999Z</time></trkpt><trkpt lat="36.84215476583131" lon="-108.10802310781214"><ele>1795.0</ele><time>2026-04-05T20:14:31.999Z</time></trkpt><trkpt lat="36.842056465642344" lon="-108.1079480781961"><ele>1793.0</ele><time>2026-04-05T20:14:32.999Z</time></trkpt><trkpt lat="36.84197791917889" lon="-108.10787132297642"><ele>1791.0</ele><time>2026-04-05T20:14:33.999Z</time></trkpt><trkpt lat="36.84189494830294" lon="-108.10780140952315"><ele>1791.0</ele><time>2026-04-05T20:14:34.999Z</time></trkpt><trkpt lat="36.84185707496798" lon="-108.10770649766741"><ele>1791.0</ele><time>2026-04-05T20:14:36.999Z</time></trkpt><trkpt lat="36.84186336003127" lon="-108.10759958434609"><ele>1791.0</ele><time>2026-04-05T20:14:37.999Z</time></trkpt><trkpt lat="36.84182312681159" lon="-108.10743204268253"><ele>1791.0</ele><time>2026-04-05T20:14:38.999Z</time></trkpt><trkpt lat="36.841796279070515" lon="-108.10730059710153"><ele>1791.0</ele><time>2026-04-05T20:14:39.999Z</time></trkpt><trkpt lat="36.841777168935714" lon="-108.10721844792492"><ele>1790.4</ele><time>2026-04-05T20:14:40.999Z</time></trkpt><trkpt lat="36.84181537263069" lon="-108.10712921344647"><ele>1789.8</ele><time>2026-04-05T20:14:44.999Z</time></trkpt><trkpt lat="36.84189374739558" lon="-108.10700301220854"><ele>1789.2000000000003</ele><time>2026-04-05T20:14:46.999Z</time></trkpt><trkpt lat="36.84194047144372" lon="-108.10690474962774"><ele>1788.6000000000001</ele><time>2026-04-05T20:14:47.999Z</time></trkpt><trkpt lat="36.84198633219871" lon="-108.10681622459973"><ele>1788.0</ele><time>2026-04-05T20:14:48.999Z</time></trkpt><trkpt lat="36.842053810288554" lon="-108.10675214404378"><ele>1788.0</ele><time>2026-04-05T20:14:49.999Z</time></trkpt><trkpt lat="36.84213849176838" lon="-108.10666662462955"><ele>1788.0000000000002</ele><time>2026-04-05T20:14:50.999Z</time></trkpt><trkpt lat="36.84222455214146" lon="-108.10657691689877"><ele>1788.0000000000002</ele><time>2026-04-05T20:14:51.999Z</time></trkpt><trkpt lat="36.84228704421855" lon="-108.10649310453897"><ele>1788.0</ele><time>2026-04-05T20:14:52.999Z</time></trkpt><trkpt lat="36.84233542156857" lon="-108.1063919385743"><ele>1788.0</ele><time>2026-04-05T20:14:53.999Z</time></trkpt><trkpt lat="36.84237821158898" lon="-108.10625714103894"><ele>1787.6666666666667</ele><time>2026-04-05T20:14:54.999Z</time></trkpt><trkpt lat="36.84240858661602" lon="-108.10613112370395"><ele>1787.3333333333335</ele><time>2026-04-05T20:14:55.999Z</time></trkpt><trkpt lat="36.842424040617125" lon="-108.10604761170657"><ele>1787.0</ele><time>2026-04-05T20:14:56.999Z</time></trkpt><trkpt lat="36.842410012292504" lon="-108.10591970933606"><ele>1786.6666666666667</ele><time>2026-04-05T20:14:58.999Z</time></trkpt><trkpt lat="36.84237555826228" lon="-108.10584439106857"><ele>1786.3333333333335</ele><time>2026-04-05T20:14:59.999Z</time></trkpt><trkpt lat="36.84231911114502" lon="-108.10575533246212"><ele>1786.0</ele><time>2026-04-05T20:15:00.999Z</time></trkpt><trkpt lat="36.84224154778178" lon="-108.10568568412299"><ele>1785.8</ele><time>2026-04-05T20:15:01.999Z</time></trkpt><trkpt lat="36.842169129503624" lon="-108.10560936840196"><ele>1785.6</ele><time>2026-04-05T20:15:02.999Z</time></trkpt><trkpt lat="36.84208333996297" lon="-108.10551450227717"><ele>1785.4</ele><time>2026-04-05T20:15:03.999Z</time></trkpt><trkpt lat="36.84201191637547" lon="-108.1054225245634"><ele>1785.2</ele><time>2026-04-05T20:15:04.999Z</time></trkpt><trkpt lat="36.84195761318007" lon="-108.10536468064196"><ele>1785.0</ele><time>2026-04-05T20:15:05.999Z</time></trkpt><trkpt lat="36.84189938519661" lon="-108.1053086222676"><ele>1785.0</ele><time>2026-04-05T20:15:07.999Z</time></trkpt><trkpt lat="36.84199774065984" lon="-108.10515082751981"><ele>1785.0</ele><time>2026-04-05T20:15:09.999Z</time></trkpt><trkpt lat="36.842071334482384" lon="-108.10510259074542"><ele>1785.0</ele><time>2026-04-05T20:15:10.999Z</time></trkpt><trkpt lat="36.842170600125115" lon="-108.10504440560508"><ele>1785.0</ele><time>2026-04-05T20:15:11.999Z</time></trkpt><trkpt lat="36.842284623859115" lon="-108.1049817191081"><ele>1785.0</ele><time>2026-04-05T20:15:12.999Z</time></trkpt><trkpt lat="36.84238503355152" lon="-108.10494551537039"><ele>1785.0</ele><time>2026-04-05T20:15:13.999Z</time></trkpt><trkpt lat="36.84246285415516" lon="-108.10492514103079"><ele>1785.0</ele><time>2026-04-05T20:15:14.999Z</time></trkpt><trkpt lat="36.84257513626132" lon="-108.10481723579056"><ele>1785.0</ele><time>2026-04-05T20:15:16.999Z</time></trkpt><trkpt lat="36.84262427707668" lon="-108.10476303287737"><ele>1785.0</ele><time>2026-04-05T20:15:17.999Z</time></trkpt><trkpt lat="36.842717382712706" lon="-108.10474796860191"><ele>1786.0</ele><time>2026-04-05T20:15:19.999Z</time></trkpt><trkpt lat="36.8427536146078" lon="-108.1046831359129"><ele>1787.0</ele><time>2026-04-05T20:15:20.999Z</time></trkpt><trkpt lat="36.842777376372474" lon="-108.10458734387642"><ele>1788.0</ele><time>2026-04-05T20:15:22.999Z</time></trkpt><trkpt lat="36.84277498529012" lon="-108.10449562680733"><ele>1789.0</ele><time>2026-04-05T20:15:25.999Z</time></trkpt><trkpt lat="36.84281516506131" lon="-108.10429875164338"><ele>1790.0</ele><time>2026-04-05T20:15:27.999Z</time></trkpt><trkpt lat="36.84286542888773" lon="-108.10414495051262"><ele>1789.0</ele><time>2026-04-05T20:15:28.999Z</time></trkpt><trkpt lat="36.8429270508701" lon="-108.10395714157514"><ele>1788.0</ele><time>2026-04-05T20:15:29.999Z</time></trkpt><trkpt lat="36.842991893935874" lon="-108.10374526068024"><ele>1787.0</ele><time>2026-04-05T20:15:30.999Z</time></trkpt><trkpt lat="36.84306397191652" lon="-108.10351885883088"><ele>1787.0</ele><time>2026-04-05T20:15:31.999Z</time></trkpt><trkpt lat="36.84313006551869" lon="-108.10330371766933"><ele>1787.0</ele><time>2026-04-05T20:15:32.999Z</time></trkpt><trkpt lat="36.843190387380105" lon="-108.10309941974435"><ele>1787.0</ele><time>2026-04-05T20:15:33.999Z</time></trkpt><trkpt lat="36.84324035850314" lon="-108.10291861574377"><ele>1787.8</ele><time>2026-04-05T20:15:34.999Z</time></trkpt><trkpt lat="36.843282263511774" lon="-108.10276313579973"><ele>1788.6</ele><time>2026-04-05T20:15:35.999Z</time></trkpt><trkpt lat="36.843319429713645" lon="-108.1026243291682"><ele>1789.3999999999999</ele><time>2026-04-05T20:15:36.999Z</time></trkpt><trkpt lat="36.84336089623182" lon="-108.10250645216698"><ele>1790.1999999999998</ele><time>2026-04-05T20:15:38Z</time></trkpt><trkpt lat="36.84339146442758" lon="-108.10240598747768"><ele>1791.0</ele><time>2026-04-05T20:15:39Z</time></trkpt><trkpt lat="36.84343310745574" lon="-108.10231392685812"><ele>1792.1999999999998</ele><time>2026-04-05T20:15:40Z</time></trkpt><trkpt lat="36.84346829292314" lon="-108.10219164321892"><ele>1793.3999999999999</ele><time>2026-04-05T20:15:41Z</time></trkpt><trkpt lat="36.84351157927231" lon="-108.10205789312823"><ele>1794.6</ele><time>2026-04-05T20:15:42Z</time></trkpt><trkpt lat="36.84352095011023" lon="-108.10195550121907"><ele>1795.8</ele><time>2026-04-05T20:15:43Z</time></trkpt><trkpt lat="36.843516661178036" lon="-108.10184712465453"><ele>1797.0</ele><time>2026-04-05T20:15:44Z</time></trkpt><trkpt lat="36.843519654853814" lon="-108.10172638007602"><ele>1797.0</ele><time>2026-04-05T20:15:45Z</time></trkpt><trkpt lat="36.84352822673494" lon="-108.10163794944279"><ele>1796.9999999999998</ele><time>2026-04-05T20:15:46Z</time></trkpt><trkpt lat="36.84356522730685" lon="-108.10149022058485"><ele>1796.9999999999998</ele><time>2026-04-05T20:15:48Z</time></trkpt><trkpt lat="36.843576760557895" lon="-108.10137003359216"><ele>1797.0</ele><time>2026-04-05T20:15:49Z</time></trkpt><trkpt lat="36.84352256627467" lon="-108.10124387200548"><ele>1797.0</ele><time>2026-04-05T20:15:50Z</time></trkpt><trkpt lat="36.843512697198946" lon="-108.10114458811549"><ele>1797.8571428571427</ele><time>2026-04-05T20:15:51Z</time></trkpt><trkpt lat="36.84352331099543" lon="-108.10105788080365"><ele>1798.7142857142858</ele><time>2026-04-05T20:15:52Z</time></trkpt><trkpt lat="36.84354169392585" lon="-108.1009551825846"><ele>1799.5714285714284</ele><time>2026-04-05T20:15:53Z</time></trkpt><trkpt lat="36.843580888203775" lon="-108.10088553461668"><ele>1800.4285714285713</ele><time>2026-04-05T20:15:54Z</time></trkpt><trkpt lat="36.843612832461154" lon="-108.10080764129931"><ele>1801.2857142857142</ele><time>2026-04-05T20:15:55Z</time></trkpt><trkpt lat="36.84362583394575" lon="-108.10071501887597"><ele>1802.142857142857</ele><time>2026-04-05T20:15:56Z</time></trkpt><trkpt lat="36.843628169385056" lon="-108.10061910933415"><ele>1803.0</ele><time>2026-04-05T20:15:57Z</time></trkpt><trkpt lat="36.84367210978721" lon="-108.10055886620815"><ele>1803.8000000000002</ele><time>2026-04-05T20:15:58Z</time></trkpt><trkpt lat="36.84375588286493" lon="-108.10049087324538"><ele>1804.6000000000001</ele><time>2026-04-05T20:15:59Z</time></trkpt><trkpt lat="36.84384974187453" lon="-108.10041965789371"><ele>1805.3999999999999</ele><time>2026-04-05T20:16:00Z</time></trkpt><trkpt lat="36.84394601297024" lon="-108.10034859744893"><ele>1806.1999999999998</ele><time>2026-04-05T20:16:01Z</time></trkpt><trkpt lat="36.84402493521687" lon="-108.1002790118296"><ele>1807.0</ele><time>2026-04-05T20:16:02Z</time></trkpt><trkpt lat="36.844086519312995" lon="-108.10014441676286"><ele>1807.0000000000002</ele><time>2026-04-05T20:16:04Z</time></trkpt><trkpt lat="36.844122746895664" lon="-108.10005490407602"><ele>1807.0</ele><time>2026-04-05T20:16:05Z</time></trkpt><trkpt lat="36.844180951915206" lon="-108.10000548599237"><ele>1807.0</ele><time>2026-04-05T20:16:06Z</time></trkpt><trkpt lat="36.84425829511784" lon="-108.09997056166355"><ele>1807.0</ele><time>2026-04-05T20:16:07Z</time></trkpt><trkpt lat="36.84433146997145" lon="-108.09992934949786"><ele>1807.0000000000002</ele><time>2026-04-05T20:16:08Z</time></trkpt><trkpt lat="36.8444084511287" lon="-108.09988549723145"><ele>1807.0</ele><time>2026-04-05T20:16:09Z</time></trkpt><trkpt lat="36.84447811632031" lon="-108.09984918148598"><ele>1807.0000000000002</ele><time>2026-04-05T20:16:10Z</time></trkpt><trkpt lat="36.84455130825614" lon="-108.09983042294694"><ele>1807.0</ele><time>2026-04-05T20:16:11Z</time></trkpt><trkpt lat="36.844628640616726" lon="-108.09983101141779"><ele>1807.0</ele><time>2026-04-05T20:16:12Z</time></trkpt><trkpt lat="36.84474482976735" lon="-108.0998522334307"><ele>1807.0</ele><time>2026-04-05T20:16:14Z</time></trkpt><trkpt lat="36.84480667146397" lon="-108.09990646459669"><ele>1807.0000000000002</ele><time>2026-04-05T20:16:15Z</time></trkpt><trkpt lat="36.84487218230584" lon="-108.1000058316784"><ele>1807.0</ele><time>2026-04-05T20:16:16Z</time></trkpt><trkpt lat="36.844957049154154" lon="-108.10008414874382"><ele>1806.8333333333335</ele><time>2026-04-05T20:16:17Z</time></trkpt><trkpt lat="36.84502701425191" lon="-108.10013836995357"><ele>1806.6666666666667</ele><time>2026-04-05T20:16:18Z</time></trkpt><trkpt lat="36.84509295466408" lon="-108.1001471595645"><ele>1806.5</ele><time>2026-04-05T20:16:19Z</time></trkpt><trkpt lat="36.84516146807265" lon="-108.1001320347268"><ele>1806.3333333333335</ele><time>2026-04-05T20:16:20Z</time></trkpt><trkpt lat="36.84523731112705" lon="-108.10013415638853"><ele>1806.1666666666667</ele><time>2026-04-05T20:16:21Z</time></trkpt><trkpt lat="36.845322084358614" lon="-108.10019722837653"><ele>1806.0</ele><time>2026-04-05T20:16:22Z</time></trkpt><trkpt lat="36.845386034993325" lon="-108.1001886310087"><ele>1805.8</ele><time>2026-04-05T20:16:23Z</time></trkpt><trkpt lat="36.84546258917737" lon="-108.10011792022459"><ele>1805.6</ele><time>2026-04-05T20:16:24Z</time></trkpt><trkpt lat="36.845544957162275" lon="-108.1000589711204"><ele>1805.4</ele><time>2026-04-05T20:16:25Z</time></trkpt><trkpt lat="36.845627956966155" lon="-108.1000054972663"><ele>1805.2</ele><time>2026-04-05T20:16:26Z</time></trkpt><trkpt lat="36.84571368173008" lon="-108.0999201893122"><ele>1805.0</ele><time>2026-04-05T20:16:27Z</time></trkpt><trkpt lat="36.84579955375981" lon="-108.09984436932461"><ele>1805.0</ele><time>2026-04-05T20:16:28Z</time></trkpt><trkpt lat="36.84588397407842" lon="-108.09986531237482"><ele>1805.0</ele><time>2026-04-05T20:16:30Z</time></trkpt><trkpt lat="36.8459652830239" lon="-108.09996289094174"><ele>1805.0</ele><time>2026-04-05T20:16:31Z</time></trkpt><trkpt lat="36.84607252149748" lon="-108.10004082750142"><ele>1805.0</ele><time>2026-04-05T20:16:32Z</time></trkpt><trkpt lat="36.84619087058491" lon="-108.1000689090991"><ele>1805.0</ele><time>2026-04-05T20:16:33Z</time></trkpt><trkpt lat="36.84631824648316" lon="-108.10008218305433"><ele>1804.25</ele><time>2026-04-05T20:16:34Z</time></trkpt><trkpt lat="36.846426273967644" lon="-108.10012986364457"><ele>1803.5</ele><time>2026-04-05T20:16:35Z</time></trkpt><trkpt lat="36.84655161295257" lon="-108.10016274442334"><ele>1802.75</ele><time>2026-04-05T20:16:36Z</time></trkpt><trkpt lat="36.84667922094697" lon="-108.10016549361593"><ele>1802.0</ele><time>2026-04-05T20:16:37Z</time></trkpt><trkpt lat="36.846763158390175" lon="-108.10016853926302"><ele>1802.1999999999998</ele><time>2026-04-05T20:16:38Z</time></trkpt><trkpt lat="36.84683324247789" lon="-108.10013605792095"><ele>1802.3999999999999</ele><time>2026-04-05T20:16:39Z</time></trkpt><trkpt lat="36.84689276841392" lon="-108.10003817617908"><ele>1802.6000000000001</ele><time>2026-04-05T20:16:40Z</time></trkpt><trkpt lat="36.84694230712293" lon="-108.0999028288809"><ele>1802.8000000000002</ele><time>2026-04-05T20:16:41Z</time></trkpt><trkpt lat="36.84698006324549" lon="-108.0997465595053"><ele>1803.0</ele><time>2026-04-05T20:16:42Z</time></trkpt><trkpt lat="36.84705226514225" lon="-108.09962170456794"><ele>1803.0</ele><time>2026-04-05T20:16:43Z</time></trkpt><trkpt lat="36.84715987230085" lon="-108.099534595644"><ele>1803.0</ele><time>2026-04-05T20:16:44Z</time></trkpt><trkpt lat="36.84730017818068" lon="-108.09942109665461"><ele>1803.0</ele><time>2026-04-05T20:16:44.999Z</time></trkpt><trkpt lat="36.847435529313195" lon="-108.09929369890989"><ele>1803.0</ele><time>2026-04-05T20:16:45.999Z</time></trkpt><trkpt lat="36.84751937216196" lon="-108.09917667277873"><ele>1803.0</ele><time>2026-04-05T20:16:46.999Z</time></trkpt><trkpt lat="36.84757664848162" lon="-108.09903831579223"><ele>1803.0</ele><time>2026-04-05T20:16:47.999Z</time></trkpt><trkpt lat="36.84763365196164" lon="-108.09887604897082"><ele>1803.0</ele><time>2026-04-05T20:16:48.999Z</time></trkpt><trkpt lat="36.84771527914888" lon="-108.09872722917683"><ele>1804.0</ele><time>2026-04-05T20:16:49.999Z</time></trkpt><trkpt lat="36.84780999908011" lon="-108.09860106916992"><ele>1805.0</ele><time>2026-04-05T20:16:50.999Z</time></trkpt><trkpt lat="36.84791519621381" lon="-108.09848516387208"><ele>1806.0</ele><time>2026-04-05T20:16:51.999Z</time></trkpt><trkpt lat="36.848004394392106" lon="-108.0983864558237"><ele>1807.0</ele><time>2026-04-05T20:16:52.999Z</time></trkpt><trkpt lat="36.84808124788513" lon="-108.09833137378048"><ele>1807.0</ele><time>2026-04-05T20:16:53.999Z</time></trkpt><trkpt lat="36.84816257166609" lon="-108.09829754421604"><ele>1806.9999999999998</ele><time>2026-04-05T20:16:54.999Z</time></trkpt><trkpt lat="36.84824448927348" lon="-108.09825925328161"><ele>1806.9999999999998</ele><time>2026-04-05T20:16:55.999Z</time></trkpt><trkpt lat="36.84833128679303" lon="-108.09819334626997"><ele>1807.0</ele><time>2026-04-05T20:16:56.999Z</time></trkpt><trkpt lat="36.84841856930352" lon="-108.09816556829963"><ele>1807.0</ele><time>2026-04-05T20:16:57.999Z</time></trkpt><trkpt lat="36.84852539986191" lon="-108.098122979194"><ele>1808.1999999999998</ele><time>2026-04-05T20:16:58.999Z</time></trkpt><trkpt lat="36.848632733170575" lon="-108.09806855218426"><ele>1809.3999999999999</ele><time>2026-04-05T20:16:59.999Z</time></trkpt><trkpt lat="36.84869941845502" lon="-108.09807549567803"><ele>1810.6000000000001</ele><time>2026-04-05T20:17:00.999Z</time></trkpt><trkpt lat="36.84877090311201" lon="-108.09808933665465"><ele>1811.8000000000002</ele><time>2026-04-05T20:17:01.999Z</time></trkpt><trkpt lat="36.848862581102054" lon="-108.09809084566761"><ele>1813.0</ele><time>2026-04-05T20:17:02.999Z</time></trkpt><trkpt lat="36.848970854260585" lon="-108.09804258780878"><ele>1813.0</ele><time>2026-04-05T20:17:03.999Z</time></trkpt><trkpt lat="36.8490518290921" lon="-108.09801620355493"><ele>1813.0000000000002</ele><time>2026-04-05T20:17:04.999Z</time></trkpt><trkpt lat="36.84906870683014" lon="-108.0979059899542"><ele>1813.0000000000002</ele><time>2026-04-05T20:17:06.999Z</time></trkpt><trkpt lat="36.84908321809249" lon="-108.09776435953049"><ele>1813.0</ele><time>2026-04-05T20:17:07.999Z</time></trkpt><trkpt lat="36.8491105449546" lon="-108.09764285978503"><ele>1813.0</ele><time>2026-04-05T20:17:08.999Z</time></trkpt><trkpt lat="36.84917338528857" lon="-108.09761250097743"><ele>1813.0</ele><time>2026-04-05T20:17:10.999Z</time></trkpt><trkpt lat="36.849243224976824" lon="-108.09762235239391"><ele>1813.0000000000002</ele><time>2026-04-05T20:17:11.999Z</time></trkpt><trkpt lat="36.84934348819251" lon="-108.09761613110489"><ele>1813.0000000000002</ele><time>2026-04-05T20:17:12.999Z</time></trkpt><trkpt lat="36.8494549556754" lon="-108.09760228372079"><ele>1813.0</ele><time>2026-04-05T20:17:13.999Z</time></trkpt><trkpt lat="36.84958282817224" lon="-108.09755995210922"><ele>1813.0</ele><time>2026-04-05T20:17:14.999Z</time></trkpt><trkpt lat="36.84971514920088" lon="-108.09749161604248"><ele>1813.0</ele><time>2026-04-05T20:17:15.999Z</time></trkpt><trkpt lat="36.849829340175724" lon="-108.09745148340988"><ele>1813.0000000000002</ele><time>2026-04-05T20:17:16.999Z</time></trkpt><trkpt lat="36.849925253414376" lon="-108.09740999891618"><ele>1813.0000000000002</ele><time>2026-04-05T20:17:17.999Z</time></trkpt><trkpt lat="36.850008861297205" lon="-108.09735247170337"><ele>1813.0</ele><time>2026-04-05T20:17:18.999Z</time></trkpt><trkpt lat="36.85008841942279" lon="-108.0972707546539"><ele>1813.0</ele><time>2026-04-05T20:17:19.999Z</time></trkpt><trkpt lat="36.85010783054004" lon="-108.09716047186069"><ele>1814.4</ele><time>2026-04-05T20:17:20.999Z</time></trkpt><trkpt lat="36.85009615695693" lon="-108.09703764632442"><ele>1815.8000000000002</ele><time>2026-04-05T20:17:21.999Z</time></trkpt><trkpt lat="36.8501165239222" lon="-108.09691561412382"><ele>1817.2</ele><time>2026-04-05T20:17:22.999Z</time></trkpt><trkpt lat="36.850166753095166" lon="-108.09679900183824"><ele>1818.6</ele><time>2026-04-05T20:17:23.999Z</time></trkpt><trkpt lat="36.85022684067892" lon="-108.09666193109337"><ele>1820.0</ele><time>2026-04-05T20:17:24.999Z</time></trkpt><trkpt lat="36.850243505287764" lon="-108.0964960870186"><ele>1820.6666666666665</ele><time>2026-04-05T20:17:25.999Z</time></trkpt><trkpt lat="36.850299494390505" lon="-108.09639692228718"><ele>1821.3333333333333</ele><time>2026-04-05T20:17:27.999Z</time></trkpt><trkpt lat="36.85037489690889" lon="-108.09628486380147"><ele>1822.0</ele><time>2026-04-05T20:17:29.999Z</time></trkpt><trkpt lat="36.85044038847727" lon="-108.09623557495901"><ele>1822.6666666666665</ele><time>2026-04-05T20:17:30.999Z</time></trkpt><trkpt lat="36.85049497263834" lon="-108.09616710333054"><ele>1823.3333333333333</ele><time>2026-04-05T20:17:31.999Z</time></trkpt><trkpt lat="36.85050539496813" lon="-108.09607928907121"><ele>1824.0</ele><time>2026-04-05T20:17:32.999Z</time></trkpt><trkpt lat="36.850528161128835" lon="-108.09594792245"><ele>1824.0</ele><time>2026-04-05T20:17:33.999Z</time></trkpt><trkpt lat="36.85056415005457" lon="-108.09586369856154"><ele>1824.0</ele><time>2026-04-05T20:17:34.999Z</time></trkpt><trkpt lat="36.85071536097665" lon="-108.09585025453246"><ele>1824.0</ele><time>2026-04-05T20:17:36.999Z</time></trkpt><trkpt lat="36.8507709794654" lon="-108.09579259928564"><ele>1824.0</ele><time>2026-04-05T20:17:37.999Z</time></trkpt><trkpt lat="36.850788579193704" lon="-108.09569978260187"><ele>1824.0</ele><time>2026-04-05T20:17:38.999Z</time></trkpt><trkpt lat="36.8508212419482" lon="-108.09562283317202"><ele>1824.0</ele><time>2026-04-05T20:17:39.999Z</time></trkpt><trkpt lat="36.850849435164434" lon="-108.09553953047133"><ele>1825.0</ele><time>2026-04-05T20:17:40.999Z</time></trkpt><trkpt lat="36.85087994963646" lon="-108.09540672323918"><ele>1826.0</ele><time>2026-04-05T20:17:41.999Z</time></trkpt><trkpt lat="36.8509128841672" lon="-108.09532093497127"><ele>1827.0</ele><time>2026-04-05T20:17:42.999Z</time></trkpt><trkpt lat="36.85093094144607" lon="-108.09523514898251"><ele>1828.0</ele><time>2026-04-05T20:17:44Z</time></trkpt><trkpt lat="36.85095217231742" lon="-108.09514005416732"><ele>1829.0</ele><time>2026-04-05T20:17:45Z</time></trkpt><trkpt lat="36.850983814516404" lon="-108.09501786621924"><ele>1830.0</ele><time>2026-04-05T20:17:46Z</time></trkpt><trkpt lat="36.851015824316036" lon="-108.09490257372116"><ele>1831.4</ele><time>2026-04-05T20:17:47Z</time></trkpt><trkpt lat="36.85106386985223" lon="-108.09482487340611"><ele>1832.8</ele><time>2026-04-05T20:17:48Z</time></trkpt><trkpt lat="36.85114710043957" lon="-108.09483061801959"><ele>1834.1999999999998</ele><time>2026-04-05T20:17:50Z</time></trkpt><trkpt lat="36.85125165891949" lon="-108.09483014982881"><ele>1835.6</ele><time>2026-04-05T20:17:51Z</time></trkpt><trkpt lat="36.85138153729653" lon="-108.09480566429421"><ele>1837.0</ele><time>2026-04-05T20:17:52Z</time></trkpt><trkpt lat="36.85148616279913" lon="-108.09476782569676"><ele>1837.0</ele><time>2026-04-05T20:17:53Z</time></trkpt><trkpt lat="36.851576954629145" lon="-108.09473299287399"><ele>1836.9999999999998</ele><time>2026-04-05T20:17:54Z</time></trkpt><trkpt lat="36.85166564876071" lon="-108.09470800957654"><ele>1836.9999999999998</ele><time>2026-04-05T20:17:55Z</time></trkpt><trkpt lat="36.85173080907263" lon="-108.09466461819524"><ele>1837.0</ele><time>2026-04-05T20:17:56Z</time></trkpt><trkpt lat="36.85180860766509" lon="-108.09458370705273"><ele>1837.0</ele><time>2026-04-05T20:17:57Z</time></trkpt><trkpt lat="36.85190796359501" lon="-108.09451066097591"><ele>1837.5000000000002</ele><time>2026-04-05T20:17:58Z</time></trkpt><trkpt lat="36.852002757935466" lon="-108.09447073561182"><ele>1838.0</ele><time>2026-04-05T20:17:59Z</time></trkpt><trkpt lat="36.85208782686952" lon="-108.09444432584726"><ele>1838.5</ele><time>2026-04-05T20:18:00Z</time></trkpt><trkpt lat="36.852165053918974" lon="-108.09442271599035"><ele>1839.0</ele><time>2026-04-05T20:18:01Z</time></trkpt><trkpt lat="36.85224690642869" lon="-108.09442645481745"><ele>1839.5000000000002</ele><time>2026-04-05T20:18:03Z</time></trkpt><trkpt lat="36.852260085134105" lon="-108.09451092972638"><ele>1840.0</ele><time>2026-04-05T20:18:04Z</time></trkpt><trkpt lat="36.85225874527809" lon="-108.09462755311091"><ele>1840.0</ele><time>2026-04-05T20:18:05Z</time></trkpt><trkpt lat="36.85226462434236" lon="-108.09474180421564"><ele>1840.0</ele><time>2026-04-05T20:18:06Z</time></trkpt><trkpt lat="36.85228383974768" lon="-108.0948271531592"><ele>1840.0</ele><time>2026-04-05T20:18:07Z</time></trkpt><trkpt lat="36.85238712053576" lon="-108.09493976073402"><ele>1840.0</ele><time>2026-04-05T20:18:09Z</time></trkpt><trkpt lat="36.852472388484124" lon="-108.09496012462347"><ele>1840.0</ele><time>2026-04-05T20:18:10Z</time></trkpt><trkpt lat="36.85255611585042" lon="-108.09500700969562"><ele>1839.6666666666667</ele><time>2026-04-05T20:18:11Z</time></trkpt><trkpt lat="36.85261897743514" lon="-108.09508637278407"><ele>1839.3333333333335</ele><time>2026-04-05T20:18:12Z</time></trkpt><trkpt lat="36.852670935532906" lon="-108.09516664717987"><ele>1839.0</ele><time>2026-04-05T20:18:13Z</time></trkpt><trkpt lat="36.85274684983836" lon="-108.09521690518474"><ele>1838.6666666666665</ele><time>2026-04-05T20:18:14Z</time></trkpt><trkpt lat="36.85282665259398" lon="-108.09526330967067"><ele>1838.3333333333333</ele><time>2026-04-05T20:18:15Z</time></trkpt><trkpt lat="36.85288616318442" lon="-108.09530530917199"><ele>1838.0</ele><time>2026-04-05T20:18:16Z</time></trkpt><trkpt lat="36.85293187734451" lon="-108.09536782026456"><ele>1839.6000000000001</ele><time>2026-04-05T20:18:17Z</time></trkpt><trkpt lat="36.85297456000254" lon="-108.09546717272848"><ele>1841.2000000000003</ele><time>2026-04-05T20:18:18Z</time></trkpt><trkpt lat="36.853008507608756" lon="-108.09556699221375"><ele>1842.8</ele><time>2026-04-05T20:18:19Z</time></trkpt><trkpt lat="36.85310508014318" lon="-108.09559442164614"><ele>1844.4</ele><time>2026-04-05T20:18:21Z</time></trkpt><trkpt lat="36.85317974712257" lon="-108.0955479925436"><ele>1846.0</ele><time>2026-04-05T20:18:22Z</time></trkpt><trkpt lat="36.85325794310298" lon="-108.09547734167496"><ele>1846.0</ele><time>2026-04-05T20:18:23Z</time></trkpt><trkpt lat="36.853320521124516" lon="-108.09538013054794"><ele>1846.0</ele><time>2026-04-05T20:18:24Z</time></trkpt><trkpt lat="36.853379214668614" lon="-108.09532532344262"><ele>1846.0</ele><time>2026-04-05T20:18:25Z</time></trkpt><trkpt lat="36.85346734619039" lon="-108.09530395276968"><ele>1846.0</ele><time>2026-04-05T20:18:26Z</time></trkpt><trkpt lat="36.85355039003216" lon="-108.09520030613943"><ele>1846.0</ele><time>2026-04-05T20:18:28Z</time></trkpt><trkpt lat="36.85360781092856" lon="-108.0951187095365"><ele>1847.4</ele><time>2026-04-05T20:18:29Z</time></trkpt><trkpt lat="36.853719528770235" lon="-108.09506273198008"><ele>1848.8</ele><time>2026-04-05T20:18:30Z</time></trkpt><trkpt lat="36.85381390952878" lon="-108.09501129681567"><ele>1850.2000000000003</ele><time>2026-04-05T20:18:31Z</time></trkpt><trkpt lat="36.85388496031445" lon="-108.0949824289227"><ele>1851.6000000000001</ele><time>2026-04-05T20:18:32Z</time></trkpt><trkpt lat="36.8539626012951" lon="-108.0949805745825"><ele>1853.0</ele><time>2026-04-05T20:18:33Z</time></trkpt><trkpt lat="36.85406285022992" lon="-108.09494903203303"><ele>1853.3333333333333</ele><time>2026-04-05T20:18:34Z</time></trkpt><trkpt lat="36.85415871568838" lon="-108.09487169357313"><ele>1853.6666666666665</ele><time>2026-04-05T20:18:35Z</time></trkpt><trkpt lat="36.854242130778744" lon="-108.0948080026302"><ele>1854.0</ele><time>2026-04-05T20:18:36Z</time></trkpt><trkpt lat="36.85431108555084" lon="-108.09478635941282"><ele>1854.3333333333335</ele><time>2026-04-05T20:18:37Z</time></trkpt><trkpt lat="36.854382339839596" lon="-108.09478725746753"><ele>1854.6666666666667</ele><time>2026-04-05T20:18:38Z</time></trkpt><trkpt lat="36.85445545676158" lon="-108.09479723301791"><ele>1855.0</ele><time>2026-04-05T20:18:39Z</time></trkpt><trkpt lat="36.854529636478944" lon="-108.09480593994282"><ele>1855.6</ele><time>2026-04-05T20:18:40Z</time></trkpt><trkpt lat="36.85459033904692" lon="-108.09483659357323"><ele>1856.2</ele><time>2026-04-05T20:18:41Z</time></trkpt><trkpt lat="36.854637048642864" lon="-108.09499857512098"><ele>1856.8000000000002</ele><time>2026-04-05T20:18:43Z</time></trkpt><trkpt lat="36.854728939858525" lon="-108.094997247368"><ele>1857.4</ele><time>2026-04-05T20:18:45Z</time></trkpt><trkpt lat="36.85482354716953" lon="-108.09496873435698"><ele>1858.0</ele><time>2026-04-05T20:18:46Z</time></trkpt><trkpt lat="36.85489914123894" lon="-108.09496646864872"><ele>1858.0000000000002</ele><time>2026-04-05T20:18:47Z</time></trkpt><trkpt lat="36.854963341639255" lon="-108.09496522966485"><ele>1858.0</ele><time>2026-04-05T20:18:48Z</time></trkpt><trkpt lat="36.85506719470739" lon="-108.09495058429195"><ele>1858.0</ele><time>2026-04-05T20:18:50Z</time></trkpt><trkpt lat="36.855133281153066" lon="-108.0949097375515"><ele>1858.0</ele><time>2026-04-05T20:18:51Z</time></trkpt><trkpt lat="36.855202567958166" lon="-108.09485833171868"><ele>1858.0000000000002</ele><time>2026-04-05T20:18:52Z</time></trkpt><trkpt lat="36.85527926793217" lon="-108.09483977144485"><ele>1858.0</ele><time>2026-04-05T20:18:52.999Z</time></trkpt><trkpt lat="36.85533639612764" lon="-108.09488802873281"><ele>1859.3333333333335</ele><time>2026-04-05T20:18:53.999Z</time></trkpt><trkpt lat="36.85540541314626" lon="-108.09486273002459"><ele>1860.6666666666667</ele><time>2026-04-05T20:18:54.999Z</time></trkpt><trkpt lat="36.85549858128755" lon="-108.09489842202525"><ele>1862.0</ele><time>2026-04-05T20:18:56.999Z</time></trkpt><trkpt lat="36.85556444143309" lon="-108.09496829340314"><ele>1863.3333333333335</ele><time>2026-04-05T20:18:57.999Z</time></trkpt><trkpt lat="36.855637384146824" lon="-108.09501470454494"><ele>1864.6666666666667</ele><time>2026-04-05T20:18:58.999Z</time></trkpt><trkpt lat="36.85571348822737" lon="-108.09507539986993"><ele>1866.0</ele><time>2026-04-05T20:18:59.999Z</time></trkpt><trkpt lat="36.85579885506583" lon="-108.09515121777035"><ele>1866.1666666666667</ele><time>2026-04-05T20:19:00.999Z</time></trkpt><trkpt lat="36.85587974031148" lon="-108.09522082822488"><ele>1866.3333333333335</ele><time>2026-04-05T20:19:01.999Z</time></trkpt><trkpt lat="36.85594354710559" lon="-108.09529645155436"><ele>1866.5</ele><time>2026-04-05T20:19:02.999Z</time></trkpt><trkpt lat="36.85599924945905" lon="-108.09536896616244"><ele>1866.6666666666667</ele><time>2026-04-05T20:19:03.999Z</time></trkpt><trkpt lat="36.856056208211754" lon="-108.0954497752585"><ele>1866.8333333333335</ele><time>2026-04-05T20:19:04.999Z</time></trkpt><trkpt lat="36.856104700020325" lon="-108.09552066212211"><ele>1867.0</ele><time>2026-04-05T20:19:05.999Z</time></trkpt><trkpt lat="36.85615724382835" lon="-108.09558450860958"><ele>1868.1666666666667</ele><time>2026-04-05T20:19:06.999Z</time></trkpt><trkpt lat="36.85621265520289" lon="-108.09564863532253"><ele>1869.3333333333335</ele><time>2026-04-05T20:19:07.999Z</time></trkpt><trkpt lat="36.85626516349982" lon="-108.09572254514549"><ele>1870.5</ele><time>2026-04-05T20:19:08.999Z</time></trkpt><trkpt lat="36.85630116864123" lon="-108.09580526331725"><ele>1871.6666666666665</ele><time>2026-04-05T20:19:09.999Z</time></trkpt><trkpt lat="36.8563228835203" lon="-108.09590117277637"><ele>1872.8333333333333</ele><time>2026-04-05T20:19:10.999Z</time></trkpt><trkpt lat="36.856334711432666" lon="-108.09600043263512"><ele>1874.0</ele><time>2026-04-05T20:19:11.999Z</time></trkpt><trkpt lat="36.85633795051427" lon="-108.09608874455003"><ele>1874.5</ele><time>2026-04-05T20:19:12.999Z</time></trkpt><trkpt lat="36.85633407917422" lon="-108.09621370778757"><ele>1875.0</ele><time>2026-04-05T20:19:14.999Z</time></trkpt><trkpt lat="36.856447594738015" lon="-108.096188426753"><ele>1875.5</ele><time>2026-04-05T20:19:16.999Z</time></trkpt><trkpt lat="36.85651774770398" lon="-108.09615737043335"><ele>1876.0</ele><time>2026-04-05T20:19:18.999Z</time></trkpt><trkpt lat="36.85670353187218" lon="-108.09610000911022"><ele>1876.6666666666667</ele><time>2026-04-05T20:20:33Z</time></trkpt><trkpt lat="36.85681469110004" lon="-108.09607423658437"><ele>1877.3333333333335</ele><time>2026-04-05T20:20:35Z</time></trkpt><trkpt lat="36.85688712764613" lon="-108.0960559084126"><ele>1878.0</ele><time>2026-04-05T20:20:36Z</time></trkpt><trkpt lat="36.85695654540765" lon="-108.09605252468859"><ele>1878.6666666666665</ele><time>2026-04-05T20:20:37Z</time></trkpt><trkpt lat="36.85702542908261" lon="-108.09606122573919"><ele>1879.3333333333333</ele><time>2026-04-05T20:20:38Z</time></trkpt><trkpt lat="36.857090406258706" lon="-108.0960521778703"><ele>1880.0</ele><time>2026-04-05T20:20:39Z</time></trkpt><trkpt lat="36.85715393186931" lon="-108.09602181596112"><ele>1879.9999999999998</ele><time>2026-04-05T20:20:40Z</time></trkpt><trkpt lat="36.85723208914596" lon="-108.09598982846141"><ele>1880.0</ele><time>2026-04-05T20:20:41Z</time></trkpt><trkpt lat="36.85730652648103" lon="-108.0959858428331"><ele>1880.0</ele><time>2026-04-05T20:20:42Z</time></trkpt><trkpt lat="36.85737861009598" lon="-108.09597317214204"><ele>1880.0</ele><time>2026-04-05T20:20:43Z</time></trkpt><trkpt lat="36.857454777187925" lon="-108.09596212938001"><ele>1879.9999999999998</ele><time>2026-04-05T20:20:44Z</time></trkpt><trkpt lat="36.8575295449381" lon="-108.09596467057426"><ele>1880.0</ele><time>2026-04-05T20:20:45Z</time></trkpt><trkpt lat="36.8576614272821" lon="-108.09598289208225"><ele>1879.8</ele><time>2026-04-05T20:20:47Z</time></trkpt><trkpt lat="36.857738250092986" lon="-108.09595836791954"><ele>1879.6</ele><time>2026-04-05T20:20:48Z</time></trkpt><trkpt lat="36.85781284295732" lon="-108.09591779685218"><ele>1879.4</ele><time>2026-04-05T20:20:49Z</time></trkpt><trkpt lat="36.85789154013824" lon="-108.09584761744293"><ele>1879.2</ele><time>2026-04-05T20:20:50Z</time></trkpt><trkpt lat="36.85795968622475" lon="-108.0957794660652"><ele>1879.0</ele><time>2026-04-05T20:20:51Z</time></trkpt><trkpt lat="36.858069993718495" lon="-108.09572758337814"><ele>1878.0000000000002</ele><time>2026-04-05T20:20:53Z</time></trkpt><trkpt lat="36.858185914444626" lon="-108.09569268083078"><ele>1877.0</ele><time>2026-04-05T20:20:54Z</time></trkpt><trkpt lat="36.85825515812663" lon="-108.09566799875842"><ele>1876.0</ele><time>2026-04-05T20:20:55Z</time></trkpt><trkpt lat="36.85831363045674" lon="-108.09562252018374"><ele>1875.0</ele><time>2026-04-05T20:20:56Z</time></trkpt><trkpt lat="36.858375312041765" lon="-108.09556507317103"><ele>1874.0000000000002</ele><time>2026-04-05T20:20:57Z</time></trkpt><trkpt lat="36.85844063751729" lon="-108.09549602275689"><ele>1873.0</ele><time>2026-04-05T20:20:58Z</time></trkpt><trkpt lat="36.858534343249524" lon="-108.09538107340511"><ele>1872.6666666666667</ele><time>2026-04-05T20:21:00Z</time></trkpt><trkpt lat="36.85860022635453" lon="-108.09532086855424"><ele>1872.3333333333335</ele><time>2026-04-05T20:21:01Z</time></trkpt><trkpt lat="36.858665857277416" lon="-108.09527385917009"><ele>1872.0</ele><time>2026-04-05T20:21:02Z</time></trkpt><trkpt lat="36.85873754763362" lon="-108.09522744889676"><ele>1871.6666666666665</ele><time>2026-04-05T20:21:03Z</time></trkpt><trkpt lat="36.85881161108947" lon="-108.09516591353591"><ele>1871.3333333333333</ele><time>2026-04-05T20:21:04Z</time></trkpt><trkpt lat="36.8588826973432" lon="-108.09510669610818"><ele>1871.0</ele><time>2026-04-05T20:21:05Z</time></trkpt><trkpt lat="36.85895834464324" lon="-108.095044501311"><ele>1870.9999999999998</ele><time>2026-04-05T20:21:06Z</time></trkpt><trkpt lat="36.85902641381117" lon="-108.09499256211332"><ele>1871.0</ele><time>2026-04-05T20:21:07Z</time></trkpt><trkpt lat="36.85910696308375" lon="-108.09494833417695"><ele>1871.0</ele><time>2026-04-05T20:21:08Z</time></trkpt><trkpt lat="36.859191784105455" lon="-108.0949075591243"><ele>1871.0</ele><time>2026-04-05T20:21:09Z</time></trkpt><trkpt lat="36.859271211670254" lon="-108.09488006994107"><ele>1870.9999999999998</ele><time>2026-04-05T20:21:10Z</time></trkpt><trkpt lat="36.85935471473789" lon="-108.09485113966866"><ele>1871.0</ele><time>2026-04-05T20:21:10.999Z</time></trkpt><trkpt lat="36.8594370861249" lon="-108.09483442054915"><ele>1869.9999999999998</ele><time>2026-04-05T20:21:11.999Z</time></trkpt><trkpt lat="36.859503626473874" lon="-108.09482745462353"><ele>1869.0</ele><time>2026-04-05T20:21:12.999Z</time></trkpt><trkpt lat="36.859574387828424" lon="-108.09481152074932"><ele>1868.0</ele><time>2026-04-05T20:21:13.999Z</time></trkpt><trkpt lat="36.859658409459534" lon="-108.094786946588"><ele>1867.0</ele><time>2026-04-05T20:21:14.999Z</time></trkpt><trkpt lat="36.859746139651286" lon="-108.09478589194492"><ele>1865.9999999999998</ele><time>2026-04-05T20:21:15.999Z</time></trkpt><trkpt lat="36.8598129897941" lon="-108.09479843038883"><ele>1865.0</ele><time>2026-04-05T20:21:16.999Z</time></trkpt><trkpt lat="36.859881652318" lon="-108.0947557019141"><ele>1865.0</ele><time>2026-04-05T20:21:18.999Z</time></trkpt><trkpt lat="36.859934097442924" lon="-108.09468963764282"><ele>1865.0</ele><time>2026-04-05T20:21:19.999Z</time></trkpt><trkpt lat="36.86004183035469" lon="-108.09463100499354"><ele>1865.0</ele><time>2026-04-05T20:21:21.999Z</time></trkpt><trkpt lat="36.86016503083379" lon="-108.09465105384282"><ele>1865.0</ele><time>2026-04-05T20:21:23.999Z</time></trkpt><trkpt lat="36.86025811523472" lon="-108.0946566111838"><ele>1865.0</ele><time>2026-04-05T20:21:24.999Z</time></trkpt><trkpt lat="36.86035598824828" lon="-108.09464608747943"><ele>1866.25</ele><time>2026-04-05T20:21:26.999Z</time></trkpt><trkpt lat="36.86045783846441" lon="-108.0946551077769"><ele>1867.5</ele><time>2026-04-05T20:21:28.999Z</time></trkpt><trkpt lat="36.860519039338115" lon="-108.09479742543289"><ele>1868.75</ele><time>2026-04-05T20:21:30.999Z</time></trkpt><trkpt lat="36.8606485547614" lon="-108.09488534750811"><ele>1870.0</ele><time>2026-04-05T20:21:32.999Z</time></trkpt><trkpt lat="36.860742210736504" lon="-108.09488826505114"><ele>1870.2</ele><time>2026-04-05T20:21:33.999Z</time></trkpt><trkpt lat="36.8608219457654" lon="-108.09493444705414"><ele>1870.4</ele><time>2026-04-05T20:21:34.999Z</time></trkpt><trkpt lat="36.86089224729492" lon="-108.09500095195543"><ele>1870.6</ele><time>2026-04-05T20:21:35.999Z</time></trkpt><trkpt lat="36.86098947823874" lon="-108.09503624146677"><ele>1870.8</ele><time>2026-04-05T20:21:36.999Z</time></trkpt><trkpt lat="36.86109236981883" lon="-108.09502791168451"><ele>1871.0</ele><time>2026-04-05T20:21:37.999Z</time></trkpt><trkpt lat="36.86119098754209" lon="-108.095052825058"><ele>1872.1666666666665</ele><time>2026-04-05T20:21:38.999Z</time></trkpt><trkpt lat="36.861285584877606" lon="-108.0950428259867"><ele>1873.3333333333333</ele><time>2026-04-05T20:21:39.999Z</time></trkpt><trkpt lat="36.86137230050865" lon="-108.09505700057494"><ele>1874.5</ele><time>2026-04-05T20:21:40.999Z</time></trkpt><trkpt lat="36.86143998904752" lon="-108.09507465806212"><ele>1875.6666666666665</ele><time>2026-04-05T20:21:41.999Z</time></trkpt><trkpt lat="36.86151537674197" lon="-108.09509084483994"><ele>1876.8333333333333</ele><time>2026-04-05T20:21:42.999Z</time></trkpt><trkpt lat="36.86159311732736" lon="-108.0951144455102"><ele>1878.0</ele><time>2026-04-05T20:21:43.999Z</time></trkpt><trkpt lat="36.86165787076012" lon="-108.09517616556322"><ele>1878.0</ele><time>2026-04-05T20:21:44.999Z</time></trkpt><trkpt lat="36.86174784494696" lon="-108.09520126825257"><ele>1878.0000000000002</ele><time>2026-04-05T20:21:45.999Z</time></trkpt><trkpt lat="36.8618363895065" lon="-108.0951903634977"><ele>1878.0000000000002</ele><time>2026-04-05T20:21:46.999Z</time></trkpt><trkpt lat="36.86190568033474" lon="-108.09522901866194"><ele>1878.0</ele><time>2026-04-05T20:21:47.999Z</time></trkpt><trkpt lat="36.861987085399036" lon="-108.09528527971419"><ele>1878.0</ele><time>2026-04-05T20:21:48.999Z</time></trkpt><trkpt lat="36.86209264599373" lon="-108.09533640754078"><ele>1878.0</ele><time>2026-04-05T20:21:49.999Z</time></trkpt><trkpt lat="36.86220275861887" lon="-108.09538092700045"><ele>1878.0000000000002</ele><time>2026-04-05T20:21:50.999Z</time></trkpt><trkpt lat="36.86227371231432" lon="-108.09540750408568"><ele>1878.0000000000002</ele><time>2026-04-05T20:21:51.999Z</time></trkpt><trkpt lat="36.86235584824925" lon="-108.09539207698691"><ele>1878.0</ele><time>2026-04-05T20:21:52.999Z</time></trkpt><trkpt lat="36.86246394298849" lon="-108.09533949396612"><ele>1878.0</ele><time>2026-04-05T20:21:53.999Z</time></trkpt><trkpt lat="36.86255387036136" lon="-108.0952770530106"><ele>1878.0</ele><time>2026-04-05T20:21:54.999Z</time></trkpt><trkpt lat="36.862607331743476" lon="-108.09519611494544"><ele>1878.0</ele><time>2026-04-05T20:21:56Z</time></trkpt><trkpt lat="36.862655219505186" lon="-108.09511731101753"><ele>1878.0</ele><time>2026-04-05T20:21:57Z</time></trkpt><trkpt lat="36.86269801604715" lon="-108.09504532835145"><ele>1878.0</ele><time>2026-04-05T20:21:58Z</time></trkpt><trkpt lat="36.862752090440196" lon="-108.09499442518936"><ele>1878.0</ele><time>2026-04-05T20:21:59Z</time></trkpt><trkpt lat="36.86282686671913" lon="-108.09494671899274"><ele>1878.0</ele><time>2026-04-05T20:22:00Z</time></trkpt><trkpt lat="36.86285327891623" lon="-108.09487254113724"><ele>1877.6000000000001</ele><time>2026-04-05T20:22:01Z</time></trkpt><trkpt lat="36.862965802106054" lon="-108.09481221649816"><ele>1877.2000000000003</ele><time>2026-04-05T20:22:03Z</time></trkpt><trkpt lat="36.86303786182461" lon="-108.09479461243502"><ele>1876.8</ele><time>2026-04-05T20:22:04Z</time></trkpt><trkpt lat="36.863126198526516" lon="-108.09483590282079"><ele>1876.4</ele><time>2026-04-05T20:22:07Z</time></trkpt><trkpt lat="36.863250227701926" lon="-108.09479148606202"><ele>1876.0</ele><time>2026-04-05T20:22:10Z</time></trkpt><trkpt lat="36.86332710972588" lon="-108.09475266847653"><ele>1876.0</ele><time>2026-04-05T20:22:11Z</time></trkpt><trkpt lat="36.86338706073132" lon="-108.09472527771975"><ele>1876.0</ele><time>2026-04-05T20:22:12Z</time></trkpt><trkpt lat="36.863516431851494" lon="-108.09481110366185"><ele>1876.0</ele><time>2026-04-05T20:22:14Z</time></trkpt><trkpt lat="36.863599896713296" lon="-108.09485681109771"><ele>1876.0</ele><time>2026-04-05T20:22:15Z</time></trkpt><trkpt lat="36.86367732978841" lon="-108.09485371692543"><ele>1876.0</ele><time>2026-04-05T20:22:16Z</time></trkpt><trkpt lat="36.86378949863354" lon="-108.09480682808811"><ele>1876.1999999999998</ele><time>2026-04-05T20:22:18Z</time></trkpt><trkpt lat="36.86387733075731" lon="-108.0947292285142"><ele>1876.3999999999999</ele><time>2026-04-05T20:22:20Z</time></trkpt><trkpt lat="36.86394951742579" lon="-108.0946774709832"><ele>1876.6</ele><time>2026-04-05T20:22:21Z</time></trkpt><trkpt lat="36.864011596096155" lon="-108.09457288474297"><ele>1876.8</ele><time>2026-04-05T20:22:22Z</time></trkpt><trkpt lat="36.86403454463005" lon="-108.09446186658764"><ele>1877.0</ele><time>2026-04-05T20:22:23Z</time></trkpt><trkpt lat="36.86413879607062" lon="-108.09437339240988"><ele>1876.9999999999998</ele><time>2026-04-05T20:22:25Z</time></trkpt><trkpt lat="36.8642087223087" lon="-108.0943317855614"><ele>1877.0</ele><time>2026-04-05T20:22:26Z</time></trkpt><trkpt lat="36.86427669969995" lon="-108.09431040311222"><ele>1877.0</ele><time>2026-04-05T20:22:27Z</time></trkpt><trkpt lat="36.86436652066838" lon="-108.09432199160375"><ele>1877.0</ele><time>2026-04-05T20:22:28Z</time></trkpt><trkpt lat="36.864456560297015" lon="-108.09432744456363"><ele>1876.9999999999998</ele><time>2026-04-05T20:22:29Z</time></trkpt><trkpt lat="36.86452348395956" lon="-108.09434870256537"><ele>1877.0</ele><time>2026-04-05T20:22:30Z</time></trkpt><trkpt lat="36.864580234058316" lon="-108.0944415277378"><ele>1877.3999999999999</ele><time>2026-04-05T20:22:31Z</time></trkpt><trkpt lat="36.86466144720604" lon="-108.09456777164523"><ele>1877.7999999999997</ele><time>2026-04-05T20:22:32Z</time></trkpt><trkpt lat="36.86473472696569" lon="-108.09465819744526"><ele>1878.2</ele><time>2026-04-05T20:22:33Z</time></trkpt><trkpt lat="36.86479724931438" lon="-108.09472568040742"><ele>1878.6</ele><time>2026-04-05T20:22:34Z</time></trkpt><trkpt lat="36.864864796771265" lon="-108.0947656279198"><ele>1879.0</ele><time>2026-04-05T20:22:35Z</time></trkpt><trkpt lat="36.86493374919747" lon="-108.0947588494424"><ele>1879.0000000000002</ele><time>2026-04-05T20:22:36Z</time></trkpt><trkpt lat="36.86500519257524" lon="-108.09471439693448"><ele>1879.0</ele><time>2026-04-05T20:22:37Z</time></trkpt><trkpt lat="36.865083976853775" lon="-108.09465971463673"><ele>1879.0</ele><time>2026-04-05T20:22:38Z</time></trkpt><trkpt lat="36.86519480157341" lon="-108.09464872348974"><ele>1879.0</ele><time>2026-04-05T20:22:39Z</time></trkpt><trkpt lat="36.86528026876685" lon="-108.09464056088028"><ele>1879.0000000000002</ele><time>2026-04-05T20:22:40Z</time></trkpt><trkpt lat="36.86533681196997" lon="-108.09456577814773"><ele>1879.0</ele><time>2026-04-05T20:22:42Z</time></trkpt><trkpt lat="36.86540345941179" lon="-108.09453723075286"><ele>1880.5</ele><time>2026-04-05T20:22:43Z</time></trkpt><trkpt lat="36.86548737282281" lon="-108.09449404966954"><ele>1882.0</ele><time>2026-04-05T20:22:44Z</time></trkpt><trkpt lat="36.865594173792296" lon="-108.0944931373923"><ele>1883.5</ele><time>2026-04-05T20:22:45Z</time></trkpt><trkpt lat="36.865729578101735" lon="-108.0944969851696"><ele>1885.0</ele><time>2026-04-05T20:22:46Z</time></trkpt><trkpt lat="36.865873168104095" lon="-108.09449276421346"><ele>1885.8</ele><time>2026-04-05T20:22:47Z</time></trkpt><trkpt lat="36.865986024527565" lon="-108.09447167332172"><ele>1886.6</ele><time>2026-04-05T20:22:48Z</time></trkpt><trkpt lat="36.86608127892961" lon="-108.0944671312234"><ele>1887.4</ele><time>2026-04-05T20:22:49Z</time></trkpt><trkpt lat="36.8661751535108" lon="-108.09451598589943"><ele>1888.2</ele><time>2026-04-05T20:22:50Z</time></trkpt><trkpt lat="36.86629276525007" lon="-108.0945778081235"><ele>1889.0</ele><time>2026-04-05T20:22:51Z</time></trkpt><trkpt lat="36.86637867603029" lon="-108.09460606827174"><ele>1889.0</ele><time>2026-04-05T20:22:52Z</time></trkpt><trkpt lat="36.86645643541292" lon="-108.09459482528759"><ele>1889.0</ele><time>2026-04-05T20:22:53Z</time></trkpt><trkpt lat="36.866549727369325" lon="-108.09457259348999"><ele>1889.0</ele><time>2026-04-05T20:22:54Z</time></trkpt><trkpt lat="36.86667458154055" lon="-108.09459940169218"><ele>1889.0</ele><time>2026-04-05T20:22:55Z</time></trkpt><trkpt lat="36.86679106225304" lon="-108.0945940214744"><ele>1889.0</ele><time>2026-04-05T20:22:56Z</time></trkpt><trkpt lat="36.8668449968181" lon="-108.09463844027236"><ele>1889.2</ele><time>2026-04-05T20:22:58Z</time></trkpt><trkpt lat="36.866859464580344" lon="-108.09478025522914"><ele>1889.4</ele><time>2026-04-05T20:23:00Z</time></trkpt><trkpt lat="36.86689856236671" lon="-108.09487501285105"><ele>1889.6</ele><time>2026-04-05T20:23:01Z</time></trkpt><trkpt lat="36.86694875249534" lon="-108.09500779348285"><ele>1889.8</ele><time>2026-04-05T20:23:02Z</time></trkpt><trkpt lat="36.86700707990139" lon="-108.09512227199257"><ele>1890.0</ele><time>2026-04-05T20:23:03Z</time></trkpt><trkpt lat="36.86707376797057" lon="-108.09519221438056"><ele>1890.8</ele><time>2026-04-05T20:23:04Z</time></trkpt><trkpt lat="36.86715216787548" lon="-108.09522953981912"><ele>1891.6</ele><time>2026-04-05T20:23:05Z</time></trkpt><trkpt lat="36.86725721165884" lon="-108.09524878831056"><ele>1892.4</ele><time>2026-04-05T20:23:06Z</time></trkpt><trkpt lat="36.86736650629902" lon="-108.09526644057671"><ele>1893.2</ele><time>2026-04-05T20:23:07Z</time></trkpt><trkpt lat="36.86746090206614" lon="-108.0952967356015"><ele>1894.0</ele><time>2026-04-05T20:23:08Z</time></trkpt><trkpt lat="36.867538109377215" lon="-108.09537646720976"><ele>1895.0</ele><time>2026-04-05T20:23:09Z</time></trkpt><trkpt lat="36.867614955129596" lon="-108.09549867746395"><ele>1896.0</ele><time>2026-04-05T20:23:10Z</time></trkpt><trkpt lat="36.86769059370517" lon="-108.09561664809512"><ele>1897.0</ele><time>2026-04-05T20:23:11Z</time></trkpt><trkpt lat="36.86776090909682" lon="-108.09571575885751"><ele>1898.0</ele><time>2026-04-05T20:23:12Z</time></trkpt><trkpt lat="36.86782916703497" lon="-108.0958076176971"><ele>1898.6000000000001</ele><time>2026-04-05T20:23:13Z</time></trkpt><trkpt lat="36.867894265451206" lon="-108.09591210282701"><ele>1899.2000000000003</ele><time>2026-04-05T20:23:14Z</time></trkpt><trkpt lat="36.86796250167667" lon="-108.09601115345679"><ele>1899.8</ele><time>2026-04-05T20:23:15Z</time></trkpt><trkpt lat="36.86802740322339" lon="-108.09611376519531"><ele>1900.4</ele><time>2026-04-05T20:23:16Z</time></trkpt><trkpt lat="36.86810078940703" lon="-108.09622150228158"><ele>1901.0</ele><time>2026-04-05T20:23:17Z</time></trkpt><trkpt lat="36.86819096766869" lon="-108.09631297525574"><ele>1901.0</ele><time>2026-04-05T20:23:18Z</time></trkpt><trkpt lat="36.86828560808366" lon="-108.09639436737778"><ele>1901.0</ele><time>2026-04-05T20:23:19Z</time></trkpt><trkpt lat="36.868370401107114" lon="-108.09646466347823"><ele>1901.0</ele><time>2026-04-05T20:23:20Z</time></trkpt><trkpt lat="36.86844589828219" lon="-108.09654562571077"><ele>1901.0</ele><time>2026-04-05T20:23:21Z</time></trkpt><trkpt lat="36.8685348112533" lon="-108.09664414919644"><ele>1901.0</ele><time>2026-04-05T20:23:22Z</time></trkpt><trkpt lat="36.86862968931875" lon="-108.0967731389121"><ele>1902.3333333333333</ele><time>2026-04-05T20:23:23Z</time></trkpt><trkpt lat="36.86871130716107" lon="-108.09689625414362"><ele>1903.6666666666665</ele><time>2026-04-05T20:23:24Z</time></trkpt><trkpt lat="36.86877502776542" lon="-108.09692096507747"><ele>1905.0</ele><time>2026-04-05T20:23:25Z</time></trkpt><trkpt lat="36.86883621171828" lon="-108.09689127561516"><ele>1906.3333333333335</ele><time>2026-04-05T20:23:26Z</time></trkpt><trkpt lat="36.86890272343806" lon="-108.09686237962694"><ele>1907.6666666666667</ele><time>2026-04-05T20:23:27Z</time></trkpt><trkpt lat="36.86897420652281" lon="-108.09682923223895"><ele>1909.0</ele><time>2026-04-05T20:23:28Z</time></trkpt><trkpt lat="36.869039927982904" lon="-108.09676351521223"><ele>1909.0000000000002</ele><time>2026-04-05T20:23:29Z</time></trkpt><trkpt lat="36.86909031325892" lon="-108.09670901087895"><ele>1909.0</ele><time>2026-04-05T20:23:30Z</time></trkpt><trkpt lat="36.8691556616365" lon="-108.09668309861316"><ele>1909.0</ele><time>2026-04-05T20:23:31Z</time></trkpt><trkpt lat="36.86924745450184" lon="-108.09668836397682"><ele>1909.0</ele><time>2026-04-05T20:23:32Z</time></trkpt><trkpt lat="36.869332569704305" lon="-108.09671323581783"><ele>1909.0000000000002</ele><time>2026-04-05T20:23:32.999Z</time></trkpt><trkpt lat="36.86939771956624" lon="-108.09674468398026"><ele>1909.0</ele><time>2026-04-05T20:23:33.999Z</time></trkpt><trkpt lat="36.869506039548035" lon="-108.09681651251908"><ele>1908.5000000000002</ele><time>2026-04-05T20:23:35.999Z</time></trkpt><trkpt lat="36.86957195367017" lon="-108.09686524473496"><ele>1908.0</ele><time>2026-04-05T20:23:36.999Z</time></trkpt><trkpt lat="36.86964090251859" lon="-108.09692360351997"><ele>1907.5</ele><time>2026-04-05T20:23:37.999Z</time></trkpt><trkpt lat="36.869710120989" lon="-108.096974002571"><ele>1907.0</ele><time>2026-04-05T20:23:38.999Z</time></trkpt><trkpt lat="36.86976352352828" lon="-108.09702592096713"><ele>1906.5000000000002</ele><time>2026-04-05T20:23:39.999Z</time></trkpt><trkpt lat="36.86982077474056" lon="-108.09706002078515"><ele>1906.0</ele><time>2026-04-05T20:23:40.999Z</time></trkpt><trkpt lat="36.86990973550397" lon="-108.09706118268107"><ele>1906.0</ele><time>2026-04-05T20:23:42.999Z</time></trkpt><trkpt lat="36.87003024335942" lon="-108.0970450563629"><ele>1906.0</ele><time>2026-04-05T20:23:44.999Z</time></trkpt><trkpt lat="36.87011673190825" lon="-108.09710852371599"><ele>1906.0</ele><time>2026-04-05T20:23:45.999Z</time></trkpt><trkpt lat="36.87018195134395" lon="-108.09716895314071"><ele>1906.0</ele><time>2026-04-05T20:23:46.999Z</time></trkpt><trkpt lat="36.87029689008875" lon="-108.09720398533628"><ele>1906.0</ele><time>2026-04-05T20:23:48.999Z</time></trkpt><trkpt lat="36.87034142620957" lon="-108.0972836542071"><ele>1905.5</ele><time>2026-04-05T20:23:49.999Z</time></trkpt><trkpt lat="36.87038689228998" lon="-108.09741193113985"><ele>1905.0</ele><time>2026-04-05T20:23:50.999Z</time></trkpt><trkpt lat="36.87048914016151" lon="-108.09752401838875"><ele>1904.5</ele><time>2026-04-05T20:23:51.999Z</time></trkpt><trkpt lat="36.870632031663924" lon="-108.09763161426058"><ele>1904.0</ele><time>2026-04-05T20:23:52.999Z</time></trkpt><trkpt lat="36.8707818274126" lon="-108.09775237002378"><ele>1903.75</ele><time>2026-04-05T20:23:53.999Z</time></trkpt><trkpt lat="36.870906191329375" lon="-108.09786642817038"><ele>1903.5</ele><time>2026-04-05T20:23:54.999Z</time></trkpt><trkpt lat="36.8710008674875" lon="-108.09797220281425"><ele>1903.25</ele><time>2026-04-05T20:23:55.999Z</time></trkpt><trkpt lat="36.87107167815745" lon="-108.09806611369216"><ele>1903.0</ele><time>2026-04-05T20:23:56.999Z</time></trkpt><trkpt lat="36.87113314956296" lon="-108.09816591213254"><ele>1902.0</ele><time>2026-04-05T20:23:57.999Z</time></trkpt><trkpt lat="36.87120979817822" lon="-108.09826056261306"><ele>1901.0000000000002</ele><time>2026-04-05T20:23:58.999Z</time></trkpt><trkpt lat="36.871300403466655" lon="-108.09836018046028"><ele>1900.0000000000002</ele><time>2026-04-05T20:23:59.999Z</time></trkpt><trkpt lat="36.87137756382816" lon="-108.09844110383598"><ele>1899.0</ele><time>2026-04-05T20:24:00.999Z</time></trkpt><trkpt lat="36.87143567584601" lon="-108.09851140759173"><ele>1898.0</ele><time>2026-04-05T20:24:02Z</time></trkpt><trkpt lat="36.87144236669409" lon="-108.09864939080288"><ele>1898.0</ele><time>2026-04-05T20:24:04Z</time></trkpt><trkpt lat="36.87139827670452" lon="-108.09873534823177"><ele>1898.0000000000002</ele><time>2026-04-05T20:24:05Z</time></trkpt><trkpt lat="36.87139313551821" lon="-108.09887891658"><ele>1898.0000000000002</ele><time>2026-04-05T20:24:07Z</time></trkpt><trkpt lat="36.87145410177933" lon="-108.09897436211254"><ele>1898.0</ele><time>2026-04-05T20:24:08Z</time></trkpt><trkpt lat="36.87151478095604" lon="-108.099068282822"><ele>1898.0</ele><time>2026-04-05T20:24:09Z</time></trkpt><trkpt lat="36.87158695334549" lon="-108.09915907785624"><ele>1897.75</ele><time>2026-04-05T20:24:10Z</time></trkpt><trkpt lat="36.87169670909898" lon="-108.09925828912641"><ele>1897.5</ele><time>2026-04-05T20:24:11Z</time></trkpt><trkpt lat="36.87179830031908" lon="-108.0993413303461"><ele>1897.25</ele><time>2026-04-05T20:24:12Z</time></trkpt><trkpt lat="36.87187360174047" lon="-108.09944735491747"><ele>1897.0</ele><time>2026-04-05T20:24:13Z</time></trkpt><trkpt lat="36.871923485582734" lon="-108.09958869284192"><ele>1896.0</ele><time>2026-04-05T20:24:14Z</time></trkpt><trkpt lat="36.87194236106286" lon="-108.0997206080815"><ele>1894.9999999999998</ele><time>2026-04-05T20:24:15Z</time></trkpt><trkpt lat="36.87198250798933" lon="-108.09979166070572"><ele>1893.9999999999998</ele><time>2026-04-05T20:24:16Z</time></trkpt><trkpt lat="36.87206582724715" lon="-108.09986311091727"><ele>1893.0</ele><time>2026-04-05T20:24:17Z</time></trkpt><trkpt lat="36.8721469171521" lon="-108.09998442802612"><ele>1892.0</ele><time>2026-04-05T20:24:18Z</time></trkpt><trkpt lat="36.872207921130844" lon="-108.10004111922672"><ele>1892.0</ele><time>2026-04-05T20:24:19Z</time></trkpt><trkpt lat="36.87232137059377" lon="-108.10007116869448"><ele>1891.9999999999998</ele><time>2026-04-05T20:24:20Z</time></trkpt><trkpt lat="36.872448684223045" lon="-108.10009745412374"><ele>1891.9999999999998</ele><time>2026-04-05T20:24:21Z</time></trkpt><trkpt lat="36.872509408547785" lon="-108.1001712990996"><ele>1892.0</ele><time>2026-04-05T20:24:22Z</time></trkpt><trkpt lat="36.87253908815949" lon="-108.10029160542332"><ele>1892.0</ele><time>2026-04-05T20:24:23Z</time></trkpt><trkpt lat="36.872553797550204" lon="-108.10045646315615"><ele>1892.0</ele><time>2026-04-05T20:24:24Z</time></trkpt><trkpt lat="36.87259063593075" lon="-108.1006185779741"><ele>1892.0</ele><time>2026-04-05T20:24:25Z</time></trkpt><trkpt lat="36.87264019269068" lon="-108.10073207975321"><ele>1892.0</ele><time>2026-04-05T20:24:26Z</time></trkpt><trkpt lat="36.87270977438001" lon="-108.10083319374607"><ele>1892.0</ele><time>2026-04-05T20:24:27Z</time></trkpt><trkpt lat="36.87278188347261" lon="-108.10093276804598"><ele>1891.0</ele><time>2026-04-05T20:24:28Z</time></trkpt><trkpt lat="36.87282473312773" lon="-108.10101966617049"><ele>1889.9999999999998</ele><time>2026-04-05T20:24:29Z</time></trkpt><trkpt lat="36.87280088904914" lon="-108.10112262892633"><ele>1888.9999999999998</ele><time>2026-04-05T20:24:30Z</time></trkpt><trkpt lat="36.872822998435446" lon="-108.10122916961419"><ele>1888.0</ele><time>2026-04-05T20:24:31Z</time></trkpt><trkpt lat="36.87287833587431" lon="-108.10137947968224"><ele>1887.0</ele><time>2026-04-05T20:24:32Z</time></trkpt><trkpt lat="36.872898954359556" lon="-108.1015071750461"><ele>1887.1999999999998</ele><time>2026-04-05T20:24:33Z</time></trkpt><trkpt lat="36.87292739399984" lon="-108.10161164148259"><ele>1887.3999999999999</ele><time>2026-04-05T20:24:34Z</time></trkpt><trkpt lat="36.87292547501628" lon="-108.10179666673694"><ele>1887.6000000000001</ele><time>2026-04-05T20:24:36Z</time></trkpt><trkpt lat="36.8729497475751" lon="-108.10189830263472"><ele>1887.8000000000002</ele><time>2026-04-05T20:24:37Z</time></trkpt><trkpt lat="36.87301473574044" lon="-108.10197230310959"><ele>1888.0</ele><time>2026-04-05T20:24:38Z</time></trkpt><trkpt lat="36.8730858956861" lon="-108.10201003213928"><ele>1888.0</ele><time>2026-04-05T20:24:39Z</time></trkpt><trkpt lat="36.87316631164248" lon="-108.10205883370432"><ele>1888.0000000000002</ele><time>2026-04-05T20:24:40Z</time></trkpt><trkpt lat="36.87327246748839" lon="-108.10213559915996"><ele>1888.0000000000002</ele><time>2026-04-05T20:24:41Z</time></trkpt><trkpt lat="36.873390339661235" lon="-108.10219905529374"><ele>1888.0</ele><time>2026-04-05T20:24:42Z</time></trkpt><trkpt lat="36.873486199296195" lon="-108.10226423743919"><ele>1888.0</ele><time>2026-04-05T20:24:43Z</time></trkpt><trkpt lat="36.87355578608" lon="-108.10234239378899"><ele>1886.6000000000001</ele><time>2026-04-05T20:24:44Z</time></trkpt><trkpt lat="36.87362110924243" lon="-108.10243509231245"><ele>1885.2000000000003</ele><time>2026-04-05T20:24:45Z</time></trkpt><trkpt lat="36.873680809313534" lon="-108.10250929559027"><ele>1883.8</ele><time>2026-04-05T20:24:46Z</time></trkpt><trkpt lat="36.873746984117524" lon="-108.10254763608914"><ele>1882.4</ele><time>2026-04-05T20:24:48Z</time></trkpt><trkpt lat="36.87377398317611" lon="-108.10271174995232"><ele>1881.0</ele><time>2026-04-05T20:24:50Z</time></trkpt><trkpt lat="36.87384533383391" lon="-108.10278472567165"><ele>1881.0</ele><time>2026-04-05T20:24:51Z</time></trkpt><trkpt lat="36.87386043033627" lon="-108.10287475781759"><ele>1881.0</ele><time>2026-04-05T20:24:52Z</time></trkpt><trkpt lat="36.873850415853134" lon="-108.10298990538371"><ele>1881.0</ele><time>2026-04-05T20:24:53Z</time></trkpt><trkpt lat="36.87381624149189" lon="-108.10307883371402"><ele>1881.0</ele><time>2026-04-05T20:24:54Z</time></trkpt><trkpt lat="36.87376805936813" lon="-108.10319940174149"><ele>1881.0</ele><time>2026-04-05T20:24:55Z</time></trkpt><trkpt lat="36.87371246223226" lon="-108.10331579098762"><ele>1880.8</ele><time>2026-04-05T20:24:56Z</time></trkpt><trkpt lat="36.873626054207406" lon="-108.10342499040279"><ele>1880.6</ele><time>2026-04-05T20:24:57Z</time></trkpt><trkpt lat="36.87355365409942" lon="-108.10348662613293"><ele>1880.4</ele><time>2026-04-05T20:24:58Z</time></trkpt><trkpt lat="36.87353009842268" lon="-108.10362964140649"><ele>1880.2</ele><time>2026-04-05T20:25:00Z</time></trkpt><trkpt lat="36.87352771334805" lon="-108.10373789243086"><ele>1880.0</ele><time>2026-04-05T20:25:01Z</time></trkpt><trkpt lat="36.87348621433985" lon="-108.10380937554012"><ele>1879.9999999999998</ele><time>2026-04-05T20:25:02Z</time></trkpt><trkpt lat="36.87344821990779" lon="-108.1038767658916"><ele>1880.0</ele><time>2026-04-05T20:25:03Z</time></trkpt><trkpt lat="36.87348518888376" lon="-108.10394654246505"><ele>1880.0</ele><time>2026-04-05T20:25:04Z</time></trkpt><trkpt lat="36.873528392505534" lon="-108.10401296648566"><ele>1880.0</ele><time>2026-04-05T20:25:05Z</time></trkpt><trkpt lat="36.87349282951919" lon="-108.10409438004218"><ele>1879.9999999999998</ele><time>2026-04-05T20:25:06Z</time></trkpt><trkpt lat="36.87360881509905" lon="-108.10411427845797"><ele>1880.0</ele><time>2026-04-05T20:25:09Z</time></trkpt><trkpt lat="36.87370708577584" lon="-108.10404393842575"><ele>1880.0</ele><time>2026-04-05T20:25:10Z</time></trkpt><trkpt lat="36.873769709935225" lon="-108.10396455012794"><ele>1880.0</ele><time>2026-04-05T20:25:12Z</time></trkpt><trkpt lat="36.87386876793226" lon="-108.10385888181992"><ele>1880.0</ele><time>2026-04-05T20:25:13Z</time></trkpt><trkpt lat="36.87400385309382" lon="-108.10373229488268"><ele>1880.0</ele><time>2026-04-05T20:25:14Z</time></trkpt><trkpt lat="36.87411542238668" lon="-108.10362655105307"><ele>1880.0</ele><time>2026-04-05T20:25:15Z</time></trkpt><trkpt lat="36.87421830392611" lon="-108.10352332619661"><ele>1880.0</ele><time>2026-04-05T20:25:16Z</time></trkpt><trkpt lat="36.874296446684035" lon="-108.10345070474999"><ele>1880.0</ele><time>2026-04-05T20:25:17Z</time></trkpt><trkpt lat="36.87437725304938" lon="-108.10338613323073"><ele>1880.0</ele><time>2026-04-05T20:25:18Z</time></trkpt><trkpt lat="36.8744537313201" lon="-108.10333475547618"><ele>1880.0</ele><time>2026-04-05T20:25:19Z</time></trkpt><trkpt lat="36.874510346106945" lon="-108.10326220613813"><ele>1878.8</ele><time>2026-04-05T20:25:20Z</time></trkpt><trkpt lat="36.87455135672322" lon="-108.1031747740975"><ele>1877.6</ele><time>2026-04-05T20:25:21Z</time></trkpt><trkpt lat="36.874614306202304" lon="-108.10311698863917"><ele>1876.4</ele><time>2026-04-05T20:25:22Z</time></trkpt><trkpt lat="36.87472077843276" lon="-108.1030676894307"><ele>1875.2</ele><time>2026-04-05T20:25:24Z</time></trkpt><trkpt lat="36.874784559837266" lon="-108.10293617007939"><ele>1874.0</ele><time>2026-04-05T20:25:26Z</time></trkpt><trkpt lat="36.874819759574606" lon="-108.10285630202343"><ele>1873.9999999999998</ele><time>2026-04-05T20:25:27Z</time></trkpt><trkpt lat="36.874860119978855" lon="-108.10278882598516"><ele>1874.0</ele><time>2026-04-05T20:25:28Z</time></trkpt><trkpt lat="36.87491401376538" lon="-108.102727201745"><ele>1874.0</ele><time>2026-04-05T20:25:29Z</time></trkpt><trkpt lat="36.87497491805825" lon="-108.10267513713204"><ele>1874.0</ele><time>2026-04-05T20:25:30Z</time></trkpt><trkpt lat="36.87510694802736" lon="-108.10266258675136"><ele>1873.9999999999998</ele><time>2026-04-05T20:25:32Z</time></trkpt><trkpt lat="36.87519703038242" lon="-108.10266791175472"><ele>1874.0</ele><time>2026-04-05T20:25:33Z</time></trkpt><trkpt lat="36.87529660688457" lon="-108.1026561601756"><ele>1873.0</ele><time>2026-04-05T20:25:34Z</time></trkpt><trkpt lat="36.875400194403674" lon="-108.1026575582947"><ele>1872.0</ele><time>2026-04-05T20:25:35Z</time></trkpt><trkpt lat="36.87550024219647" lon="-108.10263831216983"><ele>1871.0</ele><time>2026-04-05T20:25:36Z</time></trkpt><trkpt lat="36.875606565082855" lon="-108.10261102122908"><ele>1870.0</ele><time>2026-04-05T20:25:37Z</time></trkpt><trkpt lat="36.87569448674234" lon="-108.10258324134112"><ele>1869.0</ele><time>2026-04-05T20:25:38Z</time></trkpt><trkpt lat="36.87576236796677" lon="-108.10256851696438"><ele>1869.0</ele><time>2026-04-05T20:25:39Z</time></trkpt><trkpt lat="36.87583425005554" lon="-108.1025571495884"><ele>1869.0</ele><time>2026-04-05T20:25:40Z</time></trkpt><trkpt lat="36.87591297849708" lon="-108.10257678019994"><ele>1869.0</ele><time>2026-04-05T20:25:42Z</time></trkpt><trkpt lat="36.875935414932094" lon="-108.10265141124148"><ele>1869.0</ele><time>2026-04-05T20:25:50.999Z</time></trkpt><trkpt lat="36.87598543171253" lon="-108.10272190891875"><ele>1869.0</ele><time>2026-04-05T20:25:51.999Z</time></trkpt><trkpt lat="36.87604293440994" lon="-108.10281201921157"><ele>1869.0</ele><time>2026-04-05T20:25:52.999Z</time></trkpt><trkpt lat="36.87608819329576" lon="-108.10291905564067"><ele>1868.6</ele><time>2026-04-05T20:25:53.999Z</time></trkpt><trkpt lat="36.876143897858796" lon="-108.10304220007848"><ele>1868.2</ele><time>2026-04-05T20:25:54.999Z</time></trkpt><trkpt lat="36.87621140719912" lon="-108.10314708430465"><ele>1867.7999999999997</ele><time>2026-04-05T20:25:55.999Z</time></trkpt><trkpt lat="36.87624809105147" lon="-108.10323137331092"><ele>1867.3999999999999</ele><time>2026-04-05T20:25:56.999Z</time></trkpt><trkpt lat="36.87629053562308" lon="-108.10335875672243"><ele>1867.0</ele><time>2026-04-05T20:25:57.999Z</time></trkpt><trkpt lat="36.87632809408598" lon="-108.10349633375834"><ele>1867.0</ele><time>2026-04-05T20:25:58.999Z</time></trkpt><trkpt lat="36.87638082891691" lon="-108.10363707505407"><ele>1866.9999999999998</ele><time>2026-04-05T20:25:59.999Z</time></trkpt><trkpt lat="36.87645947409837" lon="-108.10376975179325"><ele>1866.9999999999998</ele><time>2026-04-05T20:26:00.999Z</time></trkpt><trkpt lat="36.876529503839244" lon="-108.1038716941824"><ele>1867.0</ele><time>2026-04-05T20:26:01.999Z</time></trkpt><trkpt lat="36.87658003088263" lon="-108.10394813823883"><ele>1867.0</ele><time>2026-04-05T20:26:02.999Z</time></trkpt><trkpt lat="36.87665848880391" lon="-108.10398799093944"><ele>1867.0000000000002</ele><time>2026-04-05T20:26:03.999Z</time></trkpt><trkpt lat="36.876734900817226" lon="-108.10402811139225"><ele>1867.0</ele><time>2026-04-05T20:26:04.999Z</time></trkpt><trkpt lat="36.87679680747119" lon="-108.10404716272855"><ele>1867.0</ele><time>2026-04-05T20:26:05.999Z</time></trkpt><trkpt lat="36.87687774945703" lon="-108.10398795779619"><ele>1867.0</ele><time>2026-04-05T20:26:08Z</time></trkpt><trkpt lat="36.87694890722428" lon="-108.10391213243926"><ele>1867.0000000000002</ele><time>2026-04-05T20:26:09Z</time></trkpt><trkpt lat="36.87699243248562" lon="-108.10383823833256"><ele>1867.0</ele><time>2026-04-05T20:26:10Z</time></trkpt><trkpt lat="36.87701384164962" lon="-108.1037420437182"><ele>1867.6666666666667</ele><time>2026-04-05T20:26:12Z</time></trkpt><trkpt lat="36.87707476221741" lon="-108.10372034750267"><ele>1868.3333333333335</ele><time>2026-04-05T20:26:14Z</time></trkpt><trkpt lat="36.87712838814208" lon="-108.10367093591512"><ele>1869.0</ele><time>2026-04-05T20:26:15Z</time></trkpt><trkpt lat="36.877181645694556" lon="-108.10362411148182"><ele>1869.6666666666665</ele><time>2026-04-05T20:26:16Z</time></trkpt><trkpt lat="36.87724736966295" lon="-108.10357694103325"><ele>1870.3333333333333</ele><time>2026-04-05T20:26:17Z</time></trkpt><trkpt lat="36.8773227296384" lon="-108.10350786654423"><ele>1871.0</ele><time>2026-04-05T20:26:18Z</time></trkpt><trkpt lat="36.87739872007429" lon="-108.10343586490883"><ele>1870.9999999999998</ele><time>2026-04-05T20:26:19Z</time></trkpt><trkpt lat="36.877460245885814" lon="-108.10337488566063"><ele>1871.0</ele><time>2026-04-05T20:26:20Z</time></trkpt><trkpt lat="36.87752195077815" lon="-108.10333325097595"><ele>1871.0</ele><time>2026-04-05T20:26:21Z</time></trkpt><trkpt lat="36.8775945691681" lon="-108.10327803118065"><ele>1871.0</ele><time>2026-04-05T20:26:22Z</time></trkpt><trkpt lat="36.87767036085846" lon="-108.10322275953543"><ele>1870.9999999999998</ele><time>2026-04-05T20:26:23Z</time></trkpt><trkpt lat="36.87775574990724" lon="-108.10314722375644"><ele>1871.0</ele><time>2026-04-05T20:26:24Z</time></trkpt><trkpt lat="36.87786717988964" lon="-108.10305123008538"><ele>1872.8</ele><time>2026-04-05T20:26:25Z</time></trkpt><trkpt lat="36.87796246588029" lon="-108.10297336198843"><ele>1874.6</ele><time>2026-04-05T20:26:26Z</time></trkpt><trkpt lat="36.8780422557082" lon="-108.10289531316579"><ele>1876.4</ele><time>2026-04-05T20:26:27Z</time></trkpt><trkpt lat="36.87810474215778" lon="-108.10283690758236"><ele>1878.2</ele><time>2026-04-05T20:26:28Z</time></trkpt><trkpt lat="36.87803982654242" lon="-108.1027239866835"><ele>1880.0</ele><time>2026-04-05T20:26:31Z</time></trkpt><trkpt lat="36.87797676786597" lon="-108.10268510681685"><ele>1879.9999999999998</ele><time>2026-04-05T20:26:32Z</time></trkpt><trkpt lat="36.87791677862638" lon="-108.10264188262909"><ele>1880.0</ele><time>2026-04-05T20:26:33Z</time></trkpt><trkpt lat="36.87784971825303" lon="-108.10259727465657"><ele>1880.0</ele><time>2026-04-05T20:26:34Z</time></trkpt><trkpt lat="36.87778909623118" lon="-108.10253237384286"><ele>1880.0</ele><time>2026-04-05T20:26:35Z</time></trkpt><trkpt lat="36.87773253571893" lon="-108.10241433122572"><ele>1879.9999999999998</ele><time>2026-04-05T20:26:36Z</time></trkpt><trkpt lat="36.87766936017581" lon="-108.10231958136707"><ele>1880.0</ele><time>2026-04-05T20:26:37Z</time></trkpt><trkpt lat="36.87761384170307" lon="-108.10223814509126"><ele>1880.4</ele><time>2026-04-05T20:26:38Z</time></trkpt><trkpt lat="36.87754688375155" lon="-108.10216643389522"><ele>1880.8</ele><time>2026-04-05T20:26:39Z</time></trkpt><trkpt lat="36.877467291375844" lon="-108.10209384190591"><ele>1881.1999999999998</ele><time>2026-04-05T20:26:40Z</time></trkpt><trkpt lat="36.877452574878866" lon="-108.10199336298277"><ele>1881.6</ele><time>2026-04-05T20:26:42Z</time></trkpt><trkpt lat="36.87749093124279" lon="-108.10192595158229"><ele>1882.0</ele><time>2026-04-05T20:26:43Z</time></trkpt><trkpt lat="36.87743632900276" lon="-108.10178252729413"><ele>1882.0</ele><time>2026-04-05T20:26:45Z</time></trkpt><trkpt lat="36.877320443967285" lon="-108.1016297278021"><ele>1882.0</ele><time>2026-04-05T20:26:47Z</time></trkpt><trkpt lat="36.87723032358978" lon="-108.10151711311107"><ele>1882.0</ele><time>2026-04-05T20:26:48Z</time></trkpt><trkpt lat="36.8771441451283" lon="-108.10144586032177"><ele>1882.0</ele><time>2026-04-05T20:26:49Z</time></trkpt><trkpt lat="36.877077490479586" lon="-108.1014158538551"><ele>1881.6666666666667</ele><time>2026-04-05T20:26:50Z</time></trkpt><trkpt lat="36.87700214764944" lon="-108.10135791757436"><ele>1881.3333333333335</ele><time>2026-04-05T20:26:51Z</time></trkpt><trkpt lat="36.876925783041074" lon="-108.10126294444339"><ele>1881.0</ele><time>2026-04-05T20:26:52Z</time></trkpt><trkpt lat="36.876866923943616" lon="-108.10120527778021"><ele>1880.6666666666665</ele><time>2026-04-05T20:26:53Z</time></trkpt><trkpt lat="36.87680265466069" lon="-108.10116431285387"><ele>1880.3333333333333</ele><time>2026-04-05T20:26:54Z</time></trkpt><trkpt lat="36.8767555828673" lon="-108.10110538318365"><ele>1880.0</ele><time>2026-04-05T20:26:55Z</time></trkpt><trkpt lat="36.87664241608185" lon="-108.10114404694788"><ele>1880.0</ele><time>2026-04-05T20:26:57Z</time></trkpt><trkpt lat="36.87655173405226" lon="-108.10111389837996"><ele>1880.0</ele><time>2026-04-05T20:26:58Z</time></trkpt><trkpt lat="36.876500595841456" lon="-108.10101406273692"><ele>1880.0</ele><time>2026-04-05T20:27:00Z</time></trkpt><trkpt lat="36.87655998579185" lon="-108.10087279750609"><ele>1880.0</ele><time>2026-04-05T20:27:02Z</time></trkpt><trkpt lat="36.87662872518566" lon="-108.10084262533431"><ele>1880.0</ele><time>2026-04-05T20:27:03Z</time></trkpt><trkpt lat="36.876709287158334" lon="-108.10085694548131"><ele>1881.75</ele><time>2026-04-05T20:27:04Z</time></trkpt><trkpt lat="36.87679941706214" lon="-108.10082269822382"><ele>1883.5</ele><time>2026-04-05T20:27:06Z</time></trkpt><trkpt lat="36.876884999694305" lon="-108.10087175894495"><ele>1885.25</ele><time>2026-04-05T20:27:08Z</time></trkpt><trkpt lat="36.87710920706905" lon="-108.10082662362798"><ele>1887.0</ele><time>2026-04-05T20:27:10Z</time></trkpt><trkpt lat="36.87720507934995" lon="-108.10082744600392"><ele>1887.0</ele><time>2026-04-05T20:27:11Z</time></trkpt><trkpt lat="36.87735712510398" lon="-108.10071223615626"><ele>1887.0</ele><time>2026-04-05T20:27:13Z</time></trkpt><trkpt lat="36.87744872519569" lon="-108.10063068078394"><ele>1887.0</ele><time>2026-04-05T20:27:14Z</time></trkpt><trkpt lat="36.87750091585352" lon="-108.10055954688674"><ele>1887.0</ele><time>2026-04-05T20:27:15Z</time></trkpt><trkpt lat="36.877565282395224" lon="-108.10046177182417"><ele>1887.8</ele><time>2026-04-05T20:27:16Z</time></trkpt><trkpt lat="36.877634434562474" lon="-108.10037473081438"><ele>1888.6</ele><time>2026-04-05T20:27:17Z</time></trkpt><trkpt lat="36.87769674205428" lon="-108.10028752841927"><ele>1889.3999999999999</ele><time>2026-04-05T20:27:18Z</time></trkpt><trkpt lat="36.87774614095568" lon="-108.10022303829952"><ele>1890.1999999999998</ele><time>2026-04-05T20:27:19Z</time></trkpt><trkpt lat="36.87785652999365" lon="-108.10015884274318"><ele>1891.0</ele><time>2026-04-05T20:27:21Z</time></trkpt><trkpt lat="36.87795397756978" lon="-108.10017134014792"><ele>1891.0</ele><time>2026-04-05T20:27:22Z</time></trkpt><trkpt lat="36.878097285431686" lon="-108.10012787152024"><ele>1891.0</ele><time>2026-04-05T20:27:24Z</time></trkpt><trkpt lat="36.8781957439075" lon="-108.10010768052716"><ele>1891.0</ele><time>2026-04-05T20:27:25Z</time></trkpt><trkpt lat="36.87827406434823" lon="-108.10005264053649"><ele>1891.0</ele><time>2026-04-05T20:27:26Z</time></trkpt><trkpt lat="36.878335901367784" lon="-108.09993981578187"><ele>1891.0</ele><time>2026-04-05T20:27:27Z</time></trkpt><trkpt lat="36.878404142366016" lon="-108.09986808939738"><ele>1890.8333333333335</ele><time>2026-04-05T20:27:28Z</time></trkpt><trkpt lat="36.878476023179395" lon="-108.09983294158219"><ele>1890.6666666666667</ele><time>2026-04-05T20:27:29Z</time></trkpt><trkpt lat="36.87851903799504" lon="-108.0997723952038"><ele>1890.5</ele><time>2026-04-05T20:27:30Z</time></trkpt><trkpt lat="36.8785354429896" lon="-108.0996884594533"><ele>1890.3333333333335</ele><time>2026-04-05T20:27:31Z</time></trkpt><trkpt lat="36.878535678109266" lon="-108.0995641672806"><ele>1890.1666666666667</ele><time>2026-04-05T20:27:32Z</time></trkpt><trkpt lat="36.87858929962563" lon="-108.09942150100757"><ele>1890.0</ele><time>2026-04-05T20:27:33Z</time></trkpt><trkpt lat="36.87864590780576" lon="-108.09928126102963"><ele>1890.0</ele><time>2026-04-05T20:27:34Z</time></trkpt><trkpt lat="36.878684772876994" lon="-108.09918152242857"><ele>1890.0</ele><time>2026-04-05T20:27:35Z</time></trkpt><trkpt lat="36.8787297886641" lon="-108.09911317572879"><ele>1890.0</ele><time>2026-04-05T20:27:36Z</time></trkpt><trkpt lat="36.87878865984244" lon="-108.09908172089386"><ele>1890.0</ele><time>2026-04-05T20:27:37Z</time></trkpt><trkpt lat="36.87888089359248" lon="-108.0990840154283"><ele>1890.0</ele><time>2026-04-05T20:27:38Z</time></trkpt><trkpt lat="36.87896080973302" lon="-108.09909869724133"><ele>1890.0</ele><time>2026-04-05T20:27:39Z</time></trkpt><trkpt lat="36.87902998962731" lon="-108.09912303545761"><ele>1890.0</ele><time>2026-04-05T20:27:40Z</time></trkpt><trkpt lat="36.87913692865769" lon="-108.09915175745881"><ele>1890.0</ele><time>2026-04-05T20:27:41Z</time></trkpt><trkpt lat="36.87926879595965" lon="-108.09916340071403"><ele>1890.0</ele><time>2026-04-05T20:27:42Z</time></trkpt><trkpt lat="36.87936071590761" lon="-108.09918548387745"><ele>1890.0</ele><time>2026-04-05T20:27:43Z</time></trkpt><trkpt lat="36.879433813460814" lon="-108.09920029669267"><ele>1890.0</ele><time>2026-04-05T20:27:44Z</time></trkpt><trkpt lat="36.87950138553279" lon="-108.09921858159171"><ele>1888.8</ele><time>2026-04-05T20:27:45Z</time></trkpt><trkpt lat="36.87955245759094" lon="-108.09937499752371"><ele>1887.6</ele><time>2026-04-05T20:27:47Z</time></trkpt><trkpt lat="36.879569164347245" lon="-108.09948511439161"><ele>1886.4</ele><time>2026-04-05T20:27:48Z</time></trkpt><trkpt lat="36.87957665124719" lon="-108.09957746818743"><ele>1885.2</ele><time>2026-04-05T20:27:49Z</time></trkpt><trkpt lat="36.87970008933217" lon="-108.09958703593016"><ele>1884.0</ele><time>2026-04-05T20:27:52Z</time></trkpt><trkpt lat="36.879793846795245" lon="-108.09954873911332"><ele>1884.0</ele><time>2026-04-05T20:27:54Z</time></trkpt><trkpt lat="36.87986992139011" lon="-108.0995670515393"><ele>1884.0</ele><time>2026-04-05T20:27:55Z</time></trkpt><trkpt lat="36.87997114979316" lon="-108.09962002768253"><ele>1884.0</ele><time>2026-04-05T20:27:57Z</time></trkpt><trkpt lat="36.88006374701589" lon="-108.09962429342778"><ele>1884.0</ele><time>2026-04-05T20:27:58Z</time></trkpt><trkpt lat="36.880159753396725" lon="-108.09962322848074"><ele>1884.0</ele><time>2026-04-05T20:27:59Z</time></trkpt><trkpt lat="36.88025981982218" lon="-108.09962457149702"><ele>1883.6666666666667</ele><time>2026-04-05T20:28:00Z</time></trkpt><trkpt lat="36.88036520769908" lon="-108.09962680678646"><ele>1883.3333333333335</ele><time>2026-04-05T20:28:01Z</time></trkpt><trkpt lat="36.880449864978104" lon="-108.09963505742196"><ele>1883.0</ele><time>2026-04-05T20:28:02Z</time></trkpt><trkpt lat="36.88052459166161" lon="-108.09962442596424"><ele>1882.6666666666667</ele><time>2026-04-05T20:28:03Z</time></trkpt><trkpt lat="36.880590163899896" lon="-108.09960064512319"><ele>1882.3333333333335</ele><time>2026-04-05T20:28:04Z</time></trkpt><trkpt lat="36.88066795718111" lon="-108.09958477931266"><ele>1882.0</ele><time>2026-04-05T20:28:05Z</time></trkpt><trkpt lat="36.880782309424134" lon="-108.09953193906452"><ele>1882.0</ele><time>2026-04-05T20:28:06.999Z</time></trkpt><trkpt lat="36.880890830581684" lon="-108.09943149943585"><ele>1881.9999999999998</ele><time>2026-04-05T20:28:08.999Z</time></trkpt><trkpt lat="36.880951971316584" lon="-108.09934878356742"><ele>1881.9999999999998</ele><time>2026-04-05T20:28:09.999Z</time></trkpt><trkpt lat="36.88101070729538" lon="-108.09926086362965"><ele>1882.0</ele><time>2026-04-05T20:28:10.999Z</time></trkpt><trkpt lat="36.881069586809716" lon="-108.09918334268797"><ele>1882.0</ele><time>2026-04-05T20:28:11.999Z</time></trkpt><trkpt lat="36.88113475130273" lon="-108.09912877849796"><ele>1882.0000000000002</ele><time>2026-04-05T20:28:13Z</time></trkpt><trkpt lat="36.88121341457441" lon="-108.09909518453286"><ele>1882.0</ele><time>2026-04-05T20:28:14Z</time></trkpt><trkpt lat="36.881286817065124" lon="-108.09912281807854"><ele>1882.0</ele><time>2026-04-05T20:28:15Z</time></trkpt><trkpt lat="36.88135920256966" lon="-108.09907172236016"><ele>1882.0</ele><time>2026-04-05T20:28:16Z</time></trkpt><trkpt lat="36.88142890802685" lon="-108.09901240340037"><ele>1882.0000000000002</ele><time>2026-04-05T20:28:17Z</time></trkpt><trkpt lat="36.88147341295046" lon="-108.09894139165277"><ele>1882.0</ele><time>2026-04-05T20:28:18Z</time></trkpt><trkpt lat="36.881514367357084" lon="-108.09887440325654"><ele>1881.25</ele><time>2026-04-05T20:28:19Z</time></trkpt><trkpt lat="36.8816651853268" lon="-108.09885419154905"><ele>1880.5</ele><time>2026-04-05T20:28:21Z</time></trkpt><trkpt lat="36.881753222971604" lon="-108.09884158429206"><ele>1879.75</ele><time>2026-04-05T20:28:22Z</time></trkpt><trkpt lat="36.88187573793212" lon="-108.09903972482957"><ele>1879.0</ele><time>2026-04-05T20:28:25Z</time></trkpt><trkpt lat="36.88195496482942" lon="-108.09911874605157"><ele>1877.8000000000002</ele><time>2026-04-05T20:28:26Z</time></trkpt><trkpt lat="36.882047256782776" lon="-108.0991716062345"><ele>1876.6000000000001</ele><time>2026-04-05T20:28:27Z</time></trkpt><trkpt lat="36.88219201157447" lon="-108.0991618664109"><ele>1875.4</ele><time>2026-04-05T20:28:29Z</time></trkpt><trkpt lat="36.88227053892305" lon="-108.09913799184743"><ele>1874.2</ele><time>2026-04-05T20:28:30Z</time></trkpt><trkpt lat="36.88235616123444" lon="-108.09915482052541"><ele>1873.0</ele><time>2026-04-05T20:28:31Z</time></trkpt><trkpt lat="36.88242271402557" lon="-108.09917334053132"><ele>1873.0000000000002</ele><time>2026-04-05T20:28:32Z</time></trkpt><trkpt lat="36.88254619440434" lon="-108.09914562195333"><ele>1873.0</ele><time>2026-04-05T20:28:34Z</time></trkpt><trkpt lat="36.88261348197163" lon="-108.09911931840209"><ele>1873.0</ele><time>2026-04-05T20:28:35Z</time></trkpt><trkpt lat="36.88271117794015" lon="-108.09913622104834"><ele>1873.0</ele><time>2026-04-05T20:28:38Z</time></trkpt><trkpt lat="36.88276482490121" lon="-108.09920309920139"><ele>1873.0000000000002</ele><time>2026-04-05T20:28:39Z</time></trkpt><trkpt lat="36.88281511322527" lon="-108.09927752158337"><ele>1873.0</ele><time>2026-04-05T20:28:40Z</time></trkpt><trkpt lat="36.882857890816226" lon="-108.09934016954975"><ele>1872.0000000000002</ele><time>2026-04-05T20:28:41Z</time></trkpt><trkpt lat="36.88291363262998" lon="-108.09941071710958"><ele>1871.0</ele><time>2026-04-05T20:28:43Z</time></trkpt><trkpt lat="36.882916587150646" lon="-108.09949382519547"><ele>1870.0</ele><time>2026-04-05T20:28:48Z</time></trkpt><trkpt lat="36.882953856687934" lon="-108.09959597316531"><ele>1869.0</ele><time>2026-04-05T20:33:26.999Z</time></trkpt><trkpt lat="36.88299372412608" lon="-108.09968109671021"><ele>1868.0000000000002</ele><time>2026-04-05T20:33:27.999Z</time></trkpt><trkpt lat="36.88305844304526" lon="-108.09974922784868"><ele>1867.0</ele><time>2026-04-05T20:33:28.999Z</time></trkpt><trkpt lat="36.883139809255866" lon="-108.09980506633586"><ele>1867.0</ele><time>2026-04-05T20:33:29.999Z</time></trkpt><trkpt lat="36.88324868348497" lon="-108.09984749708678"><ele>1866.9999999999998</ele><time>2026-04-05T20:33:30.999Z</time></trkpt><trkpt lat="36.883364689437684" lon="-108.09989338803219"><ele>1866.9999999999998</ele><time>2026-04-05T20:33:31.999Z</time></trkpt><trkpt lat="36.883464779405635" lon="-108.0999385035174"><ele>1867.0</ele><time>2026-04-05T20:33:32.999Z</time></trkpt><trkpt lat="36.88355055537463" lon="-108.09996498944308"><ele>1867.0</ele><time>2026-04-05T20:33:33.999Z</time></trkpt><trkpt lat="36.88362265710599" lon="-108.09999375058075"><ele>1866.0</ele><time>2026-04-05T20:33:35.999Z</time></trkpt><trkpt lat="36.88362186102206" lon="-108.10010480706812"><ele>1864.9999999999998</ele><time>2026-04-05T20:33:36.999Z</time></trkpt><trkpt lat="36.883645019192876" lon="-108.10024228469962"><ele>1863.9999999999998</ele><time>2026-04-05T20:33:37.999Z</time></trkpt><trkpt lat="36.88369038029711" lon="-108.10036188545911"><ele>1863.0</ele><time>2026-04-05T20:33:38.999Z</time></trkpt><trkpt lat="36.88373977167974" lon="-108.10049777920028"><ele>1862.0</ele><time>2026-04-05T20:33:39.999Z</time></trkpt><trkpt lat="36.883783417890236" lon="-108.10063063596291"><ele>1861.9999999999998</ele><time>2026-04-05T20:33:40.999Z</time></trkpt><trkpt lat="36.88383474806319" lon="-108.10073478859424"><ele>1862.0</ele><time>2026-04-05T20:33:41.999Z</time></trkpt><trkpt lat="36.883905488068145" lon="-108.10079568832494"><ele>1862.0</ele><time>2026-04-05T20:33:42.999Z</time></trkpt><trkpt lat="36.88397165218584" lon="-108.10084050025242"><ele>1862.0</ele><time>2026-04-05T20:33:43.999Z</time></trkpt><trkpt lat="36.8839978669121" lon="-108.10092503314266"><ele>1861.9999999999998</ele><time>2026-04-05T20:33:44.999Z</time></trkpt><trkpt lat="36.884029941376525" lon="-108.10104023080811"><ele>1862.0</ele><time>2026-04-05T20:33:45.999Z</time></trkpt><trkpt lat="36.884109350316436" lon="-108.10116289867575"><ele>1861.6</ele><time>2026-04-05T20:33:46.999Z</time></trkpt><trkpt lat="36.88418245036902" lon="-108.10126152380946"><ele>1861.1999999999998</ele><time>2026-04-05T20:33:47.999Z</time></trkpt><trkpt lat="36.88426312460209" lon="-108.1013356319706"><ele>1860.8</ele><time>2026-04-05T20:33:48.999Z</time></trkpt><trkpt lat="36.884330260523264" lon="-108.1013791053546"><ele>1860.4</ele><time>2026-04-05T20:33:49.999Z</time></trkpt><trkpt lat="36.88441524439413" lon="-108.10152197747234"><ele>1860.0</ele><time>2026-04-05T20:33:51.999Z</time></trkpt><trkpt lat="36.88446901305999" lon="-108.10157218181526"><ele>1858.8</ele><time>2026-04-05T20:33:52.999Z</time></trkpt><trkpt lat="36.88453954363619" lon="-108.10158866904598"><ele>1857.6</ele><time>2026-04-05T20:33:53.999Z</time></trkpt><trkpt lat="36.88463280015881" lon="-108.10161668414985"><ele>1856.4</ele><time>2026-04-05T20:33:54.999Z</time></trkpt><trkpt lat="36.88474825063495" lon="-108.10165225416185"><ele>1855.2</ele><time>2026-04-05T20:33:55.999Z</time></trkpt><trkpt lat="36.88485118477911" lon="-108.10167981597876"><ele>1854.0</ele><time>2026-04-05T20:33:56.999Z</time></trkpt><trkpt lat="36.88493741316598" lon="-108.10170357997903"><ele>1854.0</ele><time>2026-04-05T20:33:57.999Z</time></trkpt><trkpt lat="36.885012944372" lon="-108.10172064687042"><ele>1854.0</ele><time>2026-04-05T20:33:58.999Z</time></trkpt><trkpt lat="36.88508905005302" lon="-108.10171686392987"><ele>1854.0</ele><time>2026-04-05T20:33:59.999Z</time></trkpt><trkpt lat="36.88515841205605" lon="-108.10173301647731"><ele>1854.0</ele><time>2026-04-05T20:34:00.999Z</time></trkpt><trkpt lat="36.88523654360602" lon="-108.10187293176976"><ele>1854.0</ele><time>2026-04-05T20:34:02.999Z</time></trkpt><trkpt lat="36.885307721902876" lon="-108.1019134963277"><ele>1854.0</ele><time>2026-04-05T20:34:03.999Z</time></trkpt><trkpt lat="36.88538849690838" lon="-108.10192516907044"><ele>1854.0</ele><time>2026-04-05T20:34:04.999Z</time></trkpt><trkpt lat="36.88548422319354" lon="-108.10194066563139"><ele>1854.0</ele><time>2026-04-05T20:34:05.999Z</time></trkpt><trkpt lat="36.88556105045647" lon="-108.10198588231768"><ele>1854.0</ele><time>2026-04-05T20:34:06.999Z</time></trkpt><trkpt lat="36.88562053805952" lon="-108.1020244199338"><ele>1854.0</ele><time>2026-04-05T20:34:07.999Z</time></trkpt><trkpt lat="36.885693458956325" lon="-108.10213886220097"><ele>1854.0</ele><time>2026-04-05T20:34:09.999Z</time></trkpt><trkpt lat="36.88573906952327" lon="-108.10223223122921"><ele>1854.0</ele><time>2026-04-05T20:34:10.999Z</time></trkpt><trkpt lat="36.88577920192589" lon="-108.10234752173338"><ele>1854.0</ele><time>2026-04-05T20:34:11.999Z</time></trkpt><trkpt lat="36.885810292844845" lon="-108.10248692151025"><ele>1854.0</ele><time>2026-04-05T20:34:12.999Z</time></trkpt><trkpt lat="36.88584626330402" lon="-108.10263507384516"><ele>1854.0</ele><time>2026-04-05T20:34:13.999Z</time></trkpt><trkpt lat="36.88588173334799" lon="-108.10276584783226"><ele>1853.4</ele><time>2026-04-05T20:34:14.999Z</time></trkpt><trkpt lat="36.88591294315523" lon="-108.10287020213794"><ele>1852.8000000000002</ele><time>2026-04-05T20:34:15.999Z</time></trkpt><trkpt lat="36.88596769515271" lon="-108.10299535300553"><ele>1852.1999999999998</ele><time>2026-04-05T20:34:16.999Z</time></trkpt><trkpt lat="36.886012701395686" lon="-108.10315362053946"><ele>1851.6</ele><time>2026-04-05T20:34:17.999Z</time></trkpt><trkpt lat="36.88603966095257" lon="-108.10327662809712"><ele>1851.0</ele><time>2026-04-05T20:34:18.999Z</time></trkpt><trkpt lat="36.886078412162576" lon="-108.10340089006736"><ele>1850.0</ele><time>2026-04-05T20:34:19.998Z</time></trkpt><trkpt lat="36.88612963231936" lon="-108.10353951326387"><ele>1849.0</ele><time>2026-04-05T20:34:20.998Z</time></trkpt><trkpt lat="36.88618601137752" lon="-108.10366475717726"><ele>1848.0</ele><time>2026-04-05T20:34:21.998Z</time></trkpt><trkpt lat="36.886234372547484" lon="-108.10377751415007"><ele>1847.0</ele><time>2026-04-05T20:34:22.998Z</time></trkpt><trkpt lat="36.886270039896615" lon="-108.10388607872873"><ele>1846.0</ele><time>2026-04-05T20:34:23.998Z</time></trkpt><trkpt lat="36.88628129508524" lon="-108.1039888583633"><ele>1845.5000000000002</ele><time>2026-04-05T20:34:24.998Z</time></trkpt><trkpt lat="36.88626343514218" lon="-108.10408615054634"><ele>1845.0</ele><time>2026-04-05T20:34:25.998Z</time></trkpt><trkpt lat="36.88623104725521" lon="-108.10415744984606"><ele>1844.5</ele><time>2026-04-05T20:34:26.998Z</time></trkpt><trkpt lat="36.886166630074186" lon="-108.10417338999584"><ele>1844.0</ele><time>2026-04-05T20:34:48.999Z</time></trkpt><trkpt lat="36.88609535219803" lon="-108.1042280222491"><ele>1843.5000000000002</ele><time>2026-04-05T20:34:50.999Z</time></trkpt><trkpt lat="36.88615453055288" lon="-108.10436039895409"><ele>1843.0</ele><time>2026-04-05T20:34:52.999Z</time></trkpt><trkpt lat="36.88616416536388" lon="-108.10443999936095"><ele>1843.0</ele><time>2026-04-05T20:34:53.999Z</time></trkpt><trkpt lat="36.88617957830434" lon="-108.10454347353175"><ele>1843.0000000000002</ele><time>2026-04-05T20:34:54.999Z</time></trkpt><trkpt lat="36.88624758213708" lon="-108.10463043504771"><ele>1843.0000000000002</ele><time>2026-04-05T20:34:56.999Z</time></trkpt><trkpt lat="36.88634575530741" lon="-108.10463757583997"><ele>1843.0</ele><time>2026-04-05T20:34:58.999Z</time></trkpt><trkpt lat="36.886439128285915" lon="-108.10466981892253"><ele>1843.0</ele><time>2026-04-05T20:34:59.999Z</time></trkpt><trkpt lat="36.8865307184643" lon="-108.10464932415522"><ele>1843.0</ele><time>2026-04-05T20:35:00.999Z</time></trkpt><trkpt lat="36.886619797338106" lon="-108.10465881288954"><ele>1843.0000000000002</ele><time>2026-04-05T20:35:01.999Z</time></trkpt><trkpt lat="36.88674029597609" lon="-108.10467385321688"><ele>1843.0000000000002</ele><time>2026-04-05T20:35:02.999Z</time></trkpt><trkpt lat="36.88683714151202" lon="-108.10471459793445"><ele>1843.0</ele><time>2026-04-05T20:35:03.999Z</time></trkpt><trkpt lat="36.88689945587627" lon="-108.1048208315402"><ele>1843.0</ele><time>2026-04-05T20:35:04.999Z</time></trkpt><trkpt lat="36.88696200512955" lon="-108.10495227090811"><ele>1844.75</ele><time>2026-04-05T20:35:05.999Z</time></trkpt><trkpt lat="36.887067999257035" lon="-108.10507583140765"><ele>1846.5</ele><time>2026-04-05T20:35:06.999Z</time></trkpt><trkpt lat="36.8871754621068" lon="-108.1051517951632"><ele>1848.25</ele><time>2026-04-05T20:35:07.999Z</time></trkpt><trkpt lat="36.88727504194181" lon="-108.10520180744486"><ele>1850.0</ele><time>2026-04-05T20:35:08.999Z</time></trkpt><trkpt lat="36.88735697008729" lon="-108.10523840629749"><ele>1850.0</ele><time>2026-04-05T20:35:09.999Z</time></trkpt><trkpt lat="36.88743868883618" lon="-108.1053126326924"><ele>1850.0</ele><time>2026-04-05T20:35:10.999Z</time></trkpt><trkpt lat="36.887523826548275" lon="-108.10542090099574"><ele>1850.0</ele><time>2026-04-05T20:35:11.999Z</time></trkpt><trkpt lat="36.88760693443189" lon="-108.10553927694262"><ele>1850.0</ele><time>2026-04-05T20:35:12.999Z</time></trkpt><trkpt lat="36.88770365515503" lon="-108.105641457566"><ele>1852.25</ele><time>2026-04-05T20:35:13.999Z</time></trkpt><trkpt lat="36.887807839256254" lon="-108.10575451248788"><ele>1854.5</ele><time>2026-04-05T20:35:14.999Z</time></trkpt><trkpt lat="36.887879912710666" lon="-108.10577618909215"><ele>1856.75</ele><time>2026-04-05T20:35:15.999Z</time></trkpt><trkpt lat="36.88797320156988" lon="-108.10574732018573"><ele>1859.0</ele><time>2026-04-05T20:35:17.999Z</time></trkpt><trkpt lat="36.88810090316368" lon="-108.10586667606559"><ele>1859.0</ele><time>2026-04-05T20:35:19.999Z</time></trkpt><trkpt lat="36.88817006509313" lon="-108.10588920721152"><ele>1859.0</ele><time>2026-04-05T20:35:20.999Z</time></trkpt><trkpt lat="36.88824832110686" lon="-108.10584672770096"><ele>1859.0</ele><time>2026-04-05T20:35:21.999Z</time></trkpt><trkpt lat="36.88835857883954" lon="-108.10575875763023"><ele>1859.0</ele><time>2026-04-05T20:35:22.999Z</time></trkpt><trkpt lat="36.88844939334192" lon="-108.10568066850281"><ele>1859.0</ele><time>2026-04-05T20:35:23.999Z</time></trkpt><trkpt lat="36.888532484676766" lon="-108.10560390646965"><ele>1859.0</ele><time>2026-04-05T20:35:24.999Z</time></trkpt><trkpt lat="36.88862136745665" lon="-108.10556497364787"><ele>1859.0</ele><time>2026-04-05T20:35:25.999Z</time></trkpt><trkpt lat="36.8887286270954" lon="-108.10554554086926"><ele>1859.0</ele><time>2026-04-05T20:35:26.999Z</time></trkpt><trkpt lat="36.88880926239331" lon="-108.10555532474278"><ele>1859.0</ele><time>2026-04-05T20:35:27.999Z</time></trkpt><trkpt lat="36.88891223898004" lon="-108.10564840760647"><ele>1859.0</ele><time>2026-04-05T20:35:29.999Z</time></trkpt><trkpt lat="36.88898072732683" lon="-108.10567838092835"><ele>1859.0</ele><time>2026-04-05T20:35:30.999Z</time></trkpt><trkpt lat="36.88907342733626" lon="-108.1057082402258"><ele>1859.0</ele><time>2026-04-05T20:35:32.999Z</time></trkpt><trkpt lat="36.88914395567029" lon="-108.105743136825"><ele>1859.0</ele><time>2026-04-05T20:35:35.999Z</time></trkpt><trkpt lat="36.88921757609772" lon="-108.10579094955935"><ele>1859.0</ele><time>2026-04-05T20:35:38.999Z</time></trkpt><trkpt lat="36.88929549583567" lon="-108.10589152793034"><ele>1859.0</ele><time>2026-04-05T20:35:40.999Z</time></trkpt><trkpt lat="36.88941410077556" lon="-108.1059015553789"><ele>1860.0</ele><time>2026-04-05T20:35:42.999Z</time></trkpt><trkpt lat="36.88953179723154" lon="-108.10596087918866"><ele>1861.0</ele><time>2026-04-05T20:35:44.999Z</time></trkpt><trkpt lat="36.88961641199466" lon="-108.10602162211964"><ele>1862.0</ele><time>2026-04-05T20:35:45.999Z</time></trkpt><trkpt lat="36.889689359062864" lon="-108.10608037445505"><ele>1863.0</ele><time>2026-04-05T20:35:46.999Z</time></trkpt><trkpt lat="36.88974571906628" lon="-108.10612899966249"><ele>1864.0</ele><time>2026-04-05T20:35:47.999Z</time></trkpt><trkpt lat="36.88980992258327" lon="-108.10627183043405"><ele>1864.0</ele><time>2026-04-05T20:35:49.999Z</time></trkpt><trkpt lat="36.88986272222413" lon="-108.10634867003915"><ele>1864.0</ele><time>2026-04-05T20:35:50.999Z</time></trkpt><trkpt lat="36.88993723025658" lon="-108.1064389675289"><ele>1864.0</ele><time>2026-04-05T20:35:51.999Z</time></trkpt><trkpt lat="36.89001375413482" lon="-108.10651931730196"><ele>1864.0</ele><time>2026-04-05T20:35:52.999Z</time></trkpt><trkpt lat="36.89010075498192" lon="-108.10653854978801"><ele>1864.0</ele><time>2026-04-05T20:35:53.999Z</time></trkpt><trkpt lat="36.89018743892526" lon="-108.10651686368494"><ele>1864.5000000000002</ele><time>2026-04-05T20:35:54.999Z</time></trkpt><trkpt lat="36.89025269492529" lon="-108.10651277312401"><ele>1865.0</ele><time>2026-04-05T20:35:55.999Z</time></trkpt><trkpt lat="36.890314700308885" lon="-108.10656321487858"><ele>1865.5</ele><time>2026-04-05T20:35:56.999Z</time></trkpt><trkpt lat="36.89035763334192" lon="-108.1066600593645"><ele>1866.0</ele><time>2026-04-05T20:35:57.999Z</time></trkpt><trkpt lat="36.89043160719967" lon="-108.10673572151627"><ele>1866.5000000000002</ele><time>2026-04-05T20:35:58.999Z</time></trkpt><trkpt lat="36.89052528521883" lon="-108.10682653304815"><ele>1867.0</ele><time>2026-04-05T20:35:59.999Z</time></trkpt><trkpt lat="36.89061117133288" lon="-108.10694358961995"><ele>1867.5</ele><time>2026-04-05T20:36:00.999Z</time></trkpt><trkpt lat="36.89068033215023" lon="-108.1070890464405"><ele>1868.0</ele><time>2026-04-05T20:36:01.999Z</time></trkpt><trkpt lat="36.89072062275472" lon="-108.10728991871393"><ele>1868.5</ele><time>2026-04-05T20:36:02.999Z</time></trkpt><trkpt lat="36.89073490205468" lon="-108.10742101267738"><ele>1869.0</ele><time>2026-04-05T20:36:03.999Z</time></trkpt><trkpt lat="36.890736422279666" lon="-108.10756135628436"><ele>1870.0</ele><time>2026-04-05T20:36:04.999Z</time></trkpt><trkpt lat="36.890780949261575" lon="-108.1076779335588"><ele>1871.0</ele><time>2026-04-05T20:36:05.999Z</time></trkpt><trkpt lat="36.89081866178844" lon="-108.10777333405775"><ele>1872.0</ele><time>2026-04-05T20:36:06.999Z</time></trkpt><trkpt lat="36.89085960260612" lon="-108.10784131261607"><ele>1873.0</ele><time>2026-04-05T20:36:07.999Z</time></trkpt><trkpt lat="36.89100445325393" lon="-108.10784107394318"><ele>1874.0</ele><time>2026-04-05T20:36:09.999Z</time></trkpt><trkpt lat="36.89109194894438" lon="-108.10783431031032"><ele>1874.0</ele><time>2026-04-05T20:36:10.999Z</time></trkpt><trkpt lat="36.89117671427157" lon="-108.10781749061891"><ele>1874.0</ele><time>2026-04-05T20:36:11.999Z</time></trkpt><trkpt lat="36.8912639652273" lon="-108.10784982244863"><ele>1874.0</ele><time>2026-04-05T20:36:12.999Z</time></trkpt><trkpt lat="36.891326369644865" lon="-108.10793768542368"><ele>1874.0</ele><time>2026-04-05T20:36:13.999Z</time></trkpt><trkpt lat="36.89137032033877" lon="-108.1080180671113"><ele>1874.0</ele><time>2026-04-05T20:36:14.999Z</time></trkpt><trkpt lat="36.89141213444128" lon="-108.10813776116335"><ele>1874.0</ele><time>2026-04-05T20:36:15.999Z</time></trkpt><trkpt lat="36.891480086782906" lon="-108.10819207442809"><ele>1874.0</ele><time>2026-04-05T20:36:16.999Z</time></trkpt><trkpt lat="36.89156592379826" lon="-108.10824183317222"><ele>1874.0</ele><time>2026-04-05T20:36:17.999Z</time></trkpt><trkpt lat="36.89163298810558" lon="-108.1084130425741"><ele>1874.0</ele><time>2026-04-05T20:36:19.999Z</time></trkpt><trkpt lat="36.89167272355923" lon="-108.10860490451817"><ele>1874.2</ele><time>2026-04-05T20:36:20.999Z</time></trkpt><trkpt lat="36.89174143228138" lon="-108.10874529526987"><ele>1874.4</ele><time>2026-04-05T20:36:21.999Z</time></trkpt><trkpt lat="36.89179796225362" lon="-108.10886786047249"><ele>1874.6</ele><time>2026-04-05T20:36:23.999Z</time></trkpt><trkpt lat="36.891860991812806" lon="-108.10895638139992"><ele>1874.8</ele><time>2026-04-05T20:36:24.999Z</time></trkpt><trkpt lat="36.89193825918696" lon="-108.10904972015877"><ele>1875.0</ele><time>2026-04-05T20:36:25.999Z</time></trkpt><trkpt lat="36.89193777006904" lon="-108.10926048084417"><ele>1876.2</ele><time>2026-04-05T20:36:27.999Z</time></trkpt><trkpt lat="36.89195594045022" lon="-108.10936583023907"><ele>1877.4</ele><time>2026-04-05T20:36:28.999Z</time></trkpt><trkpt lat="36.89199987604208" lon="-108.10942261797133"><ele>1878.6</ele><time>2026-04-05T20:36:29.999Z</time></trkpt><trkpt lat="36.89206409153179" lon="-108.10954846495895"><ele>1879.8</ele><time>2026-04-05T20:36:30.999Z</time></trkpt><trkpt lat="36.89210293584834" lon="-108.10964695206508"><ele>1881.0</ele><time>2026-04-05T20:36:31.999Z</time></trkpt><trkpt lat="36.892121946043844" lon="-108.10976643874865"><ele>1881.0</ele><time>2026-04-05T20:36:32.999Z</time></trkpt><trkpt lat="36.89220298187993" lon="-108.1098701504035"><ele>1881.0</ele><time>2026-04-05T20:36:33.999Z</time></trkpt><trkpt lat="36.89222113891814" lon="-108.11000334873005"><ele>1881.0</ele><time>2026-04-05T20:36:35.999Z</time></trkpt><trkpt lat="36.89219939695766" lon="-108.1100888238291"><ele>1881.0</ele><time>2026-04-05T20:36:36.999Z</time></trkpt><trkpt lat="36.89217359516354" lon="-108.11022213619427"><ele>1881.0</ele><time>2026-04-05T20:36:37.999Z</time></trkpt><trkpt lat="36.89221067229357" lon="-108.11029965323286"><ele>1882.5</ele><time>2026-04-05T20:36:38.999Z</time></trkpt><trkpt lat="36.89221521308664" lon="-108.11041003360913"><ele>1884.0</ele><time>2026-04-05T20:36:39.999Z</time></trkpt><trkpt lat="36.892217943919654" lon="-108.1105333964475"><ele>1885.5</ele><time>2026-04-05T20:36:40.999Z</time></trkpt><trkpt lat="36.89227580673508" lon="-108.11063931690607"><ele>1887.0</ele><time>2026-04-05T20:36:42.999Z</time></trkpt><trkpt lat="36.892356368708626" lon="-108.11066502247341"><ele>1888.5</ele><time>2026-04-05T20:36:43.999Z</time></trkpt><trkpt lat="36.89241845648679" lon="-108.1106290468597"><ele>1890.0</ele><time>2026-04-05T20:36:44.999Z</time></trkpt><trkpt lat="36.89247672492898" lon="-108.11057988441229"><ele>1890.0</ele><time>2026-04-05T20:36:45.999Z</time></trkpt><trkpt lat="36.89257006443862" lon="-108.11056864451496"><ele>1890.0</ele><time>2026-04-05T20:36:46.999Z</time></trkpt><trkpt lat="36.89268287857797" lon="-108.11060465460228"><ele>1890.0</ele><time>2026-04-05T20:36:47.999Z</time></trkpt><trkpt lat="36.89275607914703" lon="-108.11062198142959"><ele>1890.0</ele><time>2026-04-05T20:36:48.999Z</time></trkpt><trkpt lat="36.89280841081632" lon="-108.11070151660827"><ele>1890.0</ele><time>2026-04-05T20:36:49.999Z</time></trkpt><trkpt lat="36.89288407555092" lon="-108.11080678540496"><ele>1890.0</ele><time>2026-04-05T20:36:50.999Z</time></trkpt><trkpt lat="36.89299297195012" lon="-108.11078335017258"><ele>1890.0</ele><time>2026-04-05T20:36:52.999Z</time></trkpt><trkpt lat="36.89306644159801" lon="-108.11071161942306"><ele>1890.0</ele><time>2026-04-05T20:36:53.999Z</time></trkpt><trkpt lat="36.89316491660483" lon="-108.11068691391276"><ele>1890.0</ele><time>2026-04-05T20:36:54.999Z</time></trkpt><trkpt lat="36.8932502389041" lon="-108.11071849937173"><ele>1890.0</ele><time>2026-04-05T20:36:55.999Z</time></trkpt><trkpt lat="36.89333905476531" lon="-108.11077473072523"><ele>1890.2</ele><time>2026-04-05T20:36:56.999Z</time></trkpt><trkpt lat="36.89345685944722" lon="-108.11076126333263"><ele>1890.4</ele><time>2026-04-05T20:36:58.999Z</time></trkpt><trkpt lat="36.89356033600005" lon="-108.11071917180146"><ele>1890.6</ele><time>2026-04-05T20:36:59.999Z</time></trkpt><trkpt lat="36.89365599397116" lon="-108.11068722487381"><ele>1890.8</ele><time>2026-04-05T20:37:00.999Z</time></trkpt><trkpt lat="36.89373973272663" lon="-108.11062090556251"><ele>1891.0</ele><time>2026-04-05T20:37:01.999Z</time></trkpt><trkpt lat="36.89381235306534" lon="-108.11055763437128"><ele>1891.0000000000002</ele><time>2026-04-05T20:37:02.999Z</time></trkpt><trkpt lat="36.893879549781964" lon="-108.11053893509663"><ele>1891.0</ele><time>2026-04-05T20:37:03.999Z</time></trkpt><trkpt lat="36.893947264064465" lon="-108.1105193789228"><ele>1891.0</ele><time>2026-04-05T20:37:04.999Z</time></trkpt><trkpt lat="36.89402690377469" lon="-108.1104494713247"><ele>1891.0</ele><time>2026-04-05T20:37:05.999Z</time></trkpt><trkpt lat="36.89411590785841" lon="-108.11038351014957"><ele>1891.0000000000002</ele><time>2026-04-05T20:37:06.999Z</time></trkpt><trkpt lat="36.89419626135018" lon="-108.11032859951601"><ele>1891.0</ele><time>2026-04-05T20:37:07.999Z</time></trkpt><trkpt lat="36.89426726359501" lon="-108.11025750885064"><ele>1891.0</ele><time>2026-04-05T20:37:08.999Z</time></trkpt><trkpt lat="36.89430504238521" lon="-108.11014453973063"><ele>1891.0</ele><time>2026-04-05T20:37:09.999Z</time></trkpt><trkpt lat="36.89434243823624" lon="-108.11004622941057"><ele>1891.0</ele><time>2026-04-05T20:37:10.999Z</time></trkpt><trkpt lat="36.89441884313284" lon="-108.10997524042492"><ele>1891.0</ele><time>2026-04-05T20:37:11.999Z</time></trkpt><trkpt lat="36.89449685542716" lon="-108.10991352233204"><ele>1891.0</ele><time>2026-04-05T20:37:12.999Z</time></trkpt><trkpt lat="36.89455346408856" lon="-108.10983231778378"><ele>1892.0000000000002</ele><time>2026-04-05T20:37:13.999Z</time></trkpt><trkpt lat="36.894611328286636" lon="-108.10975326625051"><ele>1893.0</ele><time>2026-04-05T20:37:14.999Z</time></trkpt><trkpt lat="36.894673671103774" lon="-108.1096466475006"><ele>1894.0</ele><time>2026-04-05T20:37:15.999Z</time></trkpt><trkpt lat="36.89471622808079" lon="-108.10958465116995"><ele>1895.0</ele><time>2026-04-05T20:37:16.999Z</time></trkpt><trkpt lat="36.89480603585993" lon="-108.10957652078218"><ele>1896.0000000000002</ele><time>2026-04-05T20:37:17.999Z</time></trkpt><trkpt lat="36.89488927968471" lon="-108.10960134688723"><ele>1897.0</ele><time>2026-04-05T20:37:18.999Z</time></trkpt><trkpt lat="36.894967931824" lon="-108.10958941969984"><ele>1897.0</ele><time>2026-04-05T20:37:19.999Z</time></trkpt><trkpt lat="36.89504627873838" lon="-108.10958444369962"><ele>1896.9999999999998</ele><time>2026-04-05T20:37:20.999Z</time></trkpt><trkpt lat="36.89509557439291" lon="-108.10965803197338"><ele>1896.9999999999998</ele><time>2026-04-05T20:37:21.999Z</time></trkpt><trkpt lat="36.895164619466684" lon="-108.10974012846067"><ele>1897.0</ele><time>2026-04-05T20:37:22.999Z</time></trkpt><trkpt lat="36.89523970205828" lon="-108.10973209034981"><ele>1897.0</ele><time>2026-04-05T20:37:23.999Z</time></trkpt><trkpt lat="36.895358923439204" lon="-108.10966723374288"><ele>1896.0</ele><time>2026-04-05T20:37:24.999Z</time></trkpt><trkpt lat="36.89546542835997" lon="-108.10959551624076"><ele>1895.0</ele><time>2026-04-05T20:37:25.999Z</time></trkpt><trkpt lat="36.895553001149004" lon="-108.10944781424627"><ele>1894.0</ele><time>2026-04-05T20:37:27.999Z</time></trkpt><trkpt lat="36.89563896913363" lon="-108.10939212004877"><ele>1893.0</ele><time>2026-04-05T20:37:28.999Z</time></trkpt><trkpt lat="36.895719785420255" lon="-108.1093436438992"><ele>1893.0</ele><time>2026-04-05T20:37:29.999Z</time></trkpt><trkpt lat="36.895768746957714" lon="-108.10926634339643"><ele>1893.0</ele><time>2026-04-05T20:37:30.999Z</time></trkpt><trkpt lat="36.89576991142041" lon="-108.10914869192554"><ele>1893.0</ele><time>2026-04-05T20:37:31.999Z</time></trkpt><trkpt lat="36.89578359048573" lon="-108.10902516323853"><ele>1893.0</ele><time>2026-04-05T20:37:32.999Z</time></trkpt><trkpt lat="36.89583089189621" lon="-108.10894350413055"><ele>1893.0</ele><time>2026-04-05T20:37:33.999Z</time></trkpt><trkpt lat="36.89590835206334" lon="-108.10888490335375"><ele>1893.0</ele><time>2026-04-05T20:37:34.999Z</time></trkpt><trkpt lat="36.896007143252284" lon="-108.10882643854849"><ele>1893.6000000000001</ele><time>2026-04-05T20:37:35.999Z</time></trkpt><trkpt lat="36.89609509836808" lon="-108.10872871794298"><ele>1894.2000000000003</ele><time>2026-04-05T20:37:36.999Z</time></trkpt><trkpt lat="36.896153210151965" lon="-108.10864379870243"><ele>1894.8</ele><time>2026-04-05T20:37:37.999Z</time></trkpt><trkpt lat="36.896199014277286" lon="-108.10857271795177"><ele>1895.4</ele><time>2026-04-05T20:37:38.999Z</time></trkpt><trkpt lat="36.896325926973496" lon="-108.10855628882074"><ele>1896.0</ele><time>2026-04-05T20:37:40.999Z</time></trkpt><trkpt lat="36.896419659065664" lon="-108.10857344491606"><ele>1896.0</ele><time>2026-04-05T20:37:41.999Z</time></trkpt><trkpt lat="36.89650487991987" lon="-108.10856278667092"><ele>1896.0</ele><time>2026-04-05T20:37:42.999Z</time></trkpt><trkpt lat="36.896600788998676" lon="-108.1085765875601"><ele>1896.0</ele><time>2026-04-05T20:37:43.999Z</time></trkpt><trkpt lat="36.896676274542855" lon="-108.10854922515155"><ele>1896.0</ele><time>2026-04-05T20:37:44.999Z</time></trkpt><trkpt lat="36.896731101698606" lon="-108.10847436116221"><ele>1896.0</ele><time>2026-04-05T20:37:45.999Z</time></trkpt><trkpt lat="36.89680377603454" lon="-108.10840553416853"><ele>1896.0</ele><time>2026-04-05T20:37:46.999Z</time></trkpt><trkpt lat="36.89689245740545" lon="-108.10836697975539"><ele>1895.0</ele><time>2026-04-05T20:37:47.999Z</time></trkpt><trkpt lat="36.896952102112934" lon="-108.10832588957763"><ele>1894.0</ele><time>2026-04-05T20:37:48.999Z</time></trkpt><trkpt lat="36.89699815848282" lon="-108.10826280201539"><ele>1893.0</ele><time>2026-04-05T20:37:49.999Z</time></trkpt><trkpt lat="36.897005990126836" lon="-108.10816445896026"><ele>1892.0</ele><time>2026-04-05T20:37:50.999Z</time></trkpt><trkpt lat="36.89701539478172" lon="-108.10804530309737"><ele>1891.0</ele><time>2026-04-05T20:37:51.999Z</time></trkpt><trkpt lat="36.897025023645426" lon="-108.10793201429941"><ele>1890.0</ele><time>2026-04-05T20:37:52.999Z</time></trkpt><trkpt lat="36.89701188062215" lon="-108.10783821813068"><ele>1890.0</ele><time>2026-04-05T20:37:53.999Z</time></trkpt><trkpt lat="36.89703338300145" lon="-108.1077544526013"><ele>1890.0</ele><time>2026-04-05T20:37:54.999Z</time></trkpt><trkpt lat="36.89708777160835" lon="-108.10767360452282"><ele>1890.0</ele><time>2026-04-05T20:37:55.999Z</time></trkpt><trkpt lat="36.897138291957724" lon="-108.10758120462525"><ele>1890.0</ele><time>2026-04-05T20:37:56.999Z</time></trkpt><trkpt lat="36.89716272167873" lon="-108.1074671312822"><ele>1890.0</ele><time>2026-04-05T20:37:57.999Z</time></trkpt><trkpt lat="36.89719595903338" lon="-108.10735294569375"><ele>1890.0</ele><time>2026-04-05T20:37:58.999Z</time></trkpt><trkpt lat="36.89724839720408" lon="-108.10726559533092"><ele>1890.6666666666667</ele><time>2026-04-05T20:37:59.999Z</time></trkpt><trkpt lat="36.89731557082933" lon="-108.10718966909734"><ele>1891.3333333333335</ele><time>2026-04-05T20:38:00.999Z</time></trkpt><trkpt lat="36.89739009928792" lon="-108.10712864264676"><ele>1892.0</ele><time>2026-04-05T20:38:01.999Z</time></trkpt><trkpt lat="36.89746392809257" lon="-108.10704806725133"><ele>1892.6666666666667</ele><time>2026-04-05T20:38:02.999Z</time></trkpt><trkpt lat="36.89753407738819" lon="-108.10701727914098"><ele>1893.3333333333335</ele><time>2026-04-05T20:38:03.999Z</time></trkpt><trkpt lat="36.89760632826336" lon="-108.10705927778423"><ele>1894.0</ele><time>2026-04-05T20:38:04.999Z</time></trkpt><trkpt lat="36.897691399228734" lon="-108.10707557337518"><ele>1894.1666666666667</ele><time>2026-04-05T20:38:05.999Z</time></trkpt><trkpt lat="36.89774706421683" lon="-108.10700367696775"><ele>1894.3333333333335</ele><time>2026-04-05T20:38:06.999Z</time></trkpt><trkpt lat="36.89781320820463" lon="-108.10694553849888"><ele>1894.5</ele><time>2026-04-05T20:38:07.999Z</time></trkpt><trkpt lat="36.89788291379191" lon="-108.1068856553638"><ele>1894.6666666666665</ele><time>2026-04-05T20:38:08.999Z</time></trkpt><trkpt lat="36.89794378226592" lon="-108.10683593872325"><ele>1894.8333333333333</ele><time>2026-04-05T20:38:09.999Z</time></trkpt><trkpt lat="36.898035445565945" lon="-108.10680952949375"><ele>1895.0</ele><time>2026-04-05T20:38:10.999Z</time></trkpt><trkpt lat="36.89817732017868" lon="-108.10679956102764"><ele>1895.0</ele><time>2026-04-05T20:38:11.999Z</time></trkpt><trkpt lat="36.89830753892419" lon="-108.1067872134086"><ele>1895.0</ele><time>2026-04-05T20:38:12.999Z</time></trkpt><trkpt lat="36.89840482898002" lon="-108.10676165659244"><ele>1895.0</ele><time>2026-04-05T20:38:13.999Z</time></trkpt><trkpt lat="36.8984755387186" lon="-108.10674108410886"><ele>1895.0</ele><time>2026-04-05T20:38:14.999Z</time></trkpt><trkpt lat="36.89854766135975" lon="-108.10673565000623"><ele>1895.0</ele><time>2026-04-05T20:38:15.999Z</time></trkpt><trkpt lat="36.898649877948415" lon="-108.10678578870662"><ele>1895.0</ele><time>2026-04-05T20:38:17.999Z</time></trkpt><trkpt lat="36.89873320359874" lon="-108.10683369193217"><ele>1895.0</ele><time>2026-04-05T20:38:18.999Z</time></trkpt><trkpt lat="36.89880798897369" lon="-108.10686300454898"><ele>1895.0</ele><time>2026-04-05T20:38:19.999Z</time></trkpt><trkpt lat="36.8989322825165" lon="-108.10684775216482"><ele>1895.0</ele><time>2026-04-05T20:38:21.999Z</time></trkpt><trkpt lat="36.89899645588282" lon="-108.10678833199091"><ele>1895.0</ele><time>2026-04-05T20:38:22.999Z</time></trkpt><trkpt lat="36.8990597591334" lon="-108.10666542010378"><ele>1894.0</ele><time>2026-04-05T20:38:23.999Z</time></trkpt><trkpt lat="36.899107588768985" lon="-108.10654595453123"><ele>1893.0</ele><time>2026-04-05T20:38:24.999Z</time></trkpt><trkpt lat="36.89917589928123" lon="-108.10645592983536"><ele>1892.0</ele><time>2026-04-05T20:38:25.999Z</time></trkpt><trkpt lat="36.899256927885006" lon="-108.10640374537559"><ele>1891.0</ele><time>2026-04-05T20:38:26.999Z</time></trkpt><trkpt lat="36.89932137542476" lon="-108.10630180997325"><ele>1890.0</ele><time>2026-04-05T20:38:27.999Z</time></trkpt><trkpt lat="36.899352577734476" lon="-108.10620056821371"><ele>1889.6</ele><time>2026-04-05T20:38:28.999Z</time></trkpt><trkpt lat="36.899395922507296" lon="-108.10609017907632"><ele>1889.2</ele><time>2026-04-05T20:38:29.999Z</time></trkpt><trkpt lat="36.899454901860985" lon="-108.10599694909916"><ele>1888.8000000000002</ele><time>2026-04-05T20:38:30.999Z</time></trkpt><trkpt lat="36.899509290341314" lon="-108.10588825814494"><ele>1888.4</ele><time>2026-04-05T20:38:31.999Z</time></trkpt><trkpt lat="36.89955263097762" lon="-108.10581184793111"><ele>1888.0</ele><time>2026-04-05T20:38:32.999Z</time></trkpt><trkpt lat="36.899665915004654" lon="-108.10567543111897"><ele>1888.0</ele><time>2026-04-05T20:38:34.999Z</time></trkpt><trkpt lat="36.899773988039016" lon="-108.10552047644633"><ele>1888.0</ele><time>2026-04-05T20:38:35.999Z</time></trkpt><trkpt lat="36.89988961409931" lon="-108.10542023930675"><ele>1888.0</ele><time>2026-04-05T20:38:36.999Z</time></trkpt><trkpt lat="36.8999526287919" lon="-108.10535846997433"><ele>1888.0</ele><time>2026-04-05T20:38:37.999Z</time></trkpt><trkpt lat="36.900016889032614" lon="-108.10524185844181"><ele>1888.0</ele><time>2026-04-05T20:38:38.999Z</time></trkpt><trkpt lat="36.900051807268895" lon="-108.10512944628222"><ele>1888.0000000000002</ele><time>2026-04-05T20:38:39.999Z</time></trkpt><trkpt lat="36.90010628741" lon="-108.10505722478733"><ele>1888.0000000000002</ele><time>2026-04-05T20:38:40.999Z</time></trkpt><trkpt lat="36.900197102353346" lon="-108.10495697770487"><ele>1888.0</ele><time>2026-04-05T20:38:41.999Z</time></trkpt><trkpt lat="36.900267466577446" lon="-108.1048845548943"><ele>1888.0</ele><time>2026-04-05T20:38:42.999Z</time></trkpt><trkpt lat="36.90033181948681" lon="-108.1048343415033"><ele>1888.4</ele><time>2026-04-05T20:38:43.999Z</time></trkpt><trkpt lat="36.900411295047114" lon="-108.10476775650983"><ele>1888.8000000000002</ele><time>2026-04-05T20:38:44.999Z</time></trkpt><trkpt lat="36.90047887646545" lon="-108.10471969183892"><ele>1889.2</ele><time>2026-04-05T20:38:45.999Z</time></trkpt><trkpt lat="36.900464558660815" lon="-108.10464281057507"><ele>1889.6</ele><time>2026-04-05T20:38:46.999Z</time></trkpt><trkpt lat="36.90055380244968" lon="-108.10447309865089"><ele>1890.0</ele><time>2026-04-05T20:38:48.999Z</time></trkpt><trkpt lat="36.90066268662233" lon="-108.10438704981553"><ele>1890.0</ele><time>2026-04-05T20:38:49.999Z</time></trkpt><trkpt lat="36.90078367126782" lon="-108.10432567934865"><ele>1890.0</ele><time>2026-04-05T20:38:50.999Z</time></trkpt><trkpt lat="36.90088986528781" lon="-108.10427204281764"><ele>1890.0</ele><time>2026-04-05T20:38:51.999Z</time></trkpt><trkpt lat="36.90096853544696" lon="-108.10420723365598"><ele>1890.0</ele><time>2026-04-05T20:38:52.999Z</time></trkpt><trkpt lat="36.90103230785304" lon="-108.10415183739359"><ele>1890.0</ele><time>2026-04-05T20:38:54.999Z</time></trkpt><trkpt lat="36.9011101959196" lon="-108.1042118921196"><ele>1890.0</ele><time>2026-04-05T20:38:56.999Z</time></trkpt><trkpt lat="36.901185715994785" lon="-108.10418736765058"><ele>1890.0</ele><time>2026-04-05T20:38:57.999Z</time></trkpt><trkpt lat="36.901275586137366" lon="-108.1041427421093"><ele>1890.0</ele><time>2026-04-05T20:38:58.999Z</time></trkpt><trkpt lat="36.901381717423924" lon="-108.10407312230745"><ele>1890.0</ele><time>2026-04-05T20:38:59.999Z</time></trkpt><trkpt lat="36.90147476278521" lon="-108.10401221291812"><ele>1890.0</ele><time>2026-04-05T20:39:00.999Z</time></trkpt><trkpt lat="36.901533042720914" lon="-108.10394937313342"><ele>1890.0</ele><time>2026-04-05T20:39:01.999Z</time></trkpt><trkpt lat="36.90160199416418" lon="-108.10391456236742"><ele>1890.0</ele><time>2026-04-05T20:39:02.999Z</time></trkpt><trkpt lat="36.90170207523506" lon="-108.10381979698309"><ele>1890.0</ele><time>2026-04-05T20:39:04.999Z</time></trkpt><trkpt lat="36.901741807905985" lon="-108.10373572413606"><ele>1890.0</ele><time>2026-04-05T20:39:05.999Z</time></trkpt><trkpt lat="36.901764553575674" lon="-108.10364136237651"><ele>1890.0</ele><time>2026-04-05T20:39:06.999Z</time></trkpt><trkpt lat="36.90172615646692" lon="-108.10356497663292"><ele>1890.0</ele><time>2026-04-05T20:39:07.999Z</time></trkpt><trkpt lat="36.901714638108174" lon="-108.10347965782024"><ele>1890.0</ele><time>2026-04-05T20:39:08.999Z</time></trkpt><trkpt lat="36.90170318532629" lon="-108.10339845187059"><ele>1890.0</ele><time>2026-04-05T20:39:09.999Z</time></trkpt><trkpt lat="36.90170672266512" lon="-108.1032902646186"><ele>1890.0</ele><time>2026-04-05T20:39:10.999Z</time></trkpt><trkpt lat="36.901733925525164" lon="-108.10319245965997"><ele>1890.0</ele><time>2026-04-05T20:39:11.999Z</time></trkpt><trkpt lat="36.90178327121085" lon="-108.10313707547068"><ele>1890.0</ele><time>2026-04-05T20:39:12.999Z</time></trkpt><trkpt lat="36.90184302409924" lon="-108.102970369806"><ele>1890.0</ele><time>2026-04-05T20:39:14.999Z</time></trkpt><trkpt lat="36.90187082913135" lon="-108.10288589342203"><ele>1889.3333333333333</ele><time>2026-04-05T20:39:15.999Z</time></trkpt><trkpt lat="36.901923533310786" lon="-108.10281178449823"><ele>1888.6666666666665</ele><time>2026-04-05T20:39:16.999Z</time></trkpt><trkpt lat="36.90196002709154" lon="-108.1027282793393"><ele>1888.0</ele><time>2026-04-05T20:39:17.999Z</time></trkpt><trkpt lat="36.90202990434156" lon="-108.1026503974481"><ele>1887.3333333333333</ele><time>2026-04-05T20:39:20.999Z</time></trkpt><trkpt lat="36.90203797446726" lon="-108.10251332459293"><ele>1886.6666666666665</ele><time>2026-04-05T20:39:22.999Z</time></trkpt><trkpt lat="36.90205670698614" lon="-108.10241086903591"><ele>1886.0</ele><time>2026-04-05T20:39:23.999Z</time></trkpt><trkpt lat="36.90208071355654" lon="-108.10230866219047"><ele>1885.6</ele><time>2026-04-05T20:39:24.999Z</time></trkpt><trkpt lat="36.90207853371405" lon="-108.10220028462696"><ele>1885.1999999999998</ele><time>2026-04-05T20:39:25.999Z</time></trkpt><trkpt lat="36.90207991971913" lon="-108.10207414881368"><ele>1884.8000000000002</ele><time>2026-04-05T20:39:26.999Z</time></trkpt><trkpt lat="36.90211264887337" lon="-108.10196018691784"><ele>1884.4</ele><time>2026-04-05T20:39:27.999Z</time></trkpt><trkpt lat="36.9021932306097" lon="-108.10185298680871"><ele>1884.0</ele><time>2026-04-05T20:39:28.999Z</time></trkpt><trkpt lat="36.90227959974185" lon="-108.10174526155569"><ele>1884.0</ele><time>2026-04-05T20:39:29.999Z</time></trkpt><trkpt lat="36.90235093273588" lon="-108.10166586208611"><ele>1884.0</ele><time>2026-04-05T20:39:30.999Z</time></trkpt><trkpt lat="36.90244978505393" lon="-108.10160410267531"><ele>1884.0</ele><time>2026-04-05T20:39:31.999Z</time></trkpt><trkpt lat="36.90256267068638" lon="-108.10153054100356"><ele>1884.0</ele><time>2026-04-05T20:39:32.999Z</time></trkpt><trkpt lat="36.90267384135673" lon="-108.10143292167773"><ele>1885.0</ele><time>2026-04-05T20:39:33.999Z</time></trkpt><trkpt lat="36.90276119979313" lon="-108.10135142764327"><ele>1886.0</ele><time>2026-04-05T20:39:34.999Z</time></trkpt><trkpt lat="36.90286629758412" lon="-108.10127981760175"><ele>1887.0</ele><time>2026-04-05T20:39:35.999Z</time></trkpt><trkpt lat="36.902988629598624" lon="-108.10122776516431"><ele>1888.0</ele><time>2026-04-05T20:39:36.999Z</time></trkpt><trkpt lat="36.90310066738254" lon="-108.10115764624103"><ele>1888.0</ele><time>2026-04-05T20:39:37.999Z</time></trkpt><trkpt lat="36.90318876190713" lon="-108.10105767981655"><ele>1888.0000000000002</ele><time>2026-04-05T20:39:38.999Z</time></trkpt><trkpt lat="36.90327537794963" lon="-108.1009602405106"><ele>1888.0000000000002</ele><time>2026-04-05T20:39:39.999Z</time></trkpt><trkpt lat="36.903336382161235" lon="-108.10087863784159"><ele>1888.0</ele><time>2026-04-05T20:39:40.999Z</time></trkpt><trkpt lat="36.903387266828304" lon="-108.10079234127407"><ele>1888.0</ele><time>2026-04-05T20:39:41.999Z</time></trkpt><trkpt lat="36.90344059108921" lon="-108.10068105382675"><ele>1890.2</ele><time>2026-04-05T20:39:42.999Z</time></trkpt><trkpt lat="36.90347221136509" lon="-108.10056575089293"><ele>1892.4</ele><time>2026-04-05T20:39:43.999Z</time></trkpt><trkpt lat="36.90351077895534" lon="-108.10045808416295"><ele>1894.6000000000001</ele><time>2026-04-05T20:39:44.999Z</time></trkpt><trkpt lat="36.903564586780554" lon="-108.10039247961072"><ele>1896.8000000000002</ele><time>2026-04-05T20:39:45.999Z</time></trkpt><trkpt lat="36.9036268356995" lon="-108.10030310810049"><ele>1899.0</ele><time>2026-04-05T20:39:46.999Z</time></trkpt><trkpt lat="36.903690036911236" lon="-108.10019886146304"><ele>1899.0</ele><time>2026-04-05T20:39:47.999Z</time></trkpt><trkpt lat="36.903754051227274" lon="-108.10011220605178"><ele>1899.0</ele><time>2026-04-05T20:39:48.999Z</time></trkpt><trkpt lat="36.90379950361775" lon="-108.1000227631956"><ele>1899.0</ele><time>2026-04-05T20:39:49.999Z</time></trkpt><trkpt lat="36.903845118111995" lon="-108.09993522440315"><ele>1899.0</ele><time>2026-04-05T20:39:50.999Z</time></trkpt><trkpt lat="36.90390157420808" lon="-108.09984260538384"><ele>1899.0</ele><time>2026-04-05T20:39:51.999Z</time></trkpt><trkpt lat="36.90395593012491" lon="-108.0997527287502"><ele>1899.0</ele><time>2026-04-05T20:39:52.999Z</time></trkpt><trkpt lat="36.90400630680746" lon="-108.0996481622711"><ele>1899.0</ele><time>2026-04-05T20:39:53.999Z</time></trkpt><trkpt lat="36.90406738326592" lon="-108.09955257256485"><ele>1899.0</ele><time>2026-04-05T20:39:54.999Z</time></trkpt><trkpt lat="36.90411526352805" lon="-108.0994786137257"><ele>1899.0</ele><time>2026-04-05T20:39:56.999Z</time></trkpt><trkpt lat="36.904192998741095" lon="-108.0993073880404"><ele>1899.0</ele><time>2026-04-05T20:39:58.999Z</time></trkpt><trkpt lat="36.904252729607336" lon="-108.09921009423695"><ele>1899.0</ele><time>2026-04-05T20:39:59.999Z</time></trkpt><trkpt lat="36.904324912832564" lon="-108.09916187950346"><ele>1898.2</ele><time>2026-04-05T20:40:00.999Z</time></trkpt><trkpt lat="36.90441759612422" lon="-108.0991258368652"><ele>1897.4</ele><time>2026-04-05T20:40:01.999Z</time></trkpt><trkpt lat="36.90451532709841" lon="-108.09912995157914"><ele>1896.6</ele><time>2026-04-05T20:40:02.999Z</time></trkpt><trkpt lat="36.90459494640184" lon="-108.09914683411586"><ele>1895.8</ele><time>2026-04-05T20:40:03.999Z</time></trkpt><trkpt lat="36.904688070253265" lon="-108.09912614846232"><ele>1895.0</ele><time>2026-04-05T20:40:04.999Z</time></trkpt><trkpt lat="36.904802308741395" lon="-108.09908825506493"><ele>1895.0</ele><time>2026-04-05T20:40:05.999Z</time></trkpt><trkpt lat="36.904896564447185" lon="-108.09903537428114"><ele>1895.0</ele><time>2026-04-05T20:40:06.999Z</time></trkpt><trkpt lat="36.90497815209971" lon="-108.09898579126893"><ele>1895.0</ele><time>2026-04-05T20:40:07.999Z</time></trkpt><trkpt lat="36.90506194716183" lon="-108.09891342173788"><ele>1895.0</ele><time>2026-04-05T20:40:08.999Z</time></trkpt><trkpt lat="36.90512984666573" lon="-108.09887015042784"><ele>1895.0</ele><time>2026-04-05T20:40:09.999Z</time></trkpt><trkpt lat="36.905212232178265" lon="-108.09887330740436"><ele>1894.4</ele><time>2026-04-05T20:40:10.999Z</time></trkpt><trkpt lat="36.90533391985264" lon="-108.09888160959028"><ele>1893.8</ele><time>2026-04-05T20:40:11.999Z</time></trkpt><trkpt lat="36.905402063474604" lon="-108.09883991670189"><ele>1893.1999999999998</ele><time>2026-04-05T20:40:12.999Z</time></trkpt><trkpt lat="36.90543783189046" lon="-108.09875814982003"><ele>1892.6</ele><time>2026-04-05T20:40:13.999Z</time></trkpt><trkpt lat="36.905482545286546" lon="-108.09864795237941"><ele>1892.0</ele><time>2026-04-05T20:40:14.999Z</time></trkpt><trkpt lat="36.90553932848588" lon="-108.09857140554865"><ele>1892.0</ele><time>2026-04-05T20:40:15.999Z</time></trkpt><trkpt lat="36.9056115926372" lon="-108.0985080807402"><ele>1891.9999999999998</ele><time>2026-04-05T20:40:16.999Z</time></trkpt><trkpt lat="36.905702734472094" lon="-108.09845361111972"><ele>1891.9999999999998</ele><time>2026-04-05T20:40:17.999Z</time></trkpt><trkpt lat="36.90579864434064" lon="-108.0984027143076"><ele>1892.0</ele><time>2026-04-05T20:40:18.999Z</time></trkpt><trkpt lat="36.90588013049342" lon="-108.09835207091106"><ele>1892.0</ele><time>2026-04-05T20:40:19.999Z</time></trkpt><trkpt lat="36.90594303829734" lon="-108.09828536783623"><ele>1892.0</ele><time>2026-04-05T20:40:20.999Z</time></trkpt><trkpt lat="36.90597694523365" lon="-108.09811036746076"><ele>1891.9999999999998</ele><time>2026-04-05T20:40:22.999Z</time></trkpt><trkpt lat="36.90598354227257" lon="-108.09802103092362"><ele>1891.9999999999998</ele><time>2026-04-05T20:40:23.999Z</time></trkpt><trkpt lat="36.90603350612094" lon="-108.09797015216775"><ele>1892.0</ele><time>2026-04-05T20:40:24.999Z</time></trkpt><trkpt lat="36.90611454427794" lon="-108.0979268284681"><ele>1892.0</ele><time>2026-04-05T20:40:25.999Z</time></trkpt><trkpt lat="36.90617313930678" lon="-108.09784381264204"><ele>1892.0</ele><time>2026-04-05T20:40:26.999Z</time></trkpt><trkpt lat="36.90621491664864" lon="-108.09776627774414"><ele>1891.9999999999998</ele><time>2026-04-05T20:40:27.999Z</time></trkpt><trkpt lat="36.906337100293605" lon="-108.09772517883064"><ele>1891.9999999999998</ele><time>2026-04-05T20:40:29.999Z</time></trkpt><trkpt lat="36.90643960356202" lon="-108.09768576327744"><ele>1892.0</ele><time>2026-04-05T20:40:31.999Z</time></trkpt><trkpt lat="36.90653069075248" lon="-108.09762773939661"><ele>1892.0</ele><time>2026-04-05T20:40:32.999Z</time></trkpt><trkpt lat="36.90664271821914" lon="-108.09755647383224"><ele>1892.0</ele><time>2026-04-05T20:40:33.999Z</time></trkpt><trkpt lat="36.90673549606628" lon="-108.09751024762102"><ele>1891.9999999999998</ele><time>2026-04-05T20:40:34.999Z</time></trkpt><trkpt lat="36.90682049067994" lon="-108.09748818965944"><ele>1891.9999999999998</ele><time>2026-04-05T20:40:35.999Z</time></trkpt><trkpt lat="36.90691465781411" lon="-108.09746367320528"><ele>1892.0</ele><time>2026-04-05T20:40:36.999Z</time></trkpt><trkpt lat="36.90702703942205" lon="-108.09740325439807"><ele>1892.0</ele><time>2026-04-05T20:40:37.999Z</time></trkpt><trkpt lat="36.90713111629923" lon="-108.09733645041214"><ele>1893.75</ele><time>2026-04-05T20:40:38.999Z</time></trkpt><trkpt lat="36.90720488126447" lon="-108.09727872884554"><ele>1895.5</ele><time>2026-04-05T20:40:39.999Z</time></trkpt><trkpt lat="36.907325042934744" lon="-108.09725972250413"><ele>1897.25</ele><time>2026-04-05T20:40:41.999Z</time></trkpt><trkpt lat="36.9074307161093" lon="-108.09731307233535"><ele>1899.0</ele><time>2026-04-05T20:40:42.999Z</time></trkpt><trkpt lat="36.907564709561086" lon="-108.09733272237898"><ele>1899.75</ele><time>2026-04-05T20:40:43.999Z</time></trkpt><trkpt lat="36.907643462814676" lon="-108.09730928267963"><ele>1900.5</ele><time>2026-04-05T20:40:44.999Z</time></trkpt><trkpt lat="36.907757735178066" lon="-108.09717810481001"><ele>1901.25</ele><time>2026-04-05T20:40:46.999Z</time></trkpt><trkpt lat="36.90790536764502" lon="-108.09707979503577"><ele>1902.0</ele><time>2026-04-05T20:40:47.998Z</time></trkpt><trkpt lat="36.90803638014918" lon="-108.09700293912357"><ele>1902.0</ele><time>2026-04-05T20:40:48.998Z</time></trkpt><trkpt lat="36.908131271737666" lon="-108.09693307254359"><ele>1901.9999999999998</ele><time>2026-04-05T20:40:49.998Z</time></trkpt><trkpt lat="36.90821570263857" lon="-108.09682254951586"><ele>1901.9999999999998</ele><time>2026-04-05T20:40:50.998Z</time></trkpt><trkpt lat="36.90829467362748" lon="-108.09674477210861"><ele>1902.0</ele><time>2026-04-05T20:40:51.998Z</time></trkpt><trkpt lat="36.90837779374962" lon="-108.09669653844612"><ele>1902.0</ele><time>2026-04-05T20:40:52.998Z</time></trkpt><trkpt lat="36.90846262334274" lon="-108.09664199770242"><ele>1904.3333333333333</ele><time>2026-04-05T20:40:53.998Z</time></trkpt><trkpt lat="36.90852657758779" lon="-108.0965556878568"><ele>1906.6666666666665</ele><time>2026-04-05T20:40:54.998Z</time></trkpt><trkpt lat="36.90857694859734" lon="-108.09648824532229"><ele>1909.0</ele><time>2026-04-05T20:40:55.998Z</time></trkpt><trkpt lat="36.90866701151661" lon="-108.09643340507058"><ele>1911.3333333333333</ele><time>2026-04-05T20:40:56.998Z</time></trkpt><trkpt lat="36.90875706130934" lon="-108.09637166601908"><ele>1913.6666666666665</ele><time>2026-04-05T20:40:57.998Z</time></trkpt><trkpt lat="36.908819370514095" lon="-108.09631821339224"><ele>1916.0</ele><time>2026-04-05T20:40:58.999Z</time></trkpt><trkpt lat="36.90890550740547" lon="-108.09626856010433"><ele>1916.0</ele><time>2026-04-05T20:40:59.999Z</time></trkpt><trkpt lat="36.9090428727928" lon="-108.09621535920884"><ele>1916.0</ele><time>2026-04-05T20:41:00.999Z</time></trkpt><trkpt lat="36.90913322182425" lon="-108.09616548734903"><ele>1916.0</ele><time>2026-04-05T20:41:01.999Z</time></trkpt><trkpt lat="36.90921955190111" lon="-108.09611479942576"><ele>1916.0</ele><time>2026-04-05T20:41:02.999Z</time></trkpt><trkpt lat="36.909296202728974" lon="-108.09607147696138"><ele>1916.0</ele><time>2026-04-05T20:41:03.999Z</time></trkpt><trkpt lat="36.909433976951526" lon="-108.09606899601566"><ele>1916.3333333333333</ele><time>2026-04-05T20:41:05.999Z</time></trkpt><trkpt lat="36.90951521528041" lon="-108.09604725589557"><ele>1916.6666666666665</ele><time>2026-04-05T20:41:06.999Z</time></trkpt><trkpt lat="36.909545416849745" lon="-108.09593631691169"><ele>1917.0</ele><time>2026-04-05T20:41:07.999Z</time></trkpt><trkpt lat="36.90961747713588" lon="-108.09586038634733"><ele>1917.3333333333335</ele><time>2026-04-05T20:41:08.999Z</time></trkpt><trkpt lat="36.90967571975465" lon="-108.09576931854282"><ele>1917.6666666666667</ele><time>2026-04-05T20:41:09.999Z</time></trkpt><trkpt lat="36.90973328153522" lon="-108.09570198635657"><ele>1918.0</ele><time>2026-04-05T20:41:10.999Z</time></trkpt><trkpt lat="36.90977541280957" lon="-108.09563640199217"><ele>1918.4</ele><time>2026-04-05T20:41:11.999Z</time></trkpt><trkpt lat="36.909868009300446" lon="-108.09556610575966"><ele>1918.8000000000002</ele><time>2026-04-05T20:41:12.999Z</time></trkpt><trkpt lat="36.90995094975266" lon="-108.09551223761613"><ele>1919.2</ele><time>2026-04-05T20:41:13.999Z</time></trkpt><trkpt lat="36.9100115513182" lon="-108.09548661641337"><ele>1919.6</ele><time>2026-04-05T20:41:14.999Z</time></trkpt><trkpt lat="36.91010424180167" lon="-108.09556353051681"><ele>1920.0</ele><time>2026-04-05T20:41:16.999Z</time></trkpt><trkpt lat="36.91016349139894" lon="-108.09565525109956"><ele>1920.0</ele><time>2026-04-05T20:41:17.999Z</time></trkpt><trkpt lat="36.910221070820775" lon="-108.09571375476341"><ele>1920.0</ele><time>2026-04-05T20:41:18.999Z</time></trkpt><trkpt lat="36.91031094027944" lon="-108.09579573766705"><ele>1920.0</ele><time>2026-04-05T20:41:19.999Z</time></trkpt><trkpt lat="36.910396609296235" lon="-108.09588616094493"><ele>1920.0</ele><time>2026-04-05T20:41:20.999Z</time></trkpt><trkpt lat="36.910457065601314" lon="-108.09592188267455"><ele>1920.0</ele><time>2026-04-05T20:41:21.999Z</time></trkpt><trkpt lat="36.91053492612493" lon="-108.09592985141809"><ele>1920.0</ele><time>2026-04-05T20:41:22.999Z</time></trkpt><trkpt lat="36.910623859891324" lon="-108.09594944442958"><ele>1920.1666666666667</ele><time>2026-04-05T20:41:23.999Z</time></trkpt><trkpt lat="36.91069430282223" lon="-108.09598556551988"><ele>1920.3333333333335</ele><time>2026-04-05T20:41:24.999Z</time></trkpt><trkpt lat="36.9107771503254" lon="-108.09598364897714"><ele>1920.5</ele><time>2026-04-05T20:41:25.999Z</time></trkpt><trkpt lat="36.91091125186934" lon="-108.09591927879309"><ele>1920.6666666666667</ele><time>2026-04-05T20:41:27.999Z</time></trkpt><trkpt lat="36.910956876011404" lon="-108.09585765020081"><ele>1920.8333333333335</ele><time>2026-04-05T20:41:28.999Z</time></trkpt><trkpt lat="36.91099066083481" lon="-108.09577980002025"><ele>1921.0</ele><time>2026-04-05T20:41:29.999Z</time></trkpt><trkpt lat="36.911010055989266" lon="-108.09568888354175"><ele>1920.5000000000002</ele><time>2026-04-05T20:41:30.999Z</time></trkpt><trkpt lat="36.91105445180437" lon="-108.09559533929479"><ele>1920.0</ele><time>2026-04-05T20:41:31.999Z</time></trkpt><trkpt lat="36.91111239325548" lon="-108.09552593728341"><ele>1919.5</ele><time>2026-04-05T20:41:32.999Z</time></trkpt><trkpt lat="36.91115809109284" lon="-108.09544318184582"><ele>1919.0</ele><time>2026-04-05T20:41:33.999Z</time></trkpt><trkpt lat="36.91119602264286" lon="-108.09535360015634"><ele>1918.5000000000002</ele><time>2026-04-05T20:41:34.999Z</time></trkpt><trkpt lat="36.911259635530875" lon="-108.09525378393586"><ele>1918.0</ele><time>2026-04-05T20:41:35.999Z</time></trkpt><trkpt lat="36.91131487027063" lon="-108.09516442486702"><ele>1918.0</ele><time>2026-04-05T20:41:36.999Z</time></trkpt><trkpt lat="36.91136686373605" lon="-108.09507518550156"><ele>1918.0000000000002</ele><time>2026-04-05T20:41:37.999Z</time></trkpt><trkpt lat="36.91141918173423" lon="-108.09496348620158"><ele>1918.0000000000002</ele><time>2026-04-05T20:41:38.999Z</time></trkpt><trkpt lat="36.9114718495722" lon="-108.09485695027334"><ele>1918.0</ele><time>2026-04-05T20:41:39.999Z</time></trkpt><trkpt lat="36.911524255215106" lon="-108.09475726431327"><ele>1918.0</ele><time>2026-04-05T20:41:40.999Z</time></trkpt><trkpt lat="36.91158070639503" lon="-108.09467848589611"><ele>1918.3333333333335</ele><time>2026-04-05T20:41:41.999Z</time></trkpt><trkpt lat="36.91165744517427" lon="-108.09461622632692"><ele>1918.6666666666667</ele><time>2026-04-05T20:41:42.999Z</time></trkpt><trkpt lat="36.911720272810435" lon="-108.09455918544172"><ele>1919.0</ele><time>2026-04-05T20:41:43.999Z</time></trkpt><trkpt lat="36.91179967862776" lon="-108.09451517040043"><ele>1919.3333333333335</ele><time>2026-04-05T20:41:44.999Z</time></trkpt><trkpt lat="36.911887500410664" lon="-108.09445007689106"><ele>1919.6666666666667</ele><time>2026-04-05T20:41:45.999Z</time></trkpt><trkpt lat="36.911940883861874" lon="-108.09436450403439"><ele>1920.0</ele><time>2026-04-05T20:41:46.999Z</time></trkpt><trkpt lat="36.91199484270616" lon="-108.09430701437962"><ele>1918.8</ele><time>2026-04-05T20:41:47.999Z</time></trkpt><trkpt lat="36.912078245101156" lon="-108.09428272999595"><ele>1917.6</ele><time>2026-04-05T20:41:48.999Z</time></trkpt><trkpt lat="36.91218054224656" lon="-108.09426268439135"><ele>1916.4</ele><time>2026-04-05T20:41:49.999Z</time></trkpt><trkpt lat="36.91225795824747" lon="-108.09411533821465"><ele>1915.2</ele><time>2026-04-05T20:41:51.999Z</time></trkpt><trkpt lat="36.91227701198965" lon="-108.09399503497984"><ele>1914.0</ele><time>2026-04-05T20:41:52.999Z</time></trkpt><trkpt lat="36.91230186105276" lon="-108.09388197158749"><ele>1914.0</ele><time>2026-04-05T20:41:53.999Z</time></trkpt><trkpt lat="36.91232851942302" lon="-108.09377946927106"><ele>1914.0</ele><time>2026-04-05T20:41:54.999Z</time></trkpt><trkpt lat="36.912341123624806" lon="-108.09365566871438"><ele>1914.0</ele><time>2026-04-05T20:41:55.999Z</time></trkpt><trkpt lat="36.91235616726482" lon="-108.09351434741131"><ele>1914.0</ele><time>2026-04-05T20:41:56.999Z</time></trkpt><trkpt lat="36.91235731062325" lon="-108.09338658273268"><ele>1914.0</ele><time>2026-04-05T20:41:57.999Z</time></trkpt><trkpt lat="36.912341641969675" lon="-108.09327936303603"><ele>1914.0</ele><time>2026-04-05T20:41:58.999Z</time></trkpt><trkpt lat="36.91233371244773" lon="-108.09317304338622"><ele>1914.0</ele><time>2026-04-05T20:41:59.999Z</time></trkpt><trkpt lat="36.91233003144256" lon="-108.09307723514597"><ele>1914.0</ele><time>2026-04-05T20:42:00.999Z</time></trkpt><trkpt lat="36.91233087146731" lon="-108.09295606447343"><ele>1914.0</ele><time>2026-04-05T20:42:01.999Z</time></trkpt><trkpt lat="36.9123255450781" lon="-108.092840747477"><ele>1914.0</ele><time>2026-04-05T20:42:02.999Z</time></trkpt><trkpt lat="36.91231874507481" lon="-108.09274570496214"><ele>1914.0</ele><time>2026-04-05T20:42:03.999Z</time></trkpt><trkpt lat="36.9123180501118" lon="-108.09265524387622"><ele>1914.0</ele><time>2026-04-05T20:42:04.999Z</time></trkpt><trkpt lat="36.91232556264106" lon="-108.09255768879603"><ele>1914.0</ele><time>2026-04-05T20:42:05.999Z</time></trkpt><trkpt lat="36.91232282337457" lon="-108.09247431360706"><ele>1914.0</ele><time>2026-04-05T20:42:06.999Z</time></trkpt><trkpt lat="36.912334991970425" lon="-108.09239343090566"><ele>1914.0</ele><time>2026-04-05T20:42:07.999Z</time></trkpt><trkpt lat="36.91236265794825" lon="-108.09229426137112"><ele>1914.0</ele><time>2026-04-05T20:42:08.999Z</time></trkpt><trkpt lat="36.912401982166394" lon="-108.09220755696252"><ele>1914.0</ele><time>2026-04-05T20:42:09.999Z</time></trkpt><trkpt lat="36.9124547687317" lon="-108.09213172098096"><ele>1914.6</ele><time>2026-04-05T20:42:10.999Z</time></trkpt><trkpt lat="36.91247889866681" lon="-108.09203325334886"><ele>1915.2</ele><time>2026-04-05T20:42:11.999Z</time></trkpt><trkpt lat="36.912503740722826" lon="-108.09191911998794"><ele>1915.7999999999997</ele><time>2026-04-05T20:42:12.999Z</time></trkpt><trkpt lat="36.91251890656826" lon="-108.09177807092064"><ele>1916.3999999999999</ele><time>2026-04-05T20:42:13.999Z</time></trkpt><trkpt lat="36.912529393943856" lon="-108.09165784755352"><ele>1917.0</ele><time>2026-04-05T20:42:14.999Z</time></trkpt><trkpt lat="36.912526454999494" lon="-108.09156462337049"><ele>1917.1999999999998</ele><time>2026-04-05T20:42:15.999Z</time></trkpt><trkpt lat="36.91254063948356" lon="-108.09146266751328"><ele>1917.3999999999999</ele><time>2026-04-05T20:42:16.999Z</time></trkpt><trkpt lat="36.912560397809735" lon="-108.09136571016838"><ele>1917.6000000000001</ele><time>2026-04-05T20:42:17.999Z</time></trkpt><trkpt lat="36.91259629985166" lon="-108.09125494381954"><ele>1917.8000000000002</ele><time>2026-04-05T20:42:18.999Z</time></trkpt><trkpt lat="36.91262812989415" lon="-108.09113545476339"><ele>1918.0</ele><time>2026-04-05T20:42:19.999Z</time></trkpt><trkpt lat="36.91265329490496" lon="-108.09101824012879"><ele>1917.6666666666667</ele><time>2026-04-05T20:42:20.999Z</time></trkpt><trkpt lat="36.912679159450974" lon="-108.09093597815378"><ele>1917.3333333333335</ele><time>2026-04-05T20:42:21.999Z</time></trkpt><trkpt lat="36.91272119130274" lon="-108.09085788614726"><ele>1917.0</ele><time>2026-04-05T20:42:22.999Z</time></trkpt><trkpt lat="36.912738539021205" lon="-108.09074628485624"><ele>1916.6666666666665</ele><time>2026-04-05T20:42:23.999Z</time></trkpt><trkpt lat="36.912724977697835" lon="-108.09062865207729"><ele>1916.3333333333333</ele><time>2026-04-05T20:42:24.999Z</time></trkpt><trkpt lat="36.91270546125156" lon="-108.09052365110117"><ele>1916.0</ele><time>2026-04-05T20:42:25.999Z</time></trkpt><trkpt lat="36.912704882770356" lon="-108.0904395136591"><ele>1915.9999999999998</ele><time>2026-04-05T20:42:26.999Z</time></trkpt><trkpt lat="36.91272310549846" lon="-108.09029763792428"><ele>1916.0</ele><time>2026-04-05T20:42:28.999Z</time></trkpt><trkpt lat="36.912687740992844" lon="-108.09019352907306"><ele>1916.0</ele><time>2026-04-05T20:42:30.999Z</time></trkpt><trkpt lat="36.912635880607645" lon="-108.09014606473484"><ele>1916.0</ele><time>2026-04-05T20:42:32.999Z</time></trkpt><trkpt lat="36.912580838467484" lon="-108.0900923579573"><ele>1915.9999999999998</ele><time>2026-04-05T20:42:33.999Z</time></trkpt><trkpt lat="36.91252565831993" lon="-108.09003239503308"><ele>1916.0</ele><time>2026-04-05T20:42:34.999Z</time></trkpt><trkpt lat="36.91246281622443" lon="-108.08996170677842"><ele>1916.3333333333333</ele><time>2026-04-05T20:42:35.999Z</time></trkpt><trkpt lat="36.91240149115414" lon="-108.08991989948738"><ele>1916.6666666666665</ele><time>2026-04-05T20:42:36.999Z</time></trkpt><trkpt lat="36.91232721787362" lon="-108.0898886059159"><ele>1917.0</ele><time>2026-04-05T20:42:37.999Z</time></trkpt><trkpt lat="36.912253038152706" lon="-108.08982508746271"><ele>1917.3333333333335</ele><time>2026-04-05T20:42:38.999Z</time></trkpt><trkpt lat="36.91220421534026" lon="-108.08974921472928"><ele>1917.6666666666667</ele><time>2026-04-05T20:42:39.999Z</time></trkpt><trkpt lat="36.91215326314626" lon="-108.08968968168676"><ele>1918.0</ele><time>2026-04-05T20:42:40.999Z</time></trkpt><trkpt lat="36.91203661431951" lon="-108.0895923947256"><ele>1918.0000000000002</ele><time>2026-04-05T20:42:42.999Z</time></trkpt><trkpt lat="36.91196012805239" lon="-108.08954905891507"><ele>1918.0</ele><time>2026-04-05T20:42:43.999Z</time></trkpt><trkpt lat="36.91186387971181" lon="-108.08950708061482"><ele>1918.0</ele><time>2026-04-05T20:42:44.999Z</time></trkpt><trkpt lat="36.91176868894096" lon="-108.08945368112315"><ele>1918.0</ele><time>2026-04-05T20:42:45.999Z</time></trkpt><trkpt lat="36.911709729699666" lon="-108.08941111149386"><ele>1918.0000000000002</ele><time>2026-04-05T20:42:46.999Z</time></trkpt><trkpt lat="36.91165230790082" lon="-108.08935046891806"><ele>1918.0</ele><time>2026-04-05T20:42:47.999Z</time></trkpt><trkpt lat="36.91159092369326" lon="-108.08926201215172"><ele>1917.6000000000001</ele><time>2026-04-05T20:42:48.999Z</time></trkpt><trkpt lat="36.91152323148087" lon="-108.08918146609174"><ele>1917.2000000000003</ele><time>2026-04-05T20:42:49.999Z</time></trkpt><trkpt lat="36.911429105465814" lon="-108.08911425210025"><ele>1916.8</ele><time>2026-04-05T20:42:50.999Z</time></trkpt><trkpt lat="36.91133740866079" lon="-108.08907087646523"><ele>1916.4</ele><time>2026-04-05T20:42:51.999Z</time></trkpt><trkpt lat="36.91124231203517" lon="-108.08902282463562"><ele>1916.0</ele><time>2026-04-05T20:42:52.998Z</time></trkpt><trkpt lat="36.911159883308954" lon="-108.08894927292309"><ele>1915.0</ele><time>2026-04-05T20:42:53.998Z</time></trkpt><trkpt lat="36.911111336538156" lon="-108.08887410209387"><ele>1914.0</ele><time>2026-04-05T20:42:54.998Z</time></trkpt><trkpt lat="36.91110951218465" lon="-108.0886993014493"><ele>1913.0</ele><time>2026-04-05T20:42:56.998Z</time></trkpt><trkpt lat="36.91111179534843" lon="-108.08856430620033"><ele>1912.0</ele><time>2026-04-05T20:42:57.998Z</time></trkpt><trkpt lat="36.91110316161844" lon="-108.08843433617795"><ele>1911.0</ele><time>2026-04-05T20:42:58.998Z</time></trkpt><trkpt lat="36.911068940608104" lon="-108.08831849504688"><ele>1910.1666666666667</ele><time>2026-04-05T20:42:59.998Z</time></trkpt><trkpt lat="36.91102995593373" lon="-108.08820315265395"><ele>1909.3333333333335</ele><time>2026-04-05T20:43:00.998Z</time></trkpt><trkpt lat="36.91099588032551" lon="-108.08809044423239"><ele>1908.5</ele><time>2026-04-05T20:43:01.998Z</time></trkpt><trkpt lat="36.91095610456825" lon="-108.08799263949308"><ele>1907.6666666666667</ele><time>2026-04-05T20:43:02.998Z</time></trkpt><trkpt lat="36.910911070234754" lon="-108.08792544348125"><ele>1906.8333333333335</ele><time>2026-04-05T20:43:03.998Z</time></trkpt><trkpt lat="36.91084037629582" lon="-108.0878853627577"><ele>1906.0</ele><time>2026-04-05T20:43:04.998Z</time></trkpt><trkpt lat="36.910757766078106" lon="-108.08782573299362"><ele>1905.6666666666667</ele><time>2026-04-05T20:43:05.998Z</time></trkpt><trkpt lat="36.91069045472477" lon="-108.08775903807313"><ele>1905.3333333333335</ele><time>2026-04-05T20:43:06.998Z</time></trkpt><trkpt lat="36.91065574090613" lon="-108.08767627002926"><ele>1905.0</ele><time>2026-04-05T20:43:07.998Z</time></trkpt><trkpt lat="36.91062040979471" lon="-108.08760363792713"><ele>1904.6666666666665</ele><time>2026-04-05T20:43:08.998Z</time></trkpt><trkpt lat="36.91055943098335" lon="-108.08751054452216"><ele>1904.3333333333333</ele><time>2026-04-05T20:43:10.998Z</time></trkpt><trkpt lat="36.91054477571618" lon="-108.0874195204107"><ele>1904.0</ele><time>2026-04-05T20:43:11.999Z</time></trkpt><trkpt lat="36.91051659735834" lon="-108.08729528841317"><ele>1902.9999999999998</ele><time>2026-04-05T20:43:12.999Z</time></trkpt><trkpt lat="36.91048199797262" lon="-108.08718685380177"><ele>1902.0</ele><time>2026-04-05T20:43:13.999Z</time></trkpt><trkpt lat="36.910441346601594" lon="-108.08709788751409"><ele>1901.0</ele><time>2026-04-05T20:43:14.999Z</time></trkpt><trkpt lat="36.910385364860936" lon="-108.08699347679428"><ele>1900.0</ele><time>2026-04-05T20:43:15.999Z</time></trkpt><trkpt lat="36.91033325494256" lon="-108.08692278260047"><ele>1898.9999999999998</ele><time>2026-04-05T20:43:16.999Z</time></trkpt><trkpt lat="36.910264863786004" lon="-108.08688454799986"><ele>1898.0</ele><time>2026-04-05T20:43:17.999Z</time></trkpt><trkpt lat="36.91016509119762" lon="-108.0868694744694"><ele>1897.0</ele><time>2026-04-05T20:43:18.999Z</time></trkpt><trkpt lat="36.910021575284794" lon="-108.08686284018347"><ele>1896.0</ele><time>2026-04-05T20:43:19.999Z</time></trkpt><trkpt lat="36.909896282695826" lon="-108.08691175406507"><ele>1895.0</ele><time>2026-04-05T20:43:20.999Z</time></trkpt><trkpt lat="36.90978585229834" lon="-108.08692195869712"><ele>1894.0</ele><time>2026-04-05T20:43:21.999Z</time></trkpt><trkpt lat="36.909683360179905" lon="-108.08690951679395"><ele>1894.0</ele><time>2026-04-05T20:43:22.999Z</time></trkpt><trkpt lat="36.909592785212716" lon="-108.0869052699617"><ele>1894.0</ele><time>2026-04-05T20:43:23.999Z</time></trkpt><trkpt lat="36.90949552684359" lon="-108.0869009340333"><ele>1894.0</ele><time>2026-04-05T20:43:24.999Z</time></trkpt><trkpt lat="36.90938936051447" lon="-108.08687008057629"><ele>1894.0</ele><time>2026-04-05T20:43:25.999Z</time></trkpt><trkpt lat="36.90929662956907" lon="-108.08681229298567"><ele>1894.0</ele><time>2026-04-05T20:43:26.999Z</time></trkpt><trkpt lat="36.9092228135573" lon="-108.08676184396042"><ele>1892.4</ele><time>2026-04-05T20:43:27.999Z</time></trkpt><trkpt lat="36.90914933857619" lon="-108.0867479186127"><ele>1890.8000000000002</ele><time>2026-04-05T20:43:28.999Z</time></trkpt><trkpt lat="36.909082054990684" lon="-108.08675443226943"><ele>1889.1999999999998</ele><time>2026-04-05T20:43:29.999Z</time></trkpt><trkpt lat="36.90895764403431" lon="-108.08668193210924"><ele>1887.6</ele><time>2026-04-05T20:43:31.999Z</time></trkpt><trkpt lat="36.908847225567314" lon="-108.08665430335175"><ele>1886.0</ele><time>2026-04-05T20:43:32.999Z</time></trkpt><trkpt lat="36.90874523126453" lon="-108.08665120483099"><ele>1886.0</ele><time>2026-04-05T20:43:33.999Z</time></trkpt><trkpt lat="36.9086539029656" lon="-108.08658961583788"><ele>1886.0</ele><time>2026-04-05T20:43:35.999Z</time></trkpt><trkpt lat="36.90854508512789" lon="-108.08656553239958"><ele>1886.0</ele><time>2026-04-05T20:43:37.999Z</time></trkpt><trkpt lat="36.908459625084674" lon="-108.0866023787115"><ele>1886.0</ele><time>2026-04-05T20:43:38.999Z</time></trkpt><trkpt lat="36.90837543994108" lon="-108.08662377523493"><ele>1886.0</ele><time>2026-04-05T20:43:39.999Z</time></trkpt><trkpt lat="36.90829783126948" lon="-108.08663103101375"><ele>1885.1999999999998</ele><time>2026-04-05T20:43:40.999Z</time></trkpt><trkpt lat="36.908224058540725" lon="-108.08664058780707"><ele>1884.3999999999999</ele><time>2026-04-05T20:43:41.999Z</time></trkpt><trkpt lat="36.90809956443566" lon="-108.08667683907738"><ele>1883.6</ele><time>2026-04-05T20:43:43.999Z</time></trkpt><trkpt lat="36.90798106701716" lon="-108.08668773615297"><ele>1882.8</ele><time>2026-04-05T20:43:45.999Z</time></trkpt><trkpt lat="36.90791282232144" lon="-108.08665319563497"><ele>1882.0</ele><time>2026-04-05T20:43:46.999Z</time></trkpt><trkpt lat="36.90783384665461" lon="-108.08660868162178"><ele>1881.6666666666667</ele><time>2026-04-05T20:43:47.999Z</time></trkpt><trkpt lat="36.907760345132765" lon="-108.08656785194995"><ele>1881.3333333333335</ele><time>2026-04-05T20:43:48.999Z</time></trkpt><trkpt lat="36.90770161159122" lon="-108.08652199721952"><ele>1881.0</ele><time>2026-04-05T20:43:49.999Z</time></trkpt><trkpt lat="36.90764471980058" lon="-108.08647311630507"><ele>1880.6666666666665</ele><time>2026-04-05T20:43:50.999Z</time></trkpt><trkpt lat="36.90752907476008" lon="-108.08639154707494"><ele>1880.3333333333333</ele><time>2026-04-05T20:43:52.999Z</time></trkpt><trkpt lat="36.90745935375815" lon="-108.08632198808083"><ele>1880.0</ele><time>2026-04-05T20:43:53.999Z</time></trkpt><trkpt lat="36.907369547037845" lon="-108.0862596556801"><ele>1879.4999999999998</ele><time>2026-04-05T20:43:54.999Z</time></trkpt><trkpt lat="36.9073026681456" lon="-108.08620701856356"><ele>1879.0</ele><time>2026-04-05T20:43:55.999Z</time></trkpt><trkpt lat="36.907242560877705" lon="-108.08615623939717"><ele>1878.5</ele><time>2026-04-05T20:43:56.999Z</time></trkpt><trkpt lat="36.90718340138275" lon="-108.08610331445486"><ele>1878.0</ele><time>2026-04-05T20:43:57.999Z</time></trkpt><trkpt lat="36.90710875849859" lon="-108.08605314027152"><ele>1877.4999999999998</ele><time>2026-04-05T20:43:58.999Z</time></trkpt><trkpt lat="36.907022181925946" lon="-108.08600136236765"><ele>1877.0</ele><time>2026-04-05T20:43:59.999Z</time></trkpt><trkpt lat="36.906941870848115" lon="-108.08592929950547"><ele>1876.9999999999998</ele><time>2026-04-05T20:44:00.999Z</time></trkpt><trkpt lat="36.90688714861435" lon="-108.08587869101302"><ele>1877.0</ele><time>2026-04-05T20:44:01.999Z</time></trkpt><trkpt lat="36.90679708339944" lon="-108.08581495286832"><ele>1877.0</ele><time>2026-04-05T20:44:03.999Z</time></trkpt><trkpt lat="36.90671225832333" lon="-108.0858005970476"><ele>1877.0</ele><time>2026-04-05T20:44:05.999Z</time></trkpt><trkpt lat="36.90664575289354" lon="-108.08577513801406"><ele>1876.9999999999998</ele><time>2026-04-05T20:47:24Z</time></trkpt><trkpt lat="36.90657798326097" lon="-108.08565335101865"><ele>1877.0</ele><time>2026-04-05T20:47:26Z</time></trkpt><trkpt lat="36.90653885959875" lon="-108.0855316440595"><ele>1876.8</ele><time>2026-04-05T20:47:28Z</time></trkpt><trkpt lat="36.906478875207355" lon="-108.08543226661813"><ele>1876.6</ele><time>2026-04-05T20:47:31Z</time></trkpt><trkpt lat="36.90639849879909" lon="-108.08534670744602"><ele>1876.3999999999999</ele><time>2026-04-05T20:47:33Z</time></trkpt><trkpt lat="36.90628324850491" lon="-108.08539803025745"><ele>1876.1999999999998</ele><time>2026-04-05T20:47:35Z</time></trkpt><trkpt lat="36.90619241233287" lon="-108.085458391671"><ele>1876.0</ele><time>2026-04-05T20:47:36Z</time></trkpt><trkpt lat="36.90607791018813" lon="-108.08552049438306"><ele>1876.0</ele><time>2026-04-05T20:47:37Z</time></trkpt><trkpt lat="36.905954385273496" lon="-108.08559956589211"><ele>1876.0</ele><time>2026-04-05T20:47:38Z</time></trkpt><trkpt lat="36.905854422602744" lon="-108.08567452979449"><ele>1876.0</ele><time>2026-04-05T20:47:39Z</time></trkpt><trkpt lat="36.90578342743187" lon="-108.08577231447579"><ele>1876.0</ele><time>2026-04-05T20:47:40Z</time></trkpt><trkpt lat="36.90571082104265" lon="-108.08590388431142"><ele>1875.5</ele><time>2026-04-05T20:47:41Z</time></trkpt><trkpt lat="36.905635058323035" lon="-108.0860386439076"><ele>1875.0</ele><time>2026-04-05T20:47:42Z</time></trkpt><trkpt lat="36.90555483026766" lon="-108.08611884318712"><ele>1874.5</ele><time>2026-04-05T20:47:43Z</time></trkpt><trkpt lat="36.90544082669894" lon="-108.08618239327767"><ele>1874.0</ele><time>2026-04-05T20:47:44Z</time></trkpt><trkpt lat="36.905318538652715" lon="-108.08620583355479"><ele>1874.0</ele><time>2026-04-05T20:47:45Z</time></trkpt><trkpt lat="36.905200186174696" lon="-108.08623887399378"><ele>1874.0</ele><time>2026-04-05T20:47:46Z</time></trkpt><trkpt lat="36.90511139462158" lon="-108.08628577763928"><ele>1874.0</ele><time>2026-04-05T20:47:47Z</time></trkpt><trkpt lat="36.90505074551851" lon="-108.08635836557835"><ele>1874.0</ele><time>2026-04-05T20:47:48Z</time></trkpt><trkpt lat="36.90500018477868" lon="-108.08645513977139"><ele>1874.0</ele><time>2026-04-05T20:47:49Z</time></trkpt><trkpt lat="36.904954806441125" lon="-108.08659511858782"><ele>1874.0</ele><time>2026-04-05T20:47:50Z</time></trkpt><trkpt lat="36.904882252608715" lon="-108.08674181900571"><ele>1874.0</ele><time>2026-04-05T20:47:51Z</time></trkpt><trkpt lat="36.90476959477816" lon="-108.0868638745171"><ele>1874.0</ele><time>2026-04-05T20:47:52Z</time></trkpt><trkpt lat="36.90464547780869" lon="-108.08698877130875"><ele>1874.0</ele><time>2026-04-05T20:47:53Z</time></trkpt><trkpt lat="36.90453597503206" lon="-108.08714747175081"><ele>1874.0</ele><time>2026-04-05T20:47:54Z</time></trkpt><trkpt lat="36.90443723238537" lon="-108.08732172522909"><ele>1874.0</ele><time>2026-04-05T20:47:55Z</time></trkpt><trkpt lat="36.9043510142738" lon="-108.08749502941534"><ele>1874.0</ele><time>2026-04-05T20:47:56Z</time></trkpt><trkpt lat="36.9042575786829" lon="-108.08767013205573"><ele>1874.0</ele><time>2026-04-05T20:47:57Z</time></trkpt><trkpt lat="36.904176158515774" lon="-108.08781541778484"><ele>1874.0</ele><time>2026-04-05T20:47:58Z</time></trkpt><trkpt lat="36.904081393543194" lon="-108.08792610502127"><ele>1874.0</ele><time>2026-04-05T20:47:59Z</time></trkpt><trkpt lat="36.90395645989021" lon="-108.088031504525"><ele>1874.0</ele><time>2026-04-05T20:48:00Z</time></trkpt><trkpt lat="36.90383654542639" lon="-108.08816028990681"><ele>1873.4</ele><time>2026-04-05T20:48:01Z</time></trkpt><trkpt lat="36.90375474589254" lon="-108.08829027115328"><ele>1872.8000000000002</ele><time>2026-04-05T20:48:02Z</time></trkpt><trkpt lat="36.90369330100196" lon="-108.08840017279972"><ele>1872.1999999999998</ele><time>2026-04-05T20:48:03Z</time></trkpt><trkpt lat="36.90363526456137" lon="-108.08851926024295"><ele>1871.6</ele><time>2026-04-05T20:48:04Z</time></trkpt><trkpt lat="36.903584479048305" lon="-108.08861118488574"><ele>1871.0</ele><time>2026-04-05T20:48:05Z</time></trkpt><trkpt lat="36.903534568786476" lon="-108.0886710352737"><ele>1871.0</ele><time>2026-04-05T20:48:06Z</time></trkpt><trkpt lat="36.903472023383095" lon="-108.08870655951283"><ele>1871.0</ele><time>2026-04-05T20:48:07Z</time></trkpt><trkpt lat="36.90337057171454" lon="-108.08869993776982"><ele>1871.0</ele><time>2026-04-05T20:48:08Z</time></trkpt><trkpt lat="36.90325923183469" lon="-108.08872246431541"><ele>1871.0</ele><time>2026-04-05T20:48:09Z</time></trkpt><trkpt lat="36.90318283453421" lon="-108.08880024570414"><ele>1871.0</ele><time>2026-04-05T20:48:10Z</time></trkpt><trkpt lat="36.903119254250186" lon="-108.08891750903139"><ele>1870.8</ele><time>2026-04-05T20:48:11Z</time></trkpt><trkpt lat="36.90303321251481" lon="-108.08906555430748"><ele>1870.6</ele><time>2026-04-05T20:48:12Z</time></trkpt><trkpt lat="36.902949195890294" lon="-108.08918053821613"><ele>1870.4</ele><time>2026-04-05T20:48:13Z</time></trkpt><trkpt lat="36.90290702452959" lon="-108.08925170284631"><ele>1870.2</ele><time>2026-04-05T20:48:14Z</time></trkpt><trkpt lat="36.902922410275906" lon="-108.08933361947838"><ele>1870.0</ele><time>2026-04-05T20:48:18Z</time></trkpt><trkpt lat="36.903005443316005" lon="-108.089391934575"><ele>1869.6</ele><time>2026-04-05T20:48:21Z</time></trkpt><trkpt lat="36.90307754420041" lon="-108.08935292571742"><ele>1869.2</ele><time>2026-04-05T20:48:22Z</time></trkpt><trkpt lat="36.903140257198956" lon="-108.08928923017397"><ele>1868.8000000000002</ele><time>2026-04-05T20:48:23Z</time></trkpt><trkpt lat="36.903230564801504" lon="-108.08927387959015"><ele>1868.4</ele><time>2026-04-05T20:48:25Z</time></trkpt><trkpt lat="36.90321225054465" lon="-108.08943867421866"><ele>1868.0</ele><time>2026-04-05T20:48:27Z</time></trkpt><trkpt lat="36.9031586598918" lon="-108.08954971726452"><ele>1868.0</ele><time>2026-04-05T20:48:28Z</time></trkpt><trkpt lat="36.90309854443551" lon="-108.08967348660136"><ele>1868.0</ele><time>2026-04-05T20:48:29Z</time></trkpt><trkpt lat="36.90302909780125" lon="-108.08980921753195"><ele>1868.0</ele><time>2026-04-05T20:48:30Z</time></trkpt><trkpt lat="36.902960116000706" lon="-108.08992321697964"><ele>1868.0</ele><time>2026-04-05T20:48:31.001Z</time></trkpt><trkpt lat="36.90284288496331" lon="-108.09001238083715"><ele>1868.25</ele><time>2026-04-05T20:48:33.001Z</time></trkpt><trkpt lat="36.90274008513479" lon="-108.09002707403728"><ele>1868.5</ele><time>2026-04-05T20:48:34.001Z</time></trkpt><trkpt lat="36.902605288057984" lon="-108.09001955746558"><ele>1868.75</ele><time>2026-04-05T20:48:35.001Z</time></trkpt><trkpt lat="36.90248129523596" lon="-108.09001815504949"><ele>1869.0</ele><time>2026-04-05T20:48:36.001Z</time></trkpt><trkpt lat="36.902399689677694" lon="-108.09007328723584"><ele>1868.5</ele><time>2026-04-05T20:48:37.001Z</time></trkpt><trkpt lat="36.902337038579816" lon="-108.09018035451207"><ele>1868.0</ele><time>2026-04-05T20:48:38.001Z</time></trkpt><trkpt lat="36.902267369547495" lon="-108.09034509803439"><ele>1867.5</ele><time>2026-04-05T20:48:39.001Z</time></trkpt><trkpt lat="36.90220585298246" lon="-108.09050187569335"><ele>1867.0</ele><time>2026-04-05T20:48:40.001Z</time></trkpt><trkpt lat="36.902146493600476" lon="-108.09066234817872"><ele>1866.75</ele><time>2026-04-05T20:48:41.001Z</time></trkpt><trkpt lat="36.90210898760498" lon="-108.09082490543115"><ele>1866.5</ele><time>2026-04-05T20:48:42.001Z</time></trkpt><trkpt lat="36.902073523255545" lon="-108.09099516105566"><ele>1866.25</ele><time>2026-04-05T20:48:43.001Z</time></trkpt><trkpt lat="36.902027231773964" lon="-108.09112874711992"><ele>1866.0</ele><time>2026-04-05T20:48:44.001Z</time></trkpt><trkpt lat="36.9019764046386" lon="-108.09122734599563"><ele>1866.0</ele><time>2026-04-05T20:48:45.001Z</time></trkpt><trkpt lat="36.90192440148892" lon="-108.0913004865033"><ele>1866.0</ele><time>2026-04-05T20:48:46.001Z</time></trkpt><trkpt lat="36.901865982863285" lon="-108.09133992459314"><ele>1866.0</ele><time>2026-04-05T20:48:47.001Z</time></trkpt><trkpt lat="36.90178662473098" lon="-108.0913467758004"><ele>1866.0</ele><time>2026-04-05T20:48:48.001Z</time></trkpt><trkpt lat="36.901681105146565" lon="-108.09133717294455"><ele>1866.0</ele><time>2026-04-05T20:48:49.001Z</time></trkpt><trkpt lat="36.901560966842794" lon="-108.09137215237715"><ele>1866.1999999999998</ele><time>2026-04-05T20:48:50.001Z</time></trkpt><trkpt lat="36.90149122110305" lon="-108.09141676617719"><ele>1866.3999999999999</ele><time>2026-04-05T20:48:51.001Z</time></trkpt><trkpt lat="36.90144608704842" lon="-108.09154143611404"><ele>1866.6</ele><time>2026-04-05T20:48:53.001Z</time></trkpt><trkpt lat="36.90154043976333" lon="-108.09167379478308"><ele>1866.8</ele><time>2026-04-05T20:48:55.001Z</time></trkpt><trkpt lat="36.90164152263158" lon="-108.09171405106164"><ele>1867.0</ele><time>2026-04-05T20:48:56.001Z</time></trkpt><trkpt lat="36.90174876716662" lon="-108.09172740014819"><ele>1867.0000000000002</ele><time>2026-04-05T20:48:57.001Z</time></trkpt><trkpt lat="36.901813936617614" lon="-108.0917324068717"><ele>1867.0</ele><time>2026-04-05T20:48:58.001Z</time></trkpt><trkpt lat="36.90186236557853" lon="-108.09181049865994"><ele>1867.0</ele><time>2026-04-05T20:49:00.001Z</time></trkpt><trkpt lat="36.90181551675624" lon="-108.09195989144388"><ele>1867.0</ele><time>2026-04-05T20:49:02.001Z</time></trkpt><trkpt lat="36.90173732501785" lon="-108.09202168637839"><ele>1867.0000000000002</ele><time>2026-04-05T20:49:03.001Z</time></trkpt><trkpt lat="36.90167731893778" lon="-108.09206937152285"><ele>1867.0</ele><time>2026-04-05T20:49:04.001Z</time></trkpt><trkpt lat="36.901571497230115" lon="-108.09208352454691"><ele>1867.0</ele><time>2026-04-05T20:49:05.001Z</time></trkpt><trkpt lat="36.901440301417686" lon="-108.09211195721521"><ele>1867.0</ele><time>2026-04-05T20:49:06.001Z</time></trkpt><trkpt lat="36.90131490306505" lon="-108.09216593317748"><ele>1867.0</ele><time>2026-04-05T20:49:07.001Z</time></trkpt><trkpt lat="36.90120413104199" lon="-108.09220503703966"><ele>1867.0</ele><time>2026-04-05T20:49:08.001Z</time></trkpt><trkpt lat="36.90112041859338" lon="-108.09221403576143"><ele>1867.0000000000002</ele><time>2026-04-05T20:49:09.001Z</time></trkpt><trkpt lat="36.90103874509632" lon="-108.09220860382992"><ele>1867.0</ele><time>2026-04-05T20:49:10.001Z</time></trkpt><trkpt lat="36.90095878783424" lon="-108.09220795409165"><ele>1867.0</ele><time>2026-04-05T20:49:11.001Z</time></trkpt><trkpt lat="36.900868622968694" lon="-108.0922842103427"><ele>1867.0</ele><time>2026-04-05T20:49:13.001Z</time></trkpt><trkpt lat="36.9008742176325" lon="-108.09237125262914"><ele>1867.0000000000002</ele><time>2026-04-05T20:49:14.001Z</time></trkpt><trkpt lat="36.90091029740647" lon="-108.09248371577785"><ele>1867.0</ele><time>2026-04-05T20:49:15.001Z</time></trkpt><trkpt lat="36.9009577592608" lon="-108.09256732247738"><ele>1866.5000000000002</ele><time>2026-04-05T20:49:16.001Z</time></trkpt><trkpt lat="36.90101239365873" lon="-108.09261594943253"><ele>1866.0</ele><time>2026-04-05T20:49:17.001Z</time></trkpt><trkpt lat="36.901062118568284" lon="-108.09270103755338"><ele>1865.5</ele><time>2026-04-05T20:49:18.001Z</time></trkpt><trkpt lat="36.9010427421644" lon="-108.09278688680577"><ele>1865.0</ele><time>2026-04-05T20:49:19.001Z</time></trkpt><trkpt lat="36.90099262167759" lon="-108.09284516992462"><ele>1864.5000000000002</ele><time>2026-04-05T20:49:20.001Z</time></trkpt><trkpt lat="36.90090873455513" lon="-108.09290526646089"><ele>1864.0</ele><time>2026-04-05T20:49:21.001Z</time></trkpt><trkpt lat="36.90082880445819" lon="-108.09296866687782"><ele>1863.75</ele><time>2026-04-05T20:49:22.001Z</time></trkpt><trkpt lat="36.90074236992731" lon="-108.09305786668068"><ele>1863.5</ele><time>2026-04-05T20:49:23.001Z</time></trkpt><trkpt lat="36.90062967973203" lon="-108.09317002860804"><ele>1863.25</ele><time>2026-04-05T20:49:24.001Z</time></trkpt><trkpt lat="36.90051245513119" lon="-108.09329650915932"><ele>1863.0</ele><time>2026-04-05T20:49:25.001Z</time></trkpt><trkpt lat="36.90041315585173" lon="-108.09340045302332"><ele>1862.8333333333333</ele><time>2026-04-05T20:49:26.001Z</time></trkpt><trkpt lat="36.900340231448716" lon="-108.09348255647254"><ele>1862.6666666666665</ele><time>2026-04-05T20:49:27.001Z</time></trkpt><trkpt lat="36.900280460325995" lon="-108.09355903728276"><ele>1862.5</ele><time>2026-04-05T20:49:28.001Z</time></trkpt><trkpt lat="36.900239984018356" lon="-108.09363704347982"><ele>1862.3333333333333</ele><time>2026-04-05T20:49:29.001Z</time></trkpt><trkpt lat="36.90025403268615" lon="-108.09376145463924"><ele>1862.1666666666665</ele><time>2026-04-05T20:49:31.001Z</time></trkpt><trkpt lat="36.90030949488302" lon="-108.09381150048063"><ele>1862.0</ele><time>2026-04-05T20:49:32.001Z</time></trkpt><trkpt lat="36.90036996619208" lon="-108.09389421836491"><ele>1862.0</ele><time>2026-04-05T20:49:33.001Z</time></trkpt><trkpt lat="36.90045326626541" lon="-108.09397785978061"><ele>1861.9999999999998</ele><time>2026-04-05T20:49:34.001Z</time></trkpt><trkpt lat="36.90050521332624" lon="-108.09405623135252"><ele>1861.9999999999998</ele><time>2026-04-05T20:49:35.001Z</time></trkpt><trkpt lat="36.90048210749265" lon="-108.09417426274688"><ele>1862.0</ele><time>2026-04-05T20:49:37.001Z</time></trkpt><trkpt lat="36.900381553713544" lon="-108.09423399142004"><ele>1862.0</ele><time>2026-04-05T20:49:50.001Z</time></trkpt><trkpt lat="36.9002502924685" lon="-108.09431037938793"><ele>1862.0</ele><time>2026-04-05T20:49:52.001Z</time></trkpt><trkpt lat="36.900155177172586" lon="-108.09434186834866"><ele>1861.9999999999998</ele><time>2026-04-05T20:49:53.001Z</time></trkpt><trkpt lat="36.900036459712425" lon="-108.09436187058046"><ele>1861.9999999999998</ele><time>2026-04-05T20:49:54.001Z</time></trkpt><trkpt lat="36.89992198364273" lon="-108.09438568507542"><ele>1862.0</ele><time>2026-04-05T20:49:55.001Z</time></trkpt><trkpt lat="36.89983598886039" lon="-108.09440393570142"><ele>1862.0</ele><time>2026-04-05T20:49:56.001Z</time></trkpt><trkpt lat="36.8997742999291" lon="-108.09447233181002"><ele>1862.0</ele><time>2026-04-05T20:49:58.001Z</time></trkpt><trkpt lat="36.89977994489393" lon="-108.09455286292848"><ele>1861.9999999999998</ele><time>2026-04-05T20:49:59.001Z</time></trkpt><trkpt lat="36.899770850176665" lon="-108.0946446815196"><ele>1861.9999999999998</ele><time>2026-04-05T20:50:00.001Z</time></trkpt><trkpt lat="36.899642578203334" lon="-108.09473715355108"><ele>1862.0</ele><time>2026-04-05T20:50:02.001Z</time></trkpt><trkpt lat="36.89955194687262" lon="-108.09478864668385"><ele>1862.0</ele><time>2026-04-05T20:50:03.001Z</time></trkpt><trkpt lat="36.899503012167955" lon="-108.09484537805798"><ele>1861.6666666666665</ele><time>2026-04-05T20:50:04.001Z</time></trkpt><trkpt lat="36.89947417332853" lon="-108.09499273581903"><ele>1861.3333333333333</ele><time>2026-04-05T20:50:06.001Z</time></trkpt><trkpt lat="36.899471750466354" lon="-108.0950780422252"><ele>1861.0</ele><time>2026-04-05T20:50:07.001Z</time></trkpt><trkpt lat="36.89950901776632" lon="-108.0951475006467"><ele>1860.6666666666665</ele><time>2026-04-05T20:50:09.001Z</time></trkpt><trkpt lat="36.89952700286251" lon="-108.0952590195449"><ele>1860.3333333333333</ele><time>2026-04-05T20:50:21.001Z</time></trkpt><trkpt lat="36.89951240592932" lon="-108.09534823213224"><ele>1860.0</ele><time>2026-04-05T20:50:22.001Z</time></trkpt><trkpt lat="36.89947950314622" lon="-108.09544182344634"><ele>1860.0</ele><time>2026-04-05T20:50:23.001Z</time></trkpt><trkpt lat="36.89942364451005" lon="-108.09553813278289"><ele>1860.0</ele><time>2026-04-05T20:50:24.001Z</time></trkpt><trkpt lat="36.89937199620507" lon="-108.09560258204019"><ele>1860.0</ele><time>2026-04-05T20:50:25.001Z</time></trkpt><trkpt lat="36.89930282205416" lon="-108.09562733202667"><ele>1860.0</ele><time>2026-04-05T20:50:27.001Z</time></trkpt><trkpt lat="36.899193642521496" lon="-108.09558823544899"><ele>1860.0</ele><time>2026-04-05T20:50:29.001Z</time></trkpt><trkpt lat="36.899115051452604" lon="-108.09551344563849"><ele>1860.1666666666667</ele><time>2026-04-05T20:50:31.001Z</time></trkpt><trkpt lat="36.8990601216016" lon="-108.09539957127728"><ele>1860.3333333333335</ele><time>2026-04-05T20:50:33.001Z</time></trkpt><trkpt lat="36.89897273736941" lon="-108.09534560077559"><ele>1860.5</ele><time>2026-04-05T20:50:35.001Z</time></trkpt><trkpt lat="36.89890212624061" lon="-108.09539888676888"><ele>1860.6666666666667</ele><time>2026-04-05T20:50:39.001Z</time></trkpt><trkpt lat="36.89887958215264" lon="-108.09548909256952"><ele>1860.8333333333335</ele><time>2026-04-05T20:50:41.001Z</time></trkpt><trkpt lat="36.89889292336372" lon="-108.09557525587502"><ele>1861.0</ele><time>2026-04-05T20:50:42.001Z</time></trkpt><trkpt lat="36.89891863791867" lon="-108.09565845880897"><ele>1861.0000000000002</ele><time>2026-04-05T20:50:43.001Z</time></trkpt><trkpt lat="36.89894603287163" lon="-108.09573557913984"><ele>1861.0</ele><time>2026-04-05T20:50:44.001Z</time></trkpt><trkpt lat="36.898917464413614" lon="-108.09585139024762"><ele>1861.0</ele><time>2026-04-05T20:50:46.001Z</time></trkpt><trkpt lat="36.89887612636171" lon="-108.09593151104475"><ele>1861.0</ele><time>2026-04-05T20:50:48.001Z</time></trkpt><trkpt lat="36.89875580083786" lon="-108.09596501191244"><ele>1861.0000000000002</ele><time>2026-04-05T20:50:50.001Z</time></trkpt><trkpt lat="36.898674190189844" lon="-108.09597469390923"><ele>1861.0</ele><time>2026-04-05T20:50:51.001Z</time></trkpt><trkpt lat="36.89856061795332" lon="-108.09598876026448"><ele>1861.1999999999998</ele><time>2026-04-05T20:50:52.001Z</time></trkpt><trkpt lat="36.89844925098337" lon="-108.09600006538345"><ele>1861.3999999999999</ele><time>2026-04-05T20:50:53.001Z</time></trkpt><trkpt lat="36.89836606782221" lon="-108.09602975473142"><ele>1861.6</ele><time>2026-04-05T20:50:54.001Z</time></trkpt><trkpt lat="36.8983014779417" lon="-108.09609512941006"><ele>1861.8</ele><time>2026-04-05T20:50:55.001Z</time></trkpt><trkpt lat="36.898250402918435" lon="-108.09617430983171"><ele>1862.0</ele><time>2026-04-05T20:50:56.001Z</time></trkpt><trkpt lat="36.89819476940035" lon="-108.09628410383392"><ele>1861.5</ele><time>2026-04-05T20:50:57.001Z</time></trkpt><trkpt lat="36.89812833310689" lon="-108.09637615095488"><ele>1861.0</ele><time>2026-04-05T20:50:58.001Z</time></trkpt><trkpt lat="36.8980414153496" lon="-108.09649147068286"><ele>1860.5</ele><time>2026-04-05T20:50:59.001Z</time></trkpt><trkpt lat="36.897933015955736" lon="-108.09660837743718"><ele>1860.0</ele><time>2026-04-05T20:51:00.001Z</time></trkpt><trkpt lat="36.897851903440305" lon="-108.0967208962463"><ele>1859.8</ele><time>2026-04-05T20:51:01.001Z</time></trkpt><trkpt lat="36.89778562336789" lon="-108.09677989045443"><ele>1859.6</ele><time>2026-04-05T20:51:02.001Z</time></trkpt><trkpt lat="36.89769622660216" lon="-108.09685296574735"><ele>1859.4</ele><time>2026-04-05T20:51:03.001Z</time></trkpt><trkpt lat="36.89758972098666" lon="-108.0969273878262"><ele>1859.2</ele><time>2026-04-05T20:51:04.001Z</time></trkpt><trkpt lat="36.89748353739774" lon="-108.096991169198"><ele>1859.0</ele><time>2026-04-05T20:51:05.001Z</time></trkpt><trkpt lat="36.89738379633236" lon="-108.0970258723803"><ele>1859.0</ele><time>2026-04-05T20:51:06.001Z</time></trkpt><trkpt lat="36.89726521488134" lon="-108.09703252709315"><ele>1859.0</ele><time>2026-04-05T20:51:07.001Z</time></trkpt><trkpt lat="36.89711925476145" lon="-108.09702670037659"><ele>1859.0</ele><time>2026-04-05T20:51:08.001Z</time></trkpt><trkpt lat="36.89698199657399" lon="-108.09702338666986"><ele>1859.0</ele><time>2026-04-05T20:51:09.001Z</time></trkpt><trkpt lat="36.896851902519614" lon="-108.09705761935284"><ele>1859.0</ele><time>2026-04-05T20:51:10.001Z</time></trkpt><trkpt lat="36.896731616434586" lon="-108.09711504722355"><ele>1859.0</ele><time>2026-04-05T20:51:11.001Z</time></trkpt><trkpt lat="36.89661638014649" lon="-108.09718252745267"><ele>1859.0</ele><time>2026-04-05T20:51:12.001Z</time></trkpt><trkpt lat="36.896510139414815" lon="-108.0972642494871"><ele>1859.0</ele><time>2026-04-05T20:51:13.001Z</time></trkpt><trkpt lat="36.89639933035704" lon="-108.09734754825082"><ele>1858.2</ele><time>2026-04-05T20:51:14.001Z</time></trkpt><trkpt lat="36.89629745158829" lon="-108.0974451209595"><ele>1857.4</ele><time>2026-04-05T20:51:15.001Z</time></trkpt><trkpt lat="36.8962225541226" lon="-108.0975150926495"><ele>1856.6</ele><time>2026-04-05T20:51:16Z</time></trkpt><trkpt lat="36.89616126906319" lon="-108.09759366678786"><ele>1855.8</ele><time>2026-04-05T20:51:17Z</time></trkpt><trkpt lat="36.89611110922854" lon="-108.097698384773"><ele>1855.0</ele><time>2026-04-05T20:51:18Z</time></trkpt><trkpt lat="36.89607260764465" lon="-108.09781991395278"><ele>1855.0</ele><time>2026-04-05T20:51:19Z</time></trkpt><trkpt lat="36.89606165237461" lon="-108.09794362986783"><ele>1855.0</ele><time>2026-04-05T20:51:20Z</time></trkpt><trkpt lat="36.89605249161941" lon="-108.0981007319763"><ele>1855.0</ele><time>2026-04-05T20:51:21Z</time></trkpt><trkpt lat="36.89607277590542" lon="-108.09831031608735"><ele>1855.0</ele><time>2026-04-05T20:51:22Z</time></trkpt><trkpt lat="36.89609054108235" lon="-108.09851478532055"><ele>1855.25</ele><time>2026-04-05T20:51:23Z</time></trkpt><trkpt lat="36.8961074825287" lon="-108.09868112204501"><ele>1855.5</ele><time>2026-04-05T20:51:24Z</time></trkpt><trkpt lat="36.89611032245697" lon="-108.09883785704596"><ele>1855.75</ele><time>2026-04-05T20:51:25Z</time></trkpt><trkpt lat="36.89609097194238" lon="-108.09898594159309"><ele>1856.0</ele><time>2026-04-05T20:51:26Z</time></trkpt><trkpt lat="36.89604866864486" lon="-108.09913948770948"><ele>1856.0</ele><time>2026-04-05T20:51:27Z</time></trkpt><trkpt lat="36.89599568701571" lon="-108.09926938855753"><ele>1856.0</ele><time>2026-04-05T20:51:28Z</time></trkpt><trkpt lat="36.89592619729661" lon="-108.09937826508711"><ele>1856.0</ele><time>2026-04-05T20:51:29Z</time></trkpt><trkpt lat="36.89581816723769" lon="-108.09948650960384"><ele>1856.0</ele><time>2026-04-05T20:51:30Z</time></trkpt><trkpt lat="36.895702088431115" lon="-108.09957949963318"><ele>1855.8</ele><time>2026-04-05T20:51:31Z</time></trkpt><trkpt lat="36.89559810311007" lon="-108.09962751701299"><ele>1855.6</ele><time>2026-04-05T20:51:32Z</time></trkpt><trkpt lat="36.8954898767659" lon="-108.09963607120689"><ele>1855.4</ele><time>2026-04-05T20:51:33Z</time></trkpt><trkpt lat="36.89538533303431" lon="-108.09963932090992"><ele>1855.2</ele><time>2026-04-05T20:51:34Z</time></trkpt><trkpt lat="36.8952929696859" lon="-108.09966486099034"><ele>1855.0</ele><time>2026-04-05T20:51:35Z</time></trkpt><trkpt lat="36.89520355864714" lon="-108.09969237410114"><ele>1855.0</ele><time>2026-04-05T20:51:36Z</time></trkpt><trkpt lat="36.89513197177285" lon="-108.0997739071475"><ele>1855.0</ele><time>2026-04-05T20:51:37Z</time></trkpt><trkpt lat="36.89505572355286" lon="-108.09991293595208"><ele>1855.0</ele><time>2026-04-05T20:51:38Z</time></trkpt><trkpt lat="36.89495762424744" lon="-108.10006594340348"><ele>1855.0</ele><time>2026-04-05T20:51:39Z</time></trkpt><trkpt lat="36.8948508572189" lon="-108.10017210810325"><ele>1854.6</ele><time>2026-04-05T20:51:40Z</time></trkpt><trkpt lat="36.89474781407452" lon="-108.10022548368434"><ele>1854.2</ele><time>2026-04-05T20:51:41Z</time></trkpt><trkpt lat="36.89466055478902" lon="-108.10024806866993"><ele>1853.8000000000002</ele><time>2026-04-05T20:51:42Z</time></trkpt><trkpt lat="36.89458085025019" lon="-108.10023449376662"><ele>1853.4</ele><time>2026-04-05T20:51:43Z</time></trkpt><trkpt lat="36.89449295092601" lon="-108.10020491878159"><ele>1853.0</ele><time>2026-04-05T20:51:44Z</time></trkpt><trkpt lat="36.894373815576" lon="-108.1002398484787"><ele>1853.0</ele><time>2026-04-05T20:51:46Z</time></trkpt><trkpt lat="36.89432368173149" lon="-108.10030325660561"><ele>1853.0000000000002</ele><time>2026-04-05T20:51:49Z</time></trkpt><trkpt lat="36.89432718237605" lon="-108.10042923670562"><ele>1853.0000000000002</ele><time>2026-04-05T20:51:51Z</time></trkpt><trkpt lat="36.89429574990136" lon="-108.10057647335697"><ele>1853.0</ele><time>2026-04-05T20:51:53Z</time></trkpt><trkpt lat="36.89421874538299" lon="-108.10067166787474"><ele>1853.0</ele><time>2026-04-05T20:51:55Z</time></trkpt><trkpt lat="36.89412481967288" lon="-108.10062845482634"><ele>1852.9999999999998</ele><time>2026-04-05T20:51:57Z</time></trkpt><trkpt lat="36.89407284507564" lon="-108.10055631400297"><ele>1853.0</ele><time>2026-04-05T20:51:58Z</time></trkpt><trkpt lat="36.89400079273814" lon="-108.10049919552901"><ele>1853.0</ele><time>2026-04-05T20:51:59Z</time></trkpt><trkpt lat="36.893925393983636" lon="-108.10046390953109"><ele>1853.0</ele><time>2026-04-05T20:52:00Z</time></trkpt><trkpt lat="36.893808622661474" lon="-108.10048214500036"><ele>1852.9999999999998</ele><time>2026-04-05T20:52:02Z</time></trkpt><trkpt lat="36.89373333660787" lon="-108.10049236209305"><ele>1853.0</ele><time>2026-04-05T20:52:03Z</time></trkpt><trkpt lat="36.89366263249154" lon="-108.10052419412473"><ele>1852.9999999999998</ele><time>2026-04-05T20:52:05Z</time></trkpt><trkpt lat="36.893608151712016" lon="-108.10058530519025"><ele>1853.0</ele><time>2026-04-05T20:52:07Z</time></trkpt><trkpt lat="36.893571743977645" lon="-108.10067653201301"><ele>1853.0</ele><time>2026-04-05T20:52:09Z</time></trkpt><trkpt lat="36.89349994780834" lon="-108.10075011951865"><ele>1853.0</ele><time>2026-04-05T20:52:11.001Z</time></trkpt><trkpt lat="36.89343586105289" lon="-108.10081509105487"><ele>1852.9999999999998</ele><time>2026-04-05T20:52:12.001Z</time></trkpt><trkpt lat="36.893376227035475" lon="-108.10087611870725"><ele>1853.0</ele><time>2026-04-05T20:52:13.001Z</time></trkpt><trkpt lat="36.8933030504777" lon="-108.10095286231336"><ele>1853.0</ele><time>2026-04-05T20:52:15.001Z</time></trkpt><trkpt lat="36.89319107379069" lon="-108.10104019983386"><ele>1853.0000000000002</ele><time>2026-04-05T20:52:17.001Z</time></trkpt><trkpt lat="36.89313432827063" lon="-108.10108280313791"><ele>1853.0000000000002</ele><time>2026-04-05T20:52:19.001Z</time></trkpt><trkpt lat="36.89314812594166" lon="-108.10118442633471"><ele>1853.0</ele><time>2026-04-05T20:52:23.001Z</time></trkpt><trkpt lat="36.8930777814975" lon="-108.10125184034612"><ele>1853.0</ele><time>2026-04-05T20:52:25.001Z</time></trkpt><trkpt lat="36.89293764617429" lon="-108.10130703640917"><ele>1853.0</ele><time>2026-04-05T20:52:27.001Z</time></trkpt><trkpt lat="36.89284909683375" lon="-108.10135273668622"><ele>1853.0</ele><time>2026-04-05T20:52:28.001Z</time></trkpt><trkpt lat="36.892746701473804" lon="-108.10141028916989"><ele>1853.0</ele><time>2026-04-05T20:52:29.001Z</time></trkpt><trkpt lat="36.892619881188295" lon="-108.1014695607554"><ele>1853.0</ele><time>2026-04-05T20:52:30.001Z</time></trkpt><trkpt lat="36.892488361498955" lon="-108.10154078721467"><ele>1852.5</ele><time>2026-04-05T20:52:31.001Z</time></trkpt><trkpt lat="36.892364784224306" lon="-108.10160842172999"><ele>1852.0</ele><time>2026-04-05T20:52:32.001Z</time></trkpt><trkpt lat="36.892254064063295" lon="-108.10164971245294"><ele>1851.5</ele><time>2026-04-05T20:52:33.001Z</time></trkpt><trkpt lat="36.89212971768213" lon="-108.10167558953131"><ele>1851.0</ele><time>2026-04-05T20:52:34.001Z</time></trkpt><trkpt lat="36.891985758793545" lon="-108.1016919271885"><ele>1851.0</ele><time>2026-04-05T20:52:35.001Z</time></trkpt><trkpt lat="36.89182635164381" lon="-108.10169787207768"><ele>1851.0</ele><time>2026-04-05T20:52:36.001Z</time></trkpt><trkpt lat="36.89163721386337" lon="-108.10167868210294"><ele>1851.0</ele><time>2026-04-05T20:52:37.001Z</time></trkpt><trkpt lat="36.891502374794364" lon="-108.10167938788635"><ele>1850.6</ele><time>2026-04-05T20:52:38.001Z</time></trkpt><trkpt lat="36.89136719221184" lon="-108.10169658818339"><ele>1850.1999999999998</ele><time>2026-04-05T20:52:39.001Z</time></trkpt><trkpt lat="36.8912619701245" lon="-108.10173532090185"><ele>1849.8000000000002</ele><time>2026-04-05T20:52:40.001Z</time></trkpt><trkpt lat="36.89118442354541" lon="-108.10178817908655"><ele>1849.4</ele><time>2026-04-05T20:52:41.001Z</time></trkpt><trkpt lat="36.89112338437601" lon="-108.10184847918158"><ele>1849.0</ele><time>2026-04-05T20:52:42.001Z</time></trkpt><trkpt lat="36.89106313143792" lon="-108.10191514235028"><ele>1849.0</ele><time>2026-04-05T20:52:43.001Z</time></trkpt><trkpt lat="36.89099467840444" lon="-108.10194733698599"><ele>1849.0</ele><time>2026-04-05T20:52:44.001Z</time></trkpt><trkpt lat="36.890909685981235" lon="-108.10193639418988"><ele>1849.0</ele><time>2026-04-05T20:52:45.001Z</time></trkpt><trkpt lat="36.89080800884261" lon="-108.10189777186436"><ele>1849.0</ele><time>2026-04-05T20:52:46.001Z</time></trkpt><trkpt lat="36.89069747727653" lon="-108.10185101289665"><ele>1849.0</ele><time>2026-04-05T20:52:47.001Z</time></trkpt><trkpt lat="36.89057354002258" lon="-108.1018209158459"><ele>1849.0</ele><time>2026-04-05T20:52:48.001Z</time></trkpt><trkpt lat="36.890436553057704" lon="-108.10181179174764"><ele>1849.0</ele><time>2026-04-05T20:52:49.001Z</time></trkpt><trkpt lat="36.89031886234417" lon="-108.10181212515991"><ele>1849.0</ele><time>2026-04-05T20:52:50.001Z</time></trkpt><trkpt lat="36.89023439652504" lon="-108.10181757415018"><ele>1849.0</ele><time>2026-04-05T20:52:51.001Z</time></trkpt><trkpt lat="36.890162030674375" lon="-108.10183531022194"><ele>1849.0</ele><time>2026-04-05T20:52:52.001Z</time></trkpt><trkpt lat="36.89008221627596" lon="-108.1019252770007"><ele>1849.0000000000002</ele><time>2026-04-05T20:52:54.001Z</time></trkpt><trkpt lat="36.89007550401294" lon="-108.10200960285252"><ele>1849.0</ele><time>2026-04-05T20:52:55.001Z</time></trkpt><trkpt lat="36.89005730982005" lon="-108.10213309821175"><ele>1849.0</ele><time>2026-04-05T20:52:56.001Z</time></trkpt><trkpt lat="36.8900311442007" lon="-108.10220594022402"><ele>1849.0</ele><time>2026-04-05T20:52:57.001Z</time></trkpt><trkpt lat="36.889921815275905" lon="-108.10227536170727"><ele>1849.0000000000002</ele><time>2026-04-05T20:52:59.001Z</time></trkpt><trkpt lat="36.889835443353746" lon="-108.10229558855352"><ele>1849.0</ele><time>2026-04-05T20:53:00.001Z</time></trkpt><trkpt lat="36.88972670517664" lon="-108.1023033803651"><ele>1849.0</ele><time>2026-04-05T20:53:01.001Z</time></trkpt><trkpt lat="36.88960263517231" lon="-108.10232889258678"><ele>1849.0</ele><time>2026-04-05T20:53:02.001Z</time></trkpt><trkpt lat="36.88948049730356" lon="-108.10239154614382"><ele>1849.0</ele><time>2026-04-05T20:53:03.001Z</time></trkpt><trkpt lat="36.88936639066794" lon="-108.10248221481275"><ele>1849.0</ele><time>2026-04-05T20:53:04.001Z</time></trkpt><trkpt lat="36.88925245208973" lon="-108.10258654413356"><ele>1848.75</ele><time>2026-04-05T20:53:05.001Z</time></trkpt><trkpt lat="36.88912967973276" lon="-108.10266689562229"><ele>1848.5</ele><time>2026-04-05T20:53:06.001Z</time></trkpt><trkpt lat="36.88903371244871" lon="-108.10272278289327"><ele>1848.25</ele><time>2026-04-05T20:53:07.001Z</time></trkpt><trkpt lat="36.88893506597224" lon="-108.10276700751135"><ele>1848.0</ele><time>2026-04-05T20:53:08.001Z</time></trkpt><trkpt lat="36.88883151038938" lon="-108.1028000684137"><ele>1848.0</ele><time>2026-04-05T20:53:09.001Z</time></trkpt><trkpt lat="36.8887210788008" lon="-108.1028194703466"><ele>1848.0</ele><time>2026-04-05T20:53:10.001Z</time></trkpt><trkpt lat="36.88859603716223" lon="-108.10281925194366"><ele>1848.0</ele><time>2026-04-05T20:53:11.001Z</time></trkpt><trkpt lat="36.88847030041372" lon="-108.10280710733642"><ele>1848.0</ele><time>2026-04-05T20:53:12.001Z</time></trkpt><trkpt lat="36.888351904715854" lon="-108.1028052946592"><ele>1847.75</ele><time>2026-04-05T20:53:13.001Z</time></trkpt><trkpt lat="36.888239739819284" lon="-108.10283648280388"><ele>1847.5</ele><time>2026-04-05T20:53:14.001Z</time></trkpt><trkpt lat="36.88813222489901" lon="-108.10289329275275"><ele>1847.25</ele><time>2026-04-05T20:53:15.001Z</time></trkpt><trkpt lat="36.888039272646495" lon="-108.10297854038603"><ele>1847.0</ele><time>2026-04-05T20:53:16.001Z</time></trkpt><trkpt lat="36.88794475868984" lon="-108.1030696975328"><ele>1846.9999999999998</ele><time>2026-04-05T20:53:17.001Z</time></trkpt><trkpt lat="36.88787196144351" lon="-108.10313521112155"><ele>1847.0</ele><time>2026-04-05T20:53:18.001Z</time></trkpt><trkpt lat="36.88780147694484" lon="-108.10315612189632"><ele>1847.0</ele><time>2026-04-05T20:53:19.001Z</time></trkpt><trkpt lat="36.88772585763012" lon="-108.1031354250043"><ele>1847.0</ele><time>2026-04-05T20:53:20.001Z</time></trkpt><trkpt lat="36.88765413316348" lon="-108.1030787481761"><ele>1846.9999999999998</ele><time>2026-04-05T20:53:20.999Z</time></trkpt><trkpt lat="36.88758558041514" lon="-108.1030431335757"><ele>1847.0</ele><time>2026-04-05T20:53:21.999Z</time></trkpt><trkpt lat="36.887511166601534" lon="-108.10307971740731"><ele>1847.3999999999999</ele><time>2026-04-05T20:53:22.999Z</time></trkpt><trkpt lat="36.88744087861612" lon="-108.10315860225123"><ele>1847.7999999999997</ele><time>2026-04-05T20:53:23.999Z</time></trkpt><trkpt lat="36.8873629454516" lon="-108.10325381598994"><ele>1848.2</ele><time>2026-04-05T20:53:24.999Z</time></trkpt><trkpt lat="36.88727316253562" lon="-108.10338033459732"><ele>1848.6</ele><time>2026-04-05T20:53:25.999Z</time></trkpt><trkpt lat="36.88718775287063" lon="-108.10344114996352"><ele>1849.0</ele><time>2026-04-05T20:53:26.999Z</time></trkpt><trkpt lat="36.887087456660176" lon="-108.10347823611185"><ele>1848.25</ele><time>2026-04-05T20:53:27.999Z</time></trkpt><trkpt lat="36.886971519498374" lon="-108.10350657007928"><ele>1847.5</ele><time>2026-04-05T20:53:28.999Z</time></trkpt><trkpt lat="36.886848378769585" lon="-108.10354135293944"><ele>1846.75</ele><time>2026-04-05T20:53:29.999Z</time></trkpt><trkpt lat="36.88672069656019" lon="-108.10361009496754"><ele>1846.0</ele><time>2026-04-05T20:53:30.999Z</time></trkpt><trkpt lat="36.88659572163531" lon="-108.10368438975566"><ele>1846.0000000000002</ele><time>2026-04-05T20:53:31.999Z</time></trkpt><trkpt lat="36.886525466837" lon="-108.10374743588048"><ele>1846.0</ele><time>2026-04-05T20:53:32.999Z</time></trkpt><trkpt lat="36.88646618896521" lon="-108.10379723490071"><ele>1846.0</ele><time>2026-04-05T20:53:33.999Z</time></trkpt><trkpt lat="36.886455915321115" lon="-108.10388826393972"><ele>1846.0</ele><time>2026-04-05T20:53:37.999Z</time></trkpt><trkpt lat="36.886509128335106" lon="-108.1039740976812"><ele>1846.0000000000002</ele><time>2026-04-05T20:53:39.999Z</time></trkpt><trkpt lat="36.88656550876581" lon="-108.10401712540823"><ele>1846.0</ele><time>2026-04-05T20:53:45Z</time></trkpt><trkpt lat="36.88662271448018" lon="-108.10405747799086"><ele>1845.4</ele><time>2026-04-05T20:53:47Z</time></trkpt><trkpt lat="36.88665588443974" lon="-108.10412922043264"><ele>1844.8</ele><time>2026-04-05T20:53:49Z</time></trkpt><trkpt lat="36.886608838737054" lon="-108.10426030417159"><ele>1844.2000000000003</ele><time>2026-04-05T20:54:23Z</time></trkpt><trkpt lat="36.88653784239784" lon="-108.10430149401121"><ele>1843.6000000000001</ele><time>2026-04-05T20:54:24Z</time></trkpt><trkpt lat="36.886435137680124" lon="-108.1043247922652"><ele>1843.0</ele><time>2026-04-05T20:54:25Z</time></trkpt><trkpt lat="36.88631611946706" lon="-108.10434401291862"><ele>1843.0000000000002</ele><time>2026-04-05T20:54:26Z</time></trkpt><trkpt lat="36.88620163386561" lon="-108.1043884778811"><ele>1843.0</ele><time>2026-04-05T20:54:27Z</time></trkpt><trkpt lat="36.88612354909719" lon="-108.10441870214551"><ele>1843.0</ele><time>2026-04-05T20:54:28Z</time></trkpt><trkpt lat="36.8861550676275" lon="-108.10432526637828"><ele>1843.0</ele><time>2026-04-05T20:54:39Z</time></trkpt><trkpt lat="36.886107792118906" lon="-108.1042209611003"><ele>1843.0000000000002</ele><time>2026-04-05T20:54:41Z</time></trkpt><trkpt lat="36.8861597884637" lon="-108.10416294990506"><ele>1843.0</ele><time>2026-04-05T20:54:43Z</time></trkpt><trkpt lat="36.88623927381734" lon="-108.10410114820995"><ele>1843.5000000000002</ele><time>2026-04-05T20:54:45Z</time></trkpt><trkpt lat="36.88626853712984" lon="-108.10402584311727"><ele>1844.0</ele><time>2026-04-05T20:54:47Z</time></trkpt><trkpt lat="36.886274453149596" lon="-108.10387461753034"><ele>1844.5</ele><time>2026-04-05T20:54:58Z</time></trkpt><trkpt lat="36.88625674780424" lon="-108.10378308420293"><ele>1845.0</ele><time>2026-04-05T20:54:59Z</time></trkpt><trkpt lat="36.886218300751366" lon="-108.10368290966257"><ele>1845.5000000000002</ele><time>2026-04-05T20:55:00Z</time></trkpt><trkpt lat="36.8861686221711" lon="-108.10358188509412"><ele>1846.0</ele><time>2026-04-05T20:55:01Z</time></trkpt><trkpt lat="36.8861265575796" lon="-108.10348488301437"><ele>1846.0</ele><time>2026-04-05T20:55:02Z</time></trkpt><trkpt lat="36.88610084071994" lon="-108.1034116863092"><ele>1846.0</ele><time>2026-04-05T20:55:03Z</time></trkpt><trkpt lat="36.88604348674337" lon="-108.10325396676966"><ele>1846.0</ele><time>2026-04-05T20:55:05Z</time></trkpt><trkpt lat="36.886008004922324" lon="-108.10313162645723"><ele>1846.0</ele><time>2026-04-05T20:55:06Z</time></trkpt><trkpt lat="36.885973079866105" lon="-108.1029849921116"><ele>1846.0</ele><time>2026-04-05T20:55:07Z</time></trkpt><trkpt lat="36.88592456665363" lon="-108.1028217380089"><ele>1847.25</ele><time>2026-04-05T20:55:08Z</time></trkpt><trkpt lat="36.88586519828842" lon="-108.10264956446989"><ele>1848.5</ele><time>2026-04-05T20:55:09Z</time></trkpt><trkpt lat="36.88582330688796" lon="-108.1025119222158"><ele>1849.75</ele><time>2026-04-05T20:55:10Z</time></trkpt><trkpt lat="36.88578613633653" lon="-108.10236800713686"><ele>1851.0</ele><time>2026-04-05T20:55:11Z</time></trkpt><trkpt lat="36.885744469087236" lon="-108.10222797942374"><ele>1851.6</ele><time>2026-04-05T20:55:12Z</time></trkpt><trkpt lat="36.88570545714432" lon="-108.1021244852381"><ele>1852.1999999999998</ele><time>2026-04-05T20:55:13Z</time></trkpt><trkpt lat="36.88566282979559" lon="-108.1020542200004"><ele>1852.8000000000002</ele><time>2026-04-05T20:55:14Z</time></trkpt><trkpt lat="36.885572659822415" lon="-108.10197517462822"><ele>1853.4</ele><time>2026-04-05T20:55:16.001Z</time></trkpt><trkpt lat="36.885464105284676" lon="-108.10193027966541"><ele>1854.0</ele><time>2026-04-05T20:55:18.001Z</time></trkpt><trkpt lat="36.88538918369515" lon="-108.1019073763736"><ele>1854.0</ele><time>2026-04-05T20:55:19.001Z</time></trkpt><trkpt lat="36.88530818465744" lon="-108.1018813273327"><ele>1854.0</ele><time>2026-04-05T20:55:20.001Z</time></trkpt><trkpt lat="36.88524064804417" lon="-108.10184990513592"><ele>1854.0</ele><time>2026-04-05T20:55:21.001Z</time></trkpt><trkpt lat="36.88517808316664" lon="-108.10179695736365"><ele>1854.0</ele><time>2026-04-05T20:55:22.001Z</time></trkpt><trkpt lat="36.885120275921516" lon="-108.10172497342555"><ele>1854.0</ele><time>2026-04-05T20:55:23.001Z</time></trkpt><trkpt lat="36.88503604602626" lon="-108.10168275556912"><ele>1854.0</ele><time>2026-04-05T20:55:25.001Z</time></trkpt><trkpt lat="36.88495193535505" lon="-108.10168474045932"><ele>1854.0</ele><time>2026-04-05T20:55:26.001Z</time></trkpt><trkpt lat="36.884865177177446" lon="-108.10168089850822"><ele>1854.0</ele><time>2026-04-05T20:55:26.999Z</time></trkpt><trkpt lat="36.8847746236253" lon="-108.10164802315663"><ele>1854.0</ele><time>2026-04-05T20:55:27.999Z</time></trkpt><trkpt lat="36.88467539934173" lon="-108.10161212013172"><ele>1854.0</ele><time>2026-04-05T20:55:28.999Z</time></trkpt><trkpt lat="36.88457499483746" lon="-108.10158613176377"><ele>1854.0</ele><time>2026-04-05T20:55:29.999Z</time></trkpt><trkpt lat="36.884480432021235" lon="-108.10154400305642"><ele>1854.3333333333333</ele><time>2026-04-05T20:55:30.999Z</time></trkpt><trkpt lat="36.884412308953934" lon="-108.10150397649267"><ele>1854.6666666666665</ele><time>2026-04-05T20:55:31.999Z</time></trkpt><trkpt lat="36.88431838089314" lon="-108.10138448652583"><ele>1855.0</ele><time>2026-04-05T20:55:33.999Z</time></trkpt><trkpt lat="36.88427626395548" lon="-108.10129489449868"><ele>1855.3333333333333</ele><time>2026-04-05T20:55:34.999Z</time></trkpt><trkpt lat="36.884220940802756" lon="-108.1012438712995"><ele>1855.6666666666665</ele><time>2026-04-05T20:55:35.999Z</time></trkpt><trkpt lat="36.88415517669648" lon="-108.10119579264195"><ele>1856.0</ele><time>2026-04-05T20:55:37Z</time></trkpt><trkpt lat="36.884079744811416" lon="-108.10111404695171"><ele>1856.8</ele><time>2026-04-05T20:55:38Z</time></trkpt><trkpt lat="36.88402568694219" lon="-108.10099388102616"><ele>1857.6</ele><time>2026-04-05T20:55:39Z</time></trkpt><trkpt lat="36.88396933266738" lon="-108.1008640695725"><ele>1858.4</ele><time>2026-04-05T20:55:40Z</time></trkpt><trkpt lat="36.88392242022432" lon="-108.10077170694056"><ele>1859.2</ele><time>2026-04-05T20:55:41Z</time></trkpt><trkpt lat="36.88385149393466" lon="-108.10066832820362"><ele>1860.0</ele><time>2026-04-05T20:55:43Z</time></trkpt><trkpt lat="36.88379767629209" lon="-108.10060710538953"><ele>1860.5</ele><time>2026-04-05T20:55:44Z</time></trkpt><trkpt lat="36.88375150650766" lon="-108.10048588266713"><ele>1861.0</ele><time>2026-04-05T20:55:45Z</time></trkpt><trkpt lat="36.88370843602423" lon="-108.10030544947433"><ele>1861.5</ele><time>2026-04-05T20:55:46Z</time></trkpt><trkpt lat="36.88366052202269" lon="-108.10016969317317"><ele>1862.0</ele><time>2026-04-05T20:55:47Z</time></trkpt><trkpt lat="36.883630715321786" lon="-108.10005740617501"><ele>1862.0</ele><time>2026-04-05T20:55:48Z</time></trkpt><trkpt lat="36.883622539259825" lon="-108.09997326803263"><ele>1861.9999999999998</ele><time>2026-04-05T20:55:49Z</time></trkpt><trkpt lat="36.88348641338582" lon="-108.09993176597071"><ele>1861.9999999999998</ele><time>2026-04-05T20:55:52Z</time></trkpt><trkpt lat="36.883382571444294" lon="-108.09990553866422"><ele>1862.0</ele><time>2026-04-05T20:55:53Z</time></trkpt><trkpt lat="36.88326955755609" lon="-108.09984966108675"><ele>1862.0</ele><time>2026-04-05T20:55:54Z</time></trkpt><trkpt lat="36.88315129179795" lon="-108.09978828581488"><ele>1863.0</ele><time>2026-04-05T20:55:55Z</time></trkpt><trkpt lat="36.883049438638054" lon="-108.09973817726924"><ele>1863.9999999999998</ele><time>2026-04-05T20:55:56Z</time></trkpt><trkpt lat="36.88299040236186" lon="-108.09968850721046"><ele>1864.9999999999998</ele><time>2026-04-05T20:55:57Z</time></trkpt><trkpt lat="36.882952228296524" lon="-108.09959752863563"><ele>1866.0</ele><time>2026-04-05T20:55:58Z</time></trkpt><trkpt lat="36.882914293852444" lon="-108.09947332109284"><ele>1867.0</ele><time>2026-04-05T20:55:59Z</time></trkpt><trkpt lat="36.88285951947158" lon="-108.09931757744432"><ele>1867.0000000000002</ele><time>2026-04-05T20:56:00Z</time></trkpt><trkpt lat="36.88278988958166" lon="-108.09925990883156"><ele>1867.0</ele><time>2026-04-05T20:56:01Z</time></trkpt><trkpt lat="36.88272124554652" lon="-108.09929735676725"><ele>1867.0</ele><time>2026-04-05T20:56:49.001Z</time></trkpt><trkpt lat="36.88273236670838" lon="-108.09939709668811"><ele>1867.0</ele><time>2026-04-05T20:56:51.001Z</time></trkpt><trkpt lat="36.88278424703155" lon="-108.0994588540445"><ele>1867.0000000000002</ele><time>2026-04-05T20:56:54.001Z</time></trkpt><trkpt lat="36.88285394935205" lon="-108.09945249093028"><ele>1867.0</ele><time>2026-04-05T20:56:58.001Z</time></trkpt><trkpt lat="36.882859271116956" lon="-108.09935752584897"><ele>1867.0000000000002</ele><time>2026-04-05T21:06:28.001Z</time></trkpt><trkpt lat="36.882801570465375" lon="-108.09931273935426"><ele>1867.0</ele><time>2026-04-05T21:06:29.001Z</time></trkpt><trkpt lat="36.882730562979965" lon="-108.09923920785768"><ele>1867.0</ele><time>2026-04-05T21:06:30.001Z</time></trkpt><trkpt lat="36.88267087957161" lon="-108.0991592868231"><ele>1867.0</ele><time>2026-04-05T21:06:31.001Z</time></trkpt><trkpt lat="36.882589845823425" lon="-108.09911213490308"><ele>1867.0000000000002</ele><time>2026-04-05T21:06:33.001Z</time></trkpt><trkpt lat="36.88248426461239" lon="-108.0991491152166"><ele>1867.0</ele><time>2026-04-05T21:06:35.001Z</time></trkpt><trkpt lat="36.88241258544509" lon="-108.09919272840696"><ele>1867.8</ele><time>2026-04-05T21:06:36.001Z</time></trkpt><trkpt lat="36.88234179817678" lon="-108.09926960154372"><ele>1868.6</ele><time>2026-04-05T21:06:38.001Z</time></trkpt><trkpt lat="36.88226089251512" lon="-108.09933869043243"><ele>1869.3999999999999</ele><time>2026-04-05T21:06:40.001Z</time></trkpt><trkpt lat="36.88220677808021" lon="-108.09938473619547"><ele>1870.1999999999998</ele><time>2026-04-05T21:06:41.001Z</time></trkpt><trkpt lat="36.882114346069535" lon="-108.09946338590635"><ele>1871.0</ele><time>2026-04-05T21:06:43.001Z</time></trkpt><trkpt lat="36.88181872819663" lon="-108.09904958308938"><ele>1872.6</ele><time>2026-04-05T21:06:45.001Z</time></trkpt><trkpt lat="36.8817615088167" lon="-108.0989486692829"><ele>1874.1999999999998</ele><time>2026-04-05T21:06:46.001Z</time></trkpt><trkpt lat="36.881699985078505" lon="-108.09888507194024"><ele>1875.8000000000002</ele><time>2026-04-05T21:06:47.001Z</time></trkpt><trkpt lat="36.88162196680664" lon="-108.09887720099898"><ele>1877.4</ele><time>2026-04-05T21:06:49.001Z</time></trkpt><trkpt lat="36.88149945897176" lon="-108.09892607385576"><ele>1879.0</ele><time>2026-04-05T21:06:51.001Z</time></trkpt><trkpt lat="36.88140363373731" lon="-108.09897111251284"><ele>1879.0000000000002</ele><time>2026-04-05T21:06:53.001Z</time></trkpt><trkpt lat="36.881363369849744" lon="-108.09904730488006"><ele>1879.0</ele><time>2026-04-05T21:06:54.001Z</time></trkpt><trkpt lat="36.88131661498204" lon="-108.09911627387528"><ele>1879.0</ele><time>2026-04-05T21:06:55.001Z</time></trkpt><trkpt lat="36.8812530173619" lon="-108.09915532194417"><ele>1879.0</ele><time>2026-04-05T21:06:56.001Z</time></trkpt><trkpt lat="36.88115197718486" lon="-108.09918979391632"><ele>1879.0000000000002</ele><time>2026-04-05T21:06:58.001Z</time></trkpt><trkpt lat="36.881024434827985" lon="-108.09920527049535"><ele>1879.0</ele><time>2026-04-05T21:07:00.001Z</time></trkpt><trkpt lat="36.88094674095097" lon="-108.09924143561226"><ele>1879.5000000000002</ele><time>2026-04-05T21:07:01.001Z</time></trkpt><trkpt lat="36.8808978771341" lon="-108.09930667263598"><ele>1880.0</ele><time>2026-04-05T21:07:02.001Z</time></trkpt><trkpt lat="36.88081594942635" lon="-108.09942962447386"><ele>1880.5</ele><time>2026-04-05T21:07:04.001Z</time></trkpt><trkpt lat="36.880758793437735" lon="-108.09949342873587"><ele>1881.0</ele><time>2026-04-05T21:07:05.001Z</time></trkpt><trkpt lat="36.88070220765938" lon="-108.09954524338707"><ele>1881.5000000000002</ele><time>2026-04-05T21:07:06.001Z</time></trkpt><trkpt lat="36.88061070004172" lon="-108.09960004251342"><ele>1882.0</ele><time>2026-04-05T21:07:08.001Z</time></trkpt><trkpt lat="36.880485399937974" lon="-108.09961034535532"><ele>1882.0000000000002</ele><time>2026-04-05T21:07:10.001Z</time></trkpt><trkpt lat="36.880407309105074" lon="-108.09961922479516"><ele>1882.0</ele><time>2026-04-05T21:07:11.001Z</time></trkpt><trkpt lat="36.880338335641646" lon="-108.09965771225819"><ele>1882.0</ele><time>2026-04-05T21:07:12.001Z</time></trkpt><trkpt lat="36.88027253108575" lon="-108.09966800750615"><ele>1882.0</ele><time>2026-04-05T21:07:13.001Z</time></trkpt><trkpt lat="36.880182461565155" lon="-108.09963521937208"><ele>1882.0000000000002</ele><time>2026-04-05T21:07:14.001Z</time></trkpt><trkpt lat="36.88010839463389" lon="-108.09963584800066"><ele>1882.0</ele><time>2026-04-05T21:07:15.001Z</time></trkpt><trkpt lat="36.88002668558396" lon="-108.09964795802836"><ele>1882.3333333333335</ele><time>2026-04-05T21:07:16.001Z</time></trkpt><trkpt lat="36.87992953641395" lon="-108.09963292642186"><ele>1882.6666666666667</ele><time>2026-04-05T21:07:17.001Z</time></trkpt><trkpt lat="36.87984620544136" lon="-108.09961729207973"><ele>1883.0</ele><time>2026-04-05T21:07:18.001Z</time></trkpt><trkpt lat="36.87978236700426" lon="-108.099580483764"><ele>1883.3333333333335</ele><time>2026-04-05T21:07:19.001Z</time></trkpt><trkpt lat="36.8796671119259" lon="-108.09956527078839"><ele>1883.6666666666667</ele><time>2026-04-05T21:07:21.001Z</time></trkpt><trkpt lat="36.879602034827876" lon="-108.09960685355337"><ele>1884.0</ele><time>2026-04-05T21:07:22.001Z</time></trkpt><trkpt lat="36.87954706725004" lon="-108.09950910093987"><ele>1884.0</ele><time>2026-04-05T21:07:25.001Z</time></trkpt><trkpt lat="36.8795385252626" lon="-108.09937491960662"><ele>1884.0</ele><time>2026-04-05T21:07:27.001Z</time></trkpt><trkpt lat="36.87951012407117" lon="-108.09929195179484"><ele>1884.0</ele><time>2026-04-05T21:07:28.001Z</time></trkpt><trkpt lat="36.87946545571438" lon="-108.09921002033727"><ele>1884.0</ele><time>2026-04-05T21:07:29.001Z</time></trkpt><trkpt lat="36.87933530748066" lon="-108.09916957884352"><ele>1884.0</ele><time>2026-04-05T21:07:31.001Z</time></trkpt><trkpt lat="36.87926475506108" lon="-108.09917811667611"><ele>1885.2</ele><time>2026-04-05T21:07:32.001Z</time></trkpt><trkpt lat="36.87918424249911" lon="-108.09917471344524"><ele>1886.4</ele><time>2026-04-05T21:07:33.001Z</time></trkpt><trkpt lat="36.879084632590505" lon="-108.0991434111758"><ele>1887.6</ele><time>2026-04-05T21:07:34.001Z</time></trkpt><trkpt lat="36.87896718324189" lon="-108.09911705137628"><ele>1888.8</ele><time>2026-04-05T21:07:35.001Z</time></trkpt><trkpt lat="36.87887646489994" lon="-108.09911611263976"><ele>1890.0</ele><time>2026-04-05T21:07:36.001Z</time></trkpt><trkpt lat="36.87881417762517" lon="-108.099103331509"><ele>1890.0</ele><time>2026-04-05T21:07:37.001Z</time></trkpt><trkpt lat="36.87873203936364" lon="-108.0991218544209"><ele>1890.0</ele><time>2026-04-05T21:07:38.001Z</time></trkpt><trkpt lat="36.878655624432284" lon="-108.09917278136032"><ele>1890.0</ele><time>2026-04-05T21:07:39.001Z</time></trkpt><trkpt lat="36.87862574275705" lon="-108.09925764227644"><ele>1890.0</ele><time>2026-04-05T21:07:40.001Z</time></trkpt><trkpt lat="36.878592101254334" lon="-108.09937899844704"><ele>1890.0</ele><time>2026-04-05T21:07:41.001Z</time></trkpt><trkpt lat="36.878541747545206" lon="-108.09952898432229"><ele>1890.0</ele><time>2026-04-05T21:07:42.001Z</time></trkpt><trkpt lat="36.878490146286886" lon="-108.09968148315072"><ele>1890.0</ele><time>2026-04-05T21:07:43.001Z</time></trkpt><trkpt lat="36.87845140089819" lon="-108.09981166595266"><ele>1890.0</ele><time>2026-04-05T21:07:44.001Z</time></trkpt><trkpt lat="36.87842889791366" lon="-108.09989698280216"><ele>1890.0</ele><time>2026-04-05T21:07:45.001Z</time></trkpt><trkpt lat="36.87831944641248" lon="-108.09998052213342"><ele>1890.0</ele><time>2026-04-05T21:07:47.001Z</time></trkpt><trkpt lat="36.878243567698284" lon="-108.10002568398201"><ele>1890.1666666666667</ele><time>2026-04-05T21:07:48.001Z</time></trkpt><trkpt lat="36.87817732440715" lon="-108.10010276751883"><ele>1890.3333333333335</ele><time>2026-04-05T21:07:49.001Z</time></trkpt><trkpt lat="36.8781154791155" lon="-108.10017009306354"><ele>1890.5</ele><time>2026-04-05T21:07:50.001Z</time></trkpt><trkpt lat="36.878041102296656" lon="-108.10019651393792"><ele>1890.6666666666667</ele><time>2026-04-05T21:07:51.001Z</time></trkpt><trkpt lat="36.87795284838263" lon="-108.10019669844087"><ele>1890.8333333333335</ele><time>2026-04-05T21:07:52Z</time></trkpt><trkpt lat="36.87787759110473" lon="-108.10021059402548"><ele>1891.0</ele><time>2026-04-05T21:07:53Z</time></trkpt><trkpt lat="36.8777611615145" lon="-108.10020126466948"><ele>1891.0000000000002</ele><time>2026-04-05T21:07:55Z</time></trkpt><trkpt lat="36.87768753215591" lon="-108.10022884997638"><ele>1891.0</ele><time>2026-04-05T21:07:56Z</time></trkpt><trkpt lat="36.87763333844288" lon="-108.10028983344824"><ele>1891.0</ele><time>2026-04-05T21:07:57Z</time></trkpt><trkpt lat="36.8775855150956" lon="-108.10039271539733"><ele>1891.0</ele><time>2026-04-05T21:07:58Z</time></trkpt><trkpt lat="36.87753120724514" lon="-108.1004985546236"><ele>1891.0000000000002</ele><time>2026-04-05T21:07:59Z</time></trkpt><trkpt lat="36.8774636081678" lon="-108.10057452512244"><ele>1891.0</ele><time>2026-04-05T21:08:00Z</time></trkpt><trkpt lat="36.87740630596391" lon="-108.10064464168954"><ele>1890.3333333333335</ele><time>2026-04-05T21:08:01Z</time></trkpt><trkpt lat="36.87733392851033" lon="-108.10072910198517"><ele>1889.6666666666667</ele><time>2026-04-05T21:08:02.001Z</time></trkpt><trkpt lat="36.87725759100376" lon="-108.10078142539611"><ele>1889.0</ele><time>2026-04-05T21:08:03.001Z</time></trkpt><trkpt lat="36.877181660175935" lon="-108.10082849991583"><ele>1888.3333333333335</ele><time>2026-04-05T21:08:04.001Z</time></trkpt><trkpt lat="36.87710858896294" lon="-108.10083765851944"><ele>1887.6666666666667</ele><time>2026-04-05T21:08:05.001Z</time></trkpt><trkpt lat="36.87703611158678" lon="-108.10082227084051"><ele>1887.0</ele><time>2026-04-05T21:08:06.001Z</time></trkpt><trkpt lat="36.876938458567054" lon="-108.10080557866678"><ele>1887.0</ele><time>2026-04-05T21:08:07.001Z</time></trkpt><trkpt lat="36.87686411810763" lon="-108.10079881391388"><ele>1886.9999999999998</ele><time>2026-04-05T21:08:08.001Z</time></trkpt><trkpt lat="36.876765634941385" lon="-108.10078224409567"><ele>1886.9999999999998</ele><time>2026-04-05T21:08:10.001Z</time></trkpt><trkpt lat="36.87667632120039" lon="-108.100895347703"><ele>1887.0</ele><time>2026-04-05T21:08:12.001Z</time></trkpt><trkpt lat="36.87660275886323" lon="-108.10087955402507"><ele>1887.0</ele><time>2026-04-05T21:08:13.001Z</time></trkpt><trkpt lat="36.87651704159283" lon="-108.10094030575233"><ele>1885.8333333333333</ele><time>2026-04-05T21:08:15.001Z</time></trkpt><trkpt lat="36.87649391911191" lon="-108.1010201387853"><ele>1884.6666666666665</ele><time>2026-04-05T21:08:16.001Z</time></trkpt><trkpt lat="36.87653688840531" lon="-108.10108286203352"><ele>1883.5</ele><time>2026-04-05T21:08:18.001Z</time></trkpt><trkpt lat="36.87643958009219" lon="-108.10109316235004"><ele>1882.3333333333333</ele><time>2026-04-05T21:08:20.001Z</time></trkpt><trkpt lat="36.876517237459296" lon="-108.10103815692969"><ele>1881.1666666666665</ele><time>2026-04-05T21:08:21.001Z</time></trkpt><trkpt lat="36.8765914211394" lon="-108.10108399677544"><ele>1880.0</ele><time>2026-04-05T21:08:22.001Z</time></trkpt><trkpt lat="36.87665766927971" lon="-108.10111458483208"><ele>1880.0</ele><time>2026-04-05T21:08:23.001Z</time></trkpt><trkpt lat="36.87675939064344" lon="-108.10115630907089"><ele>1880.0</ele><time>2026-04-05T21:08:24.001Z</time></trkpt><trkpt lat="36.87684625525423" lon="-108.10122904296075"><ele>1880.0</ele><time>2026-04-05T21:08:25.001Z</time></trkpt><trkpt lat="36.876943257312746" lon="-108.10131008909043"><ele>1880.0</ele><time>2026-04-05T21:08:26.001Z</time></trkpt><trkpt lat="36.87704582777989" lon="-108.10138617882347"><ele>1880.0</ele><time>2026-04-05T21:08:27.001Z</time></trkpt><trkpt lat="36.87713835747981" lon="-108.1014555591626"><ele>1880.5</ele><time>2026-04-05T21:08:28.001Z</time></trkpt><trkpt lat="36.87725151784512" lon="-108.1015694245799"><ele>1881.0</ele><time>2026-04-05T21:08:29.001Z</time></trkpt><trkpt lat="36.87734921067726" lon="-108.10169129143844"><ele>1881.5</ele><time>2026-04-05T21:08:30.001Z</time></trkpt><trkpt lat="36.87744161517664" lon="-108.10181307157697"><ele>1882.0</ele><time>2026-04-05T21:08:31.001Z</time></trkpt><trkpt lat="36.877506203174505" lon="-108.10191888358727"><ele>1882.0</ele><time>2026-04-05T21:08:32.001Z</time></trkpt><trkpt lat="36.877551301287795" lon="-108.1020105525168"><ele>1881.9999999999998</ele><time>2026-04-05T21:08:33.001Z</time></trkpt><trkpt lat="36.87755739319124" lon="-108.10211002555683"><ele>1881.9999999999998</ele><time>2026-04-05T21:08:34.001Z</time></trkpt><trkpt lat="36.877562300629606" lon="-108.1021926010672"><ele>1882.0</ele><time>2026-04-05T21:08:35.001Z</time></trkpt><trkpt lat="36.877622726926376" lon="-108.10227491505628"><ele>1882.0</ele><time>2026-04-05T21:08:37Z</time></trkpt><trkpt lat="36.877717917642286" lon="-108.10242875249035"><ele>1881.6666666666667</ele><time>2026-04-05T21:08:39Z</time></trkpt><trkpt lat="36.877767228958945" lon="-108.10253262905901"><ele>1881.3333333333335</ele><time>2026-04-05T21:08:40Z</time></trkpt><trkpt lat="36.87784244763662" lon="-108.1026237583804"><ele>1881.0</ele><time>2026-04-05T21:08:41Z</time></trkpt><trkpt lat="36.877911460781434" lon="-108.10268988205803"><ele>1880.6666666666665</ele><time>2026-04-05T21:08:42Z</time></trkpt><trkpt lat="36.87797451717133" lon="-108.10272903979845"><ele>1880.3333333333333</ele><time>2026-04-05T21:08:43Z</time></trkpt><trkpt lat="36.87804340019391" lon="-108.10275501956748"><ele>1880.0</ele><time>2026-04-05T21:08:44Z</time></trkpt><trkpt lat="36.87809972022809" lon="-108.10279958410644"><ele>1879.9999999999998</ele><time>2026-04-05T21:08:45Z</time></trkpt><trkpt lat="36.878063956752314" lon="-108.10287824453513"><ele>1880.0</ele><time>2026-04-05T21:08:47Z</time></trkpt><trkpt lat="36.87799934264375" lon="-108.10292581368964"><ele>1880.0</ele><time>2026-04-05T21:08:48Z</time></trkpt><trkpt lat="36.87792479499266" lon="-108.10298821976922"><ele>1880.0</ele><time>2026-04-05T21:08:49Z</time></trkpt><trkpt lat="36.877842855180646" lon="-108.10305812381088"><ele>1879.9999999999998</ele><time>2026-04-05T21:08:50Z</time></trkpt><trkpt lat="36.877760742145234" lon="-108.1031229738333"><ele>1880.0</ele><time>2026-04-05T21:08:51Z</time></trkpt><trkpt lat="36.87767312892265" lon="-108.10319021548115"><ele>1878.4999999999998</ele><time>2026-04-05T21:08:52Z</time></trkpt><trkpt lat="36.877588218553015" lon="-108.10326200645767"><ele>1877.0</ele><time>2026-04-05T21:08:53Z</time></trkpt><trkpt lat="36.87751738169126" lon="-108.10332647663769"><ele>1875.5</ele><time>2026-04-05T21:08:54Z</time></trkpt><trkpt lat="36.87749504616672" lon="-108.10345336209542"><ele>1874.0</ele><time>2026-04-05T21:08:55Z</time></trkpt><trkpt lat="36.87743247313977" lon="-108.10350856353071"><ele>1872.4999999999998</ele><time>2026-04-05T21:08:56Z</time></trkpt><trkpt lat="36.877375572769154" lon="-108.10355874846317"><ele>1871.0</ele><time>2026-04-05T21:08:57Z</time></trkpt><trkpt lat="36.877311112022895" lon="-108.10361560147878"><ele>1870.9999999999998</ele><time>2026-04-05T21:08:58Z</time></trkpt><trkpt lat="36.87722914067054" lon="-108.10368789848606"><ele>1871.0</ele><time>2026-04-05T21:08:59Z</time></trkpt><trkpt lat="36.87716149485542" lon="-108.10374756067668"><ele>1871.0</ele><time>2026-04-05T21:09:00Z</time></trkpt><trkpt lat="36.87710678834369" lon="-108.10379581065628"><ele>1871.0</ele><time>2026-04-05T21:09:01Z</time></trkpt><trkpt lat="36.87704098599878" lon="-108.10385384694864"><ele>1870.9999999999998</ele><time>2026-04-05T21:09:03Z</time></trkpt><trkpt lat="36.87695521980028" lon="-108.1039294909261"><ele>1871.0</ele><time>2026-04-05T21:09:06Z</time></trkpt><trkpt lat="36.87688175200651" lon="-108.10399428798692"><ele>1871.0</ele><time>2026-04-05T21:09:08Z</time></trkpt><trkpt lat="36.87679934672545" lon="-108.10404891859288"><ele>1871.0</ele><time>2026-04-05T21:09:10Z</time></trkpt><trkpt lat="36.876727102278565" lon="-108.10412382189845"><ele>1871.0</ele><time>2026-04-05T21:09:14Z</time></trkpt><trkpt lat="36.87655662329696" lon="-108.1038708787641"><ele>1870.1999999999998</ele><time>2026-04-05T21:09:15Z</time></trkpt><trkpt lat="36.876477739417275" lon="-108.10377391604587"><ele>1869.3999999999999</ele><time>2026-04-05T21:09:16Z</time></trkpt><trkpt lat="36.87641963715446" lon="-108.10367185837953"><ele>1868.6</ele><time>2026-04-05T21:09:17Z</time></trkpt><trkpt lat="36.876371177386574" lon="-108.1035610188634"><ele>1867.8</ele><time>2026-04-05T21:09:18Z</time></trkpt><trkpt lat="36.876311376803415" lon="-108.10343713661966"><ele>1867.0</ele><time>2026-04-05T21:09:19Z</time></trkpt><trkpt lat="36.876279030910176" lon="-108.10333350336248"><ele>1868.0</ele><time>2026-04-05T21:09:20Z</time></trkpt><trkpt lat="36.876253404940236" lon="-108.10322043695648"><ele>1868.9999999999998</ele><time>2026-04-05T21:09:21Z</time></trkpt><trkpt lat="36.876208025469865" lon="-108.10311630781206"><ele>1869.9999999999998</ele><time>2026-04-05T21:09:22Z</time></trkpt><trkpt lat="36.876161625405885" lon="-108.10301627878424"><ele>1871.0</ele><time>2026-04-05T21:09:23Z</time></trkpt><trkpt lat="36.87610531713253" lon="-108.10292534563176"><ele>1872.0</ele><time>2026-04-05T21:09:24Z</time></trkpt><trkpt lat="36.876046414520424" lon="-108.10283411229507"><ele>1872.0</ele><time>2026-04-05T21:09:25Z</time></trkpt><trkpt lat="36.87599058340151" lon="-108.10273603415018"><ele>1872.0</ele><time>2026-04-05T21:09:26Z</time></trkpt><trkpt lat="36.875946020518754" lon="-108.10265736082192"><ele>1872.0</ele><time>2026-04-05T21:09:27Z</time></trkpt><trkpt lat="36.87589808648306" lon="-108.10259715479273"><ele>1872.0</ele><time>2026-04-05T21:09:28Z</time></trkpt><trkpt lat="36.87582840502742" lon="-108.10255926723347"><ele>1872.0</ele><time>2026-04-05T21:09:29Z</time></trkpt><trkpt lat="36.87575089473251" lon="-108.10258427136743"><ele>1872.0</ele><time>2026-04-05T21:09:30Z</time></trkpt><trkpt lat="36.87567397022409" lon="-108.10260168177554"><ele>1871.5</ele><time>2026-04-05T21:09:31Z</time></trkpt><trkpt lat="36.875614182240774" lon="-108.10262979504829"><ele>1871.0</ele><time>2026-04-05T21:09:32Z</time></trkpt><trkpt lat="36.87556387294974" lon="-108.10267855648073"><ele>1870.5</ele><time>2026-04-05T21:09:33Z</time></trkpt><trkpt lat="36.87549582851122" lon="-108.10271909597148"><ele>1870.0</ele><time>2026-04-05T21:09:34Z</time></trkpt><trkpt lat="36.875407462745876" lon="-108.10277117601342"><ele>1869.5</ele><time>2026-04-05T21:09:35Z</time></trkpt><trkpt lat="36.87529900156837" lon="-108.1027845383353"><ele>1869.0</ele><time>2026-04-05T21:09:36Z</time></trkpt><trkpt lat="36.8751801652238" lon="-108.10280128181027"><ele>1869.8333333333333</ele><time>2026-04-05T21:09:37Z</time></trkpt><trkpt lat="36.87508419842797" lon="-108.10279948224132"><ele>1870.6666666666665</ele><time>2026-04-05T21:09:38Z</time></trkpt><trkpt lat="36.875006831226486" lon="-108.10276210001857"><ele>1871.5</ele><time>2026-04-05T21:09:39Z</time></trkpt><trkpt lat="36.874934432649766" lon="-108.10272543297731"><ele>1872.3333333333333</ele><time>2026-04-05T21:09:40Z</time></trkpt><trkpt lat="36.874871119967196" lon="-108.10272599004888"><ele>1873.1666666666665</ele><time>2026-04-05T21:09:41Z</time></trkpt><trkpt lat="36.87481270144384" lon="-108.10278786079145"><ele>1874.0</ele><time>2026-04-05T21:09:42Z</time></trkpt><trkpt lat="36.874758831265034" lon="-108.10284234710049"><ele>1874.0</ele><time>2026-04-05T21:09:43Z</time></trkpt><trkpt lat="36.87470532399784" lon="-108.10289505934722"><ele>1874.0</ele><time>2026-04-05T21:09:44Z</time></trkpt><trkpt lat="36.8746636055604" lon="-108.10299489348905"><ele>1874.0</ele><time>2026-04-05T21:09:45Z</time></trkpt><trkpt lat="36.87464374384226" lon="-108.10312239446327"><ele>1874.0</ele><time>2026-04-05T21:09:46Z</time></trkpt><trkpt lat="36.87459034572159" lon="-108.10319239744975"><ele>1874.0</ele><time>2026-04-05T21:09:48Z</time></trkpt><trkpt lat="36.874485037538165" lon="-108.10326004480466"><ele>1874.0</ele><time>2026-04-05T21:09:50Z</time></trkpt><trkpt lat="36.8744411952892" lon="-108.10338939353944"><ele>1874.0</ele><time>2026-04-05T21:09:51Z</time></trkpt><trkpt lat="36.87438243012323" lon="-108.10345096791659"><ele>1874.0</ele><time>2026-04-05T21:09:52Z</time></trkpt><trkpt lat="36.87430070268558" lon="-108.10348237207336"><ele>1874.0</ele><time>2026-04-05T21:09:53Z</time></trkpt><trkpt lat="36.874199492135695" lon="-108.1035381746198"><ele>1874.0</ele><time>2026-04-05T21:09:54Z</time></trkpt><trkpt lat="36.87413024113024" lon="-108.10360250301007"><ele>1875.5</ele><time>2026-04-05T21:09:55Z</time></trkpt><trkpt lat="36.87399971358874" lon="-108.1037261209084"><ele>1877.0</ele><time>2026-04-05T21:09:57Z</time></trkpt><trkpt lat="36.87390725015615" lon="-108.10378732674732"><ele>1878.5</ele><time>2026-04-05T21:09:58Z</time></trkpt><trkpt lat="36.873796786959566" lon="-108.10389104364081"><ele>1880.0</ele><time>2026-04-05T21:09:59Z</time></trkpt><trkpt lat="36.873721454337804" lon="-108.10398185241593"><ele>1879.9999999999998</ele><time>2026-04-05T21:10:00Z</time></trkpt><trkpt lat="36.87366256372613" lon="-108.10406814454753"><ele>1880.0</ele><time>2026-04-05T21:10:01Z</time></trkpt><trkpt lat="36.87358819194704" lon="-108.10410688155554"><ele>1880.0</ele><time>2026-04-05T21:10:02Z</time></trkpt><trkpt lat="36.87352288259265" lon="-108.10411905817597"><ele>1880.0</ele><time>2026-04-05T21:10:03Z</time></trkpt><trkpt lat="36.87349230397163" lon="-108.10404969230471"><ele>1879.9999999999998</ele><time>2026-04-05T21:10:06Z</time></trkpt><trkpt lat="36.873496739019956" lon="-108.10396170849998"><ele>1880.0</ele><time>2026-04-05T21:10:07Z</time></trkpt><trkpt lat="36.87351548820265" lon="-108.10386466483817"><ele>1880.0</ele><time>2026-04-05T21:10:08.001Z</time></trkpt><trkpt lat="36.87350859165201" lon="-108.1037565728049"><ele>1880.0</ele><time>2026-04-05T21:10:10.001Z</time></trkpt><trkpt lat="36.87357545476552" lon="-108.10360669413518"><ele>1880.0</ele><time>2026-04-05T21:10:12.001Z</time></trkpt><trkpt lat="36.87355918878851" lon="-108.10351726368737"><ele>1880.0</ele><time>2026-04-05T21:10:13.001Z</time></trkpt><trkpt lat="36.8734916978577" lon="-108.10348648751189"><ele>1880.0</ele><time>2026-04-05T21:10:31Z</time></trkpt><trkpt lat="36.87353671519956" lon="-108.10338599125457"><ele>1880.1666666666665</ele><time>2026-04-05T21:10:36Z</time></trkpt><trkpt lat="36.87355967196341" lon="-108.10322489437043"><ele>1880.3333333333333</ele><time>2026-04-05T21:10:38Z</time></trkpt><trkpt lat="36.87357452380308" lon="-108.10313910280382"><ele>1880.5</ele><time>2026-04-05T21:10:40Z</time></trkpt><trkpt lat="36.87362186130852" lon="-108.1030552953196"><ele>1880.6666666666665</ele><time>2026-04-05T21:10:42Z</time></trkpt><trkpt lat="36.87362739958535" lon="-108.10294873415151"><ele>1880.8333333333333</ele><time>2026-04-05T21:10:45Z</time></trkpt><trkpt lat="36.87370571224793" lon="-108.10292900626777"><ele>1881.0</ele><time>2026-04-05T21:10:48Z</time></trkpt><trkpt lat="36.873786830362626" lon="-108.10287279020474"><ele>1881.0</ele><time>2026-04-05T21:10:50Z</time></trkpt><trkpt lat="36.87381706127896" lon="-108.10277310048197"><ele>1881.0</ele><time>2026-04-05T21:10:52Z</time></trkpt><trkpt lat="36.87379059090891" lon="-108.10265638032054"><ele>1881.0</ele><time>2026-04-05T21:10:55Z</time></trkpt><trkpt lat="36.873706557077" lon="-108.10260106355227"><ele>1881.0</ele><time>2026-04-05T21:10:56Z</time></trkpt><trkpt lat="36.87369283735435" lon="-108.10252230066327"><ele>1881.0</ele><time>2026-04-05T21:10:57Z</time></trkpt><trkpt lat="36.87365061102311" lon="-108.10243698858682"><ele>1881.0</ele><time>2026-04-05T21:10:59Z</time></trkpt><trkpt lat="36.873570467964605" lon="-108.102413529712"><ele>1881.0</ele><time>2026-04-05T21:11:00Z</time></trkpt><trkpt lat="36.87349098209055" lon="-108.1023268702005"><ele>1881.0</ele><time>2026-04-05T21:11:01Z</time></trkpt><trkpt lat="36.87343193079611" lon="-108.10223706247588"><ele>1881.0</ele><time>2026-04-05T21:11:02Z</time></trkpt><trkpt lat="36.87335139890773" lon="-108.102171172417"><ele>1881.0</ele><time>2026-04-05T21:11:03Z</time></trkpt><trkpt lat="36.87325217942046" lon="-108.10211164948934"><ele>1881.0</ele><time>2026-04-05T21:11:04Z</time></trkpt><trkpt lat="36.87314742681687" lon="-108.10204572350072"><ele>1882.0</ele><time>2026-04-05T21:11:05Z</time></trkpt><trkpt lat="36.873066485018605" lon="-108.10198928363788"><ele>1883.0</ele><time>2026-04-05T21:11:06Z</time></trkpt><trkpt lat="36.873002486918594" lon="-108.10193319561438"><ele>1884.0</ele><time>2026-04-05T21:11:07Z</time></trkpt><trkpt lat="36.87295007976775" lon="-108.1018892267763"><ele>1885.0</ele><time>2026-04-05T21:11:08Z</time></trkpt><trkpt lat="36.872891351576975" lon="-108.10175598028637"><ele>1886.0</ele><time>2026-04-05T21:11:10Z</time></trkpt><trkpt lat="36.87289957155561" lon="-108.10166184838633"><ele>1887.0</ele><time>2026-04-05T21:11:13Z</time></trkpt><trkpt lat="36.8728915730354" lon="-108.10148010094748"><ele>1887.0</ele><time>2026-04-05T21:11:15Z</time></trkpt><trkpt lat="36.87284471490028" lon="-108.10133751270146"><ele>1886.9999999999998</ele><time>2026-04-05T21:11:16Z</time></trkpt><trkpt lat="36.87280609989948" lon="-108.10121115452822"><ele>1886.9999999999998</ele><time>2026-04-05T21:11:17Z</time></trkpt><trkpt lat="36.87278144366674" lon="-108.10110554164756"><ele>1887.0</ele><time>2026-04-05T21:11:18Z</time></trkpt><trkpt lat="36.87276271971745" lon="-108.10100326102987"><ele>1887.0</ele><time>2026-04-05T21:11:19Z</time></trkpt><trkpt lat="36.87273821248522" lon="-108.10091942286486"><ele>1887.0</ele><time>2026-04-05T21:11:20Z</time></trkpt><trkpt lat="36.872730037758565" lon="-108.10083268451407"><ele>1886.9999999999998</ele><time>2026-04-05T21:11:21Z</time></trkpt><trkpt lat="36.87269253278415" lon="-108.10073919372309"><ele>1886.9999999999998</ele><time>2026-04-05T21:11:22Z</time></trkpt><trkpt lat="36.872640291166746" lon="-108.10064407235808"><ele>1887.0</ele><time>2026-04-05T21:11:23Z</time></trkpt><trkpt lat="36.872572641224" lon="-108.1005550530249"><ele>1887.0</ele><time>2026-04-05T21:11:24Z</time></trkpt><trkpt lat="36.87253472427494" lon="-108.10042428542077"><ele>1888.0</ele><time>2026-04-05T21:11:25Z</time></trkpt><trkpt lat="36.87249637900551" lon="-108.1002725396491"><ele>1888.9999999999998</ele><time>2026-04-05T21:11:26Z</time></trkpt><trkpt lat="36.87244859277841" lon="-108.10011591425072"><ele>1889.9999999999998</ele><time>2026-04-05T21:11:27Z</time></trkpt><trkpt lat="36.87239762802912" lon="-108.10002288026381"><ele>1891.0</ele><time>2026-04-05T21:11:28Z</time></trkpt><trkpt lat="36.87232642173466" lon="-108.0999943070548"><ele>1892.0</ele><time>2026-04-05T21:11:29Z</time></trkpt><trkpt lat="36.87221981957405" lon="-108.09996656352271"><ele>1892.0</ele><time>2026-04-05T21:11:30Z</time></trkpt><trkpt lat="36.87211394615394" lon="-108.09995760143242"><ele>1891.9999999999998</ele><time>2026-04-05T21:11:31Z</time></trkpt><trkpt lat="36.87202908842352" lon="-108.09983020783758"><ele>1891.9999999999998</ele><time>2026-04-05T21:11:33Z</time></trkpt><trkpt lat="36.87196887585866" lon="-108.09972743312733"><ele>1892.0</ele><time>2026-04-05T21:11:34Z</time></trkpt><trkpt lat="36.87190791521005" lon="-108.0996557852011"><ele>1892.0</ele><time>2026-04-05T21:11:35Z</time></trkpt><trkpt lat="36.871846733201025" lon="-108.09952341952057"><ele>1892.0</ele><time>2026-04-05T21:11:37Z</time></trkpt><trkpt lat="36.871817974621116" lon="-108.09937317212119"><ele>1892.0</ele><time>2026-04-05T21:11:38Z</time></trkpt><trkpt lat="36.87172656013445" lon="-108.09923729681505"><ele>1892.0</ele><time>2026-04-05T21:11:39Z</time></trkpt><trkpt lat="36.87163644375459" lon="-108.09918031277228"><ele>1892.0</ele><time>2026-04-05T21:11:40Z</time></trkpt><trkpt lat="36.87154564769604" lon="-108.09912027357619"><ele>1893.1999999999998</ele><time>2026-04-05T21:11:41Z</time></trkpt><trkpt lat="36.87146604734831" lon="-108.0990251410981"><ele>1894.3999999999999</ele><time>2026-04-05T21:11:41.999Z</time></trkpt><trkpt lat="36.87140191732347" lon="-108.0989290858562"><ele>1895.6000000000001</ele><time>2026-04-05T21:11:42.999Z</time></trkpt><trkpt lat="36.87137958608371" lon="-108.09883291198894"><ele>1896.8000000000002</ele><time>2026-04-05T21:11:43.999Z</time></trkpt><trkpt lat="36.87135999863725" lon="-108.0987112002673"><ele>1898.0</ele><time>2026-04-05T21:11:44.999Z</time></trkpt><trkpt lat="36.871333732323166" lon="-108.09856106738914"><ele>1898.0</ele><time>2026-04-05T21:11:45.999Z</time></trkpt><trkpt lat="36.871316795287576" lon="-108.09841585147795"><ele>1898.0000000000002</ele><time>2026-04-05T21:11:46.999Z</time></trkpt><trkpt lat="36.87131180948116" lon="-108.09833200427617"><ele>1898.0000000000002</ele><time>2026-04-05T21:11:47.999Z</time></trkpt><trkpt lat="36.87128216912059" lon="-108.09825311889684"><ele>1898.0</ele><time>2026-04-05T21:11:48.999Z</time></trkpt><trkpt lat="36.87120515872732" lon="-108.09819007174283"><ele>1898.0</ele><time>2026-04-05T21:11:49.999Z</time></trkpt><trkpt lat="36.87111148704938" lon="-108.0981040856374"><ele>1898.0</ele><time>2026-04-05T21:11:50.999Z</time></trkpt><trkpt lat="36.87102258730838" lon="-108.09800835570144"><ele>1898.0000000000002</ele><time>2026-04-05T21:11:51.999Z</time></trkpt><trkpt lat="36.87093762782414" lon="-108.09790313736625"><ele>1898.0000000000002</ele><time>2026-04-05T21:11:52.999Z</time></trkpt><trkpt lat="36.87085923697292" lon="-108.09780703070108"><ele>1898.0</ele><time>2026-04-05T21:11:53.999Z</time></trkpt><trkpt lat="36.87079399383053" lon="-108.09772612129919"><ele>1898.0</ele><time>2026-04-05T21:11:54.999Z</time></trkpt><trkpt lat="36.870711392523894" lon="-108.0976401311838"><ele>1899.0</ele><time>2026-04-05T21:11:55.999Z</time></trkpt><trkpt lat="36.870631626110594" lon="-108.09754047063173"><ele>1900.0000000000002</ele><time>2026-04-05T21:11:56.999Z</time></trkpt><trkpt lat="36.87052498158395" lon="-108.09745732774446"><ele>1901.0000000000002</ele><time>2026-04-05T21:11:57.999Z</time></trkpt><trkpt lat="36.87041766869428" lon="-108.09737188045113"><ele>1902.0</ele><time>2026-04-05T21:11:58.999Z</time></trkpt><trkpt lat="36.870349801157396" lon="-108.09732243522767"><ele>1903.0</ele><time>2026-04-05T21:11:59.999Z</time></trkpt><trkpt lat="36.87025866737301" lon="-108.09722909160456"><ele>1903.1666666666667</ele><time>2026-04-05T21:12:01.999Z</time></trkpt><trkpt lat="36.870242390222735" lon="-108.09714323931095"><ele>1903.3333333333335</ele><time>2026-04-05T21:12:02.999Z</time></trkpt><trkpt lat="36.87015501002634" lon="-108.09710265276924"><ele>1903.5</ele><time>2026-04-05T21:12:04.999Z</time></trkpt><trkpt lat="36.870074066949186" lon="-108.09711580640938"><ele>1903.6666666666665</ele><time>2026-04-05T21:12:05.999Z</time></trkpt><trkpt lat="36.87001311852619" lon="-108.09706785183654"><ele>1903.8333333333333</ele><time>2026-04-05T21:12:06.999Z</time></trkpt><trkpt lat="36.86995286091732" lon="-108.09702335243976"><ele>1904.0</ele><time>2026-04-05T21:12:07.999Z</time></trkpt><trkpt lat="36.86988713968279" lon="-108.09701884246954"><ele>1904.4</ele><time>2026-04-05T21:12:08.999Z</time></trkpt><trkpt lat="36.86980221314612" lon="-108.09700585387212"><ele>1904.8000000000002</ele><time>2026-04-05T21:12:09.999Z</time></trkpt><trkpt lat="36.869708702598196" lon="-108.09698164627751"><ele>1905.1999999999998</ele><time>2026-04-05T21:12:10.999Z</time></trkpt><trkpt lat="36.86960411545671" lon="-108.09692481722014"><ele>1905.6</ele><time>2026-04-05T21:12:11.999Z</time></trkpt><trkpt lat="36.869509219046634" lon="-108.09682681072077"><ele>1906.0</ele><time>2026-04-05T21:12:12.999Z</time></trkpt><trkpt lat="36.869386092443655" lon="-108.09674670143082"><ele>1906.0</ele><time>2026-04-05T21:12:14Z</time></trkpt><trkpt lat="36.86928549477473" lon="-108.09670716186541"><ele>1906.0</ele><time>2026-04-05T21:12:15Z</time></trkpt><trkpt lat="36.86919227084498" lon="-108.09669147572568"><ele>1906.0</ele><time>2026-04-05T21:12:16Z</time></trkpt><trkpt lat="36.86910606471525" lon="-108.09669959884951"><ele>1906.0</ele><time>2026-04-05T21:12:17Z</time></trkpt><trkpt lat="36.86901699141312" lon="-108.09673815531521"><ele>1906.0</ele><time>2026-04-05T21:12:18Z</time></trkpt><trkpt lat="36.86893026502011" lon="-108.09680812647974"><ele>1906.6</ele><time>2026-04-05T21:12:19Z</time></trkpt><trkpt lat="36.86886495025557" lon="-108.09687488392872"><ele>1907.1999999999998</ele><time>2026-04-05T21:12:20Z</time></trkpt><trkpt lat="36.86880492604006" lon="-108.09690125714435"><ele>1907.8000000000002</ele><time>2026-04-05T21:12:21Z</time></trkpt><trkpt lat="36.868679230858035" lon="-108.09686343648077"><ele>1908.4</ele><time>2026-04-05T21:12:23Z</time></trkpt><trkpt lat="36.868608227551874" lon="-108.09680336128622"><ele>1909.0</ele><time>2026-04-05T21:12:24Z</time></trkpt><trkpt lat="36.86853135063189" lon="-108.09670358846365"><ele>1908.25</ele><time>2026-04-05T21:12:25Z</time></trkpt><trkpt lat="36.86845205658881" lon="-108.09658542306927"><ele>1907.5</ele><time>2026-04-05T21:12:26Z</time></trkpt><trkpt lat="36.86837086510953" lon="-108.09647031990842"><ele>1906.75</ele><time>2026-04-05T21:12:27Z</time></trkpt><trkpt lat="36.86828997380285" lon="-108.09638409660684"><ele>1906.0</ele><time>2026-04-05T21:12:28Z</time></trkpt><trkpt lat="36.868194543436346" lon="-108.09631897515301"><ele>1905.0</ele><time>2026-04-05T21:12:29Z</time></trkpt><trkpt lat="36.8681078878473" lon="-108.09624175902104"><ele>1904.0</ele><time>2026-04-05T21:12:30Z</time></trkpt><trkpt lat="36.868029736406896" lon="-108.09615476348809"><ele>1903.0</ele><time>2026-04-05T21:12:31Z</time></trkpt><trkpt lat="36.86796746794289" lon="-108.0960675509559"><ele>1902.0</ele><time>2026-04-05T21:12:32Z</time></trkpt><trkpt lat="36.86790737944425" lon="-108.09596049204805"><ele>1901.0</ele><time>2026-04-05T21:12:33Z</time></trkpt><trkpt lat="36.86784289679153" lon="-108.09585499094177"><ele>1901.0</ele><time>2026-04-05T21:12:34Z</time></trkpt><trkpt lat="36.86777107104374" lon="-108.09576055737689"><ele>1901.0</ele><time>2026-04-05T21:12:35Z</time></trkpt><trkpt lat="36.867707256140285" lon="-108.09566334026022"><ele>1901.0</ele><time>2026-04-05T21:12:36Z</time></trkpt><trkpt lat="36.86764328405061" lon="-108.09557484230255"><ele>1901.0</ele><time>2026-04-05T21:12:37Z</time></trkpt><trkpt lat="36.86757647781008" lon="-108.09548871248599"><ele>1901.0</ele><time>2026-04-05T21:12:38Z</time></trkpt><trkpt lat="36.867501347651704" lon="-108.09539442463729"><ele>1899.6</ele><time>2026-04-05T21:12:39Z</time></trkpt><trkpt lat="36.8674299549058" lon="-108.09530894983098"><ele>1898.1999999999998</ele><time>2026-04-05T21:12:40Z</time></trkpt><trkpt lat="36.867359776225925" lon="-108.09526568885374"><ele>1896.8000000000002</ele><time>2026-04-05T21:12:41Z</time></trkpt><trkpt lat="36.86727727180413" lon="-108.09523894802825"><ele>1895.4</ele><time>2026-04-05T21:12:42Z</time></trkpt><trkpt lat="36.86717994855478" lon="-108.09522073960224"><ele>1894.0</ele><time>2026-04-05T21:12:43Z</time></trkpt><trkpt lat="36.86708517950147" lon="-108.09520276787256"><ele>1894.0</ele><time>2026-04-05T21:12:44Z</time></trkpt><trkpt lat="36.867003821870334" lon="-108.0951594291997"><ele>1894.0</ele><time>2026-04-05T21:12:45Z</time></trkpt><trkpt lat="36.866950395601165" lon="-108.09509234513257"><ele>1894.0</ele><time>2026-04-05T21:12:46Z</time></trkpt><trkpt lat="36.8669023483192" lon="-108.0949919075308"><ele>1894.0</ele><time>2026-04-05T21:12:47Z</time></trkpt><trkpt lat="36.86685213456012" lon="-108.09487410915288"><ele>1894.0</ele><time>2026-04-05T21:12:48Z</time></trkpt><trkpt lat="36.86680558003103" lon="-108.09475178525345"><ele>1893.0</ele><time>2026-04-05T21:12:49Z</time></trkpt><trkpt lat="36.86677141573288" lon="-108.09465480466524"><ele>1892.0</ele><time>2026-04-05T21:12:50Z</time></trkpt><trkpt lat="36.86672942457817" lon="-108.09456252146346"><ele>1891.0</ele><time>2026-04-05T21:12:52Z</time></trkpt><trkpt lat="36.86657141244519" lon="-108.09459904736482"><ele>1890.0</ele><time>2026-04-05T21:12:54Z</time></trkpt><trkpt lat="36.86646913025927" lon="-108.0946175325688"><ele>1889.0</ele><time>2026-04-05T21:12:55Z</time></trkpt><trkpt lat="36.8663983082305" lon="-108.09459452646229"><ele>1888.9999999999998</ele><time>2026-04-05T21:12:56Z</time></trkpt><trkpt lat="36.866328045440234" lon="-108.09459652200906"><ele>1889.0</ele><time>2026-04-05T21:12:57Z</time></trkpt><trkpt lat="36.86625725311821" lon="-108.09460122147834"><ele>1889.0</ele><time>2026-04-05T21:12:58Z</time></trkpt><trkpt lat="36.86617696258273" lon="-108.09458855333396"><ele>1889.0</ele><time>2026-04-05T21:12:59Z</time></trkpt><trkpt lat="36.86608764181307" lon="-108.09452240399357"><ele>1888.9999999999998</ele><time>2026-04-05T21:13:00Z</time></trkpt><trkpt lat="36.865980865609714" lon="-108.09448035267498"><ele>1889.0</ele><time>2026-04-05T21:13:01Z</time></trkpt><trkpt lat="36.86591042756837" lon="-108.09446995221012"><ele>1888.2</ele><time>2026-04-05T21:13:02Z</time></trkpt><trkpt lat="36.86582335648498" lon="-108.09449106835626"><ele>1887.4</ele><time>2026-04-05T21:13:03Z</time></trkpt><trkpt lat="36.86570546698091" lon="-108.09451253312054"><ele>1886.6</ele><time>2026-04-05T21:13:04Z</time></trkpt><trkpt lat="36.865593916332195" lon="-108.09452204808575"><ele>1885.8</ele><time>2026-04-05T21:13:05Z</time></trkpt><trkpt lat="36.86550888410441" lon="-108.09452377514465"><ele>1885.0</ele><time>2026-04-05T21:13:06Z</time></trkpt><trkpt lat="36.86541734088388" lon="-108.09453136806778"><ele>1885.0</ele><time>2026-04-05T21:13:07Z</time></trkpt><trkpt lat="36.86534057530985" lon="-108.09455251155256"><ele>1885.0</ele><time>2026-04-05T21:13:08Z</time></trkpt><trkpt lat="36.86527799185505" lon="-108.09458806525522"><ele>1885.0</ele><time>2026-04-05T21:13:09Z</time></trkpt><trkpt lat="36.86518367144103" lon="-108.09466253299493"><ele>1885.0</ele><time>2026-04-05T21:13:11Z</time></trkpt><trkpt lat="36.86506198387976" lon="-108.09470260477306"><ele>1885.0</ele><time>2026-04-05T21:13:13Z</time></trkpt><trkpt lat="36.864973931306714" lon="-108.09471740443284"><ele>1883.8</ele><time>2026-04-05T21:13:14Z</time></trkpt><trkpt lat="36.864888527762126" lon="-108.09474142261479"><ele>1882.6</ele><time>2026-04-05T21:13:15Z</time></trkpt><trkpt lat="36.86477856177247" lon="-108.0947471774594"><ele>1881.4</ele><time>2026-04-05T21:13:17Z</time></trkpt><trkpt lat="36.86471762743449" lon="-108.09468043090318"><ele>1880.2</ele><time>2026-04-05T21:13:18Z</time></trkpt><trkpt lat="36.86464461944386" lon="-108.09456741596037"><ele>1879.0</ele><time>2026-04-05T21:13:19Z</time></trkpt><trkpt lat="36.86457882588956" lon="-108.09447556685492"><ele>1879.0000000000002</ele><time>2026-04-05T21:13:20Z</time></trkpt><trkpt lat="36.86450174585798" lon="-108.0943904084246"><ele>1879.0</ele><time>2026-04-05T21:13:21Z</time></trkpt><trkpt lat="36.86444138218086" lon="-108.09432087559627"><ele>1879.0</ele><time>2026-04-05T21:13:22Z</time></trkpt><trkpt lat="36.86437864993504" lon="-108.0942990468347"><ele>1879.0</ele><time>2026-04-05T21:13:23Z</time></trkpt><trkpt lat="36.86428165797794" lon="-108.09430963930035"><ele>1879.0000000000002</ele><time>2026-04-05T21:13:24Z</time></trkpt><trkpt lat="36.86419580554591" lon="-108.09433982100684"><ele>1879.0</ele><time>2026-04-05T21:13:25Z</time></trkpt><trkpt lat="36.864081288396655" lon="-108.0943839058642"><ele>1878.6</ele><time>2026-04-05T21:13:27Z</time></trkpt><trkpt lat="36.864022455507374" lon="-108.09445056922095"><ele>1878.2</ele><time>2026-04-05T21:13:28Z</time></trkpt><trkpt lat="36.86397012017272" lon="-108.09452220574356"><ele>1877.7999999999997</ele><time>2026-04-05T21:13:29Z</time></trkpt><trkpt lat="36.86390103394146" lon="-108.09466991830315"><ele>1877.3999999999999</ele><time>2026-04-05T21:13:31Z</time></trkpt><trkpt lat="36.86384867746356" lon="-108.09476419627438"><ele>1877.0</ele><time>2026-04-05T21:13:32Z</time></trkpt><trkpt lat="36.86378844196548" lon="-108.09479158481452"><ele>1876.9999999999998</ele><time>2026-04-05T21:13:33Z</time></trkpt><trkpt lat="36.8637065775725" lon="-108.09481953248091"><ele>1877.0</ele><time>2026-04-05T21:13:35Z</time></trkpt><trkpt lat="36.863610706173" lon="-108.09484763642153"><ele>1877.0</ele><time>2026-04-05T21:13:37Z</time></trkpt><trkpt lat="36.86354802478748" lon="-108.0948297773061"><ele>1877.0</ele><time>2026-04-05T21:13:38Z</time></trkpt><trkpt lat="36.86347153419143" lon="-108.09480618502246"><ele>1876.9999999999998</ele><time>2026-04-05T21:13:39Z</time></trkpt><trkpt lat="36.863392713076976" lon="-108.09477718896889"><ele>1877.0</ele><time>2026-04-05T21:13:40Z</time></trkpt><trkpt lat="36.863332495482" lon="-108.09474027666364"><ele>1876.8333333333333</ele><time>2026-04-05T21:13:41Z</time></trkpt><trkpt lat="36.86323373402789" lon="-108.09477599159729"><ele>1876.6666666666665</ele><time>2026-04-05T21:13:43Z</time></trkpt><trkpt lat="36.86315921009318" lon="-108.09482054508037"><ele>1876.5</ele><time>2026-04-05T21:13:44Z</time></trkpt><trkpt lat="36.863097808476304" lon="-108.09484452807258"><ele>1876.3333333333335</ele><time>2026-04-05T21:13:45Z</time></trkpt><trkpt lat="36.86301075000245" lon="-108.09482891711114"><ele>1876.1666666666667</ele><time>2026-04-05T21:13:47Z</time></trkpt><trkpt lat="36.86294702220072" lon="-108.09481398931733"><ele>1876.0</ele><time>2026-04-05T21:13:48Z</time></trkpt><trkpt lat="36.862881405444426" lon="-108.09482854290475"><ele>1876.5</ele><time>2026-04-05T21:13:49Z</time></trkpt><trkpt lat="36.862768920970986" lon="-108.09492933457892"><ele>1877.0</ele><time>2026-04-05T21:13:51Z</time></trkpt><trkpt lat="36.86272468115229" lon="-108.09500889705838"><ele>1877.5</ele><time>2026-04-05T21:13:52Z</time></trkpt><trkpt lat="36.862635798356145" lon="-108.09510288116653"><ele>1878.0</ele><time>2026-04-05T21:13:54Z</time></trkpt><trkpt lat="36.862556095776945" lon="-108.09522658823762"><ele>1878.0</ele><time>2026-04-05T21:13:56Z</time></trkpt><trkpt lat="36.862506903381224" lon="-108.09529105053616"><ele>1878.0000000000002</ele><time>2026-04-05T21:13:57Z</time></trkpt><trkpt lat="36.86241713506871" lon="-108.0953361784253"><ele>1878.0000000000002</ele><time>2026-04-05T21:13:58Z</time></trkpt><trkpt lat="36.86233416134486" lon="-108.09537461531804"><ele>1878.0</ele><time>2026-04-05T21:13:59Z</time></trkpt><trkpt lat="36.86223859862185" lon="-108.09539451555462"><ele>1878.0</ele><time>2026-04-05T21:14:00Z</time></trkpt><trkpt lat="36.8621363832211" lon="-108.0953898735478"><ele>1878.0</ele><time>2026-04-05T21:14:01Z</time></trkpt><trkpt lat="36.86206503103409" lon="-108.09535918945383"><ele>1878.0000000000002</ele><time>2026-04-05T21:14:02Z</time></trkpt><trkpt lat="36.86199437187936" lon="-108.09530459653281"><ele>1878.0000000000002</ele><time>2026-04-05T21:14:03Z</time></trkpt><trkpt lat="36.861897718944086" lon="-108.0952490590692"><ele>1878.0</ele><time>2026-04-05T21:14:04Z</time></trkpt><trkpt lat="36.86181313027141" lon="-108.09520016650711"><ele>1878.0</ele><time>2026-04-05T21:14:05Z</time></trkpt><trkpt lat="36.86171601167878" lon="-108.09516823679424"><ele>1878.0</ele><time>2026-04-05T21:14:07Z</time></trkpt><trkpt lat="36.861636068184474" lon="-108.09518257467627"><ele>1878.0000000000002</ele><time>2026-04-05T21:14:08Z</time></trkpt><trkpt lat="36.86153124736062" lon="-108.09511815384013"><ele>1878.0000000000002</ele><time>2026-04-05T21:14:10Z</time></trkpt><trkpt lat="36.86146512513268" lon="-108.09504972700684"><ele>1878.0</ele><time>2026-04-05T21:14:11Z</time></trkpt><trkpt lat="36.86138013305187" lon="-108.09506727905512"><ele>1878.0</ele><time>2026-04-05T21:14:12Z</time></trkpt><trkpt lat="36.861271536816616" lon="-108.0950539164661"><ele>1878.0</ele><time>2026-04-05T21:14:13Z</time></trkpt><trkpt lat="36.86120739579554" lon="-108.0950429909857"><ele>1878.0</ele><time>2026-04-05T21:14:14Z</time></trkpt><trkpt lat="36.861111395759266" lon="-108.09503525462785"><ele>1878.0</ele><time>2026-04-05T21:14:15Z</time></trkpt><trkpt lat="36.86101855291423" lon="-108.09503450222635"><ele>1878.0</ele><time>2026-04-05T21:14:16Z</time></trkpt><trkpt lat="36.86094119043036" lon="-108.09501448294706"><ele>1878.0</ele><time>2026-04-05T21:14:17Z</time></trkpt><trkpt lat="36.86085922769632" lon="-108.09496273763587"><ele>1878.0</ele><time>2026-04-05T21:14:18Z</time></trkpt><trkpt lat="36.860784178913526" lon="-108.09494330129533"><ele>1876.4</ele><time>2026-04-05T21:14:19Z</time></trkpt><trkpt lat="36.860712722284376" lon="-108.09489337029949"><ele>1874.8000000000002</ele><time>2026-04-05T21:14:20Z</time></trkpt><trkpt lat="36.86064498114605" lon="-108.09485750287915"><ele>1873.2</ele><time>2026-04-05T21:14:21Z</time></trkpt><trkpt lat="36.86057270923549" lon="-108.0948522527524"><ele>1871.6</ele><time>2026-04-05T21:14:22Z</time></trkpt><trkpt lat="36.86047748057755" lon="-108.09477175863782"><ele>1870.0</ele><time>2026-04-05T21:14:24Z</time></trkpt><trkpt lat="36.860421377859055" lon="-108.09464322831882"><ele>1870.0</ele><time>2026-04-05T21:14:26Z</time></trkpt><trkpt lat="36.86031696950866" lon="-108.09465031658083"><ele>1870.0</ele><time>2026-04-05T21:14:28Z</time></trkpt><trkpt lat="36.86019267564803" lon="-108.0946763789567"><ele>1870.0</ele><time>2026-04-05T21:14:30Z</time></trkpt><trkpt lat="36.860116297122346" lon="-108.0946609385726"><ele>1870.0</ele><time>2026-04-05T21:14:31Z</time></trkpt><trkpt lat="36.86002790435173" lon="-108.09465984284938"><ele>1870.0</ele><time>2026-04-05T21:14:32Z</time></trkpt><trkpt lat="36.85990856001243" lon="-108.09470518606037"><ele>1869.1666666666667</ele><time>2026-04-05T21:14:34Z</time></trkpt><trkpt lat="36.859851440495895" lon="-108.09477072407685"><ele>1868.3333333333335</ele><time>2026-04-05T21:14:35Z</time></trkpt><trkpt lat="36.859799090325055" lon="-108.09482764778043"><ele>1867.5</ele><time>2026-04-05T21:14:36Z</time></trkpt><trkpt lat="36.859724255941536" lon="-108.09482068954807"><ele>1866.6666666666665</ele><time>2026-04-05T21:14:38Z</time></trkpt><trkpt lat="36.85964045906689" lon="-108.0948048935592"><ele>1865.8333333333333</ele><time>2026-04-05T21:14:39Z</time></trkpt><trkpt lat="36.85953905979608" lon="-108.09481649664404"><ele>1865.0</ele><time>2026-04-05T21:14:40Z</time></trkpt><trkpt lat="36.85942877550277" lon="-108.09485191348438"><ele>1864.9999999999998</ele><time>2026-04-05T21:14:41Z</time></trkpt><trkpt lat="36.85934791777819" lon="-108.09486982521187"><ele>1865.0</ele><time>2026-04-05T21:14:42Z</time></trkpt><trkpt lat="36.85927377713262" lon="-108.09487445900797"><ele>1865.0</ele><time>2026-04-05T21:14:43Z</time></trkpt><trkpt lat="36.8591998740046" lon="-108.0949062281736"><ele>1865.0</ele><time>2026-04-05T21:14:44Z</time></trkpt><trkpt lat="36.85912025528009" lon="-108.09495485869108"><ele>1864.9999999999998</ele><time>2026-04-05T21:14:45Z</time></trkpt><trkpt lat="36.85903973305067" lon="-108.09498005501953"><ele>1865.0</ele><time>2026-04-05T21:14:46Z</time></trkpt><trkpt lat="36.85896090841739" lon="-108.09503367382311"><ele>1865.9999999999998</ele><time>2026-04-05T21:14:47Z</time></trkpt><trkpt lat="36.85888704453735" lon="-108.09510033975374"><ele>1867.0</ele><time>2026-04-05T21:14:48Z</time></trkpt><trkpt lat="36.85882045337319" lon="-108.09516212519547"><ele>1868.0</ele><time>2026-04-05T21:14:49Z</time></trkpt><trkpt lat="36.858766295491904" lon="-108.09520730161786"><ele>1869.0</ele><time>2026-04-05T21:14:50Z</time></trkpt><trkpt lat="36.858695747003225" lon="-108.0952639395264"><ele>1869.9999999999998</ele><time>2026-04-05T21:14:52Z</time></trkpt><trkpt lat="36.85861366453376" lon="-108.09531906790058"><ele>1871.0</ele><time>2026-04-05T21:14:55Z</time></trkpt><trkpt lat="36.858536755715306" lon="-108.09537881659267"><ele>1871.5</ele><time>2026-04-05T21:14:57Z</time></trkpt><trkpt lat="36.85838139431228" lon="-108.09550772857969"><ele>1872.0</ele><time>2026-04-05T21:14:59Z</time></trkpt><trkpt lat="36.85828546557077" lon="-108.0956001823132"><ele>1872.5</ele><time>2026-04-05T21:15:01Z</time></trkpt><trkpt lat="36.85818553412652" lon="-108.09567078510987"><ele>1873.0</ele><time>2026-04-05T21:15:03Z</time></trkpt><trkpt lat="36.8581038670759" lon="-108.09570548330471"><ele>1873.0</ele><time>2026-04-05T21:15:04Z</time></trkpt><trkpt lat="36.85801898091735" lon="-108.0957268996719"><ele>1873.0000000000002</ele><time>2026-04-05T21:15:05Z</time></trkpt><trkpt lat="36.857931818986884" lon="-108.09576256695877"><ele>1873.0000000000002</ele><time>2026-04-05T21:15:06Z</time></trkpt><trkpt lat="36.85786443536202" lon="-108.09580764703266"><ele>1873.0</ele><time>2026-04-05T21:15:07Z</time></trkpt><trkpt lat="36.857756152074934" lon="-108.09591479857436"><ele>1873.0</ele><time>2026-04-05T21:15:09Z</time></trkpt><trkpt lat="36.85768468940824" lon="-108.09595801781057"><ele>1874.1666666666667</ele><time>2026-04-05T21:15:10Z</time></trkpt><trkpt lat="36.85760081519724" lon="-108.09596912913003"><ele>1875.3333333333335</ele><time>2026-04-05T21:15:11Z</time></trkpt><trkpt lat="36.85751936328758" lon="-108.09596308235491"><ele>1876.5</ele><time>2026-04-05T21:15:12Z</time></trkpt><trkpt lat="36.857407030598225" lon="-108.09592768864259"><ele>1877.6666666666665</ele><time>2026-04-05T21:15:14Z</time></trkpt><trkpt lat="36.85734421577091" lon="-108.09593655425067"><ele>1878.8333333333333</ele><time>2026-04-05T21:15:15Z</time></trkpt><trkpt lat="36.85725027609913" lon="-108.09596396410443"><ele>1880.0</ele><time>2026-04-05T21:15:16Z</time></trkpt><trkpt lat="36.85718061426119" lon="-108.09597715908387"><ele>1879.9999999999998</ele><time>2026-04-05T21:15:17Z</time></trkpt><trkpt lat="36.85704898444343" lon="-108.09602478976906"><ele>1880.0</ele><time>2026-04-05T21:15:19Z</time></trkpt><trkpt lat="36.8569753442094" lon="-108.09605664012867"><ele>1880.0</ele><time>2026-04-05T21:15:20Z</time></trkpt><trkpt lat="36.85690800598219" lon="-108.09604946526294"><ele>1880.0</ele><time>2026-04-05T21:15:21Z</time></trkpt><trkpt lat="36.85682023051116" lon="-108.09604259102485"><ele>1879.9999999999998</ele><time>2026-04-05T21:15:22Z</time></trkpt><trkpt lat="36.85674762231658" lon="-108.09606571544703"><ele>1880.0</ele><time>2026-04-05T21:15:23Z</time></trkpt><trkpt lat="36.856635727077474" lon="-108.09609917597527"><ele>1879.3333333333333</ele><time>2026-04-05T21:15:25Z</time></trkpt><trkpt lat="36.85655197633053" lon="-108.09612724353212"><ele>1878.6666666666665</ele><time>2026-04-05T21:15:26Z</time></trkpt><trkpt lat="36.856458702053125" lon="-108.09614834674133"><ele>1878.0</ele><time>2026-04-05T21:15:27Z</time></trkpt><trkpt lat="36.85638410624413" lon="-108.09615414256498"><ele>1877.3333333333335</ele><time>2026-04-05T21:15:28Z</time></trkpt><trkpt lat="36.85631791127751" lon="-108.09616177665843"><ele>1876.6666666666667</ele><time>2026-04-05T21:15:29Z</time></trkpt><trkpt lat="36.85625586412609" lon="-108.09612238209748"><ele>1876.0</ele><time>2026-04-05T21:15:31Z</time></trkpt><trkpt lat="36.85624715778456" lon="-108.09603754065711"><ele>1876.0000000000002</ele><time>2026-04-05T21:15:32Z</time></trkpt><trkpt lat="36.85625898183764" lon="-108.09593816149926"><ele>1876.0</ele><time>2026-04-05T21:15:33Z</time></trkpt><trkpt lat="36.856261660747386" lon="-108.09585844836676"><ele>1876.0</ele><time>2026-04-05T21:15:34Z</time></trkpt><trkpt lat="36.85620362641217" lon="-108.09570104326251"><ele>1876.0</ele><time>2026-04-05T21:15:36Z</time></trkpt><trkpt lat="36.85616462166265" lon="-108.09561571713938"><ele>1876.0000000000002</ele><time>2026-04-05T21:15:37Z</time></trkpt><trkpt lat="36.85612004891927" lon="-108.0955555712629"><ele>1876.0</ele><time>2026-04-05T21:15:38Z</time></trkpt><trkpt lat="36.856059650104825" lon="-108.09551015403231"><ele>1875.6666666666667</ele><time>2026-04-05T21:15:39Z</time></trkpt><trkpt lat="36.855981874498355" lon="-108.09546464940989"><ele>1875.3333333333335</ele><time>2026-04-05T21:15:40Z</time></trkpt><trkpt lat="36.85591854838352" lon="-108.09540830989677"><ele>1875.0</ele><time>2026-04-05T21:15:41Z</time></trkpt><trkpt lat="36.855850518694794" lon="-108.0953382744967"><ele>1874.6666666666665</ele><time>2026-04-05T21:15:42Z</time></trkpt><trkpt lat="36.85581127503487" lon="-108.09527135992316"><ele>1874.3333333333333</ele><time>2026-04-05T21:15:43Z</time></trkpt><trkpt lat="36.855724479156564" lon="-108.09518221202416"><ele>1874.0</ele><time>2026-04-05T21:15:45Z</time></trkpt><trkpt lat="36.85565113052617" lon="-108.09513021620242"><ele>1872.25</ele><time>2026-04-05T21:15:46Z</time></trkpt><trkpt lat="36.855553051044126" lon="-108.09507770786485"><ele>1870.5</ele><time>2026-04-05T21:15:47Z</time></trkpt><trkpt lat="36.85546807755213" lon="-108.0950375025771"><ele>1868.75</ele><time>2026-04-05T21:15:48Z</time></trkpt><trkpt lat="36.855359291891304" lon="-108.095000607274"><ele>1867.0</ele><time>2026-04-05T21:15:50Z</time></trkpt><trkpt lat="36.855266567640996" lon="-108.0948639974392"><ele>1866.8</ele><time>2026-04-05T21:15:52Z</time></trkpt><trkpt lat="36.85518474447616" lon="-108.09484448143456"><ele>1866.6</ele><time>2026-04-05T21:15:54Z</time></trkpt><trkpt lat="36.855083252003716" lon="-108.09484754712939"><ele>1866.3999999999999</ele><time>2026-04-05T21:15:55Z</time></trkpt><trkpt lat="36.85500800472129" lon="-108.09492571541853"><ele>1866.1999999999998</ele><time>2026-04-05T21:15:56Z</time></trkpt><trkpt lat="36.85495187070165" lon="-108.09496203743588"><ele>1866.0</ele><time>2026-04-05T21:15:57Z</time></trkpt><trkpt lat="36.85483789674633" lon="-108.09491887831359"><ele>1865.0</ele><time>2026-04-05T21:15:59Z</time></trkpt><trkpt lat="36.85475993418314" lon="-108.09492898310343"><ele>1864.0</ele><time>2026-04-05T21:16:00Z</time></trkpt><trkpt lat="36.85464264198262" lon="-108.09496370046102"><ele>1863.0</ele><time>2026-04-05T21:16:02Z</time></trkpt><trkpt lat="36.854561884481576" lon="-108.09490218601266"><ele>1862.0</ele><time>2026-04-05T21:16:04Z</time></trkpt><trkpt lat="36.85452698866958" lon="-108.09481483183015"><ele>1861.0</ele><time>2026-04-05T21:16:05Z</time></trkpt><trkpt lat="36.8544214298649" lon="-108.09476535480455"><ele>1861.0000000000002</ele><time>2026-04-05T21:16:07Z</time></trkpt><trkpt lat="36.85433703670627" lon="-108.09477466610323"><ele>1861.0</ele><time>2026-04-05T21:16:08Z</time></trkpt><trkpt lat="36.85424385546405" lon="-108.09479257985562"><ele>1861.0</ele><time>2026-04-05T21:16:09Z</time></trkpt><trkpt lat="36.85416260250116" lon="-108.09482372720308"><ele>1861.0</ele><time>2026-04-05T21:16:10Z</time></trkpt><trkpt lat="36.85409708152959" lon="-108.0948683208956"><ele>1861.0000000000002</ele><time>2026-04-05T21:16:11Z</time></trkpt><trkpt lat="36.85402536231993" lon="-108.09493052358434"><ele>1861.0</ele><time>2026-04-05T21:16:12Z</time></trkpt><trkpt lat="36.853933935218905" lon="-108.09497028261423"><ele>1859.6666666666667</ele><time>2026-04-05T21:16:13Z</time></trkpt><trkpt lat="36.85385044888083" lon="-108.09500816033089"><ele>1858.3333333333335</ele><time>2026-04-05T21:16:14Z</time></trkpt><trkpt lat="36.853768285127884" lon="-108.09502604328871"><ele>1857.0</ele><time>2026-04-05T21:16:15Z</time></trkpt><trkpt lat="36.85369019930735" lon="-108.09505868288787"><ele>1855.6666666666665</ele><time>2026-04-05T21:16:16Z</time></trkpt><trkpt lat="36.8536227595276" lon="-108.09511845979789"><ele>1854.3333333333333</ele><time>2026-04-05T21:16:17Z</time></trkpt><trkpt lat="36.853546966043" lon="-108.09519298620317"><ele>1853.0</ele><time>2026-04-05T21:16:18Z</time></trkpt><trkpt lat="36.853461053033065" lon="-108.09527851797262"><ele>1851.8333333333333</ele><time>2026-04-05T21:16:19Z</time></trkpt><trkpt lat="36.853375187399664" lon="-108.09536890082038"><ele>1850.6666666666665</ele><time>2026-04-05T21:16:21Z</time></trkpt><trkpt lat="36.853307676974374" lon="-108.09538429408825"><ele>1849.5</ele><time>2026-04-05T21:16:22Z</time></trkpt><trkpt lat="36.853238858108945" lon="-108.09541445225892"><ele>1848.3333333333335</ele><time>2026-04-05T21:16:23Z</time></trkpt><trkpt lat="36.8531777762129" lon="-108.09549173928458"><ele>1847.1666666666667</ele><time>2026-04-05T21:16:24Z</time></trkpt><trkpt lat="36.853128369516014" lon="-108.09555003295154"><ele>1846.0</ele><time>2026-04-05T21:16:25Z</time></trkpt><trkpt lat="36.85306673147974" lon="-108.09557308333515"><ele>1846.0000000000002</ele><time>2026-04-05T21:16:26Z</time></trkpt><trkpt lat="36.85298268716103" lon="-108.09554089328437"><ele>1846.0</ele><time>2026-04-05T21:16:28Z</time></trkpt><trkpt lat="36.85292343369102" lon="-108.0954039166967"><ele>1846.0</ele><time>2026-04-05T21:16:30Z</time></trkpt><trkpt lat="36.85289822775598" lon="-108.09531595964172"><ele>1846.0</ele><time>2026-04-05T21:16:31Z</time></trkpt><trkpt lat="36.85284800644097" lon="-108.0952668397995"><ele>1846.0000000000002</ele><time>2026-04-05T21:16:32Z</time></trkpt><trkpt lat="36.852772196069054" lon="-108.0952163411764"><ele>1846.0</ele><time>2026-04-05T21:16:33Z</time></trkpt><trkpt lat="36.85268740175363" lon="-108.09515662551402"><ele>1845.0000000000002</ele><time>2026-04-05T21:16:34Z</time></trkpt><trkpt lat="36.852621178992116" lon="-108.09512099597109"><ele>1844.0</ele><time>2026-04-05T21:16:35Z</time></trkpt><trkpt lat="36.85255485242038" lon="-108.09505776833188"><ele>1843.0</ele><time>2026-04-05T21:16:36Z</time></trkpt><trkpt lat="36.85250059625168" lon="-108.09497846755428"><ele>1842.0</ele><time>2026-04-05T21:16:38Z</time></trkpt><trkpt lat="36.852430352627756" lon="-108.09491000659209"><ele>1841.0000000000002</ele><time>2026-04-05T21:16:41Z</time></trkpt><trkpt lat="36.85236678156506" lon="-108.09488956960989"><ele>1840.0</ele><time>2026-04-05T21:16:43Z</time></trkpt><trkpt lat="36.852283197864395" lon="-108.09476305253588"><ele>1839.9999999999998</ele><time>2026-04-05T21:16:44Z</time></trkpt><trkpt lat="36.85225150268127" lon="-108.09469167131208"><ele>1840.0</ele><time>2026-04-05T21:16:45Z</time></trkpt><trkpt lat="36.85222496830194" lon="-108.09459572901636"><ele>1839.9999999999998</ele><time>2026-04-05T21:16:46Z</time></trkpt><trkpt lat="36.852234638090735" lon="-108.0944912237124"><ele>1839.9999999999998</ele><time>2026-04-05T21:16:47Z</time></trkpt><trkpt lat="36.85223406802754" lon="-108.09441120196733"><ele>1840.0</ele><time>2026-04-05T21:16:48Z</time></trkpt><trkpt lat="36.85217057461199" lon="-108.09434703465556"><ele>1839.9999999999998</ele><time>2026-04-05T21:16:50Z</time></trkpt><trkpt lat="36.852113738535394" lon="-108.09438676229753"><ele>1839.9999999999998</ele><time>2026-04-05T21:16:51Z</time></trkpt><trkpt lat="36.851994849226635" lon="-108.09442629804987"><ele>1840.0</ele><time>2026-04-05T21:16:52Z</time></trkpt><trkpt lat="36.85188895780852" lon="-108.09447216688322"><ele>1840.0</ele><time>2026-04-05T21:16:53Z</time></trkpt><trkpt lat="36.85178505087554" lon="-108.09455194166628"><ele>1840.0</ele><time>2026-04-05T21:16:54Z</time></trkpt><trkpt lat="36.85168015338029" lon="-108.09463896838864"><ele>1840.0</ele><time>2026-04-05T21:16:55Z</time></trkpt><trkpt lat="36.85160354239939" lon="-108.09470447086765"><ele>1839.4</ele><time>2026-04-05T21:16:56Z</time></trkpt><trkpt lat="36.8515012229426" lon="-108.0947443240695"><ele>1838.8</ele><time>2026-04-05T21:16:58Z</time></trkpt><trkpt lat="36.85142537801388" lon="-108.0947634973342"><ele>1838.1999999999998</ele><time>2026-04-05T21:16:59Z</time></trkpt><trkpt lat="36.85129758208179" lon="-108.09479756716122"><ele>1837.6</ele><time>2026-04-05T21:17:00Z</time></trkpt><trkpt lat="36.85118882007945" lon="-108.09481887680059"><ele>1837.0</ele><time>2026-04-05T21:17:01Z</time></trkpt><trkpt lat="36.85107230093309" lon="-108.09485010049177"><ele>1837.0</ele><time>2026-04-05T21:17:02Z</time></trkpt><trkpt lat="36.85100298614952" lon="-108.09485686384765"><ele>1836.9999999999998</ele><time>2026-04-05T21:17:03Z</time></trkpt><trkpt lat="36.8509408635492" lon="-108.09497618176266"><ele>1836.9999999999998</ele><time>2026-04-05T21:17:05Z</time></trkpt><trkpt lat="36.85091359576703" lon="-108.09507927852546"><ele>1837.0</ele><time>2026-04-05T21:17:06Z</time></trkpt><trkpt lat="36.85089195815502" lon="-108.09521347641078"><ele>1837.0</ele><time>2026-04-05T21:17:07Z</time></trkpt><trkpt lat="36.850869406980436" lon="-108.09531878968188"><ele>1836.1666666666667</ele><time>2026-04-05T21:17:08Z</time></trkpt><trkpt lat="36.85085032276183" lon="-108.09540182017501"><ele>1835.3333333333335</ele><time>2026-04-05T21:17:09Z</time></trkpt><trkpt lat="36.850831834319955" lon="-108.09548923084252"><ele>1834.5</ele><time>2026-04-05T21:17:10Z</time></trkpt><trkpt lat="36.85079241662571" lon="-108.09562448160571"><ele>1833.6666666666665</ele><time>2026-04-05T21:17:11Z</time></trkpt><trkpt lat="36.85076509255022" lon="-108.09571780038337"><ele>1832.8333333333333</ele><time>2026-04-05T21:17:12Z</time></trkpt><trkpt lat="36.850731886222384" lon="-108.09579023579566"><ele>1832.0</ele><time>2026-04-05T21:17:13Z</time></trkpt><trkpt lat="36.85064951907904" lon="-108.09587419950624"><ele>1830.3999999999999</ele><time>2026-04-05T21:17:15Z</time></trkpt><trkpt lat="36.85054925727824" lon="-108.09593195745987"><ele>1828.7999999999997</ele><time>2026-04-05T21:17:17Z</time></trkpt><trkpt lat="36.850486464842845" lon="-108.09597485425323"><ele>1827.2</ele><time>2026-04-05T21:17:18Z</time></trkpt><trkpt lat="36.85045447087579" lon="-108.09608405011458"><ele>1825.6</ele><time>2026-04-05T21:17:19Z</time></trkpt><trkpt lat="36.850431112405595" lon="-108.09623646523542"><ele>1824.0</ele><time>2026-04-05T21:17:20Z</time></trkpt><trkpt lat="36.85033848698681" lon="-108.09633361396641"><ele>1824.0</ele><time>2026-04-05T21:17:22Z</time></trkpt><trkpt lat="36.850280995982175" lon="-108.09639793730804"><ele>1824.0</ele><time>2026-04-05T21:17:23Z</time></trkpt><trkpt lat="36.85023198109078" lon="-108.0964551869312"><ele>1824.0</ele><time>2026-04-05T21:17:24Z</time></trkpt><trkpt lat="36.85021024096936" lon="-108.09655259553544"><ele>1824.0</ele><time>2026-04-05T21:17:25Z</time></trkpt><trkpt lat="36.85017468495092" lon="-108.09666476212774"><ele>1824.0</ele><time>2026-04-05T21:17:26Z</time></trkpt><trkpt lat="36.85014808813114" lon="-108.09681044093611"><ele>1824.0</ele><time>2026-04-05T21:17:27Z</time></trkpt><trkpt lat="36.85013070493319" lon="-108.09691198169858"><ele>1823.2</ele><time>2026-04-05T21:17:28Z</time></trkpt><trkpt lat="36.85009689611721" lon="-108.09701682728645"><ele>1822.4</ele><time>2026-04-05T21:17:29Z</time></trkpt><trkpt lat="36.85005592546245" lon="-108.09714363648474"><ele>1821.6</ele><time>2026-04-05T21:17:30Z</time></trkpt><trkpt lat="36.850047985727606" lon="-108.09724737187152"><ele>1820.8</ele><time>2026-04-05T21:17:31Z</time></trkpt><trkpt lat="36.84999773380389" lon="-108.09738225248026"><ele>1820.0</ele><time>2026-04-05T21:17:33Z</time></trkpt><trkpt lat="36.84989784570564" lon="-108.09744093041718"><ele>1818.25</ele><time>2026-04-05T21:17:34Z</time></trkpt><trkpt lat="36.849786736314535" lon="-108.09748634700466"><ele>1816.5</ele><time>2026-04-05T21:17:35Z</time></trkpt><trkpt lat="36.849664770217466" lon="-108.09751206656387"><ele>1814.75</ele><time>2026-04-05T21:17:36Z</time></trkpt><trkpt lat="36.84952264465017" lon="-108.09755901136894"><ele>1813.0</ele><time>2026-04-05T21:17:37Z</time></trkpt><trkpt lat="36.849418523128364" lon="-108.09759428533705"><ele>1813.0</ele><time>2026-04-05T21:17:38Z</time></trkpt><trkpt lat="36.84932180127318" lon="-108.09761687496028"><ele>1813.0000000000002</ele><time>2026-04-05T21:17:39Z</time></trkpt><trkpt lat="36.84921752858507" lon="-108.09763079422657"><ele>1813.0000000000002</ele><time>2026-04-05T21:17:40Z</time></trkpt><trkpt lat="36.84912650334147" lon="-108.09762576666141"><ele>1813.0</ele><time>2026-04-05T21:17:41Z</time></trkpt><trkpt lat="36.849082965909155" lon="-108.0977208354732"><ele>1813.0</ele><time>2026-04-05T21:17:44Z</time></trkpt><trkpt lat="36.84905594224172" lon="-108.09784285525339"><ele>1813.0</ele><time>2026-04-05T21:17:45Z</time></trkpt><trkpt lat="36.849043288965454" lon="-108.0979381482529"><ele>1813.0</ele><time>2026-04-05T21:17:46Z</time></trkpt><trkpt lat="36.84900860086602" lon="-108.09802990314321"><ele>1813.0</ele><time>2026-04-05T21:17:48Z</time></trkpt><trkpt lat="36.84877050839308" lon="-108.09805713749786"><ele>1813.0</ele><time>2026-04-05T21:17:52Z</time></trkpt><trkpt lat="36.84866976121643" lon="-108.09807373781601"><ele>1813.0</ele><time>2026-04-05T21:17:53Z</time></trkpt><trkpt lat="36.8485971725666" lon="-108.09807675420397"><ele>1813.0000000000002</ele><time>2026-04-05T21:17:54Z</time></trkpt><trkpt lat="36.848477126032584" lon="-108.09811148790044"><ele>1813.0000000000002</ele><time>2026-04-05T21:17:56Z</time></trkpt><trkpt lat="36.848355179919615" lon="-108.0981739277638"><ele>1813.0</ele><time>2026-04-05T21:17:57Z</time></trkpt><trkpt lat="36.84825765337168" lon="-108.09821632315098"><ele>1813.0</ele><time>2026-04-05T21:17:58Z</time></trkpt><trkpt lat="36.84817695330623" lon="-108.0982578631888"><ele>1811.8000000000002</ele><time>2026-04-05T21:17:59Z</time></trkpt><trkpt lat="36.848103477371694" lon="-108.09832266533198"><ele>1810.6000000000001</ele><time>2026-04-05T21:18:00Z</time></trkpt><trkpt lat="36.84802684842908" lon="-108.09837765300114"><ele>1809.3999999999999</ele><time>2026-04-05T21:18:01Z</time></trkpt><trkpt lat="36.847947237671065" lon="-108.0984156900249"><ele>1808.1999999999998</ele><time>2026-04-05T21:18:02Z</time></trkpt><trkpt lat="36.84787374105678" lon="-108.09849155953243"><ele>1807.0</ele><time>2026-04-05T21:18:03Z</time></trkpt><trkpt lat="36.84780543988742" lon="-108.09859401064516"><ele>1807.0</ele><time>2026-04-05T21:18:04Z</time></trkpt><trkpt lat="36.84771175427975" lon="-108.0987163116857"><ele>1807.0</ele><time>2026-04-05T21:18:05Z</time></trkpt><trkpt lat="36.847616229809844" lon="-108.0988462490199"><ele>1807.0</ele><time>2026-04-05T21:18:06Z</time></trkpt><trkpt lat="36.84755664744437" lon="-108.09896572071486"><ele>1807.0</ele><time>2026-04-05T21:18:07Z</time></trkpt><trkpt lat="36.84749818662423" lon="-108.0990895141481"><ele>1806.0</ele><time>2026-04-05T21:18:08Z</time></trkpt><trkpt lat="36.847436516372305" lon="-108.09921464659021"><ele>1805.0</ele><time>2026-04-05T21:18:09Z</time></trkpt><trkpt lat="36.847370441563136" lon="-108.09933105231654"><ele>1804.0</ele><time>2026-04-05T21:18:10Z</time></trkpt><trkpt lat="36.84728485126459" lon="-108.09941909244704"><ele>1803.0</ele><time>2026-04-05T21:18:11Z</time></trkpt><trkpt lat="36.84717690634126" lon="-108.09953500751529"><ele>1803.0</ele><time>2026-04-05T21:18:12Z</time></trkpt><trkpt lat="36.84705316813869" lon="-108.09964372327617"><ele>1803.0</ele><time>2026-04-05T21:18:13Z</time></trkpt><trkpt lat="36.846958808084445" lon="-108.09973988906592"><ele>1803.0</ele><time>2026-04-05T21:18:14Z</time></trkpt><trkpt lat="36.84688823865182" lon="-108.09983912924017"><ele>1803.0</ele><time>2026-04-05T21:18:15Z</time></trkpt><trkpt lat="36.84684573485256" lon="-108.0999581360216"><ele>1803.0</ele><time>2026-04-05T21:18:16Z</time></trkpt><trkpt lat="36.84680681339283" lon="-108.10006716667222"><ele>1803.0000000000002</ele><time>2026-04-05T21:18:17Z</time></trkpt><trkpt lat="36.84675602916864" lon="-108.10014759768654"><ele>1803.0000000000002</ele><time>2026-04-05T21:18:18Z</time></trkpt><trkpt lat="36.84664893662675" lon="-108.10020664414074"><ele>1803.0</ele><time>2026-04-05T21:18:20Z</time></trkpt><trkpt lat="36.84656681291433" lon="-108.10019828493057"><ele>1803.0</ele><time>2026-04-05T21:18:21Z</time></trkpt><trkpt lat="36.84645460058134" lon="-108.10010585865265"><ele>1802.8000000000002</ele><time>2026-04-05T21:18:22Z</time></trkpt><trkpt lat="36.846328785606474" lon="-108.10008928844518"><ele>1802.6000000000001</ele><time>2026-04-05T21:18:23Z</time></trkpt><trkpt lat="36.84623228773495" lon="-108.10006208648161"><ele>1802.3999999999999</ele><time>2026-04-05T21:18:24Z</time></trkpt><trkpt lat="36.84612542563357" lon="-108.10001962931082"><ele>1802.1999999999998</ele><time>2026-04-05T21:18:25Z</time></trkpt><trkpt lat="36.846022965112425" lon="-108.09999647518671"><ele>1802.0</ele><time>2026-04-05T21:18:26Z</time></trkpt><trkpt lat="36.845933373187535" lon="-108.09996872905133"><ele>1801.8</ele><time>2026-04-05T21:18:27Z</time></trkpt><trkpt lat="36.84587829708414" lon="-108.09990504951567"><ele>1801.6</ele><time>2026-04-05T21:18:28Z</time></trkpt><trkpt lat="36.84582348744897" lon="-108.09983498702084"><ele>1801.3999999999999</ele><time>2026-04-05T21:18:29Z</time></trkpt><trkpt lat="36.845708028763575" lon="-108.09987414563378"><ele>1801.1999999999998</ele><time>2026-04-05T21:18:31Z</time></trkpt><trkpt lat="36.84563304423745" lon="-108.09994856446406"><ele>1801.0</ele><time>2026-04-05T21:18:32Z</time></trkpt><trkpt lat="36.84552078887801" lon="-108.10004233913024"><ele>1801.0000000000002</ele><time>2026-04-05T21:18:33Z</time></trkpt><trkpt lat="36.84543446441" lon="-108.10011812225457"><ele>1801.0</ele><time>2026-04-05T21:18:34Z</time></trkpt><trkpt lat="36.845355563330074" lon="-108.10016170155205"><ele>1801.0</ele><time>2026-04-05T21:18:35Z</time></trkpt><trkpt lat="36.84526827524724" lon="-108.10019835100803"><ele>1801.0</ele><time>2026-04-05T21:18:36Z</time></trkpt><trkpt lat="36.845197220772526" lon="-108.10022167150508"><ele>1801.0000000000002</ele><time>2026-04-05T21:18:37Z</time></trkpt><trkpt lat="36.84512348394796" lon="-108.10020221284121"><ele>1801.0</ele><time>2026-04-05T21:18:38Z</time></trkpt><trkpt lat="36.84503329226253" lon="-108.10021363891357"><ele>1802.0</ele><time>2026-04-05T21:18:39Z</time></trkpt><trkpt lat="36.84496389268794" lon="-108.10026289038409"><ele>1803.0</ele><time>2026-04-05T21:18:40Z</time></trkpt><trkpt lat="36.844904351395044" lon="-108.1002903531001"><ele>1804.0</ele><time>2026-04-05T21:18:41Z</time></trkpt><trkpt lat="36.84479160953723" lon="-108.1001809698842"><ele>1805.0</ele><time>2026-04-05T21:18:43Z</time></trkpt><trkpt lat="36.84470957026655" lon="-108.10009744469056"><ele>1806.0</ele><time>2026-04-05T21:18:44Z</time></trkpt><trkpt lat="36.84463800505731" lon="-108.10002035555009"><ele>1806.0</ele><time>2026-04-05T21:18:45Z</time></trkpt><trkpt lat="36.84458003192799" lon="-108.09993633509927"><ele>1806.0</ele><time>2026-04-05T21:18:46Z</time></trkpt><trkpt lat="36.844489846838144" lon="-108.0998830868398"><ele>1806.0</ele><time>2026-04-05T21:18:48Z</time></trkpt><trkpt lat="36.84439295014775" lon="-108.09993291618972"><ele>1806.0</ele><time>2026-04-05T21:18:50Z</time></trkpt><trkpt lat="36.84433023590643" lon="-108.09999674426889"><ele>1806.0</ele><time>2026-04-05T21:18:51Z</time></trkpt><trkpt lat="36.84426685197477" lon="-108.1000556949583"><ele>1806.1666666666667</ele><time>2026-04-05T21:18:52Z</time></trkpt><trkpt lat="36.844158539671525" lon="-108.10010929284671"><ele>1806.3333333333335</ele><time>2026-04-05T21:18:54Z</time></trkpt><trkpt lat="36.844095686972075" lon="-108.10015633041938"><ele>1806.5</ele><time>2026-04-05T21:18:55Z</time></trkpt><trkpt lat="36.84403268961909" lon="-108.10020892991997"><ele>1806.6666666666667</ele><time>2026-04-05T21:18:56Z</time></trkpt><trkpt lat="36.843972656699506" lon="-108.10027693374414"><ele>1806.8333333333335</ele><time>2026-04-05T21:18:57Z</time></trkpt><trkpt lat="36.84392466684576" lon="-108.10035031188018"><ele>1807.0</ele><time>2026-04-05T21:18:58Z</time></trkpt><trkpt lat="36.843807414879336" lon="-108.10046023201622"><ele>1807.0</ele><time>2026-04-05T21:19:00Z</time></trkpt><trkpt lat="36.84370781269127" lon="-108.1005280350812"><ele>1806.9999999999998</ele><time>2026-04-05T21:19:01Z</time></trkpt><trkpt lat="36.84363166436028" lon="-108.10060214435721"><ele>1806.9999999999998</ele><time>2026-04-05T21:19:02Z</time></trkpt><trkpt lat="36.84359721539769" lon="-108.10067226041625"><ele>1807.0</ele><time>2026-04-05T21:19:03Z</time></trkpt><trkpt lat="36.84356733654676" lon="-108.10074510372432"><ele>1807.0</ele><time>2026-04-05T21:19:04Z</time></trkpt><trkpt lat="36.84357970453731" lon="-108.10088655215102"><ele>1806.1999999999998</ele><time>2026-04-05T21:19:06Z</time></trkpt><trkpt lat="36.8435114243372" lon="-108.10102199204007"><ele>1805.3999999999999</ele><time>2026-04-05T21:19:08Z</time></trkpt><trkpt lat="36.84349788676014" lon="-108.10111398089084"><ele>1804.6000000000001</ele><time>2026-04-05T21:19:09Z</time></trkpt><trkpt lat="36.84350209565873" lon="-108.10121040036799"><ele>1803.8000000000002</ele><time>2026-04-05T21:19:10Z</time></trkpt><trkpt lat="36.84351595072079" lon="-108.10131641400758"><ele>1803.0</ele><time>2026-04-05T21:19:11Z</time></trkpt><trkpt lat="36.84353355964147" lon="-108.10142826135102"><ele>1803.0</ele><time>2026-04-05T21:19:12Z</time></trkpt><trkpt lat="36.843542874046875" lon="-108.10153375245274"><ele>1803.0</ele><time>2026-04-05T21:19:13Z</time></trkpt><trkpt lat="36.843527293862216" lon="-108.10162821024456"><ele>1803.0</ele><time>2026-04-05T21:19:14Z</time></trkpt><trkpt lat="36.84349146483512" lon="-108.10171014271243"><ele>1803.0</ele><time>2026-04-05T21:19:15Z</time></trkpt><trkpt lat="36.84350389254694" lon="-108.10186883823745"><ele>1803.0</ele><time>2026-04-05T21:19:17Z</time></trkpt><trkpt lat="36.84351737165938" lon="-108.10196316587084"><ele>1803.0</ele><time>2026-04-05T21:19:18Z</time></trkpt><trkpt lat="36.8435075293962" lon="-108.10204520335573"><ele>1801.8000000000002</ele><time>2026-04-05T21:19:19Z</time></trkpt><trkpt lat="36.843469249288574" lon="-108.1021768607792"><ele>1800.6000000000001</ele><time>2026-04-05T21:19:21Z</time></trkpt><trkpt lat="36.84342953038467" lon="-108.10228266869798"><ele>1799.3999999999999</ele><time>2026-04-05T21:19:22Z</time></trkpt><trkpt lat="36.84338133463069" lon="-108.10239181587083"><ele>1798.1999999999998</ele><time>2026-04-05T21:19:23Z</time></trkpt><trkpt lat="36.84333805034183" lon="-108.10248925772899"><ele>1797.0</ele><time>2026-04-05T21:19:24Z</time></trkpt><trkpt lat="36.843314533745975" lon="-108.10257574503709"><ele>1795.5</ele><time>2026-04-05T21:19:25Z</time></trkpt><trkpt lat="36.84328848838581" lon="-108.10269033382049"><ele>1794.0</ele><time>2026-04-05T21:19:26Z</time></trkpt><trkpt lat="36.84324231076534" lon="-108.10282517533301"><ele>1792.5</ele><time>2026-04-05T21:19:27Z</time></trkpt><trkpt lat="36.84318998833489" lon="-108.10298055062866"><ele>1791.0</ele><time>2026-04-05T21:19:28Z</time></trkpt><trkpt lat="36.84312740671134" lon="-108.10321638615329"><ele>1789.6666666666665</ele><time>2026-04-05T21:19:29Z</time></trkpt><trkpt lat="36.84306768204917" lon="-108.10343233881198"><ele>1788.3333333333333</ele><time>2026-04-05T21:19:30Z</time></trkpt><trkpt lat="36.842997975783796" lon="-108.10367483197565"><ele>1787.0</ele><time>2026-04-05T21:19:31Z</time></trkpt><trkpt lat="36.842947914375635" lon="-108.10389528927004"><ele>1787.0</ele><time>2026-04-05T21:19:32Z</time></trkpt><trkpt lat="36.842877948662675" lon="-108.10407431742205"><ele>1787.0</ele><time>2026-04-05T21:19:33Z</time></trkpt><trkpt lat="36.84282659211168" lon="-108.10423195474215"><ele>1787.0</ele><time>2026-04-05T21:19:34Z</time></trkpt><trkpt lat="36.84278726294051" lon="-108.1043744079608"><ele>1787.0</ele><time>2026-04-05T21:19:35Z</time></trkpt><trkpt lat="36.84275802974702" lon="-108.10449366619277"><ele>1786.6666666666665</ele><time>2026-04-05T21:19:36Z</time></trkpt><trkpt lat="36.842741895027686" lon="-108.10458293057053"><ele>1786.3333333333333</ele><time>2026-04-05T21:19:37Z</time></trkpt><trkpt lat="36.84273546335697" lon="-108.10469735125257"><ele>1786.0</ele><time>2026-04-05T21:19:39Z</time></trkpt><trkpt lat="36.8426814533469" lon="-108.10475245164754"><ele>1785.6666666666665</ele><time>2026-04-05T21:19:41Z</time></trkpt><trkpt lat="36.842605714991144" lon="-108.10479252883896"><ele>1785.3333333333333</ele><time>2026-04-05T21:19:43Z</time></trkpt><trkpt lat="36.842519971621265" lon="-108.1048272536613"><ele>1785.0</ele><time>2026-04-05T21:19:46Z</time></trkpt><trkpt lat="36.8424581414718" lon="-108.10490044552448"><ele>1785.0</ele><time>2026-04-05T21:19:47Z</time></trkpt><trkpt lat="36.842317948088926" lon="-108.1049558398516"><ele>1785.0</ele><time>2026-04-05T21:19:49Z</time></trkpt><trkpt lat="36.8422012201257" lon="-108.10499625182361"><ele>1785.0</ele><time>2026-04-05T21:19:50Z</time></trkpt><trkpt lat="36.84208939983132" lon="-108.1050554638443"><ele>1785.0</ele><time>2026-04-05T21:19:51Z</time></trkpt><trkpt lat="36.842001747360214" lon="-108.10511134058493"><ele>1785.0</ele><time>2026-04-05T21:19:52Z</time></trkpt><trkpt lat="36.84192343878236" lon="-108.10516196351396"><ele>1785.0</ele><time>2026-04-05T21:19:53Z</time></trkpt><trkpt lat="36.84185884905839" lon="-108.10521322982187"><ele>1785.0</ele><time>2026-04-05T21:19:54Z</time></trkpt><trkpt lat="36.8417881889811" lon="-108.10529645421262"><ele>1785.0</ele><time>2026-04-05T21:19:56Z</time></trkpt><trkpt lat="36.84180055045106" lon="-108.10538660543746"><ele>1785.0</ele><time>2026-04-05T21:19:58Z</time></trkpt><trkpt lat="36.84190878684604" lon="-108.10546671104109"><ele>1785.0</ele><time>2026-04-05T21:19:59Z</time></trkpt><trkpt lat="36.842004092912376" lon="-108.10554039207595"><ele>1785.0</ele><time>2026-04-05T21:20:00Z</time></trkpt><trkpt lat="36.84211115686197" lon="-108.10565733367382"><ele>1785.0</ele><time>2026-04-05T21:20:01Z</time></trkpt><trkpt lat="36.84218811536986" lon="-108.10575677247459"><ele>1785.0</ele><time>2026-04-05T21:20:02Z</time></trkpt><trkpt lat="36.842227709535514" lon="-108.10582891602724"><ele>1785.0</ele><time>2026-04-05T21:20:03Z</time></trkpt><trkpt lat="36.84225572652955" lon="-108.10594320467109"><ele>1785.25</ele><time>2026-04-05T21:20:05Z</time></trkpt><trkpt lat="36.842213616552975" lon="-108.10606733553149"><ele>1785.5</ele><time>2026-04-05T21:20:07Z</time></trkpt><trkpt lat="36.84221093729337" lon="-108.10615951444538"><ele>1785.75</ele><time>2026-04-05T21:20:08Z</time></trkpt><trkpt lat="36.84230971039384" lon="-108.10641835367325"><ele>1786.0</ele><time>2026-04-05T21:20:09Z</time></trkpt><trkpt lat="36.842254056299666" lon="-108.10653884094492"><ele>1786.5</ele><time>2026-04-05T21:20:10Z</time></trkpt><trkpt lat="36.842135619328644" lon="-108.106671801277"><ele>1787.0</ele><time>2026-04-05T21:20:11Z</time></trkpt><trkpt lat="36.842022515483336" lon="-108.10676662514831"><ele>1787.5</ele><time>2026-04-05T21:20:12Z</time></trkpt><trkpt lat="36.84193404597512" lon="-108.10686017761839"><ele>1788.0</ele><time>2026-04-05T21:20:13Z</time></trkpt><trkpt lat="36.841865903074584" lon="-108.10696427004908"><ele>1788.0</ele><time>2026-04-05T21:20:14Z</time></trkpt><trkpt lat="36.8418244322448" lon="-108.10707756369276"><ele>1788.0</ele><time>2026-04-05T21:20:15Z</time></trkpt><trkpt lat="36.841770985281485" lon="-108.10717215447465"><ele>1788.0</ele><time>2026-04-05T21:20:16Z</time></trkpt><trkpt lat="36.841756056354726" lon="-108.10728485109078"><ele>1788.0</ele><time>2026-04-05T21:20:18Z</time></trkpt><trkpt lat="36.84177904475566" lon="-108.10736440424918"><ele>1788.0</ele><time>2026-04-05T21:20:19Z</time></trkpt><trkpt lat="36.84178705611242" lon="-108.10746527602451"><ele>1788.0</ele><time>2026-04-05T21:20:20Z</time></trkpt><trkpt lat="36.8418203235433" lon="-108.10762344456268"><ele>1788.6000000000001</ele><time>2026-04-05T21:20:21Z</time></trkpt><trkpt lat="36.84185812847006" lon="-108.10772551575813"><ele>1789.2000000000003</ele><time>2026-04-05T21:20:22Z</time></trkpt><trkpt lat="36.84188413776207" lon="-108.10780085030544"><ele>1789.8</ele><time>2026-04-05T21:20:23Z</time></trkpt><trkpt lat="36.84199268528613" lon="-108.10787945654555"><ele>1790.4</ele><time>2026-04-05T21:20:25Z</time></trkpt><trkpt lat="36.84206374142161" lon="-108.10796959433688"><ele>1791.0</ele><time>2026-04-05T21:20:26Z</time></trkpt><trkpt lat="36.84217786550133" lon="-108.10807182856162"><ele>1791.0</ele><time>2026-04-05T21:20:27Z</time></trkpt><trkpt lat="36.84227642656041" lon="-108.10813955400948"><ele>1791.0</ele><time>2026-04-05T21:20:28Z</time></trkpt><trkpt lat="36.84236718384753" lon="-108.10819926597503"><ele>1791.0</ele><time>2026-04-05T21:20:29Z</time></trkpt><trkpt lat="36.842470795448975" lon="-108.10827144095005"><ele>1791.0</ele><time>2026-04-05T21:20:30Z</time></trkpt><trkpt lat="36.84254909290375" lon="-108.10835559604676"><ele>1791.0</ele><time>2026-04-05T21:20:31Z</time></trkpt><trkpt lat="36.842553526543576" lon="-108.10851538751984"><ele>1792.3333333333333</ele><time>2026-04-05T21:20:33Z</time></trkpt><trkpt lat="36.84253242623066" lon="-108.10860780167566"><ele>1793.6666666666665</ele><time>2026-04-05T21:20:34Z</time></trkpt><trkpt lat="36.84248942844036" lon="-108.10868810681507"><ele>1795.0</ele><time>2026-04-05T21:20:35Z</time></trkpt><trkpt lat="36.84244834139345" lon="-108.10877453386759"><ele>1796.3333333333333</ele><time>2026-04-05T21:20:36Z</time></trkpt><trkpt lat="36.84241554280874" lon="-108.10887120793234"><ele>1797.6666666666665</ele><time>2026-04-05T21:20:37Z</time></trkpt><trkpt lat="36.84237196094583" lon="-108.1089701854397"><ele>1799.0</ele><time>2026-04-05T21:20:38Z</time></trkpt><trkpt lat="36.84233517752813" lon="-108.10906837082344"><ele>1800.3333333333333</ele><time>2026-04-05T21:20:39Z</time></trkpt><trkpt lat="36.84235896834867" lon="-108.10915420105177"><ele>1801.6666666666665</ele><time>2026-04-05T21:20:40Z</time></trkpt><trkpt lat="36.84234591823086" lon="-108.10923515598654"><ele>1803.0</ele><time>2026-04-05T21:20:41Z</time></trkpt><trkpt lat="36.84229555204323" lon="-108.10932916101696"><ele>1804.3333333333335</ele><time>2026-04-05T21:20:42Z</time></trkpt><trkpt lat="36.842228529666464" lon="-108.10944944956938"><ele>1805.6666666666667</ele><time>2026-04-05T21:20:44Z</time></trkpt><trkpt lat="36.84220621942816" lon="-108.10952596573135"><ele>1807.0</ele><time>2026-04-05T21:20:53Z</time></trkpt><trkpt lat="36.84208510656441" lon="-108.10951339181267"><ele>1807.0000000000002</ele><time>2026-04-05T21:20:55Z</time></trkpt><trkpt lat="36.84201806408066" lon="-108.10949148837287"><ele>1807.0</ele><time>2026-04-05T21:20:56Z</time></trkpt><trkpt lat="36.841941702376054" lon="-108.10943245434012"><ele>1807.0</ele><time>2026-04-05T21:20:57Z</time></trkpt><trkpt lat="36.841852328559774" lon="-108.109392477132"><ele>1807.0</ele><time>2026-04-05T21:20:58Z</time></trkpt><trkpt lat="36.84176948057188" lon="-108.10935188089458"><ele>1807.0000000000002</ele><time>2026-04-05T21:20:59Z</time></trkpt><trkpt lat="36.84169900708477" lon="-108.10927450682851"><ele>1807.0</ele><time>2026-04-05T21:21:00Z</time></trkpt><trkpt lat="36.84162252851124" lon="-108.1091827971339"><ele>1806.1999999999998</ele><time>2026-04-05T21:21:01Z</time></trkpt><trkpt lat="36.84153815366805" lon="-108.10912873130049"><ele>1805.3999999999999</ele><time>2026-04-05T21:21:02Z</time></trkpt><trkpt lat="36.84144224479451" lon="-108.10906865471503"><ele>1804.6000000000001</ele><time>2026-04-05T21:21:03Z</time></trkpt><trkpt lat="36.84133074580031" lon="-108.10899245590238"><ele>1803.8000000000002</ele><time>2026-04-05T21:21:04Z</time></trkpt><trkpt lat="36.841234350003525" lon="-108.10892569847543"><ele>1803.0</ele><time>2026-04-05T21:21:05Z</time></trkpt><trkpt lat="36.84115113001625" lon="-108.10883297317713"><ele>1801.8000000000002</ele><time>2026-04-05T21:21:06Z</time></trkpt><trkpt lat="36.841062790464456" lon="-108.10874877331081"><ele>1800.6000000000001</ele><time>2026-04-05T21:21:07Z</time></trkpt><trkpt lat="36.840963862485395" lon="-108.10868801556204"><ele>1799.3999999999999</ele><time>2026-04-05T21:21:08Z</time></trkpt><trkpt lat="36.84090033362316" lon="-108.10867448139979"><ele>1798.1999999999998</ele><time>2026-04-05T21:21:09Z</time></trkpt><trkpt lat="36.84079986705749" lon="-108.10870469325378"><ele>1797.0</ele><time>2026-04-05T21:21:11Z</time></trkpt><trkpt lat="36.84073568595148" lon="-108.10875837002605"><ele>1796.8333333333333</ele><time>2026-04-05T21:21:12Z</time></trkpt><trkpt lat="36.84067250167189" lon="-108.1087879835341"><ele>1796.6666666666665</ele><time>2026-04-05T21:21:13Z</time></trkpt><trkpt lat="36.840592107531094" lon="-108.10878483574844"><ele>1796.5</ele><time>2026-04-05T21:21:14Z</time></trkpt><trkpt lat="36.84048919879949" lon="-108.1087755676624"><ele>1796.3333333333333</ele><time>2026-04-05T21:21:15Z</time></trkpt><trkpt lat="36.84040394612464" lon="-108.10879838977966"><ele>1796.1666666666665</ele><time>2026-04-05T21:21:16Z</time></trkpt><trkpt lat="36.840343561907325" lon="-108.10884365227385"><ele>1796.0</ele><time>2026-04-05T21:21:17Z</time></trkpt><trkpt lat="36.84029703000832" lon="-108.10891571246665"><ele>1796.0</ele><time>2026-04-05T21:21:18Z</time></trkpt><trkpt lat="36.840239133346884" lon="-108.10900856251035"><ele>1796.0</ele><time>2026-04-05T21:21:19Z</time></trkpt><trkpt lat="36.84017573552603" lon="-108.10909636078966"><ele>1796.0</ele><time>2026-04-05T21:21:20Z</time></trkpt><trkpt lat="36.840126238641005" lon="-108.10918161253043"><ele>1796.0</ele><time>2026-04-05T21:21:21Z</time></trkpt><trkpt lat="36.8400595220671" lon="-108.10926513112494"><ele>1796.0</ele><time>2026-04-05T21:21:22Z</time></trkpt><trkpt lat="36.83995882956561" lon="-108.10937313860148"><ele>1794.25</ele><time>2026-04-05T21:21:23Z</time></trkpt><trkpt lat="36.839845211773046" lon="-108.1095016857798"><ele>1792.5</ele><time>2026-04-05T21:21:24Z</time></trkpt><trkpt lat="36.83975500989699" lon="-108.10962237874705"><ele>1790.75</ele><time>2026-04-05T21:21:25Z</time></trkpt><trkpt lat="36.839654269931785" lon="-108.1097246956706"><ele>1789.0</ele><time>2026-04-05T21:21:26Z</time></trkpt><trkpt lat="36.839566669684174" lon="-108.10982003799198"><ele>1789.0</ele><time>2026-04-05T21:21:27Z</time></trkpt><trkpt lat="36.839472284937806" lon="-108.10990153512398"><ele>1789.0</ele><time>2026-04-05T21:21:28Z</time></trkpt><trkpt lat="36.839367123949664" lon="-108.1099633836295"><ele>1789.0</ele><time>2026-04-05T21:21:29Z</time></trkpt><trkpt lat="36.83927430189655" lon="-108.11002893138352"><ele>1789.0</ele><time>2026-04-05T21:21:30Z</time></trkpt><trkpt lat="36.839204971902035" lon="-108.11011466657115"><ele>1789.0</ele><time>2026-04-05T21:21:31Z</time></trkpt><trkpt lat="36.8391519652318" lon="-108.11023164634389"><ele>1787.2</ele><time>2026-04-05T21:21:32Z</time></trkpt><trkpt lat="36.839099828644486" lon="-108.11036721501266"><ele>1785.4</ele><time>2026-04-05T21:21:33Z</time></trkpt><trkpt lat="36.83904451117207" lon="-108.11047994971304"><ele>1783.6</ele><time>2026-04-05T21:21:34Z</time></trkpt><trkpt lat="36.83898289425256" lon="-108.11058354955901"><ele>1781.8</ele><time>2026-04-05T21:21:35Z</time></trkpt><trkpt lat="36.83891445638591" lon="-108.11068155722486"><ele>1780.0</ele><time>2026-04-05T21:21:36Z</time></trkpt><trkpt lat="36.83884947874335" lon="-108.11073433531406"><ele>1780.5</ele><time>2026-04-05T21:21:37Z</time></trkpt><trkpt lat="36.83875081374562" lon="-108.11077843657104"><ele>1781.0</ele><time>2026-04-05T21:21:38Z</time></trkpt><trkpt lat="36.838645259539625" lon="-108.11083963399429"><ele>1781.5</ele><time>2026-04-05T21:21:39Z</time></trkpt><trkpt lat="36.838492484185615" lon="-108.11103151714357"><ele>1782.0</ele><time>2026-04-05T21:21:40Z</time></trkpt><trkpt lat="36.83838249317199" lon="-108.11114843112273"><ele>1782.0</ele><time>2026-04-05T21:21:41Z</time></trkpt><trkpt lat="36.838277095553025" lon="-108.11129737056494"><ele>1782.0</ele><time>2026-04-05T21:21:42Z</time></trkpt><trkpt lat="36.83817802467914" lon="-108.1114865909433"><ele>1782.0</ele><time>2026-04-05T21:21:43Z</time></trkpt><trkpt lat="36.838100903149844" lon="-108.11164296603768"><ele>1782.0</ele><time>2026-04-05T21:21:44Z</time></trkpt><trkpt lat="36.83804018608047" lon="-108.11178369982336"><ele>1782.0</ele><time>2026-04-05T21:21:45Z</time></trkpt><trkpt lat="36.83798285227472" lon="-108.11190815708129"><ele>1782.0</ele><time>2026-04-05T21:21:46Z</time></trkpt><trkpt lat="36.83794253489821" lon="-108.11201727623474"><ele>1782.0</ele><time>2026-04-05T21:21:47Z</time></trkpt><trkpt lat="36.83788776722082" lon="-108.11214234212345"><ele>1782.0</ele><time>2026-04-05T21:21:48Z</time></trkpt><trkpt lat="36.837991486293106" lon="-108.1121401523381"><ele>1781.9999999999998</ele><time>2026-04-05T21:21:49Z</time></trkpt><trkpt lat="36.838046012757054" lon="-108.11221908524136"><ele>1781.9999999999998</ele><time>2026-04-05T21:21:50Z</time></trkpt><trkpt lat="36.83809897302737" lon="-108.11232364243308"><ele>1782.0</ele><time>2026-04-05T21:21:51Z</time></trkpt><trkpt lat="36.83813847957418" lon="-108.11245921317813"><ele>1782.0</ele><time>2026-04-05T21:21:52Z</time></trkpt><trkpt lat="36.83813740845028" lon="-108.1125997654443"><ele>1782.1999999999998</ele><time>2026-04-05T21:21:53Z</time></trkpt><trkpt lat="36.83815913518776" lon="-108.1127377618988"><ele>1782.3999999999999</ele><time>2026-04-05T21:21:54Z</time></trkpt><trkpt lat="36.83821816649274" lon="-108.11286859277452"><ele>1782.6000000000001</ele><time>2026-04-05T21:21:55Z</time></trkpt><trkpt lat="36.83824925556424" lon="-108.11296197998982"><ele>1782.8000000000002</ele><time>2026-04-05T21:21:56Z</time></trkpt><trkpt lat="36.83825153098986" lon="-108.11306478749579"><ele>1783.0</ele><time>2026-04-05T21:21:57Z</time></trkpt><trkpt lat="36.83821747890065" lon="-108.11317893125236"><ele>1783.5</ele><time>2026-04-05T21:21:58Z</time></trkpt><trkpt lat="36.83818932300242" lon="-108.11329475169795"><ele>1784.0</ele><time>2026-04-05T21:21:59Z</time></trkpt><trkpt lat="36.8381058245438" lon="-108.1134119534742"><ele>1784.5</ele><time>2026-04-05T21:22:00Z</time></trkpt><trkpt lat="36.838030704144174" lon="-108.11355605129957"><ele>1785.0</ele><time>2026-04-05T21:22:01Z</time></trkpt><trkpt lat="36.837948620047435" lon="-108.11367152572556"><ele>1785.0</ele><time>2026-04-05T21:22:02Z</time></trkpt><trkpt lat="36.837869561144" lon="-108.11375131605911"><ele>1785.0</ele><time>2026-04-05T21:22:03Z</time></trkpt><trkpt lat="36.83779639724592" lon="-108.11382025240762"><ele>1785.0</ele><time>2026-04-05T21:22:04Z</time></trkpt><trkpt lat="36.837724669056875" lon="-108.11389963705582"><ele>1785.0</ele><time>2026-04-05T21:22:05Z</time></trkpt><trkpt lat="36.837663889464764" lon="-108.11394953557549"><ele>1785.0</ele><time>2026-04-05T21:22:06Z</time></trkpt><trkpt lat="36.837594616987836" lon="-108.11400444732635"><ele>1785.0</ele><time>2026-04-05T21:22:07Z</time></trkpt><trkpt lat="36.83756223230239" lon="-108.11415324218255"><ele>1785.8</ele><time>2026-04-05T21:22:09Z</time></trkpt><trkpt lat="36.837581575956705" lon="-108.11430306490529"><ele>1786.6</ele><time>2026-04-05T21:22:10Z</time></trkpt><trkpt lat="36.837563256279324" lon="-108.11443993478869"><ele>1787.4</ele><time>2026-04-05T21:22:11Z</time></trkpt><trkpt lat="36.83754204667466" lon="-108.11452559651475"><ele>1788.2</ele><time>2026-04-05T21:22:12Z</time></trkpt><trkpt lat="36.837473941419425" lon="-108.11457057809658"><ele>1789.0</ele><time>2026-04-05T21:22:13Z</time></trkpt><trkpt lat="36.83738899699842" lon="-108.11462227026443"><ele>1789.0</ele><time>2026-04-05T21:22:14Z</time></trkpt><trkpt lat="36.83728876022516" lon="-108.11466019774039"><ele>1789.0</ele><time>2026-04-05T21:22:15Z</time></trkpt><trkpt lat="36.8371655683622" lon="-108.11471719729957"><ele>1789.0</ele><time>2026-04-05T21:22:16Z</time></trkpt><trkpt lat="36.83705781626926" lon="-108.11477983380797"><ele>1789.0</ele><time>2026-04-05T21:22:17Z</time></trkpt><trkpt lat="36.836941734050406" lon="-108.11477378395296"><ele>1789.0</ele><time>2026-04-05T21:22:18Z</time></trkpt><trkpt lat="36.83680769682416" lon="-108.1147554139451"><ele>1789.0</ele><time>2026-04-05T21:22:19Z</time></trkpt><trkpt lat="36.83668446983766" lon="-108.11470106328255"><ele>1789.0</ele><time>2026-04-05T21:22:20Z</time></trkpt><trkpt lat="36.836585494516044" lon="-108.11464037416118"><ele>1789.0</ele><time>2026-04-05T21:22:21Z</time></trkpt><trkpt lat="36.83649315832487" lon="-108.11454841728103"><ele>1789.0</ele><time>2026-04-05T21:22:22Z</time></trkpt><trkpt lat="36.83637546261509" lon="-108.11444798049332"><ele>1789.0</ele><time>2026-04-05T21:22:23Z</time></trkpt><trkpt lat="36.83624913777644" lon="-108.11435406501332"><ele>1789.0</ele><time>2026-04-05T21:22:24Z</time></trkpt><trkpt lat="36.83614932375474" lon="-108.11428613612198"><ele>1789.0</ele><time>2026-04-05T21:22:25Z</time></trkpt><trkpt lat="36.836062783819386" lon="-108.11426857776912"><ele>1789.0</ele><time>2026-04-05T21:22:26Z</time></trkpt><trkpt lat="36.83599129339307" lon="-108.11424025976781"><ele>1789.0</ele><time>2026-04-05T21:22:27Z</time></trkpt><trkpt lat="36.835926571384576" lon="-108.11415973306993"><ele>1789.0</ele><time>2026-04-05T21:22:28Z</time></trkpt><trkpt lat="36.83587940100303" lon="-108.11406108826446"><ele>1789.0</ele><time>2026-04-05T21:22:29Z</time></trkpt><trkpt lat="36.83586399611949" lon="-108.11394612445358"><ele>1789.0</ele><time>2026-04-05T21:22:30Z</time></trkpt><trkpt lat="36.83586273468142" lon="-108.11382340445779"><ele>1789.0</ele><time>2026-04-05T21:22:31Z</time></trkpt><trkpt lat="36.835850181083366" lon="-108.11372174880839"><ele>1789.0</ele><time>2026-04-05T21:22:32Z</time></trkpt><trkpt lat="36.83579141140096" lon="-108.11362963782624"><ele>1789.0</ele><time>2026-04-05T21:22:33Z</time></trkpt><trkpt lat="36.83569973068908" lon="-108.11354026936493"><ele>1789.0</ele><time>2026-04-05T21:22:34Z</time></trkpt><trkpt lat="36.83562106079183" lon="-108.11343323161766"><ele>1789.0</ele><time>2026-04-05T21:22:35Z</time></trkpt><trkpt lat="36.835545413034644" lon="-108.11335865844738"><ele>1789.0</ele><time>2026-04-05T21:22:36Z</time></trkpt><trkpt lat="36.835435010011736" lon="-108.11329938330897"><ele>1789.0</ele><time>2026-04-05T21:22:37Z</time></trkpt><trkpt lat="36.835327098597865" lon="-108.1132286969788"><ele>1789.0</ele><time>2026-04-05T21:22:38Z</time></trkpt><trkpt lat="36.83522771469964" lon="-108.11318853580786"><ele>1789.0</ele><time>2026-04-05T21:22:39Z</time></trkpt><trkpt lat="36.83513572176868" lon="-108.11316828549546"><ele>1789.0</ele><time>2026-04-05T21:22:40Z</time></trkpt><trkpt lat="36.835021033128676" lon="-108.1131404054365"><ele>1788.2</ele><time>2026-04-05T21:22:41Z</time></trkpt><trkpt lat="36.834905083410426" lon="-108.1131121553587"><ele>1787.4</ele><time>2026-04-05T21:22:42Z</time></trkpt><trkpt lat="36.83480597869924" lon="-108.11309511337707"><ele>1786.6</ele><time>2026-04-05T21:22:43Z</time></trkpt><trkpt lat="36.834706204878614" lon="-108.11309995453465"><ele>1785.8</ele><time>2026-04-05T21:22:44Z</time></trkpt><trkpt lat="36.83459690744207" lon="-108.11309379972856"><ele>1785.0</ele><time>2026-04-05T21:22:45Z</time></trkpt><trkpt lat="36.83448447565693" lon="-108.11307856064428"><ele>1785.0</ele><time>2026-04-05T21:22:46Z</time></trkpt><trkpt lat="36.83437472525452" lon="-108.11304676166516"><ele>1785.0</ele><time>2026-04-05T21:22:47Z</time></trkpt><trkpt lat="36.8342688094752" lon="-108.11298916569307"><ele>1785.0</ele><time>2026-04-05T21:22:48Z</time></trkpt><trkpt lat="36.83416717779123" lon="-108.11290494672951"><ele>1785.0</ele><time>2026-04-05T21:22:49Z</time></trkpt><trkpt lat="36.834075611920625" lon="-108.11282964131942"><ele>1784.6</ele><time>2026-04-05T21:22:50Z</time></trkpt><trkpt lat="36.83398175651433" lon="-108.11277132011868"><ele>1784.2</ele><time>2026-04-05T21:22:51Z</time></trkpt><trkpt lat="36.833875526058286" lon="-108.11273322853756"><ele>1783.8000000000002</ele><time>2026-04-05T21:22:52Z</time></trkpt><trkpt lat="36.83377508120098" lon="-108.11270992878599"><ele>1783.4</ele><time>2026-04-05T21:22:53Z</time></trkpt><trkpt lat="36.83367145217693" lon="-108.11267909856396"><ele>1783.0</ele><time>2026-04-05T21:22:54Z</time></trkpt><trkpt lat="36.83358333515152" lon="-108.11265399714502"><ele>1783.0</ele><time>2026-04-05T21:22:55Z</time></trkpt><trkpt lat="36.83349742644072" lon="-108.11266210936566"><ele>1783.0000000000002</ele><time>2026-04-05T21:22:56Z</time></trkpt><trkpt lat="36.83339992253148" lon="-108.11267419645522"><ele>1783.0000000000002</ele><time>2026-04-05T21:22:57Z</time></trkpt><trkpt lat="36.83331560398897" lon="-108.11264909848555"><ele>1783.0</ele><time>2026-04-05T21:22:58Z</time></trkpt><trkpt lat="36.83321361654521" lon="-108.11259588409472"><ele>1783.0</ele><time>2026-04-05T21:22:59Z</time></trkpt><trkpt lat="36.833048089087114" lon="-108.11252926689548"><ele>1782.25</ele><time>2026-04-05T21:23:00Z</time></trkpt><trkpt lat="36.832881392356725" lon="-108.1124797947031"><ele>1781.5</ele><time>2026-04-05T21:23:01Z</time></trkpt><trkpt lat="36.83276316146346" lon="-108.1124122460799"><ele>1780.75</ele><time>2026-04-05T21:23:02Z</time></trkpt><trkpt lat="36.832654603879114" lon="-108.11237456952342"><ele>1780.0</ele><time>2026-04-05T21:23:03Z</time></trkpt><trkpt lat="36.832560430865364" lon="-108.11237913686708"><ele>1778.2</ele><time>2026-04-05T21:23:04Z</time></trkpt><trkpt lat="36.832471692802" lon="-108.1124302263219"><ele>1776.4</ele><time>2026-04-05T21:23:05Z</time></trkpt><trkpt lat="36.83234137126914" lon="-108.1124999273653"><ele>1774.6</ele><time>2026-04-05T21:23:06Z</time></trkpt><trkpt lat="36.83223802455852" lon="-108.11252424016924"><ele>1772.8</ele><time>2026-04-05T21:23:07Z</time></trkpt><trkpt lat="36.83216158808699" lon="-108.1125201559854"><ele>1771.0</ele><time>2026-04-05T21:23:08Z</time></trkpt><trkpt lat="36.832084725679316" lon="-108.11250095383852"><ele>1771.0000000000002</ele><time>2026-04-05T21:23:09Z</time></trkpt><trkpt lat="36.831996464282696" lon="-108.11251579237425"><ele>1771.0</ele><time>2026-04-05T21:23:10Z</time></trkpt><trkpt lat="36.83192951349337" lon="-108.11257509395833"><ele>1771.0</ele><time>2026-04-05T21:23:11Z</time></trkpt><trkpt lat="36.83185879142793" lon="-108.11260818371123"><ele>1771.0</ele><time>2026-04-05T21:23:13Z</time></trkpt><trkpt lat="36.83176528311713" lon="-108.11264303612192"><ele>1771.0000000000002</ele><time>2026-04-05T21:23:23Z</time></trkpt><trkpt lat="36.831672537628265" lon="-108.1126702806095"><ele>1771.0</ele><time>2026-04-05T21:23:24Z</time></trkpt><trkpt lat="36.83159128720491" lon="-108.11270864674998"><ele>1771.0</ele><time>2026-04-05T21:23:25Z</time></trkpt><trkpt lat="36.83150259017788" lon="-108.11274796610097"><ele>1771.0</ele><time>2026-04-05T21:23:26Z</time></trkpt><trkpt lat="36.83139332035157" lon="-108.11278088567909"><ele>1771.0</ele><time>2026-04-05T21:23:27Z</time></trkpt><trkpt lat="36.83128783932031" lon="-108.11279673972057"><ele>1771.0</ele><time>2026-04-05T21:23:28Z</time></trkpt><trkpt lat="36.831173109618355" lon="-108.11280165309118"><ele>1771.0</ele><time>2026-04-05T21:23:29Z</time></trkpt><trkpt lat="36.831054749485794" lon="-108.11280229216976"><ele>1771.0</ele><time>2026-04-05T21:23:30Z</time></trkpt><trkpt lat="36.830935743381865" lon="-108.11279459468264"><ele>1771.0</ele><time>2026-04-05T21:23:31Z</time></trkpt><trkpt lat="36.83083493746366" lon="-108.1127961188184"><ele>1771.0</ele><time>2026-04-05T21:23:32Z</time></trkpt><trkpt lat="36.83074254455112" lon="-108.11280726983573"><ele>1771.0</ele><time>2026-04-05T21:23:33Z</time></trkpt><trkpt lat="36.83065419599556" lon="-108.11282720264579"><ele>1771.0</ele><time>2026-04-05T21:23:34Z</time></trkpt><trkpt lat="36.830561637893325" lon="-108.11285512712331"><ele>1771.0000000000002</ele><time>2026-04-05T21:23:35Z</time></trkpt><trkpt lat="36.83049352825696" lon="-108.11288946937164"><ele>1771.0</ele><time>2026-04-05T21:23:36Z</time></trkpt><trkpt lat="36.83042081784784" lon="-108.11299341485345"><ele>1771.0</ele><time>2026-04-05T21:23:38Z</time></trkpt><trkpt lat="36.83042081863428" lon="-108.1130759610447"><ele>1771.0</ele><time>2026-04-05T21:23:40Z</time></trkpt><trkpt lat="36.83040563113315" lon="-108.11316372212698"><ele>1771.0000000000002</ele><time>2026-04-05T21:23:41Z</time></trkpt><trkpt lat="36.83034710032749" lon="-108.11325313081876"><ele>1771.0</ele><time>2026-04-05T21:23:42Z</time></trkpt><trkpt lat="36.830253747768715" lon="-108.11334233022347"><ele>1770.8</ele><time>2026-04-05T21:23:43Z</time></trkpt><trkpt lat="36.83018096298535" lon="-108.11342782863204"><ele>1770.6</ele><time>2026-04-05T21:23:44Z</time></trkpt><trkpt lat="36.830111543268636" lon="-108.11351259643813"><ele>1770.4</ele><time>2026-04-05T21:23:45Z</time></trkpt><trkpt lat="36.83014260278624" lon="-108.11368302848187"><ele>1770.2</ele><time>2026-04-05T21:23:46Z</time></trkpt><trkpt lat="36.83010233759021" lon="-108.1138045238201"><ele>1770.0</ele><time>2026-04-05T21:23:47Z</time></trkpt><trkpt lat="36.83004537821423" lon="-108.11390908012777"><ele>1770.0</ele><time>2026-04-05T21:23:48Z</time></trkpt><trkpt lat="36.830030256753545" lon="-108.11401844269695"><ele>1770.0</ele><time>2026-04-05T21:23:49Z</time></trkpt><trkpt lat="36.830030712644025" lon="-108.11413528083563"><ele>1770.0</ele><time>2026-04-05T21:23:50Z</time></trkpt><trkpt lat="36.8300126404355" lon="-108.11421904279769"><ele>1770.0</ele><time>2026-04-05T21:23:51Z</time></trkpt><trkpt lat="36.8299906952335" lon="-108.11434974249642"><ele>1770.0</ele><time>2026-04-05T21:23:53Z</time></trkpt><trkpt lat="36.829845041993465" lon="-108.11439630789609"><ele>1770.0</ele><time>2026-04-05T21:23:55Z</time></trkpt><trkpt lat="36.82976186534128" lon="-108.1144300263536"><ele>1770.0</ele><time>2026-04-05T21:23:56Z</time></trkpt><trkpt lat="36.82968329978877" lon="-108.11447669637909"><ele>1770.0</ele><time>2026-04-05T21:23:57Z</time></trkpt><trkpt lat="36.8295747008489" lon="-108.11456740384843"><ele>1770.0</ele><time>2026-04-05T21:23:58Z</time></trkpt><trkpt lat="36.82947322340713" lon="-108.11464942740496"><ele>1770.0</ele><time>2026-04-05T21:23:59Z</time></trkpt><trkpt lat="36.829343463188884" lon="-108.1147404117505"><ele>1770.0</ele><time>2026-04-05T21:24:00Z</time></trkpt><trkpt lat="36.82921781437994" lon="-108.11482610164106"><ele>1770.0</ele><time>2026-04-05T21:24:01Z</time></trkpt><trkpt lat="36.829097026454185" lon="-108.11489790445475"><ele>1770.0</ele><time>2026-04-05T21:24:02Z</time></trkpt><trkpt lat="36.82897987365231" lon="-108.11496897739761"><ele>1770.0</ele><time>2026-04-05T21:24:03Z</time></trkpt><trkpt lat="36.82886900515482" lon="-108.11504053505239"><ele>1770.0</ele><time>2026-04-05T21:24:04Z</time></trkpt><trkpt lat="36.82874106936277" lon="-108.11511258969445"><ele>1770.0</ele><time>2026-04-05T21:24:05Z</time></trkpt><trkpt lat="36.82861718765224" lon="-108.11518989155952"><ele>1770.0</ele><time>2026-04-05T21:24:06Z</time></trkpt><trkpt lat="36.82848929708537" lon="-108.11529754691061"><ele>1770.0</ele><time>2026-04-05T21:24:07Z</time></trkpt><trkpt lat="36.82837243251384" lon="-108.11536037389925"><ele>1771.25</ele><time>2026-04-05T21:24:08Z</time></trkpt><trkpt lat="36.82823978323799" lon="-108.11543447152995"><ele>1772.5</ele><time>2026-04-05T21:24:09Z</time></trkpt><trkpt lat="36.828104140859075" lon="-108.11552458740529"><ele>1773.75</ele><time>2026-04-05T21:24:10Z</time></trkpt><trkpt lat="36.82798404872967" lon="-108.11559867483696"><ele>1775.0</ele><time>2026-04-05T21:24:11Z</time></trkpt><trkpt lat="36.82786310997647" lon="-108.11567243937492"><ele>1775.25</ele><time>2026-04-05T21:24:12Z</time></trkpt><trkpt lat="36.82774005597905" lon="-108.1157541623898"><ele>1775.5</ele><time>2026-04-05T21:24:13Z</time></trkpt><trkpt lat="36.827616375425045" lon="-108.11583378430481"><ele>1775.75</ele><time>2026-04-05T21:24:14Z</time></trkpt><trkpt lat="36.82750731005211" lon="-108.1158963922412"><ele>1776.0</ele><time>2026-04-05T21:24:15Z</time></trkpt><trkpt lat="36.82738162500603" lon="-108.11596756464807"><ele>1776.75</ele><time>2026-04-05T21:24:16Z</time></trkpt><trkpt lat="36.82726272797856" lon="-108.1160526571249"><ele>1777.5</ele><time>2026-04-05T21:24:17Z</time></trkpt><trkpt lat="36.82713707473132" lon="-108.11614704300055"><ele>1778.25</ele><time>2026-04-05T21:24:18Z</time></trkpt><trkpt lat="36.82699659843362" lon="-108.11624479155758"><ele>1779.0</ele><time>2026-04-05T21:24:19Z</time></trkpt><trkpt lat="36.826869451344564" lon="-108.11632391335971"><ele>1778.25</ele><time>2026-04-05T21:24:20Z</time></trkpt><trkpt lat="36.82674635056729" lon="-108.1163980487678"><ele>1777.5</ele><time>2026-04-05T21:24:21Z</time></trkpt><trkpt lat="36.82664647370608" lon="-108.11646708751074"><ele>1776.75</ele><time>2026-04-05T21:24:22Z</time></trkpt><trkpt lat="36.82654227373313" lon="-108.11652948365229"><ele>1776.0</ele><time>2026-04-05T21:24:23Z</time></trkpt><trkpt lat="36.826424940280745" lon="-108.11657458786584"><ele>1776.0</ele><time>2026-04-05T21:24:24Z</time></trkpt><trkpt lat="36.826304741788256" lon="-108.11664733091638"><ele>1776.0</ele><time>2026-04-05T21:24:25Z</time></trkpt><trkpt lat="36.82619135328985" lon="-108.11675144853815"><ele>1776.0</ele><time>2026-04-05T21:24:26Z</time></trkpt><trkpt lat="36.82607152770188" lon="-108.11684014816053"><ele>1776.0</ele><time>2026-04-05T21:24:27Z</time></trkpt><trkpt lat="36.82594392247429" lon="-108.11691354388476"><ele>1776.3333333333335</ele><time>2026-04-05T21:24:28Z</time></trkpt><trkpt lat="36.82580571752365" lon="-108.11700088594998"><ele>1776.6666666666667</ele><time>2026-04-05T21:24:29Z</time></trkpt><trkpt lat="36.825656195064006" lon="-108.11709685395056"><ele>1777.0</ele><time>2026-04-05T21:24:30Z</time></trkpt><trkpt lat="36.82553254941769" lon="-108.11717271179654"><ele>1777.0</ele><time>2026-04-05T21:24:31Z</time></trkpt><trkpt lat="36.82539959400193" lon="-108.11725066500041"><ele>1777.0</ele><time>2026-04-05T21:24:32Z</time></trkpt><trkpt lat="36.825257524662355" lon="-108.11734004972455"><ele>1777.0</ele><time>2026-04-05T21:24:33Z</time></trkpt><trkpt lat="36.82512862963587" lon="-108.11742209327555"><ele>1777.75</ele><time>2026-04-05T21:24:34Z</time></trkpt><trkpt lat="36.8250091560212" lon="-108.11749544181819"><ele>1778.5</ele><time>2026-04-05T21:24:35Z</time></trkpt><trkpt lat="36.824890350827374" lon="-108.11756429833066"><ele>1779.25</ele><time>2026-04-05T21:24:36Z</time></trkpt><trkpt lat="36.8247615771618" lon="-108.11763540654555"><ele>1780.0</ele><time>2026-04-05T21:24:37Z</time></trkpt><trkpt lat="36.82463402829285" lon="-108.11772320760518"><ele>1780.0</ele><time>2026-04-05T21:24:38Z</time></trkpt><trkpt lat="36.82451951742987" lon="-108.11779537110552"><ele>1780.0</ele><time>2026-04-05T21:24:39Z</time></trkpt><trkpt lat="36.82440995380575" lon="-108.11786960848514"><ele>1780.0</ele><time>2026-04-05T21:24:40Z</time></trkpt><trkpt lat="36.82430496193746" lon="-108.1179394613713"><ele>1780.0</ele><time>2026-04-05T21:24:41Z</time></trkpt><trkpt lat="36.82420456318699" lon="-108.11800354335806"><ele>1780.4</ele><time>2026-04-05T21:24:42Z</time></trkpt><trkpt lat="36.8240950663013" lon="-108.11808533897658"><ele>1780.8</ele><time>2026-04-05T21:24:43Z</time></trkpt><trkpt lat="36.82398545114927" lon="-108.1181599186261"><ele>1781.1999999999998</ele><time>2026-04-05T21:24:44Z</time></trkpt><trkpt lat="36.82389241838505" lon="-108.11821646659097"><ele>1781.6</ele><time>2026-04-05T21:24:45Z</time></trkpt><trkpt lat="36.82380860540207" lon="-108.1182670160528"><ele>1782.0</ele><time>2026-04-05T21:24:46Z</time></trkpt><trkpt lat="36.823708841622754" lon="-108.11832833986738"><ele>1782.25</ele><time>2026-04-05T21:24:47Z</time></trkpt><trkpt lat="36.82359612865532" lon="-108.11840030026684"><ele>1782.5</ele><time>2026-04-05T21:24:48Z</time></trkpt><trkpt lat="36.82349695144859" lon="-108.11845899380448"><ele>1782.75</ele><time>2026-04-05T21:24:49Z</time></trkpt><trkpt lat="36.823392200027314" lon="-108.11853369351115"><ele>1783.0</ele><time>2026-04-05T21:24:50.001Z</time></trkpt><trkpt lat="36.82328151032828" lon="-108.11861670082132"><ele>1782.0</ele><time>2026-04-05T21:24:51.001Z</time></trkpt><trkpt lat="36.82317752898539" lon="-108.11868738620564"><ele>1781.0</ele><time>2026-04-05T21:24:52.001Z</time></trkpt><trkpt lat="36.82306339742496" lon="-108.1187621073596"><ele>1780.0</ele><time>2026-04-05T21:24:53.001Z</time></trkpt><trkpt lat="36.82294980356767" lon="-108.11883739785497"><ele>1779.0</ele><time>2026-04-05T21:24:54.001Z</time></trkpt><trkpt lat="36.822842665864435" lon="-108.1189154714858"><ele>1779.0</ele><time>2026-04-05T21:24:55.001Z</time></trkpt><trkpt lat="36.82274173183002" lon="-108.11898132701276"><ele>1779.0</ele><time>2026-04-05T21:24:56.001Z</time></trkpt><trkpt lat="36.822635491004725" lon="-108.11904032185048"><ele>1779.0</ele><time>2026-04-05T21:24:57.001Z</time></trkpt><trkpt lat="36.82252364846274" lon="-108.11911079148116"><ele>1779.0</ele><time>2026-04-05T21:24:58.001Z</time></trkpt><trkpt lat="36.82240625424344" lon="-108.11919801429617"><ele>1778.2</ele><time>2026-04-05T21:24:59.001Z</time></trkpt><trkpt lat="36.82228579695408" lon="-108.11928626150073"><ele>1777.4</ele><time>2026-04-05T21:25:00.001Z</time></trkpt><trkpt lat="36.822174147501606" lon="-108.11936394862381"><ele>1776.6</ele><time>2026-04-05T21:25:01.001Z</time></trkpt><trkpt lat="36.82209061351479" lon="-108.11942659729664"><ele>1775.8</ele><time>2026-04-05T21:25:02.001Z</time></trkpt><trkpt lat="36.82201698689877" lon="-108.11947306535525"><ele>1775.0</ele><time>2026-04-05T21:25:03.001Z</time></trkpt><trkpt lat="36.82195140296307" lon="-108.11947623141829"><ele>1775.0</ele><time>2026-04-05T21:25:04.001Z</time></trkpt><trkpt lat="36.82186820460757" lon="-108.11945095353153"><ele>1775.0</ele><time>2026-04-05T21:25:05.001Z</time></trkpt><trkpt lat="36.82175155996192" lon="-108.11940854867308"><ele>1775.0</ele><time>2026-04-05T21:25:06.001Z</time></trkpt><trkpt lat="36.82165587557779" lon="-108.11941408187516"><ele>1775.0</ele><time>2026-04-05T21:25:07.001Z</time></trkpt><trkpt lat="36.82158327778936" lon="-108.1194730967597"><ele>1775.0</ele><time>2026-04-05T21:25:08.001Z</time></trkpt><trkpt lat="36.821519217336856" lon="-108.11953851721944"><ele>1775.25</ele><time>2026-04-05T21:25:09.001Z</time></trkpt><trkpt lat="36.821411347362975" lon="-108.11957684371878"><ele>1775.5</ele><time>2026-04-05T21:25:11.001Z</time></trkpt><trkpt lat="36.82135378790484" lon="-108.11972268931572"><ele>1775.75</ele><time>2026-04-05T21:25:13.001Z</time></trkpt><trkpt lat="36.821246113360154" lon="-108.11977378723822"><ele>1776.0</ele><time>2026-04-05T21:25:15.001Z</time></trkpt><trkpt lat="36.82114473035638" lon="-108.11983795254491"><ele>1776.25</ele><time>2026-04-05T21:25:16.001Z</time></trkpt><trkpt lat="36.821049168205285" lon="-108.11993930860696"><ele>1776.5</ele><time>2026-04-05T21:25:17.001Z</time></trkpt><trkpt lat="36.820962395209385" lon="-108.12006829510503"><ele>1776.75</ele><time>2026-04-05T21:25:18.001Z</time></trkpt><trkpt lat="36.82088424281715" lon="-108.12019421426368"><ele>1777.0</ele><time>2026-04-05T21:25:19.001Z</time></trkpt><trkpt lat="36.82081496585619" lon="-108.1202775411675"><ele>1776.1999999999998</ele><time>2026-04-05T21:25:20.001Z</time></trkpt><trkpt lat="36.82073050544108" lon="-108.12034651245827"><ele>1775.3999999999999</ele><time>2026-04-05T21:25:21.001Z</time></trkpt><trkpt lat="36.82063581340331" lon="-108.12039696505005"><ele>1774.6000000000001</ele><time>2026-04-05T21:25:22Z</time></trkpt><trkpt lat="36.8205483405528" lon="-108.12043081124469"><ele>1773.8000000000002</ele><time>2026-04-05T21:25:23Z</time></trkpt><trkpt lat="36.82048117683039" lon="-108.12045754231418"><ele>1773.0</ele><time>2026-04-05T21:25:24Z</time></trkpt><trkpt lat="36.820378108519925" lon="-108.12052338703073"><ele>1773.0</ele><time>2026-04-05T21:25:26Z</time></trkpt><trkpt lat="36.82031257390055" lon="-108.12058393354305"><ele>1773.0000000000002</ele><time>2026-04-05T21:25:27Z</time></trkpt><trkpt lat="36.82024434479377" lon="-108.12069455142766"><ele>1773.0000000000002</ele><time>2026-04-05T21:25:28Z</time></trkpt><trkpt lat="36.820184512866405" lon="-108.12082119211715"><ele>1773.0</ele><time>2026-04-05T21:25:29Z</time></trkpt><trkpt lat="36.82014963034135" lon="-108.1209080691937"><ele>1773.0</ele><time>2026-04-05T21:25:30Z</time></trkpt><trkpt lat="36.82013298964172" lon="-108.1210150865061"><ele>1773.2</ele><time>2026-04-05T21:25:32Z</time></trkpt><trkpt lat="36.820062726464954" lon="-108.12111519141096"><ele>1773.4</ele><time>2026-04-05T21:25:34Z</time></trkpt><trkpt lat="36.81998330347543" lon="-108.12110991304596"><ele>1773.6000000000001</ele><time>2026-04-05T21:25:36Z</time></trkpt><trkpt lat="36.819890721726885" lon="-108.12107510450976"><ele>1773.8000000000002</ele><time>2026-04-05T21:25:37Z</time></trkpt><trkpt lat="36.819813954962235" lon="-108.12096395234903"><ele>1774.0</ele><time>2026-04-05T21:25:39Z</time></trkpt><trkpt lat="36.81972626721713" lon="-108.1209356309587"><ele>1774.0</ele><time>2026-04-05T21:25:41Z</time></trkpt><trkpt lat="36.81965230143454" lon="-108.12097054118324"><ele>1774.0</ele><time>2026-04-05T21:25:42Z</time></trkpt><trkpt lat="36.81957862034785" lon="-108.12103983451014"><ele>1774.0</ele><time>2026-04-05T21:25:43Z</time></trkpt><trkpt lat="36.8194871075584" lon="-108.1211097831563"><ele>1774.0</ele><time>2026-04-05T21:25:44Z</time></trkpt><trkpt lat="36.81937546389986" lon="-108.12117492952127"><ele>1774.0</ele><time>2026-04-05T21:25:45Z</time></trkpt><trkpt lat="36.81925984287542" lon="-108.12124850728019"><ele>1775.25</ele><time>2026-04-05T21:25:46Z</time></trkpt><trkpt lat="36.81914846552004" lon="-108.1213352339894"><ele>1776.5</ele><time>2026-04-05T21:25:47Z</time></trkpt><trkpt lat="36.819020097090025" lon="-108.1213885454991"><ele>1777.75</ele><time>2026-04-05T21:25:48Z</time></trkpt><trkpt lat="36.81887337104244" lon="-108.12147834957594"><ele>1779.0</ele><time>2026-04-05T21:25:49Z</time></trkpt><trkpt lat="36.818741226984706" lon="-108.12156951030677"><ele>1779.5</ele><time>2026-04-05T21:25:50Z</time></trkpt><trkpt lat="36.81863448343131" lon="-108.12163929862035"><ele>1780.0</ele><time>2026-04-05T21:25:51Z</time></trkpt><trkpt lat="36.81851512068942" lon="-108.12170696610286"><ele>1780.5</ele><time>2026-04-05T21:25:52Z</time></trkpt><trkpt lat="36.81839695339828" lon="-108.1217760983742"><ele>1781.0</ele><time>2026-04-05T21:25:53Z</time></trkpt><trkpt lat="36.81829115725283" lon="-108.12184192847691"><ele>1782.0</ele><time>2026-04-05T21:25:53.999Z</time></trkpt><trkpt lat="36.81817909367119" lon="-108.12191529368893"><ele>1783.0</ele><time>2026-04-05T21:25:54.999Z</time></trkpt><trkpt lat="36.818067386387256" lon="-108.12199335206193"><ele>1784.0</ele><time>2026-04-05T21:25:55.999Z</time></trkpt><trkpt lat="36.81794879927107" lon="-108.12206617378739"><ele>1785.0</ele><time>2026-04-05T21:25:56.999Z</time></trkpt><trkpt lat="36.81785686378685" lon="-108.12212268521863"><ele>1785.0</ele><time>2026-04-05T21:25:57.999Z</time></trkpt><trkpt lat="36.81775861192018" lon="-108.12219954218963"><ele>1785.0</ele><time>2026-04-05T21:25:58.999Z</time></trkpt><trkpt lat="36.81767584490438" lon="-108.12224605761244"><ele>1785.0</ele><time>2026-04-05T21:25:59.999Z</time></trkpt><trkpt lat="36.817582100269746" lon="-108.1223211344573"><ele>1785.0</ele><time>2026-04-05T21:26:00.999Z</time></trkpt><trkpt lat="36.817483523712966" lon="-108.12239219636203"><ele>1785.0</ele><time>2026-04-05T21:26:01.999Z</time></trkpt><trkpt lat="36.81738484475571" lon="-108.12245832681185"><ele>1784.5</ele><time>2026-04-05T21:26:02.999Z</time></trkpt><trkpt lat="36.81728613362831" lon="-108.12252800863558"><ele>1784.0</ele><time>2026-04-05T21:26:03.999Z</time></trkpt><trkpt lat="36.81718707616553" lon="-108.12261768701514"><ele>1783.5</ele><time>2026-04-05T21:26:04.999Z</time></trkpt><trkpt lat="36.81707122667443" lon="-108.12270138148389"><ele>1783.0</ele><time>2026-04-05T21:26:05.999Z</time></trkpt><trkpt lat="36.81696189234731" lon="-108.12277732017552"><ele>1783.0</ele><time>2026-04-05T21:26:06.999Z</time></trkpt><trkpt lat="36.81687259398338" lon="-108.12283206292922"><ele>1783.0000000000002</ele><time>2026-04-05T21:26:07.999Z</time></trkpt><trkpt lat="36.816815540851685" lon="-108.12289178979715"><ele>1783.0000000000002</ele><time>2026-04-05T21:26:08.999Z</time></trkpt><trkpt lat="36.81672867318916" lon="-108.12298244391579"><ele>1783.0</ele><time>2026-04-05T21:26:09.999Z</time></trkpt><trkpt lat="36.81661358673951" lon="-108.12309024250396"><ele>1783.0</ele><time>2026-04-05T21:26:10.999Z</time></trkpt><trkpt lat="36.81648874684012" lon="-108.12321811192204"><ele>1782.75</ele><time>2026-04-05T21:26:11.999Z</time></trkpt><trkpt lat="36.816365140975705" lon="-108.12334319242424"><ele>1782.5</ele><time>2026-04-05T21:26:12.999Z</time></trkpt><trkpt lat="36.81625104547388" lon="-108.12345798505937"><ele>1782.25</ele><time>2026-04-05T21:26:13.999Z</time></trkpt><trkpt lat="36.81618354851012" lon="-108.12351966669893"><ele>1782.0</ele><time>2026-04-05T21:26:14.999Z</time></trkpt><trkpt lat="36.81612598217096" lon="-108.12357234517863"><ele>1782.0</ele><time>2026-04-05T21:26:15.999Z</time></trkpt><trkpt lat="36.8160459244167" lon="-108.12361462267972"><ele>1782.0</ele><time>2026-04-05T21:26:16.999Z</time></trkpt><trkpt lat="36.81596701211333" lon="-108.12362227393047"><ele>1782.0</ele><time>2026-04-05T21:26:17.999Z</time></trkpt><trkpt lat="36.81587831458861" lon="-108.12362538127839"><ele>1782.0</ele><time>2026-04-05T21:26:18.999Z</time></trkpt><trkpt lat="36.815801123527976" lon="-108.12365117851455"><ele>1782.0</ele><time>2026-04-05T21:26:20.999Z</time></trkpt><trkpt lat="36.815723794083986" lon="-108.1236816959628"><ele>1782.0</ele><time>2026-04-05T21:26:21.999Z</time></trkpt><trkpt lat="36.81563633802841" lon="-108.1237232108454"><ele>1782.1666666666667</ele><time>2026-04-05T21:26:22.999Z</time></trkpt><trkpt lat="36.81555360380607" lon="-108.12376656992265"><ele>1782.3333333333335</ele><time>2026-04-05T21:26:23.999Z</time></trkpt><trkpt lat="36.81548358392114" lon="-108.12380979892143"><ele>1782.5</ele><time>2026-04-05T21:26:24.999Z</time></trkpt><trkpt lat="36.815417927295876" lon="-108.12388360953912"><ele>1782.6666666666667</ele><time>2026-04-05T21:26:38.999Z</time></trkpt><trkpt lat="36.815341254262286" lon="-108.12394714918845"><ele>1782.8333333333335</ele><time>2026-04-05T21:26:39.999Z</time></trkpt><trkpt lat="36.815261749890695" lon="-108.12401309347032"><ele>1783.0</ele><time>2026-04-05T21:26:40.999Z</time></trkpt><trkpt lat="36.81517194164617" lon="-108.12408314085431"><ele>1784.75</ele><time>2026-04-05T21:26:41.999Z</time></trkpt><trkpt lat="36.81506003307175" lon="-108.12416487849126"><ele>1786.5</ele><time>2026-04-05T21:26:42.999Z</time></trkpt><trkpt lat="36.81497353746368" lon="-108.12423134989524"><ele>1788.25</ele><time>2026-04-05T21:26:43.999Z</time></trkpt><trkpt lat="36.81487401226532" lon="-108.12432189714879"><ele>1790.0</ele><time>2026-04-05T21:26:44.999Z</time></trkpt><trkpt lat="36.814738361716095" lon="-108.12440896580286"><ele>1790.0</ele><time>2026-04-05T21:26:45.999Z</time></trkpt><trkpt lat="36.81462037450497" lon="-108.12448744851608"><ele>1790.0</ele><time>2026-04-05T21:26:46.999Z</time></trkpt><trkpt lat="36.81451449175735" lon="-108.12455597490356"><ele>1790.0</ele><time>2026-04-05T21:26:47.999Z</time></trkpt><trkpt lat="36.814397789952245" lon="-108.1246346303571"><ele>1790.0</ele><time>2026-04-05T21:26:48.999Z</time></trkpt><trkpt lat="36.81425963406694" lon="-108.12472961388843"><ele>1790.0</ele><time>2026-04-05T21:26:49.999Z</time></trkpt><trkpt lat="36.81413547920273" lon="-108.12480453838359"><ele>1790.0</ele><time>2026-04-05T21:26:50.999Z</time></trkpt><trkpt lat="36.814044225789395" lon="-108.1248674642178"><ele>1790.0</ele><time>2026-04-05T21:26:51.999Z</time></trkpt><trkpt lat="36.81397244578151" lon="-108.12493122745195"><ele>1790.0</ele><time>2026-04-05T21:26:52.999Z</time></trkpt><trkpt lat="36.81385503570364" lon="-108.1250230315218"><ele>1790.75</ele><time>2026-04-05T21:26:53.999Z</time></trkpt><trkpt lat="36.813719864275456" lon="-108.12511335652032"><ele>1791.5</ele><time>2026-04-05T21:26:54.999Z</time></trkpt><trkpt lat="36.81359099806934" lon="-108.12519369097178"><ele>1792.25</ele><time>2026-04-05T21:26:56Z</time></trkpt><trkpt lat="36.81346871669153" lon="-108.1252734074189"><ele>1793.0</ele><time>2026-04-05T21:26:57Z</time></trkpt><trkpt lat="36.813368611385805" lon="-108.12535229597141"><ele>1793.2</ele><time>2026-04-05T21:26:58Z</time></trkpt><trkpt lat="36.81325740368799" lon="-108.12544053170265"><ele>1793.4</ele><time>2026-04-05T21:26:59Z</time></trkpt><trkpt lat="36.81316948594209" lon="-108.12550679056473"><ele>1793.6000000000001</ele><time>2026-04-05T21:27:00Z</time></trkpt><trkpt lat="36.81308667152263" lon="-108.12556325750943"><ele>1793.8000000000002</ele><time>2026-04-05T21:27:01Z</time></trkpt><trkpt lat="36.81300498396902" lon="-108.12562900126574"><ele>1794.0</ele><time>2026-04-05T21:27:02Z</time></trkpt><trkpt lat="36.812932928629785" lon="-108.12567461460492"><ele>1794.0</ele><time>2026-04-05T21:27:03Z</time></trkpt><trkpt lat="36.812846362953145" lon="-108.12572312103028"><ele>1794.0</ele><time>2026-04-05T21:27:04Z</time></trkpt><trkpt lat="36.81274743428184" lon="-108.12579379327607"><ele>1794.0</ele><time>2026-04-05T21:27:05Z</time></trkpt><trkpt lat="36.812649834115305" lon="-108.12586572621325"><ele>1794.0</ele><time>2026-04-05T21:27:06Z</time></trkpt><trkpt lat="36.812564952423436" lon="-108.12592309146697"><ele>1794.0</ele><time>2026-04-05T21:27:07Z</time></trkpt><trkpt lat="36.81248716283873" lon="-108.12600063611292"><ele>1794.4</ele><time>2026-04-05T21:27:08Z</time></trkpt><trkpt lat="36.812408950381425" lon="-108.12609162986053"><ele>1794.8000000000002</ele><time>2026-04-05T21:27:09Z</time></trkpt><trkpt lat="36.81233386581183" lon="-108.12616872104782"><ele>1795.1999999999998</ele><time>2026-04-05T21:27:10Z</time></trkpt><trkpt lat="36.81224407009582" lon="-108.12623092977034"><ele>1795.6</ele><time>2026-04-05T21:27:11Z</time></trkpt><trkpt lat="36.81214566108121" lon="-108.12628166781867"><ele>1796.0</ele><time>2026-04-05T21:27:12Z</time></trkpt><trkpt lat="36.81202691008714" lon="-108.12632217300404"><ele>1796.0</ele><time>2026-04-05T21:27:13Z</time></trkpt><trkpt lat="36.811901668198665" lon="-108.12637030111235"><ele>1796.0</ele><time>2026-04-05T21:27:14Z</time></trkpt><trkpt lat="36.811772152842224" lon="-108.12642385339615"><ele>1796.0</ele><time>2026-04-05T21:27:15Z</time></trkpt><trkpt lat="36.81163176599647" lon="-108.12647947450782"><ele>1796.0</ele><time>2026-04-05T21:27:16Z</time></trkpt><trkpt lat="36.811484492390555" lon="-108.12651557420303"><ele>1796.5</ele><time>2026-04-05T21:27:17Z</time></trkpt><trkpt lat="36.811350522591106" lon="-108.12653697076472"><ele>1797.0</ele><time>2026-04-05T21:27:18Z</time></trkpt><trkpt lat="36.81124988277417" lon="-108.12656222957554"><ele>1797.5</ele><time>2026-04-05T21:27:19Z</time></trkpt><trkpt lat="36.81116240659561" lon="-108.12666605913293"><ele>1798.0</ele><time>2026-04-05T21:27:21Z</time></trkpt><trkpt lat="36.81110005634397" lon="-108.12677330771642"><ele>1798.6000000000001</ele><time>2026-04-05T21:27:22Z</time></trkpt><trkpt lat="36.81101289154952" lon="-108.12687059825402"><ele>1799.2000000000003</ele><time>2026-04-05T21:27:23Z</time></trkpt><trkpt lat="36.81092681376027" lon="-108.12690520353695"><ele>1799.8</ele><time>2026-04-05T21:27:24Z</time></trkpt><trkpt lat="36.81086845650942" lon="-108.1269551496429"><ele>1800.4</ele><time>2026-04-05T21:27:25Z</time></trkpt><trkpt lat="36.81079378633074" lon="-108.12681493047452"><ele>1801.0</ele><time>2026-04-05T21:27:27Z</time></trkpt><trkpt lat="36.81068781097525" lon="-108.12669748823645"><ele>1801.0</ele><time>2026-04-05T21:27:28Z</time></trkpt><trkpt lat="36.81056829839174" lon="-108.12662229489014"><ele>1801.0</ele><time>2026-04-05T21:27:29Z</time></trkpt><trkpt lat="36.81046772181191" lon="-108.12658585212839"><ele>1801.0</ele><time>2026-04-05T21:27:30Z</time></trkpt><trkpt lat="36.81034492845649" lon="-108.12652616204917"><ele>1801.0</ele><time>2026-04-05T21:27:31Z</time></trkpt><trkpt lat="36.81024625611829" lon="-108.12646008427771"><ele>1800.0</ele><time>2026-04-05T21:27:32Z</time></trkpt><trkpt lat="36.810148944191376" lon="-108.12639482152804"><ele>1799.0</ele><time>2026-04-05T21:27:33Z</time></trkpt><trkpt lat="36.810077838020824" lon="-108.126354950155"><ele>1798.0</ele><time>2026-04-05T21:27:34Z</time></trkpt><trkpt lat="36.80996557928569" lon="-108.12633561935056"><ele>1797.0</ele><time>2026-04-05T21:27:36Z</time></trkpt><trkpt lat="36.80985520880326" lon="-108.12631111627813"><ele>1796.0</ele><time>2026-04-05T21:27:37Z</time></trkpt><trkpt lat="36.80973478172423" lon="-108.12625916866888"><ele>1796.0</ele><time>2026-04-05T21:27:38Z</time></trkpt><trkpt lat="36.8096427022051" lon="-108.12626557368768"><ele>1796.0</ele><time>2026-04-05T21:27:39Z</time></trkpt><trkpt lat="36.809524909230284" lon="-108.12627575941205"><ele>1796.0</ele><time>2026-04-05T21:27:40Z</time></trkpt><trkpt lat="36.809425475078086" lon="-108.12634180411568"><ele>1796.0</ele><time>2026-04-05T21:27:41Z</time></trkpt><trkpt lat="36.80930273162957" lon="-108.12642354194799"><ele>1793.6666666666665</ele><time>2026-04-05T21:27:42Z</time></trkpt><trkpt lat="36.80915974893321" lon="-108.12651805684467"><ele>1791.3333333333335</ele><time>2026-04-05T21:27:43Z</time></trkpt><trkpt lat="36.80901677991188" lon="-108.12662030048025"><ele>1789.0</ele><time>2026-04-05T21:27:44Z</time></trkpt><trkpt lat="36.80888866451106" lon="-108.1267098858789"><ele>1789.0</ele><time>2026-04-05T21:27:44.999Z</time></trkpt><trkpt lat="36.80875743408429" lon="-108.12679431701504"><ele>1789.0</ele><time>2026-04-05T21:27:45.999Z</time></trkpt><trkpt lat="36.808642627684776" lon="-108.12687390081365"><ele>1789.0</ele><time>2026-04-05T21:27:46.999Z</time></trkpt><trkpt lat="36.80854201894743" lon="-108.12690031464179"><ele>1789.0</ele><time>2026-04-05T21:27:47.999Z</time></trkpt><trkpt lat="36.80846293169387" lon="-108.12689814180379"><ele>1788.0</ele><time>2026-04-05T21:27:48.999Z</time></trkpt><trkpt lat="36.808370284211556" lon="-108.12691639249964"><ele>1787.0</ele><time>2026-04-05T21:27:49.999Z</time></trkpt><trkpt lat="36.80827535198842" lon="-108.12688940550409"><ele>1786.0</ele><time>2026-04-05T21:27:51.999Z</time></trkpt><trkpt lat="36.80821131762853" lon="-108.12732211707372"><ele>1786.0000000000002</ele><time>2026-04-05T21:27:52.999Z</time></trkpt><trkpt lat="36.80815900252312" lon="-108.12737221836932"><ele>1786.0</ele><time>2026-04-05T21:28:22.999Z</time></trkpt><trkpt lat="36.80808782075601" lon="-108.12745044340808"><ele>1786.0</ele><time>2026-04-05T21:28:24.999Z</time></trkpt><trkpt lat="36.80804503899821" lon="-108.1275116974565"><ele>1786.0</ele><time>2026-04-05T21:28:25.999Z</time></trkpt><trkpt lat="36.80797715658263" lon="-108.12758374734095"><ele>1786.0000000000002</ele><time>2026-04-05T21:28:26.999Z</time></trkpt><trkpt lat="36.807917854649254" lon="-108.12765639599003"><ele>1786.0</ele><time>2026-04-05T21:28:27.999Z</time></trkpt><trkpt lat="36.80787115491667" lon="-108.12771346329708"><ele>1787.1999999999998</ele><time>2026-04-05T21:28:28.999Z</time></trkpt><trkpt lat="36.8078379625689" lon="-108.12788021163904"><ele>1788.3999999999999</ele><time>2026-04-05T21:28:30.999Z</time></trkpt><trkpt lat="36.80783498905538" lon="-108.12800227121438"><ele>1789.6</ele><time>2026-04-05T21:28:31.999Z</time></trkpt><trkpt lat="36.807857445367105" lon="-108.12809238900967"><ele>1790.8</ele><time>2026-04-05T21:28:32.999Z</time></trkpt><trkpt lat="36.807830872576254" lon="-108.12816659680965"><ele>1792.0</ele><time>2026-04-05T21:28:34.999Z</time></trkpt><trkpt lat="36.807700232605185" lon="-108.12820140934981"><ele>1790.75</ele><time>2026-04-05T21:28:36.999Z</time></trkpt><trkpt lat="36.80761636762968" lon="-108.12816859848157"><ele>1789.5</ele><time>2026-04-05T21:28:37.999Z</time></trkpt><trkpt lat="36.80751306526828" lon="-108.12814378718336"><ele>1788.25</ele><time>2026-04-05T21:28:38.999Z</time></trkpt><trkpt lat="36.8073799219537" lon="-108.12815306736115"><ele>1787.0</ele><time>2026-04-05T21:28:39.999Z</time></trkpt><trkpt lat="36.80723967676686" lon="-108.12819811964202"><ele>1787.0</ele><time>2026-04-05T21:28:40.999Z</time></trkpt><trkpt lat="36.807105129748855" lon="-108.1282094826359"><ele>1787.0</ele><time>2026-04-05T21:28:41.999Z</time></trkpt><trkpt lat="36.80697758536858" lon="-108.12818388176603"><ele>1787.0</ele><time>2026-04-05T21:28:42.999Z</time></trkpt><trkpt lat="36.80685490276731" lon="-108.12816373206083"><ele>1787.0</ele><time>2026-04-05T21:28:43.999Z</time></trkpt><trkpt lat="36.806735953770165" lon="-108.12816387202378"><ele>1786.8</ele><time>2026-04-05T21:28:44.999Z</time></trkpt><trkpt lat="36.8066216136642" lon="-108.12818468386622"><ele>1786.6</ele><time>2026-04-05T21:28:45.999Z</time></trkpt><trkpt lat="36.80653277136559" lon="-108.12821037587308"><ele>1786.3999999999999</ele><time>2026-04-05T21:28:46.999Z</time></trkpt><trkpt lat="36.806459182266586" lon="-108.12828758856874"><ele>1786.1999999999998</ele><time>2026-04-05T21:28:47.999Z</time></trkpt><trkpt lat="36.80637387600869" lon="-108.12840763119574"><ele>1786.0</ele><time>2026-04-05T21:28:48.999Z</time></trkpt><trkpt lat="36.80626446106912" lon="-108.12850700017124"><ele>1786.5</ele><time>2026-04-05T21:28:49.999Z</time></trkpt><trkpt lat="36.80614261011562" lon="-108.12856461356074"><ele>1787.0</ele><time>2026-04-05T21:28:50.999Z</time></trkpt><trkpt lat="36.80600792396513" lon="-108.1286006649213"><ele>1787.5</ele><time>2026-04-05T21:28:51.999Z</time></trkpt><trkpt lat="36.805892989217256" lon="-108.12867122534638"><ele>1788.0</ele><time>2026-04-05T21:28:52.999Z</time></trkpt><trkpt lat="36.80578701403131" lon="-108.12876342866446"><ele>1787.2</ele><time>2026-04-05T21:28:53.999Z</time></trkpt><trkpt lat="36.805671805680895" lon="-108.128834193787"><ele>1786.4</ele><time>2026-04-05T21:28:54.999Z</time></trkpt><trkpt lat="36.8055707576188" lon="-108.12886162630697"><ele>1785.6000000000001</ele><time>2026-04-05T21:28:55.999Z</time></trkpt><trkpt lat="36.805470115261514" lon="-108.12889639759146"><ele>1784.8000000000002</ele><time>2026-04-05T21:28:56.999Z</time></trkpt><trkpt lat="36.80538705589069" lon="-108.128937685902"><ele>1784.0</ele><time>2026-04-05T21:28:57.999Z</time></trkpt><trkpt lat="36.80529596864192" lon="-108.12899473863231"><ele>1783.8333333333333</ele><time>2026-04-05T21:28:58.999Z</time></trkpt><trkpt lat="36.80522499970264" lon="-108.12906252853281"><ele>1783.6666666666665</ele><time>2026-04-05T21:28:59.999Z</time></trkpt><trkpt lat="36.80516256070567" lon="-108.12914549463942"><ele>1783.5</ele><time>2026-04-05T21:29:00.999Z</time></trkpt><trkpt lat="36.80510007300353" lon="-108.12918247902421"><ele>1783.3333333333335</ele><time>2026-04-05T21:29:02Z</time></trkpt><trkpt lat="36.80507159430552" lon="-108.12925802915706"><ele>1783.1666666666667</ele><time>2026-04-05T21:29:03Z</time></trkpt><trkpt lat="36.80505894128316" lon="-108.12936091706031"><ele>1783.0</ele><time>2026-04-05T21:29:04Z</time></trkpt><trkpt lat="36.805033963547324" lon="-108.12947110902209"><ele>1781.8000000000002</ele><time>2026-04-05T21:29:05Z</time></trkpt><trkpt lat="36.80498506058967" lon="-108.12958818515916"><ele>1780.6000000000001</ele><time>2026-04-05T21:29:06Z</time></trkpt><trkpt lat="36.804955097953766" lon="-108.12968014751348"><ele>1779.3999999999999</ele><time>2026-04-05T21:29:07Z</time></trkpt><trkpt lat="36.80497209824924" lon="-108.12976037347734"><ele>1778.1999999999998</ele><time>2026-04-05T21:29:08Z</time></trkpt><trkpt lat="36.80500976471481" lon="-108.12987230700469"><ele>1777.0</ele><time>2026-04-05T21:29:09Z</time></trkpt><trkpt lat="36.80500730963782" lon="-108.13001880838839"><ele>1776.75</ele><time>2026-04-05T21:29:10Z</time></trkpt><trkpt lat="36.80501950642375" lon="-108.13017933655505"><ele>1776.5</ele><time>2026-04-05T21:29:11Z</time></trkpt><trkpt lat="36.80501596797116" lon="-108.13035819241453"><ele>1776.25</ele><time>2026-04-05T21:29:12Z</time></trkpt><trkpt lat="36.805005714576716" lon="-108.1305378906926"><ele>1776.0</ele><time>2026-04-05T21:29:13Z</time></trkpt><trkpt lat="36.80500188336032" lon="-108.13071662925708"><ele>1776.3333333333335</ele><time>2026-04-05T21:29:14Z</time></trkpt><trkpt lat="36.80500728089764" lon="-108.13090632404617"><ele>1776.6666666666667</ele><time>2026-04-05T21:29:15Z</time></trkpt><trkpt lat="36.805013505249335" lon="-108.1311030490515"><ele>1777.0</ele><time>2026-04-05T21:29:16Z</time></trkpt><trkpt lat="36.80501403804804" lon="-108.13130775767392"><ele>1777.0</ele><time>2026-04-05T21:29:17Z</time></trkpt><trkpt lat="36.805012387280925" lon="-108.13151179167286"><ele>1777.0</ele><time>2026-04-05T21:29:18Z</time></trkpt><trkpt lat="36.80500774340286" lon="-108.13171129814233"><ele>1777.0</ele><time>2026-04-05T21:29:19Z</time></trkpt><trkpt lat="36.805003950206206" lon="-108.13189735492637"><ele>1777.25</ele><time>2026-04-05T21:29:20Z</time></trkpt><trkpt lat="36.805011219842584" lon="-108.13207781845915"><ele>1777.5</ele><time>2026-04-05T21:29:21Z</time></trkpt><trkpt lat="36.80502471549221" lon="-108.13225984715083"><ele>1777.75</ele><time>2026-04-05T21:29:22Z</time></trkpt><trkpt lat="36.80502511344376" lon="-108.13241785474989"><ele>1778.0</ele><time>2026-04-05T21:29:23Z</time></trkpt><trkpt lat="36.80501294272939" lon="-108.13255149057302"><ele>1778.8000000000002</ele><time>2026-04-05T21:29:24Z</time></trkpt><trkpt lat="36.80498263598699" lon="-108.1326592726273"><ele>1779.6000000000001</ele><time>2026-04-05T21:29:25Z</time></trkpt><trkpt lat="36.80492272498428" lon="-108.13273593065556"><ele>1780.3999999999999</ele><time>2026-04-05T21:29:26Z</time></trkpt><trkpt lat="36.80482940147541" lon="-108.13277672794936"><ele>1781.1999999999998</ele><time>2026-04-05T21:29:27Z</time></trkpt><trkpt lat="36.80470094061226" lon="-108.1327681648727"><ele>1782.0</ele><time>2026-04-05T21:29:28Z</time></trkpt><trkpt lat="36.804563138743575" lon="-108.13275570092685"><ele>1782.0</ele><time>2026-04-05T21:29:29Z</time></trkpt><trkpt lat="36.804420021721235" lon="-108.13275770208065"><ele>1782.0</ele><time>2026-04-05T21:29:30Z</time></trkpt><trkpt lat="36.804281310963695" lon="-108.13276792405921"><ele>1782.0</ele><time>2026-04-05T21:29:31Z</time></trkpt><trkpt lat="36.804160006319485" lon="-108.13277702209568"><ele>1782.0</ele><time>2026-04-05T21:29:32Z</time></trkpt><trkpt lat="36.804052271224904" lon="-108.13278019611923"><ele>1781.75</ele><time>2026-04-05T21:29:33Z</time></trkpt><trkpt lat="36.80394815872529" lon="-108.13278540016232"><ele>1781.5</ele><time>2026-04-05T21:29:34Z</time></trkpt><trkpt lat="36.80382744541261" lon="-108.13279153803441"><ele>1781.25</ele><time>2026-04-05T21:29:35Z</time></trkpt><trkpt lat="36.803694331233416" lon="-108.13279348866479"><ele>1781.0</ele><time>2026-04-05T21:29:36Z</time></trkpt><trkpt lat="36.803553359692266" lon="-108.13279424823673"><ele>1779.3333333333333</ele><time>2026-04-05T21:29:37Z</time></trkpt><trkpt lat="36.80339998726075" lon="-108.13279735821011"><ele>1777.6666666666665</ele><time>2026-04-05T21:29:38Z</time></trkpt><trkpt lat="36.80323069040481" lon="-108.13280032922628"><ele>1776.0</ele><time>2026-04-05T21:29:39Z</time></trkpt><trkpt lat="36.80305084457696" lon="-108.13279827031502"><ele>1776.0</ele><time>2026-04-05T21:29:40Z</time></trkpt><trkpt lat="36.80286962755966" lon="-108.13279751429674"><ele>1776.0</ele><time>2026-04-05T21:29:41Z</time></trkpt><trkpt lat="36.8027051290838" lon="-108.13280351404508"><ele>1776.0</ele><time>2026-04-05T21:29:42Z</time></trkpt><trkpt lat="36.80255767849066" lon="-108.1328158406322"><ele>1775.5</ele><time>2026-04-05T21:29:43Z</time></trkpt><trkpt lat="36.80243123887633" lon="-108.13283599516511"><ele>1775.0</ele><time>2026-04-05T21:29:44Z</time></trkpt><trkpt lat="36.80231236214142" lon="-108.1328624605656"><ele>1774.5</ele><time>2026-04-05T21:29:45Z</time></trkpt><trkpt lat="36.8022069601528" lon="-108.13290213436468"><ele>1774.0</ele><time>2026-04-05T21:29:46Z</time></trkpt><trkpt lat="36.80211017154193" lon="-108.13296318269545"><ele>1774.0</ele><time>2026-04-05T21:29:47Z</time></trkpt><trkpt lat="36.80202893465449" lon="-108.13303665372977"><ele>1774.0</ele><time>2026-04-05T21:29:48Z</time></trkpt><trkpt lat="36.80196147784673" lon="-108.1331076020931"><ele>1774.0</ele><time>2026-04-05T21:29:49Z</time></trkpt><trkpt lat="36.80189253605294" lon="-108.13323608411164"><ele>1774.0</ele><time>2026-04-05T21:29:50.999Z</time></trkpt><trkpt lat="36.80190314252801" lon="-108.13333745066282"><ele>1774.0</ele><time>2026-04-05T21:29:51.999Z</time></trkpt><trkpt lat="36.80195837522016" lon="-108.13344265718828"><ele>1774.25</ele><time>2026-04-05T21:29:52.999Z</time></trkpt><trkpt lat="36.802033420152064" lon="-108.1335461581619"><ele>1774.5</ele><time>2026-04-05T21:29:53.999Z</time></trkpt><trkpt lat="36.80209914906363" lon="-108.13365872040625"><ele>1774.75</ele><time>2026-04-05T21:29:54.999Z</time></trkpt><trkpt lat="36.80215672644547" lon="-108.13379357558362"><ele>1775.0</ele><time>2026-04-05T21:29:55.999Z</time></trkpt><trkpt lat="36.802206827992634" lon="-108.13394576813253"><ele>1776.0</ele><time>2026-04-05T21:29:56.999Z</time></trkpt><trkpt lat="36.802249320762954" lon="-108.13411431920407"><ele>1777.0</ele><time>2026-04-05T21:29:57.999Z</time></trkpt><trkpt lat="36.802277277146125" lon="-108.13429388685583"><ele>1778.0</ele><time>2026-04-05T21:29:58.999Z</time></trkpt><trkpt lat="36.80228412485963" lon="-108.13448165191632"><ele>1779.0</ele><time>2026-04-05T21:29:59.999Z</time></trkpt><trkpt lat="36.80228304236115" lon="-108.13467169913369"><ele>1779.0</ele><time>2026-04-05T21:30:00.999Z</time></trkpt><trkpt lat="36.802284474060286" lon="-108.13485590456023"><ele>1779.0</ele><time>2026-04-05T21:30:01.999Z</time></trkpt><trkpt lat="36.80228423232218" lon="-108.13505322690033"><ele>1779.0</ele><time>2026-04-05T21:30:02.999Z</time></trkpt><trkpt lat="36.80227995663842" lon="-108.1352657161883"><ele>1779.3333333333335</ele><time>2026-04-05T21:30:03.999Z</time></trkpt><trkpt lat="36.80227626682511" lon="-108.13548643509012"><ele>1779.6666666666667</ele><time>2026-04-05T21:30:04.999Z</time></trkpt><trkpt lat="36.8022764011036" lon="-108.13570621105033"><ele>1780.0</ele><time>2026-04-05T21:30:05.999Z</time></trkpt><trkpt lat="36.80227856916673" lon="-108.1359122142442"><ele>1779.0</ele><time>2026-04-05T21:30:06.999Z</time></trkpt><trkpt lat="36.80228342474833" lon="-108.13612616167802"><ele>1778.0</ele><time>2026-04-05T21:30:07.999Z</time></trkpt><trkpt lat="36.802285123766374" lon="-108.13631974007889"><ele>1777.0</ele><time>2026-04-05T21:30:08.999Z</time></trkpt><trkpt lat="36.80228369515588" lon="-108.1365042057175"><ele>1775.6666666666667</ele><time>2026-04-05T21:30:09.999Z</time></trkpt><trkpt lat="36.802282703705856" lon="-108.13669294942486"><ele>1774.3333333333335</ele><time>2026-04-05T21:30:10.999Z</time></trkpt><trkpt lat="36.80228614243206" lon="-108.13689466677714"><ele>1773.0</ele><time>2026-04-05T21:30:11.999Z</time></trkpt><trkpt lat="36.80228994047878" lon="-108.13709398593961"><ele>1773.0</ele><time>2026-04-05T21:30:12.999Z</time></trkpt><trkpt lat="36.80228833089491" lon="-108.13727386366037"><ele>1773.0</ele><time>2026-04-05T21:30:13.999Z</time></trkpt><trkpt lat="36.80228479604382" lon="-108.13746576838113"><ele>1773.0</ele><time>2026-04-05T21:30:14.999Z</time></trkpt><trkpt lat="36.802280860836646" lon="-108.13766403877268"><ele>1772.75</ele><time>2026-04-05T21:30:15.999Z</time></trkpt><trkpt lat="36.802280570821615" lon="-108.13786511944613"><ele>1772.5</ele><time>2026-04-05T21:30:16.999Z</time></trkpt><trkpt lat="36.8022818410368" lon="-108.13804531660242"><ele>1772.25</ele><time>2026-04-05T21:30:17.999Z</time></trkpt><trkpt lat="36.80228306684484" lon="-108.13820761070218"><ele>1772.0</ele><time>2026-04-05T21:30:18.999Z</time></trkpt><trkpt lat="36.80228157497879" lon="-108.13834481731736"><ele>1772.3333333333333</ele><time>2026-04-05T21:30:19.999Z</time></trkpt><trkpt lat="36.80228655466172" lon="-108.1384707475741"><ele>1772.6666666666665</ele><time>2026-04-05T21:30:20.999Z</time></trkpt><trkpt lat="36.80227924438312" lon="-108.13859179706462"><ele>1773.0</ele><time>2026-04-05T21:30:21.999Z</time></trkpt><trkpt lat="36.80227522546988" lon="-108.13868958399183"><ele>1773.3333333333335</ele><time>2026-04-05T21:30:22.999Z</time></trkpt><trkpt lat="36.80229959362038" lon="-108.13881966829116"><ele>1773.6666666666667</ele><time>2026-04-05T21:30:23.999Z</time></trkpt><trkpt lat="36.80233305175539" lon="-108.13888706491723"><ele>1774.0</ele><time>2026-04-05T21:30:24.999Z</time></trkpt><trkpt lat="36.80234621324224" lon="-108.1389817440494"><ele>1774.0</ele><time>2026-04-05T21:30:26.999Z</time></trkpt><trkpt lat="36.802175130659016" lon="-108.13893392301807"><ele>1774.0</ele><time>2026-04-05T21:30:28.999Z</time></trkpt><trkpt lat="36.80208713432152" lon="-108.138928214783"><ele>1774.0</ele><time>2026-04-05T21:30:29.999Z</time></trkpt><trkpt lat="36.80198090589705" lon="-108.13890394925808"><ele>1774.0</ele><time>2026-04-05T21:30:30.999Z</time></trkpt><trkpt lat="36.80186200665607" lon="-108.13890466613229"><ele>1774.0</ele><time>2026-04-05T21:30:31.999Z</time></trkpt><trkpt lat="36.80172740288535" lon="-108.13891093717295"><ele>1774.0</ele><time>2026-04-05T21:30:32.999Z</time></trkpt><trkpt lat="36.801578820334086" lon="-108.13891452253333"><ele>1774.0</ele><time>2026-04-05T21:30:33.999Z</time></trkpt><trkpt lat="36.80141115265143" lon="-108.13891650159074"><ele>1774.0</ele><time>2026-04-05T21:30:34.999Z</time></trkpt><trkpt lat="36.80123535503036" lon="-108.13892307753564"><ele>1774.0</ele><time>2026-04-05T21:30:35.999Z</time></trkpt><trkpt lat="36.80106682891197" lon="-108.13892822188585"><ele>1774.0</ele><time>2026-04-05T21:30:36.999Z</time></trkpt><trkpt lat="36.80089385301234" lon="-108.13893269490131"><ele>1773.3333333333335</ele><time>2026-04-05T21:30:37.999Z</time></trkpt><trkpt lat="36.80072646666891" lon="-108.13893803695255"><ele>1772.6666666666665</ele><time>2026-04-05T21:30:38.999Z</time></trkpt><trkpt lat="36.800563864010385" lon="-108.13894335807838"><ele>1772.0</ele><time>2026-04-05T21:30:39.999Z</time></trkpt><trkpt lat="36.800407485659896" lon="-108.138950214968"><ele>1772.0</ele><time>2026-04-05T21:30:40.999Z</time></trkpt><trkpt lat="36.800253059816825" lon="-108.13895389292755"><ele>1772.0</ele><time>2026-04-05T21:30:41.999Z</time></trkpt><trkpt lat="36.800094477417765" lon="-108.13895964282861"><ele>1772.0</ele><time>2026-04-05T21:30:42.999Z</time></trkpt><trkpt lat="36.79993115334385" lon="-108.13896948848117"><ele>1770.6666666666665</ele><time>2026-04-05T21:30:43.999Z</time></trkpt><trkpt lat="36.799767269325095" lon="-108.13897701018358"><ele>1769.3333333333335</ele><time>2026-04-05T21:30:44.999Z</time></trkpt><trkpt lat="36.7996027299293" lon="-108.13898182003219"><ele>1768.0</ele><time>2026-04-05T21:30:45.999Z</time></trkpt><trkpt lat="36.799435651929585" lon="-108.1389879018599"><ele>1767.6666666666667</ele><time>2026-04-05T21:30:46.999Z</time></trkpt><trkpt lat="36.79926998774931" lon="-108.13899272827527"><ele>1767.3333333333335</ele><time>2026-04-05T21:30:47.999Z</time></trkpt><trkpt lat="36.79910602871373" lon="-108.13899315491595"><ele>1767.0</ele><time>2026-04-05T21:30:48.999Z</time></trkpt><trkpt lat="36.798961808532916" lon="-108.13899352366968"><ele>1767.0</ele><time>2026-04-05T21:30:49.999Z</time></trkpt><trkpt lat="36.79881875755053" lon="-108.13899621060261"><ele>1767.0</ele><time>2026-04-05T21:30:50.999Z</time></trkpt><trkpt lat="36.79866688211635" lon="-108.13899888442712"><ele>1767.0</ele><time>2026-04-05T21:30:51.999Z</time></trkpt><trkpt lat="36.7985066904585" lon="-108.13900087215316"><ele>1766.3333333333335</ele><time>2026-04-05T21:30:52.999Z</time></trkpt><trkpt lat="36.79834247837696" lon="-108.13899920593211"><ele>1765.6666666666667</ele><time>2026-04-05T21:30:53.999Z</time></trkpt><trkpt lat="36.79818049948761" lon="-108.13899397807378"><ele>1765.0</ele><time>2026-04-05T21:30:54.999Z</time></trkpt><trkpt lat="36.79802431396293" lon="-108.138992711301"><ele>1765.0</ele><time>2026-04-05T21:30:55.999Z</time></trkpt><trkpt lat="36.79786878553714" lon="-108.13899740532449"><ele>1765.0</ele><time>2026-04-05T21:30:56.999Z</time></trkpt><trkpt lat="36.79771229092211" lon="-108.1390055573315"><ele>1765.0</ele><time>2026-04-05T21:30:57.999Z</time></trkpt><trkpt lat="36.797552782932996" lon="-108.13900955365418"><ele>1765.3333333333335</ele><time>2026-04-05T21:30:58.999Z</time></trkpt><trkpt lat="36.79738953632226" lon="-108.13900976628865"><ele>1765.6666666666665</ele><time>2026-04-05T21:30:59.999Z</time></trkpt><trkpt lat="36.79722354923973" lon="-108.13901497845254"><ele>1766.0</ele><time>2026-04-05T21:31:00.999Z</time></trkpt><trkpt lat="36.79706745527899" lon="-108.13902373268819"><ele>1766.0</ele><time>2026-04-05T21:31:01.999Z</time></trkpt><trkpt lat="36.79691122196923" lon="-108.13903156867944"><ele>1766.0</ele><time>2026-04-05T21:31:02.999Z</time></trkpt><trkpt lat="36.79675940899202" lon="-108.13904061734392"><ele>1766.0</ele><time>2026-04-05T21:31:03.999Z</time></trkpt><trkpt lat="36.79661219527162" lon="-108.13905053896826"><ele>1765.75</ele><time>2026-04-05T21:31:04.999Z</time></trkpt><trkpt lat="36.79646650424157" lon="-108.13906190573118"><ele>1765.5</ele><time>2026-04-05T21:31:05.999Z</time></trkpt><trkpt lat="36.79632286612627" lon="-108.13906934247422"><ele>1765.25</ele><time>2026-04-05T21:31:06.999Z</time></trkpt><trkpt lat="36.79617489561464" lon="-108.13907606658896"><ele>1765.0</ele><time>2026-04-05T21:31:08Z</time></trkpt><trkpt lat="36.796015842465" lon="-108.1390773718704"><ele>1763.0</ele><time>2026-04-05T21:31:09Z</time></trkpt><trkpt lat="36.795853668776886" lon="-108.13907490971887"><ele>1761.0</ele><time>2026-04-05T21:31:10Z</time></trkpt><trkpt lat="36.795686858388756" lon="-108.13907070341902"><ele>1759.0</ele><time>2026-04-05T21:31:11Z</time></trkpt><trkpt lat="36.79551737179345" lon="-108.13906776018926"><ele>1759.0</ele><time>2026-04-05T21:31:12Z</time></trkpt><trkpt lat="36.79534711410555" lon="-108.13906729216195"><ele>1759.0</ele><time>2026-04-05T21:31:13Z</time></trkpt><trkpt lat="36.79517830587688" lon="-108.13906524490345"><ele>1759.0</ele><time>2026-04-05T21:31:14Z</time></trkpt><trkpt lat="36.79500944863596" lon="-108.13905756482747"><ele>1759.0</ele><time>2026-04-05T21:31:15Z</time></trkpt><trkpt lat="36.79484614262765" lon="-108.13905141922021"><ele>1759.0</ele><time>2026-04-05T21:31:16Z</time></trkpt><trkpt lat="36.794698195311604" lon="-108.1390524587799"><ele>1759.0</ele><time>2026-04-05T21:31:17Z</time></trkpt><trkpt lat="36.79453878601414" lon="-108.13906026590911"><ele>1759.0</ele><time>2026-04-05T21:31:18Z</time></trkpt><trkpt lat="36.79437324991005" lon="-108.13906543617446"><ele>1759.0</ele><time>2026-04-05T21:31:19Z</time></trkpt><trkpt lat="36.79420274338944" lon="-108.13906245609886"><ele>1759.0</ele><time>2026-04-05T21:31:20Z</time></trkpt><trkpt lat="36.794027220880345" lon="-108.13906153400247"><ele>1759.0</ele><time>2026-04-05T21:31:21Z</time></trkpt><trkpt lat="36.79384915553932" lon="-108.13906320853069"><ele>1759.0</ele><time>2026-04-05T21:31:22Z</time></trkpt><trkpt lat="36.79367204249643" lon="-108.13906807466684"><ele>1759.0</ele><time>2026-04-05T21:31:23Z</time></trkpt><trkpt lat="36.793507610327204" lon="-108.1390728274715"><ele>1759.0</ele><time>2026-04-05T21:31:24Z</time></trkpt><trkpt lat="36.7933494327201" lon="-108.13907435409396"><ele>1759.0</ele><time>2026-04-05T21:31:25Z</time></trkpt><trkpt lat="36.793184191199835" lon="-108.1390732894844"><ele>1759.0</ele><time>2026-04-05T21:31:26Z</time></trkpt><trkpt lat="36.79301757996306" lon="-108.13907377931727"><ele>1759.0</ele><time>2026-04-05T21:31:27Z</time></trkpt><trkpt lat="36.79285003605158" lon="-108.13907801486188"><ele>1759.0</ele><time>2026-04-05T21:31:28Z</time></trkpt><trkpt lat="36.79269004006434" lon="-108.13908124920023"><ele>1759.0</ele><time>2026-04-05T21:31:29Z</time></trkpt><trkpt lat="36.7925394083252" lon="-108.13908084900103"><ele>1758.75</ele><time>2026-04-05T21:31:30Z</time></trkpt><trkpt lat="36.79238041344545" lon="-108.13908266225448"><ele>1758.5</ele><time>2026-04-05T21:31:31Z</time></trkpt><trkpt lat="36.79223979307824" lon="-108.13908689683016"><ele>1758.25</ele><time>2026-04-05T21:31:32Z</time></trkpt><trkpt lat="36.792108924315016" lon="-108.13909064692288"><ele>1758.0</ele><time>2026-04-05T21:31:33Z</time></trkpt><trkpt lat="36.79198700978443" lon="-108.13908973614006"><ele>1758.0</ele><time>2026-04-05T21:31:34Z</time></trkpt><trkpt lat="36.7918731633208" lon="-108.1390923449906"><ele>1758.0000000000002</ele><time>2026-04-05T21:31:35Z</time></trkpt><trkpt lat="36.79176168757428" lon="-108.13910366560481"><ele>1758.0000000000002</ele><time>2026-04-05T21:31:36Z</time></trkpt><trkpt lat="36.791664278235594" lon="-108.13912047723714"><ele>1758.0</ele><time>2026-04-05T21:31:37Z</time></trkpt><trkpt lat="36.79158012151621" lon="-108.1391523730773"><ele>1758.0</ele><time>2026-04-05T21:31:38Z</time></trkpt><trkpt lat="36.79150349103714" lon="-108.13919298808511"><ele>1757.2</ele><time>2026-04-05T21:31:39Z</time></trkpt><trkpt lat="36.791441778999044" lon="-108.13924134729284"><ele>1756.4</ele><time>2026-04-05T21:31:40Z</time></trkpt><trkpt lat="36.791359110004656" lon="-108.13921320463159"><ele>1755.6000000000001</ele><time>2026-04-05T21:31:41Z</time></trkpt><trkpt lat="36.791292799047866" lon="-108.13913495638067"><ele>1754.8000000000002</ele><time>2026-04-05T21:31:42Z</time></trkpt><trkpt lat="36.791194908547354" lon="-108.13910726164958"><ele>1754.0</ele><time>2026-04-05T21:31:43Z</time></trkpt><trkpt lat="36.79108269837285" lon="-108.1390955029309"><ele>1752.75</ele><time>2026-04-05T21:31:44Z</time></trkpt><trkpt lat="36.790962254294236" lon="-108.13909826529928"><ele>1751.5</ele><time>2026-04-05T21:31:45Z</time></trkpt><trkpt lat="36.790828617392485" lon="-108.13910507840016"><ele>1750.25</ele><time>2026-04-05T21:31:46Z</time></trkpt><trkpt lat="36.79067459556397" lon="-108.1391092516748"><ele>1749.0</ele><time>2026-04-05T21:31:47Z</time></trkpt><trkpt lat="36.790512081208654" lon="-108.13911044675123"><ele>1749.0</ele><time>2026-04-05T21:31:48Z</time></trkpt><trkpt lat="36.79035584192936" lon="-108.13911233832296"><ele>1749.0</ele><time>2026-04-05T21:31:49Z</time></trkpt><trkpt lat="36.79020082758312" lon="-108.1391166137188"><ele>1749.0</ele><time>2026-04-05T21:31:50Z</time></trkpt><trkpt lat="36.79004647011496" lon="-108.13911844299979"><ele>1747.3333333333335</ele><time>2026-04-05T21:31:51Z</time></trkpt><trkpt lat="36.789893584429834" lon="-108.13912071340131"><ele>1745.6666666666667</ele><time>2026-04-05T21:31:52Z</time></trkpt><trkpt lat="36.78974227856752" lon="-108.13912504129277"><ele>1744.0</ele><time>2026-04-05T21:31:53Z</time></trkpt><trkpt lat="36.789592429115345" lon="-108.13912867665343"><ele>1744.0</ele><time>2026-04-05T21:31:54Z</time></trkpt><trkpt lat="36.78944481932336" lon="-108.13912859028565"><ele>1744.0</ele><time>2026-04-05T21:31:55Z</time></trkpt><trkpt lat="36.78928652257629" lon="-108.13912782349905"><ele>1744.0</ele><time>2026-04-05T21:31:56Z</time></trkpt><trkpt lat="36.78911578090987" lon="-108.1391244919667"><ele>1742.0</ele><time>2026-04-05T21:31:57Z</time></trkpt><trkpt lat="36.788938937300664" lon="-108.13912004074491"><ele>1740.0</ele><time>2026-04-05T21:31:58Z</time></trkpt><trkpt lat="36.78876122081422" lon="-108.1391190827137"><ele>1738.0</ele><time>2026-04-05T21:31:59Z</time></trkpt><trkpt lat="36.78858011337932" lon="-108.13911875984051"><ele>1737.3333333333335</ele><time>2026-04-05T21:32:00Z</time></trkpt><trkpt lat="36.788414036263596" lon="-108.13911817818189"><ele>1736.6666666666665</ele><time>2026-04-05T21:32:01Z</time></trkpt><trkpt lat="36.788255754088226" lon="-108.13911812235682"><ele>1736.0</ele><time>2026-04-05T21:32:02Z</time></trkpt><trkpt lat="36.788086078005776" lon="-108.13911926325167"><ele>1736.0</ele><time>2026-04-05T21:32:03Z</time></trkpt><trkpt lat="36.787914838483964" lon="-108.13912335325"><ele>1736.0</ele><time>2026-04-05T21:32:04Z</time></trkpt><trkpt lat="36.78774001532854" lon="-108.13912955278151"><ele>1736.0</ele><time>2026-04-05T21:32:05Z</time></trkpt><trkpt lat="36.78756117537055" lon="-108.13913453363554"><ele>1735.3333333333333</ele><time>2026-04-05T21:32:06Z</time></trkpt><trkpt lat="36.78737998475489" lon="-108.13914005105451"><ele>1734.6666666666665</ele><time>2026-04-05T21:32:07Z</time></trkpt><trkpt lat="36.7872050996225" lon="-108.13914523818546"><ele>1734.0</ele><time>2026-04-05T21:32:08Z</time></trkpt><trkpt lat="36.78704779963394" lon="-108.13915274192888"><ele>1734.0</ele><time>2026-04-05T21:32:09Z</time></trkpt><trkpt lat="36.78689266769671" lon="-108.13915991139807"><ele>1734.0</ele><time>2026-04-05T21:32:10Z</time></trkpt><trkpt lat="36.78673146826563" lon="-108.13916036397586"><ele>1734.0</ele><time>2026-04-05T21:32:11Z</time></trkpt><trkpt lat="36.78656888820748" lon="-108.13916364339208"><ele>1733.0</ele><time>2026-04-05T21:32:12Z</time></trkpt><trkpt lat="36.786405450948116" lon="-108.13917272187213"><ele>1732.0</ele><time>2026-04-05T21:32:13Z</time></trkpt><trkpt lat="36.786239119786245" lon="-108.13917632561355"><ele>1731.0</ele><time>2026-04-05T21:32:14Z</time></trkpt><trkpt lat="36.7860727819835" lon="-108.13917687970402"><ele>1730.3333333333335</ele><time>2026-04-05T21:32:15Z</time></trkpt><trkpt lat="36.785906178540976" lon="-108.13917865303284"><ele>1729.6666666666667</ele><time>2026-04-05T21:32:16Z</time></trkpt><trkpt lat="36.78574159781945" lon="-108.13918301249464"><ele>1729.0</ele><time>2026-04-05T21:32:17Z</time></trkpt><trkpt lat="36.78558323943083" lon="-108.13918850008979"><ele>1729.0</ele><time>2026-04-05T21:32:18Z</time></trkpt><trkpt lat="36.78543240974261" lon="-108.13919268633475"><ele>1729.0</ele><time>2026-04-05T21:32:19Z</time></trkpt><trkpt lat="36.78527154392789" lon="-108.13919173576585"><ele>1729.0</ele><time>2026-04-05T21:32:20Z</time></trkpt><trkpt lat="36.78510409164511" lon="-108.13919177042247"><ele>1727.6666666666667</ele><time>2026-04-05T21:32:21Z</time></trkpt><trkpt lat="36.78493021290284" lon="-108.13919812690685"><ele>1726.3333333333335</ele><time>2026-04-05T21:32:22Z</time></trkpt><trkpt lat="36.78475211236798" lon="-108.13920218712903"><ele>1725.0</ele><time>2026-04-05T21:32:23Z</time></trkpt><trkpt lat="36.784578428519204" lon="-108.13920400719304"><ele>1725.0</ele><time>2026-04-05T21:32:24Z</time></trkpt><trkpt lat="36.78442181761151" lon="-108.13920649756938"><ele>1725.0</ele><time>2026-04-05T21:32:25Z</time></trkpt><trkpt lat="36.78427455701841" lon="-108.13920552017493"><ele>1725.0</ele><time>2026-04-05T21:32:26Z</time></trkpt><trkpt lat="36.78412071557703" lon="-108.1392030926575"><ele>1723.6666666666665</ele><time>2026-04-05T21:32:27Z</time></trkpt><trkpt lat="36.7839569909002" lon="-108.1392042443709"><ele>1722.3333333333333</ele><time>2026-04-05T21:32:27.999Z</time></trkpt><trkpt lat="36.78378867785039" lon="-108.13920983003513"><ele>1721.0</ele><time>2026-04-05T21:32:28.999Z</time></trkpt><trkpt lat="36.783616906176725" lon="-108.13921329826515"><ele>1720.3333333333333</ele><time>2026-04-05T21:32:29.999Z</time></trkpt><trkpt lat="36.7834505969086" lon="-108.13921715717757"><ele>1719.6666666666665</ele><time>2026-04-05T21:32:30.999Z</time></trkpt><trkpt lat="36.783294721413576" lon="-108.1392190076942"><ele>1719.0</ele><time>2026-04-05T21:32:31.999Z</time></trkpt><trkpt lat="36.783125574074404" lon="-108.13922304015883"><ele>1719.0</ele><time>2026-04-05T21:32:32.999Z</time></trkpt><trkpt lat="36.782951928769556" lon="-108.13922612480316"><ele>1719.0</ele><time>2026-04-05T21:32:33.999Z</time></trkpt><trkpt lat="36.78277387492756" lon="-108.13922433625189"><ele>1719.0</ele><time>2026-04-05T21:32:34.999Z</time></trkpt><trkpt lat="36.78259446659184" lon="-108.13922006141578"><ele>1718.0</ele><time>2026-04-05T21:32:35.999Z</time></trkpt><trkpt lat="36.782434689382896" lon="-108.13922013864384"><ele>1717.0</ele><time>2026-04-05T21:32:36.999Z</time></trkpt><trkpt lat="36.78226869268964" lon="-108.1392251626518"><ele>1716.0</ele><time>2026-04-05T21:32:37.999Z</time></trkpt><trkpt lat="36.78209688951164" lon="-108.13923237917832"><ele>1716.0</ele><time>2026-04-05T21:32:38.999Z</time></trkpt><trkpt lat="36.78192269551979" lon="-108.13923505181764"><ele>1716.0</ele><time>2026-04-05T21:32:39.999Z</time></trkpt><trkpt lat="36.781756017522866" lon="-108.13923176494734"><ele>1716.0</ele><time>2026-04-05T21:32:40.999Z</time></trkpt><trkpt lat="36.781597685248805" lon="-108.13922669891157"><ele>1715.0</ele><time>2026-04-05T21:32:41.999Z</time></trkpt><trkpt lat="36.781435427134326" lon="-108.13922361918092"><ele>1714.0</ele><time>2026-04-05T21:32:42.999Z</time></trkpt><trkpt lat="36.78127615329683" lon="-108.13922378551563"><ele>1713.0</ele><time>2026-04-05T21:32:43.999Z</time></trkpt><trkpt lat="36.781102236018405" lon="-108.13922666027901"><ele>1711.0</ele><time>2026-04-05T21:32:44.999Z</time></trkpt><trkpt lat="36.78092427280624" lon="-108.13923041793225"><ele>1709.0</ele><time>2026-04-05T21:32:45.999Z</time></trkpt><trkpt lat="36.78075308833939" lon="-108.13923407868032"><ele>1707.0</ele><time>2026-04-05T21:32:46.999Z</time></trkpt><trkpt lat="36.780598412292896" lon="-108.1392364968921"><ele>1707.0</ele><time>2026-04-05T21:32:47.999Z</time></trkpt><trkpt lat="36.78044586699763" lon="-108.1392388222854"><ele>1707.0</ele><time>2026-04-05T21:32:48.999Z</time></trkpt><trkpt lat="36.78028745742876" lon="-108.13924209534899"><ele>1707.0</ele><time>2026-04-05T21:32:49.999Z</time></trkpt><trkpt lat="36.78012489416748" lon="-108.13924614436894"><ele>1706.6666666666665</ele><time>2026-04-05T21:32:50.999Z</time></trkpt><trkpt lat="36.779957069239316" lon="-108.13924726567879"><ele>1706.3333333333333</ele><time>2026-04-05T21:32:51.999Z</time></trkpt><trkpt lat="36.779789637952824" lon="-108.13924917506297"><ele>1706.0</ele><time>2026-04-05T21:32:52.999Z</time></trkpt><trkpt lat="36.77963837592932" lon="-108.13925111882979"><ele>1706.0</ele><time>2026-04-05T21:32:53.999Z</time></trkpt><trkpt lat="36.77947946187293" lon="-108.13925694050465"><ele>1706.0</ele><time>2026-04-05T21:32:54.999Z</time></trkpt><trkpt lat="36.77932006874268" lon="-108.13925697487608"><ele>1706.0</ele><time>2026-04-05T21:32:55.999Z</time></trkpt><trkpt lat="36.779160999515405" lon="-108.13925730906098"><ele>1705.5</ele><time>2026-04-05T21:32:56.999Z</time></trkpt><trkpt lat="36.77901607451081" lon="-108.13925608201015"><ele>1705.0</ele><time>2026-04-05T21:32:57.999Z</time></trkpt><trkpt lat="36.7788799332869" lon="-108.13925175822983"><ele>1704.5</ele><time>2026-04-05T21:32:58.999Z</time></trkpt><trkpt lat="36.778737524903676" lon="-108.13925232441436"><ele>1704.0</ele><time>2026-04-05T21:32:59.999Z</time></trkpt><trkpt lat="36.77858731815724" lon="-108.13925727523537"><ele>1703.6666666666665</ele><time>2026-04-05T21:33:00.999Z</time></trkpt><trkpt lat="36.7784301343977" lon="-108.13926389491684"><ele>1703.3333333333333</ele><time>2026-04-05T21:33:01.999Z</time></trkpt><trkpt lat="36.77826703498008" lon="-108.1392664848529"><ele>1703.0</ele><time>2026-04-05T21:33:02.999Z</time></trkpt><trkpt lat="36.77809972472892" lon="-108.13927059723176"><ele>1703.0</ele><time>2026-04-05T21:33:03.999Z</time></trkpt><trkpt lat="36.777945808922134" lon="-108.13927138516863"><ele>1703.0</ele><time>2026-04-05T21:33:04.999Z</time></trkpt><trkpt lat="36.777799274534964" lon="-108.13927410175182"><ele>1703.0</ele><time>2026-04-05T21:33:05.999Z</time></trkpt><trkpt lat="36.777656816439254" lon="-108.13927679825912"><ele>1703.0</ele><time>2026-04-05T21:33:06.999Z</time></trkpt><trkpt lat="36.77752845121728" lon="-108.13927439442166"><ele>1702.0</ele><time>2026-04-05T21:33:07.999Z</time></trkpt><trkpt lat="36.777399808735076" lon="-108.13927470741056"><ele>1701.0</ele><time>2026-04-05T21:33:08.999Z</time></trkpt><trkpt lat="36.77728423175" lon="-108.13927736083508"><ele>1700.0</ele><time>2026-04-05T21:33:09.999Z</time></trkpt><trkpt lat="36.77717677449882" lon="-108.13927782910143"><ele>1699.0</ele><time>2026-04-05T21:33:10.999Z</time></trkpt><trkpt lat="36.777078946607524" lon="-108.13927095757752"><ele>1699.0</ele><time>2026-04-05T21:33:11.999Z</time></trkpt><trkpt lat="36.77700205825031" lon="-108.13926059005621"><ele>1699.0</ele><time>2026-04-05T21:33:12.999Z</time></trkpt><trkpt lat="36.77690676769556" lon="-108.1392616497213"><ele>1699.0</ele><time>2026-04-05T21:33:15Z</time></trkpt><trkpt lat="36.77689394921426" lon="-108.13903221120265"><ele>1699.0</ele><time>2026-04-05T21:33:16Z</time></trkpt><trkpt lat="36.77691068356857" lon="-108.1389034526745"><ele>1699.0</ele><time>2026-04-05T21:33:17Z</time></trkpt><trkpt lat="36.77689593381363" lon="-108.13876588248732"><ele>1699.0</ele><time>2026-04-05T21:33:18Z</time></trkpt><trkpt lat="36.7768959338122" lon="-108.13864502695823"><ele>1699.0</ele><time>2026-04-05T21:33:19Z</time></trkpt><trkpt lat="36.77690549086229" lon="-108.13853103618197"><ele>1699.0</ele><time>2026-04-05T21:33:20Z</time></trkpt><trkpt lat="36.776893797805116" lon="-108.13843458663312"><ele>1699.0</ele><time>2026-04-05T21:33:21Z</time></trkpt><trkpt lat="36.7768792676179" lon="-108.1383227303899"><ele>1698.2</ele><time>2026-04-05T21:33:23Z</time></trkpt><trkpt lat="36.77676384750476" lon="-108.13833826595062"><ele>1697.4</ele><time>2026-04-05T21:33:24Z</time></trkpt><trkpt lat="36.77667342616039" lon="-108.13831765789864"><ele>1696.6</ele><time>2026-04-05T21:33:25Z</time></trkpt><trkpt lat="36.77657677606692" lon="-108.13832217892943"><ele>1695.8</ele><time>2026-04-05T21:33:26Z</time></trkpt><trkpt lat="36.77647266122101" lon="-108.13832723677112"><ele>1695.0</ele><time>2026-04-05T21:33:27Z</time></trkpt><trkpt lat="36.776379830952" lon="-108.13833539603607"><ele>1695.0</ele><time>2026-04-05T21:33:28Z</time></trkpt><trkpt lat="36.776288641757205" lon="-108.13833357439422"><ele>1695.0</ele><time>2026-04-05T21:33:29Z</time></trkpt><trkpt lat="36.77620731846401" lon="-108.13832867399617"><ele>1695.0</ele><time>2026-04-05T21:33:30Z</time></trkpt><trkpt lat="36.776138257772374" lon="-108.13832302690074"><ele>1695.0</ele><time>2026-04-05T21:33:31Z</time></trkpt><trkpt lat="36.776047224115054" lon="-108.13834008481024"><ele>1695.0</ele><time>2026-04-05T21:33:33Z</time></trkpt><trkpt lat="36.77603930607462" lon="-108.13808425457444"><ele>1693.0</ele><time>2026-04-05T21:33:38Z</time></trkpt><trkpt lat="36.775994884995455" lon="-108.13802695376057"><ele>1690.0</ele><time>2026-04-05T21:40:34Z</time></trkpt></trkseg></trk></gpx>